
Distance (Route):
Temperature : 0°C
Humidity : 0%
Pressure : 0hPa| Receiver | Frames | First received | Last received |
|---|---|---|---|
| PETON7-10 | 420 | 2026-09-02 23:32:40 | 2026-09-03 01:52:24 |
| OM5KV | 411 | 2026-09-03 01:15:57 | 2026-09-03 01:53:48 |
| OE5MMP-10 | 340 | 2026-09-03 00:19:58 | 2026-09-03 01:30:04 |
| ATIDSZ-14 | 227 | 2026-09-03 00:13:39 | 2026-09-03 01:51:42 |
| OE3JTB-15 | 224 | 2026-09-02 23:31:10 | 2026-09-03 01:53:15 |
| OE3OSB-13 | 224 | 2026-09-02 23:31:26 | 2026-09-03 01:52:47 |
| S52SK | 149 | 2026-09-02 23:41:11 | 2026-09-03 01:45:41 |
| OE5DXL-15 | 141 | 2026-09-02 23:54:34 | 2026-09-03 01:37:27 |
| OK1ALN | 73 | 2026-09-03 00:44:51 | 2026-09-03 01:25:18 |
| HA6NAB-11 | 54 | 2026-09-02 23:56:24 | 2026-09-03 01:36:33 |
| PG1ADW-2 | 45 | 2026-09-02 23:43:44 | 2026-09-03 01:19:39 |
| LZ4TU-5 | 8 | 2026-09-03 01:21:04 | 2026-09-03 01:26:35 |
| OK1SLM-15 | 6 | 2026-09-03 01:09:01 | 2026-09-03 01:18:55 |
| 9A1FER-10 | 1 | 2026-09-03 01:11:41 | 2026-09-03 01:11:41 |
| Receiver | Date | Latitude | Longitude | Direction | Speed | Altitude | Climb | Temperature | Humidity | Pressure | Voltage | Killtimer | Uptime | BKT | XDATA |
|---|---|---|---|---|---|---|---|---|---|---|---|---|---|---|---|
| OM5KV | 2026-09-03 01:53:48 | 47.78306 | 17.35331 | 134° | 29km/h | 334m | -10.1m/s | 0°C | 0% | 0hPa | 0V | 00:00:00 | 00:00:00 | 00:00:00 | |
| OM5KV | 2026-09-03 01:53:45 | 47.78324 | 17.35301 | 134° | 37km/h | 368m | -8.2m/s | 0°C | 0% | 0hPa | 0V | 00:00:00 | 00:00:00 | 00:00:00 | |
| OM5KV | 2026-09-03 01:53:44 | 47.78330 | 17.35292 | 135° | 35km/h | 375m | -5.5m/s | 0°C | 0% | 0hPa | 0V | 00:00:00 | 00:00:00 | 00:00:00 | |
| OM5KV | 2026-09-03 01:53:39 | 47.78363 | 17.35242 | 137° | 38km/h | 420m | -8.5m/s | 0°C | 0% | 0hPa | 0V | 00:00:00 | 00:00:00 | 00:00:00 | |
| OM5KV | 2026-09-03 01:53:38 | 47.78370 | 17.35232 | 139° | 37km/h | 430m | -9.5m/s | 0°C | 0% | 0hPa | 0V | 00:00:00 | 00:00:00 | 00:00:00 | |
| OM5KV | 2026-09-03 01:53:36 | 47.78384 | 17.35214 | 139° | 37km/h | 450m | -8.7m/s | 0°C | 0% | 0hPa | 0V | 00:00:00 | 00:00:00 | 00:00:00 | |
| OM5KV | 2026-09-03 01:53:32 | 47.78412 | 17.35179 | 149° | 38km/h | 486m | -8.1m/s | 0°C | 0% | 0hPa | 0V | 00:00:00 | 00:00:00 | 00:00:00 | |
| OM5KV | 2026-09-03 01:53:31 | 47.78421 | 17.35171 | 147° | 37km/h | 495m | -8.2m/s | 0°C | 0% | 0hPa | 0V | 00:00:00 | 00:00:00 | 00:00:00 | |
| OM5KV | 2026-09-03 01:53:28 | 47.78445 | 17.35149 | 151° | 37km/h | 522m | -8.9m/s | 0°C | 0% | 0hPa | 0V | 00:00:00 | 00:00:00 | 00:00:00 | |
| OM5KV | 2026-09-03 01:53:23 | 47.78487 | 17.35113 | 152° | 35km/h | 572m | -8.4m/s | 0°C | 0% | 0hPa | 0V | 00:00:00 | 00:00:00 | 00:00:00 | |
| OM5KV | 2026-09-03 01:53:22 | 47.78495 | 17.35106 | 151° | 37km/h | 581m | -8.1m/s | 0°C | 0% | 0hPa | 0V | 00:00:00 | 00:00:00 | 00:00:00 | |
| OM5KV | 2026-09-03 01:53:18 | 47.78530 | 17.35078 | 156° | 40km/h | 618m | -8.6m/s | 0°C | 0% | 0hPa | 0V | 00:00:00 | 00:00:00 | 00:00:00 | |
| OM5KV | 2026-09-03 01:53:15 | 47.78558 | 17.35058 | 144° | 33km/h | 649m | -9.0m/s | 0°C | 0% | 0hPa | 0V | 00:00:00 | 00:00:00 | 00:00:00 | |
| OE3JTB-15 | 2026-09-03 01:53:15 | 47.78558 | 17.35058 | 143° | 35km/h | 649m | -8.9m/s | 0°C | 0% | 0hPa | 0V | 00:00:00 | 00:00:00 | 00:00:00 | |
| OM5KV | 2026-09-03 01:53:12 | 47.78582 | 17.35039 | 151° | 37km/h | 677m | -7.4m/s | 0°C | 0% | 0hPa | 0V | 00:00:00 | 00:00:00 | 00:00:00 | |
| OM5KV | 2026-09-03 01:53:12 | 47.78582 | 17.35039 | 151° | 37km/h | 677m | -7.4m/s | 0°C | 0% | 0hPa | 0V | 00:00:00 | 00:00:00 | 00:00:00 | |
| OE3JTB-15 | 2026-09-03 01:53:10 | 47.78600 | 17.35026 | 157° | 42km/h | 697m | -8.8m/s | 0°C | 0% | 0hPa | 0V | 00:00:00 | 00:00:00 | 00:00:00 | |
| OE3JTB-15 | 2026-09-03 01:53:08 | 47.78618 | 17.35014 | 153° | 40km/h | 715m | -7.6m/s | 0°C | 0% | 0hPa | 0V | 00:00:00 | 00:00:00 | 00:00:00 | |
| OM5KV | 2026-09-03 01:53:07 | 47.78627 | 17.35008 | 160° | 42km/h | 724m | -9.4m/s | 0°C | 0% | 0hPa | 0V | 00:00:00 | 00:00:00 | 00:00:00 | |
| OE3JTB-15 | 2026-09-03 01:53:06 | 47.78636 | 17.35003 | 158° | 35km/h | 734m | -8.5m/s | 0°C | 0% | 0hPa | 0V | 00:00:00 | 00:00:00 | 00:00:00 | |
| OE3JTB-15 | 2026-09-03 01:53:04 | 47.78653 | 17.34991 | 150° | 40km/h | 753m | -7.3m/s | 0°C | 0% | 0hPa | 0V | 00:00:00 | 00:00:00 | 00:00:00 | |
| OM5KV | 2026-09-03 01:53:01 | 47.78679 | 17.34971 | 152° | 38km/h | 781m | -8.9m/s | 0°C | 0% | 0hPa | 0V | 00:00:00 | 00:00:00 | 00:00:00 | |
| OE3JTB-15 | 2026-09-03 01:53:01 | 47.78679 | 17.34971 | 152° | 38km/h | 781m | -8.9m/s | 0°C | 0% | 0hPa | 0V | 00:00:00 | 00:00:00 | 00:00:00 | |
| OE3OSB-13 | 2026-09-03 01:52:47 | 47.78795 | 17.34873 | 148° | 38km/h | 919m | -9.3m/s | 18.8°C | 53.9% | 922.5hPa | 0V | 00:00:00 | 00:00:00 | 00:00:00 | |
| OE3JTB-15 | 2026-09-03 01:52:46 | 47.78804 | 17.34865 | 145° | 37km/h | 930m | -7.0m/s | 0°C | 0% | 0hPa | 0V | 00:00:00 | 00:00:00 | 00:00:00 | |
| OM5KV | 2026-09-03 01:52:45 | 47.78811 | 17.34856 | 141° | 37km/h | 939m | -7.6m/s | 0°C | 0% | 0hPa | 0V | 00:00:00 | 00:00:00 | 00:00:00 | |
| OM5KV | 2026-09-03 01:52:44 | 47.78820 | 17.34848 | 150° | 38km/h | 950m | -8.2m/s | 0°C | 0% | 0hPa | 0V | 00:00:00 | 00:00:00 | 00:00:00 | |
| OE3JTB-15 | 2026-09-03 01:52:44 | 47.78820 | 17.34848 | 150° | 38km/h | 950m | -8.1m/s | 0°C | 0% | 0hPa | 0V | 00:00:00 | 00:00:00 | 00:00:00 | |
| OE3JTB-15 | 2026-09-03 01:52:42 | 47.78835 | 17.34833 | 133° | 37km/h | 970m | -5.1m/s | 0°C | 0% | 0hPa | 0V | 00:00:00 | 00:00:00 | 00:00:00 | |
| OE3JTB-15 | 2026-09-03 01:52:40 | 47.78848 | 17.34815 | 138° | 35km/h | 987m | -8.2m/s | 0°C | 0% | 0hPa | 0V | 00:00:00 | 00:00:00 | 00:00:00 | |
| OM5KV | 2026-09-03 01:52:39 | 47.78855 | 17.34805 | 137° | 35km/h | 996m | -6.3m/s | 0°C | 0% | 0hPa | 0V | 00:00:00 | 00:00:00 | 00:00:00 | |
| OM5KV | 2026-09-03 01:52:38 | 47.78862 | 17.34797 | 142° | 35km/h | 1004m | -8.3m/s | 0°C | 0% | 0hPa | 0V | 00:00:00 | 00:00:00 | 00:00:00 | |
| OE3JTB-15 | 2026-09-03 01:52:38 | 47.78862 | 17.34797 | 142° | 35km/h | 1004m | -8.3m/s | 0°C | 0% | 0hPa | 0V | 00:00:00 | 00:00:00 | 00:00:00 | |
| OE3JTB-15 | 2026-09-03 01:52:36 | 47.78875 | 17.34779 | 135° | 37km/h | 1023m | -7.9m/s | 0°C | 0% | 0hPa | 0V | 00:00:00 | 00:00:00 | 00:00:00 | |
| OE3JTB-15 | 2026-09-03 01:52:34 | 47.78887 | 17.34759 | 129° | 33km/h | 1042m | -8.1m/s | 0°C | 0% | 0hPa | 0V | 00:00:00 | 00:00:00 | 00:00:00 | |
| OM5KV | 2026-09-03 01:52:33 | 47.78893 | 17.34749 | 132° | 37km/h | 1052m | -8.0m/s | 0°C | 0% | 0hPa | 0V | 00:00:00 | 00:00:00 | 00:00:00 | |
| OM5KV | 2026-09-03 01:52:33 | 47.78893 | 17.34749 | 132° | 37km/h | 1052m | -8.0m/s | 0°C | 0% | 0hPa | 0V | 00:00:00 | 00:00:00 | 00:00:00 | |
| OM5KV | 2026-09-03 01:52:32 | 47.78900 | 17.34740 | 137° | 37km/h | 1062m | -9.6m/s | 0°C | 0% | 0hPa | 0V | 00:00:00 | 00:00:00 | 00:00:00 | |
| OE3JTB-15 | 2026-09-03 01:52:32 | 47.78899 | 17.34740 | 137° | 37km/h | 1062m | -9.5m/s | 0°C | 0% | 0hPa | 0V | 00:00:00 | 00:00:00 | 00:00:00 | |
| OE3JTB-15 | 2026-09-03 01:52:29 | 47.78916 | 17.34709 | 133° | 37km/h | 1091m | -8.4m/s | 0°C | 0% | 0hPa | 0V | 00:00:00 | 00:00:00 | 00:00:00 | |
| OE3JTB-15 | 2026-09-03 01:52:27 | 47.78927 | 17.34688 | 126° | 37km/h | 1109m | -9.1m/s | 0°C | 0% | 0hPa | 0V | 00:00:00 | 00:00:00 | 00:00:00 | |
| OM5KV | 2026-09-03 01:52:26 | 47.78933 | 17.34678 | 132° | 37km/h | 1119m | -9.1m/s | 0°C | 0% | 0hPa | 0V | 00:00:00 | 00:00:00 | 00:00:00 | |
| OE3JTB-15 | 2026-09-03 01:52:25 | 47.78938 | 17.34669 | 127° | 33km/h | 1129m | -8.2m/s | 0°C | 0% | 0hPa | 0V | 00:00:00 | 00:00:00 | 00:00:00 | |
| PETON7-10 | 2026-09-03 01:52:24 | 47.78943 | 17.34658 | 124° | 33km/h | 1139m | -8.4m/s | 0°C | 0% | 0hPa | 0V | 00:00:00 | 00:00:00 | 00:00:00 | |
| OM5KV | 2026-09-03 01:52:23 | 47.78948 | 17.34648 | 122° | 33km/h | 1148m | -8.1m/s | 0°C | 0% | 0hPa | 0V | 00:00:00 | 00:00:00 | 00:00:00 | |
| OE3JTB-15 | 2026-09-03 01:52:23 | 47.78948 | 17.34648 | 122° | 33km/h | 1148m | -8.0m/s | 0°C | 0% | 0hPa | 0V | 00:00:00 | 00:00:00 | 00:00:00 | |
| OE3JTB-15 | 2026-09-03 01:52:21 | 47.78957 | 17.34628 | 126° | 33km/h | 1167m | -7.7m/s | 0°C | 0% | 0hPa | 0V | 00:00:00 | 00:00:00 | 00:00:00 | |
| PETON7-10 | 2026-09-03 01:52:20 | 47.78962 | 17.34618 | 120° | 33km/h | 1176m | -7.7m/s | 0°C | 0% | 0hPa | 0V | 00:00:00 | 00:00:00 | 00:00:00 | |
| OE3JTB-15 | 2026-09-03 01:52:19 | 47.78966 | 17.34607 | 128° | 33km/h | 1185m | -8.3m/s | 0°C | 0% | 0hPa | 0V | 00:00:00 | 00:00:00 | 00:00:00 | |
| OE3JTB-15 | 2026-09-03 01:52:17 | 47.78976 | 17.34588 | 124° | 33km/h | 1205m | -8.5m/s | 0°C | 0% | 0hPa | 0V | 00:00:00 | 00:00:00 | 00:00:00 | |
| OM5KV | 2026-09-03 01:52:16 | 47.78981 | 17.34578 | 137° | 33km/h | 1215m | -9.0m/s | 0°C | 0% | 0hPa | 0V | 00:00:00 | 00:00:00 | 00:00:00 | |
| OM5KV | 2026-09-03 01:52:15 | 47.78987 | 17.34569 | 131° | 35km/h | 1225m | -8.1m/s | 0°C | 0% | 0hPa | 0V | 00:00:00 | 00:00:00 | 00:00:00 | |
| OE3JTB-15 | 2026-09-03 01:52:15 | 47.78987 | 17.34569 | 130° | 33km/h | 1225m | -8.1m/s | 0°C | 0% | 0hPa | 0V | 00:00:00 | 00:00:00 | 00:00:00 | |
| PETON7-10 | 2026-09-03 01:52:15 | 47.78987 | 17.34569 | 130° | 33km/h | 1225m | -8.1m/s | 0°C | 0% | 0hPa | 0V | 00:00:00 | 00:00:00 | 00:00:00 | |
| OE3JTB-15 | 2026-09-03 01:52:13 | 47.78996 | 17.34550 | 128° | 33km/h | 1242m | -7.3m/s | 0°C | 0% | 0hPa | 0V | 00:00:00 | 00:00:00 | 00:00:00 | |
| OE3JTB-15 | 2026-09-03 01:52:11 | 47.79008 | 17.34531 | 127° | 33km/h | 1264m | -9.1m/s | 0°C | 0% | 0hPa | 0V | 00:00:00 | 00:00:00 | 00:00:00 | |
| OE3JTB-15 | 2026-09-03 01:52:09 | 47.79018 | 17.34512 | 135° | 31km/h | 1283m | -8.5m/s | 0°C | 0% | 0hPa | 0V | 00:00:00 | 00:00:00 | 00:00:00 | |
| OE3JTB-15 | 2026-09-03 01:52:06 | 47.79034 | 17.34483 | 132° | 33km/h | 1309m | -8.9m/s | 0°C | 0% | 0hPa | 0V | 00:00:00 | 00:00:00 | 00:00:00 | |
| PETON7-10 | 2026-09-03 01:52:05 | 47.79039 | 17.34473 | 129° | 31km/h | 1319m | -8.1m/s | 0°C | 0% | 0hPa | 0V | 00:00:00 | 00:00:00 | 00:00:00 | |
| OE3JTB-15 | 2026-09-03 01:52:04 | 47.79045 | 17.34464 | 134° | 29km/h | 1329m | -8.9m/s | 0°C | 0% | 0hPa | 0V | 00:00:00 | 00:00:00 | 00:00:00 | |
| OM5KV | 2026-09-03 01:52:03 | 47.79050 | 17.34455 | 129° | 27km/h | 1338m | -8.4m/s | 0°C | 0% | 0hPa | 0V | 00:00:00 | 00:00:00 | 00:00:00 | |
| OM5KV | 2026-09-03 01:52:03 | 47.79050 | 17.34455 | 129° | 27km/h | 1338m | -8.4m/s | 0°C | 0% | 0hPa | 0V | 00:00:00 | 00:00:00 | 00:00:00 | |
| OM5KV | 2026-09-03 01:52:02 | 47.79054 | 17.34445 | 129° | 35km/h | 1347m | -8.3m/s | 0°C | 0% | 0hPa | 0V | 00:00:00 | 00:00:00 | 00:00:00 | |
| OE3JTB-15 | 2026-09-03 01:52:02 | 47.79054 | 17.34445 | 128° | 33km/h | 1347m | -8.2m/s | 0°C | 0% | 0hPa | 0V | 00:00:00 | 00:00:00 | 00:00:00 | |
| OE3JTB-15 | 2026-09-03 01:52:00 | 47.79065 | 17.34428 | 129° | 31km/h | 1367m | -9.0m/s | 0°C | 0% | 0hPa | 0V | 00:00:00 | 00:00:00 | 00:00:00 | |
| PETON7-10 | 2026-09-03 01:52:00 | 47.79065 | 17.34428 | 129° | 31km/h | 1367m | -9.0m/s | 0°C | 0% | 0hPa | 0V | 00:00:00 | 00:00:00 | 00:00:00 | |
| OE3OSB-13 | 2026-09-03 01:51:45 | 47.79142 | 17.34274 | 124° | 27km/h | 1530m | -8.2m/s | 13.5°C | 63.2% | 857.9hPa | 0V | 00:00:00 | 00:00:00 | 00:00:00 | |
| PETON7-10 | 2026-09-03 01:51:45 | 47.79136 | 17.34283 | 139° | 31km/h | 1520m | -10.6m/s | 0°C | 0% | 0hPa | 0V | 00:00:00 | 00:00:00 | 00:00:00 | |
| OM5KV | 2026-09-03 01:51:44 | 47.79142 | 17.34274 | 126° | 27km/h | 1530m | -8.2m/s | 0°C | 0% | 0hPa | 0V | 00:00:00 | 00:00:00 | 00:00:00 | |
| OE3JTB-15 | 2026-09-03 01:51:44 | 47.79142 | 17.34274 | 125° | 29km/h | 1530m | -8.2m/s | 0°C | 0% | 0hPa | 0V | 00:00:00 | 00:00:00 | 00:00:00 | |
| ATIDSZ-14 | 2026-09-03 01:51:42 | 47.79151 | 17.34255 | 128° | 33km/h | 1551m | -9.2m/s | 0°C | 0% | 0hPa | 0V | 00:00:00 | 00:00:00 | 00:00:00 | |
| OE3JTB-15 | 2026-09-03 01:51:42 | 47.79151 | 17.34255 | 128° | 33km/h | 1551m | -9.1m/s | 0°C | 0% | 0hPa | 0V | 00:00:00 | 00:00:00 | 00:00:00 | |
| OE3JTB-15 | 2026-09-03 01:51:40 | 47.79161 | 17.34236 | 131° | 29km/h | 1572m | -10.4m/s | 0°C | 0% | 0hPa | 0V | 00:00:00 | 00:00:00 | 00:00:00 | |
| PETON7-10 | 2026-09-03 01:51:38 | 47.79170 | 17.34218 | 127° | 31km/h | 1594m | -9.7m/s | 0°C | 0% | 0hPa | 0V | 00:00:00 | 00:00:00 | 00:00:00 | |
| OE3JTB-15 | 2026-09-03 01:51:38 | 47.79170 | 17.34218 | 127° | 31km/h | 1594m | -9.7m/s | 0°C | 0% | 0hPa | 0V | 00:00:00 | 00:00:00 | 00:00:00 | |
| OM5KV | 2026-09-03 01:51:37 | 47.79175 | 17.34209 | 131° | 33km/h | 1605m | -9.7m/s | 0°C | 0% | 0hPa | 0V | 00:00:00 | 00:00:00 | 00:00:00 | |
| OE3JTB-15 | 2026-09-03 01:51:36 | 47.79180 | 17.34200 | 124° | 29km/h | 1616m | -9.3m/s | 0°C | 0% | 0hPa | 0V | 00:00:00 | 00:00:00 | 00:00:00 | |
| OE3JTB-15 | 2026-09-03 01:51:34 | 47.79188 | 17.34181 | 123° | 35km/h | 1636m | -7.9m/s | 0°C | 0% | 0hPa | 0V | 00:00:00 | 00:00:00 | 00:00:00 | |
| OM5KV | 2026-09-03 01:51:33 | 47.79192 | 17.34171 | 129° | 33km/h | 1646m | -9.6m/s | 0°C | 0% | 0hPa | 0V | 00:00:00 | 00:00:00 | 00:00:00 | |
| PETON7-10 | 2026-09-03 01:51:33 | 47.79192 | 17.34171 | 129° | 33km/h | 1646m | -9.5m/s | 0°C | 0% | 0hPa | 0V | 00:00:00 | 00:00:00 | 00:00:00 | |
| OM5KV | 2026-09-03 01:51:32 | 47.79197 | 17.34162 | 129° | 33km/h | 1657m | -9.1m/s | 0°C | 0% | 0hPa | 0V | 00:00:00 | 00:00:00 | 00:00:00 | |
| OE3JTB-15 | 2026-09-03 01:51:32 | 47.79197 | 17.34162 | 129° | 35km/h | 1657m | -9.1m/s | 0°C | 0% | 0hPa | 0V | 00:00:00 | 00:00:00 | 00:00:00 | |
| OM5KV | 2026-09-03 01:51:30 | 47.79208 | 17.34140 | 125° | 35km/h | 1679m | -9.5m/s | 0°C | 0% | 0hPa | 0V | 00:00:00 | 00:00:00 | 00:00:00 | |
| PETON7-10 | 2026-09-03 01:51:27 | 47.79222 | 17.34111 | 124° | 35km/h | 1709m | -8.6m/s | 0°C | 0% | 0hPa | 0V | 00:00:00 | 00:00:00 | 00:00:00 | |
| OE3JTB-15 | 2026-09-03 01:51:23 | 47.79243 | 17.34070 | 126° | 37km/h | 1751m | -8.6m/s | 0°C | 0% | 0hPa | 0V | 00:00:00 | 00:00:00 | 00:00:00 | |
| ATIDSZ-14 | 2026-09-03 01:51:22 | 47.79248 | 17.34059 | 136° | 37km/h | 1761m | -9.5m/s | 0°C | 0% | 0hPa | 0V | 00:00:00 | 00:00:00 | 00:00:00 | |
| OM5KV | 2026-09-03 01:51:20 | 47.79259 | 17.34040 | 125° | 35km/h | 1783m | -8.8m/s | 0°C | 0% | 0hPa | 0V | 00:00:00 | 00:00:00 | 00:00:00 | |
| OM5KV | 2026-09-03 01:51:19 | 47.79265 | 17.34028 | 128° | 38km/h | 1793m | -8.7m/s | 0°C | 0% | 0hPa | 0V | 00:00:00 | 00:00:00 | 00:00:00 | |
| PETON7-10 | 2026-09-03 01:51:17 | 47.79276 | 17.34008 | 136° | 38km/h | 1814m | -11.2m/s | 0°C | 0% | 0hPa | 0V | 00:00:00 | 00:00:00 | 00:00:00 | |
| OM5KV | 2026-09-03 01:51:15 | 47.79288 | 17.33987 | 128° | 35km/h | 1835m | -9.1m/s | 0°C | 0% | 0hPa | 0V | 00:00:00 | 00:00:00 | 00:00:00 | |
| OM5KV | 2026-09-03 01:51:14 | 47.79294 | 17.33977 | 132° | 37km/h | 1845m | -9.5m/s | 0°C | 0% | 0hPa | 0V | 00:00:00 | 00:00:00 | 00:00:00 | |
| OE3JTB-15 | 2026-09-03 01:51:14 | 47.79294 | 17.33977 | 132° | 38km/h | 1845m | -9.4m/s | 0°C | 0% | 0hPa | 0V | 00:00:00 | 00:00:00 | 00:00:00 | |
| PETON7-10 | 2026-09-03 01:51:05 | 47.79349 | 17.33879 | 128° | 40km/h | 1941m | -9.2m/s | 0°C | 0% | 0hPa | 0V | 00:00:00 | 00:00:00 | 00:00:00 | |
| OE3JTB-15 | 2026-09-03 01:51:04 | 47.79355 | 17.33867 | 127° | 40km/h | 1951m | -9.5m/s | 0°C | 0% | 0hPa | 0V | 00:00:00 | 00:00:00 | 00:00:00 | |
| OM5KV | 2026-09-03 01:51:02 | 47.79366 | 17.33842 | 125° | 38km/h | 1973m | -10.6m/s | 0°C | 0% | 0hPa | 0V | 00:00:00 | 00:00:00 | 00:00:00 | |
| ATIDSZ-14 | 2026-09-03 01:51:01 | 47.79372 | 17.33830 | 130° | 42km/h | 1984m | -10.8m/s | 0°C | 0% | 0hPa | 0V | 00:00:00 | 00:00:00 | 00:00:00 | |
| OE3OSB-13 | 2026-09-03 01:50:43 | 47.79483 | 17.33580 | 122° | 44km/h | 2193m | -10.3m/s | 8.8°C | 48.2% | 792.0hPa | 0V | 00:00:00 | 00:00:00 | 00:00:00 | |
| OM5KV | 2026-09-03 01:50:41 | 47.79489 | 17.33566 | 126° | 44km/h | 2205m | -10.8m/s | 0°C | 0% | 0hPa | 0V | 00:00:00 | 00:00:00 | 00:00:00 | |
| ATIDSZ-14 | 2026-09-03 01:50:40 | 47.79494 | 17.33553 | 118° | 38km/h | 2217m | -11.0m/s | 0°C | 0% | 0hPa | 0V | 00:00:00 | 00:00:00 | 00:00:00 | |
| OM5KV | 2026-09-03 01:50:38 | 47.79504 | 17.33529 | 122° | 37km/h | 2238m | -9.1m/s | 0°C | 0% | 0hPa | 0V | 00:00:00 | 00:00:00 | 00:00:00 | |
| OM5KV | 2026-09-03 01:50:34 | 47.79525 | 17.33478 | 124° | 40km/h | 2280m | -10.2m/s | 0°C | 0% | 0hPa | 0V | 00:00:00 | 00:00:00 | 00:00:00 | |
| OE3JTB-15 | 2026-09-03 01:50:30 | 47.79545 | 17.33425 | 113° | 35km/h | 2322m | -8.5m/s | 0°C | 0% | 0hPa | 0V | 00:00:00 | 00:00:00 | 00:00:00 | |
| OM5KV | 2026-09-03 01:50:29 | 47.79550 | 17.33412 | 120° | 40km/h | 2333m | -9.7m/s | 0°C | 0% | 0hPa | 0V | 00:00:00 | 00:00:00 | 00:00:00 | |
| PETON7-10 | 2026-09-03 01:50:27 | 47.79558 | 17.33385 | 122° | 35km/h | 2354m | -9.8m/s | 0°C | 0% | 0hPa | 0V | 00:00:00 | 00:00:00 | 00:00:00 | |
| OM5KV | 2026-09-03 01:50:25 | 47.79568 | 17.33360 | 116° | 37km/h | 2376m | -9.7m/s | 0°C | 0% | 0hPa | 0V | 00:00:00 | 00:00:00 | 00:00:00 | |
| OM5KV | 2026-09-03 01:50:23 | 47.79577 | 17.33336 | 123° | 33km/h | 2396m | -10.1m/s | 0°C | 0% | 0hPa | 0V | 00:00:00 | 00:00:00 | 00:00:00 | |
| ATIDSZ-14 | 2026-09-03 01:50:20 | 47.79590 | 17.33301 | 124° | 35km/h | 2425m | -10.4m/s | 0°C | 0% | 0hPa | 0V | 00:00:00 | 00:00:00 | 00:00:00 | |
| OM5KV | 2026-09-03 01:50:18 | 47.79598 | 17.33278 | 115° | 37km/h | 2448m | -9.0m/s | 0°C | 0% | 0hPa | 0V | 00:00:00 | 00:00:00 | 00:00:00 | |
| OM5KV | 2026-09-03 01:50:12 | 47.79621 | 17.33211 | 113° | 33km/h | 2510m | -8.5m/s | 0°C | 0% | 0hPa | 0V | 00:00:00 | 00:00:00 | 00:00:00 | |
| PETON7-10 | 2026-09-03 01:50:11 | 47.79624 | 17.33199 | 114° | 29km/h | 2519m | -8.3m/s | 0°C | 0% | 0hPa | 0V | 00:00:00 | 00:00:00 | 00:00:00 | |
| OM5KV | 2026-09-03 01:50:07 | 47.79636 | 17.33155 | 107° | 31km/h | 2563m | -8.9m/s | 0°C | 0% | 0hPa | 0V | 00:00:00 | 00:00:00 | 00:00:00 | |
| OM5KV | 2026-09-03 01:50:01 | 47.79650 | 17.33092 | 106° | 27km/h | 2631m | -9.9m/s | 0°C | 0% | 0hPa | 0V | 00:00:00 | 00:00:00 | 00:00:00 | |
| ATIDSZ-14 | 2026-09-03 01:49:59 | 47.79655 | 17.33072 | 119° | 29km/h | 2652m | -10.3m/s | 0°C | 0% | 0hPa | 0V | 00:00:00 | 00:00:00 | 00:00:00 | |
| PETON7-10 | 2026-09-03 01:49:56 | 47.79661 | 17.33041 | 110° | 29km/h | 2683m | -9.3m/s | 0°C | 0% | 0hPa | 0V | 00:00:00 | 00:00:00 | 00:00:00 | |
| OE3JTB-15 | 2026-09-03 01:49:52 | 47.79673 | 17.33002 | 113° | 31km/h | 2728m | -10.8m/s | 0°C | 0% | 0hPa | 0V | 00:00:00 | 00:00:00 | 00:00:00 | |
| OM5KV | 2026-09-03 01:49:45 | 47.79691 | 17.32929 | 108° | 29km/h | 2810m | -11.5m/s | 0°C | 0% | 0hPa | 0V | 00:00:00 | 00:00:00 | 00:00:00 | |
| OM5KV | 2026-09-03 01:49:44 | 47.79693 | 17.32919 | 112° | 33km/h | 2822m | -10.9m/s | 0°C | 0% | 0hPa | 0V | 00:00:00 | 00:00:00 | 00:00:00 | |
| OE3OSB-13 | 2026-09-03 01:49:41 | 47.79707 | 17.32874 | 116° | 31km/h | 2868m | -9.9m/s | 3.7°C | 47.0% | 729.1hPa | 0V | 00:00:00 | 00:00:00 | 00:00:00 | |
| PETON7-10 | 2026-09-03 01:49:40 | 47.79707 | 17.32874 | 117° | 33km/h | 2868m | -9.9m/s | 0°C | 0% | 0hPa | 0V | 00:00:00 | 00:00:00 | 00:00:00 | |
| ATIDSZ-14 | 2026-09-03 01:49:39 | 47.79710 | 17.32864 | 116° | 29km/h | 2879m | -10.4m/s | 0°C | 0% | 0hPa | 0V | 00:00:00 | 00:00:00 | 00:00:00 | |
| OM5KV | 2026-09-03 01:49:38 | 47.79714 | 17.32853 | 118° | 33km/h | 2890m | -10.3m/s | 0°C | 0% | 0hPa | 0V | 00:00:00 | 00:00:00 | 00:00:00 | |
| OE3JTB-15 | 2026-09-03 01:49:33 | 47.79736 | 17.32802 | 134° | 35km/h | 2944m | -11.9m/s | 0°C | 0% | 0hPa | 0V | 00:00:00 | 00:00:00 | 00:00:00 | |
| OM5KV | 2026-09-03 01:49:32 | 47.79740 | 17.32792 | 122° | 29km/h | 2956m | -9.4m/s | 0°C | 0% | 0hPa | 0V | 00:00:00 | 00:00:00 | 00:00:00 | |
| OM5KV | 2026-09-03 01:49:26 | 47.79771 | 17.32733 | 123° | 40km/h | 3022m | -9.2m/s | 0°C | 0% | 0hPa | 0V | 00:00:00 | 00:00:00 | 00:00:00 | |
| PETON7-10 | 2026-09-03 01:49:25 | 47.79776 | 17.32720 | 124° | 37km/h | 3033m | -9.9m/s | 0°C | 0% | 0hPa | 0V | 00:00:00 | 00:00:00 | 00:00:00 | |
| OM5KV | 2026-09-03 01:49:20 | 47.79801 | 17.32661 | 126° | 38km/h | 3089m | -10.6m/s | 0°C | 0% | 0hPa | 0V | 00:00:00 | 00:00:00 | 00:00:00 | |
| ATIDSZ-14 | 2026-09-03 01:49:19 | 47.79807 | 17.32649 | 121° | 37km/h | 3100m | -9.4m/s | 0°C | 0% | 0hPa | 0V | 00:00:00 | 00:00:00 | 00:00:00 | |
| OM5KV | 2026-09-03 01:49:16 | 47.79822 | 17.32615 | 119° | 35km/h | 3134m | -9.5m/s | 0°C | 0% | 0hPa | 0V | 00:00:00 | 00:00:00 | 00:00:00 | |
| OE3JTB-15 | 2026-09-03 01:49:14 | 47.79830 | 17.32592 | 123° | 35km/h | 3155m | -8.8m/s | 0°C | 0% | 0hPa | 0V | 00:00:00 | 00:00:00 | 00:00:00 | |
| OE3OSB-13 | 2026-09-03 01:49:10 | 47.79851 | 17.32537 | 118° | 31km/h | 3212m | -9.5m/s | 0.9°C | 80.5% | 698.5hPa | 0V | 00:00:00 | 00:00:00 | 00:00:00 | |
| OM5KV | 2026-09-03 01:49:08 | 47.79855 | 17.32526 | 121° | 35km/h | 3223m | -10.6m/s | 0°C | 0% | 0hPa | 0V | 00:00:00 | 00:00:00 | 00:00:00 | |
| OM5KV | 2026-09-03 01:49:04 | 47.79869 | 17.32481 | 114° | 37km/h | 3267m | -10.4m/s | 0°C | 0% | 0hPa | 0V | 00:00:00 | 00:00:00 | 00:00:00 | |
| OM5KV | 2026-09-03 01:49:03 | 47.79873 | 17.32469 | 121° | 37km/h | 3278m | -12.1m/s | 0°C | 0% | 0hPa | 0V | 00:00:00 | 00:00:00 | 00:00:00 | |
| ATIDSZ-14 | 2026-09-03 01:48:58 | 47.79892 | 17.32409 | 117° | 35km/h | 3337m | -12.3m/s | 0°C | 0% | 0hPa | 0V | 00:00:00 | 00:00:00 | 00:00:00 | |
| OM5KV | 2026-09-03 01:48:57 | 47.79896 | 17.32397 | 113° | 38km/h | 3349m | -11.9m/s | 0°C | 0% | 0hPa | 0V | 00:00:00 | 00:00:00 | 00:00:00 | |
| OE3JTB-15 | 2026-09-03 01:48:54 | 47.79907 | 17.32358 | 109° | 40km/h | 3385m | -10.1m/s | 0°C | 0% | 0hPa | 0V | 00:00:00 | 00:00:00 | 00:00:00 | |
| PETON7-10 | 2026-09-03 01:48:53 | 47.79910 | 17.32345 | 113° | 40km/h | 3396m | -10.0m/s | 0°C | 0% | 0hPa | 0V | 00:00:00 | 00:00:00 | 00:00:00 | |
| OM5KV | 2026-09-03 01:48:47 | 47.79934 | 17.32266 | 113° | 40km/h | 3464m | -10.0m/s | 0°C | 0% | 0hPa | 0V | 00:00:00 | 00:00:00 | 00:00:00 | |
| OM5KV | 2026-09-03 01:48:44 | 47.79945 | 17.32226 | 111° | 37km/h | 3498m | -10.8m/s | 0°C | 0% | 0hPa | 0V | 00:00:00 | 00:00:00 | 00:00:00 | |
| OM5KV | 2026-09-03 01:48:41 | 47.79956 | 17.32184 | 114° | 38km/h | 3532m | -11.2m/s | 0°C | 0% | 0hPa | 0V | 00:00:00 | 00:00:00 | 00:00:00 | |
| OM5KV | 2026-09-03 01:48:40 | 47.79960 | 17.32169 | 113° | 44km/h | 3545m | -10.8m/s | 0°C | 0% | 0hPa | 0V | 00:00:00 | 00:00:00 | 00:00:00 | |
| OE3OSB-13 | 2026-09-03 01:48:39 | 47.79969 | 17.32142 | 117° | 35km/h | 3569m | -12.6m/s | -1.6°C | 89.9% | 667.9hPa | 0V | 00:00:00 | 00:00:00 | 00:00:00 | |
| PETON7-10 | 2026-09-03 01:48:38 | 47.79969 | 17.32142 | 118° | 42km/h | 3569m | -12.5m/s | 0°C | 0% | 0hPa | 0V | 00:00:00 | 00:00:00 | 00:00:00 | |
| OM5KV | 2026-09-03 01:48:34 | 47.79989 | 17.32087 | 117° | 40km/h | 3616m | -10.5m/s | 0°C | 0% | 0hPa | 0V | 00:00:00 | 00:00:00 | 00:00:00 | |
| OM5KV | 2026-09-03 01:48:33 | 47.79995 | 17.32074 | 121° | 40km/h | 3628m | -10.0m/s | 0°C | 0% | 0hPa | 0V | 00:00:00 | 00:00:00 | 00:00:00 | |
| OM5KV | 2026-09-03 01:48:28 | 47.80022 | 17.32003 | 125° | 47km/h | 3684m | -10.0m/s | 0°C | 0% | 0hPa | 0V | 00:00:00 | 00:00:00 | 00:00:00 | |
| OM5KV | 2026-09-03 01:48:27 | 47.80028 | 17.31988 | 122° | 44km/h | 3696m | -11.7m/s | 0°C | 0% | 0hPa | 0V | 00:00:00 | 00:00:00 | 00:00:00 | |
| OE3JTB-15 | 2026-09-03 01:48:25 | 47.80039 | 17.31958 | 121° | 47km/h | 3719m | -10.1m/s | 0°C | 0% | 0hPa | 0V | 00:00:00 | 00:00:00 | 00:00:00 | |
| PETON7-10 | 2026-09-03 01:48:23 | 47.80051 | 17.31928 | 118° | 47km/h | 3741m | -10.7m/s | 0°C | 0% | 0hPa | 0V | 00:00:00 | 00:00:00 | 00:00:00 | |
| OM5KV | 2026-09-03 01:48:17 | 47.80086 | 17.31832 | 114° | 51km/h | 3809m | -9.3m/s | 0°C | 0% | 0hPa | 0V | 00:00:00 | 00:00:00 | 00:00:00 | |
| ATIDSZ-14 | 2026-09-03 01:48:15 | 47.80097 | 17.31798 | 112° | 46km/h | 3832m | -10.0m/s | 0°C | 0% | 0hPa | 0V | 00:00:00 | 00:00:00 | 00:00:00 | |
| OM5KV | 2026-09-03 01:48:10 | 47.80122 | 17.31714 | 116° | 49km/h | 3889m | -10.4m/s | 0°C | 0% | 0hPa | 0V | 00:00:00 | 00:00:00 | 00:00:00 | |
| OE3OSB-13 | 2026-09-03 01:48:08 | 47.80137 | 17.31664 | 112° | 46km/h | 3924m | -9.7m/s | -4.0°C | 92.0% | 638.8hPa | 0V | 00:00:00 | 00:00:00 | 00:00:00 | |
| OM5KV | 2026-09-03 01:48:01 | 47.80164 | 17.31564 | 111° | 47km/h | 3994m | -10.4m/s | 0°C | 0% | 0hPa | 0V | 00:00:00 | 00:00:00 | 00:00:00 | |
| OE3JTB-15 | 2026-09-03 01:47:56 | 47.80183 | 17.31482 | 111° | 46km/h | 4049m | -10.6m/s | 0°C | 0% | 0hPa | 0V | 00:00:00 | 00:00:00 | 00:00:00 | |
| OM5KV | 2026-09-03 01:47:54 | 47.80192 | 17.31449 | 110° | 47km/h | 4071m | -9.5m/s | 0°C | 0% | 0hPa | 0V | 00:00:00 | 00:00:00 | 00:00:00 | |
| PETON7-10 | 2026-09-03 01:47:51 | 47.80205 | 17.31400 | 110° | 46km/h | 4104m | -9.8m/s | 0°C | 0% | 0hPa | 0V | 00:00:00 | 00:00:00 | 00:00:00 | |
| OM5KV | 2026-09-03 01:47:48 | 47.80217 | 17.31351 | 110° | 46km/h | 4137m | -9.6m/s | 0°C | 0% | 0hPa | 0V | 00:00:00 | 00:00:00 | 00:00:00 | |
| OM5KV | 2026-09-03 01:47:42 | 47.80236 | 17.31253 | 104° | 47km/h | 4206m | -11.1m/s | 0°C | 0% | 0hPa | 0V | 00:00:00 | 00:00:00 | 00:00:00 | |
| OM5KV | 2026-09-03 01:47:39 | 47.80243 | 17.31206 | 96° | 40km/h | 4242m | -11.2m/s | 0°C | 0% | 0hPa | 0V | 00:00:00 | 00:00:00 | 00:00:00 | |
| OE3OSB-13 | 2026-09-03 01:47:37 | 47.80250 | 17.31157 | 99° | 44km/h | 4278m | -10.3m/s | -5.9°C | 93.6% | 610.4hPa | 0V | 00:00:00 | 00:00:00 | 00:00:00 | |
| PETON7-10 | 2026-09-03 01:47:36 | 47.80250 | 17.31157 | 100° | 47km/h | 4278m | -10.3m/s | 0°C | 0% | 0hPa | 0V | 00:00:00 | 00:00:00 | 00:00:00 | |
| OM5KV | 2026-09-03 01:47:30 | 47.80263 | 17.31054 | 99° | 47km/h | 4346m | -9.3m/s | 0°C | 0% | 0hPa | 0V | 00:00:00 | 00:00:00 | 00:00:00 | |
| ATIDSZ-14 | 2026-09-03 01:47:29 | 47.80265 | 17.31037 | 103° | 47km/h | 4357m | -11.3m/s | 0°C | 0% | 0hPa | 0V | 00:00:00 | 00:00:00 | 00:00:00 | |
| OE3JTB-15 | 2026-09-03 01:47:26 | 47.80272 | 17.30984 | 100° | 51km/h | 4392m | -10.5m/s | 0°C | 0% | 0hPa | 0V | 00:00:00 | 00:00:00 | 00:00:00 | |
| OM5KV | 2026-09-03 01:47:25 | 47.80275 | 17.30966 | 105° | 47km/h | 4403m | -10.9m/s | 0°C | 0% | 0hPa | 0V | 00:00:00 | 00:00:00 | 00:00:00 | |
| OM5KV | 2026-09-03 01:47:24 | 47.80277 | 17.30948 | 104° | 47km/h | 4415m | -11.5m/s | 0°C | 0% | 0hPa | 0V | 00:00:00 | 00:00:00 | 00:00:00 | |
| OM5KV | 2026-09-03 01:47:22 | 47.80283 | 17.30912 | 104° | 47km/h | 4440m | -10.0m/s | 0°C | 0% | 0hPa | 0V | 00:00:00 | 00:00:00 | 00:00:00 | |
| PETON7-10 | 2026-09-03 01:47:20 | 47.80288 | 17.30876 | 106° | 51km/h | 4462m | -10.4m/s | 0°C | 0% | 0hPa | 0V | 00:00:00 | 00:00:00 | 00:00:00 | |
| OM5KV | 2026-09-03 01:47:17 | 47.80297 | 17.30821 | 107° | 49km/h | 4497m | -10.0m/s | 0°C | 0% | 0hPa | 0V | 00:00:00 | 00:00:00 | 00:00:00 | |
| ATIDSZ-14 | 2026-09-03 01:47:08 | 47.80330 | 17.30652 | 106° | 53km/h | 4601m | -11.0m/s | 0°C | 0% | 0hPa | 0V | 00:00:00 | 00:00:00 | 00:00:00 | |
| OM5KV | 2026-09-03 01:47:07 | 47.80333 | 17.30632 | 103° | 53km/h | 4613m | -10.1m/s | 0°C | 0% | 0hPa | 0V | 00:00:00 | 00:00:00 | 00:00:00 | |
| OE3OSB-13 | 2026-09-03 01:47:06 | 47.80340 | 17.30595 | 105° | 53km/h | 4637m | -10.4m/s | -8.1°C | 93.6% | 582.7hPa | 0V | 00:00:00 | 00:00:00 | 00:00:00 | |
| PETON7-10 | 2026-09-03 01:47:05 | 47.80340 | 17.30595 | 106° | 53km/h | 4637m | -10.4m/s | 0°C | 0% | 0hPa | 0V | 00:00:00 | 00:00:00 | 00:00:00 | |
| OM5KV | 2026-09-03 01:47:01 | 47.80355 | 17.30519 | 109° | 53km/h | 4684m | -10.7m/s | 0°C | 0% | 0hPa | 0V | 00:00:00 | 00:00:00 | 00:00:00 | |
| OM5KV | 2026-09-03 01:47:00 | 47.80359 | 17.30501 | 110° | 51km/h | 4696m | -10.8m/s | 0°C | 0% | 0hPa | 0V | 00:00:00 | 00:00:00 | 00:00:00 | |
| OE3JTB-15 | 2026-09-03 01:46:57 | 47.80371 | 17.30445 | 108° | 51km/h | 4731m | -10.4m/s | 0°C | 0% | 0hPa | 0V | 00:00:00 | 00:00:00 | 00:00:00 | |
| OM5KV | 2026-09-03 01:46:55 | 47.80380 | 17.30407 | 113° | 51km/h | 4755m | -10.2m/s | 0°C | 0% | 0hPa | 0V | 00:00:00 | 00:00:00 | 00:00:00 | |
| OM5KV | 2026-09-03 01:46:54 | 47.80384 | 17.30389 | 109° | 51km/h | 4766m | -11.4m/s | 0°C | 0% | 0hPa | 0V | 00:00:00 | 00:00:00 | 00:00:00 | |
| ATIDSZ-14 | 2026-09-03 01:46:48 | 47.80418 | 17.30288 | 119° | 51km/h | 4837m | -9.8m/s | 0°C | 0% | 0hPa | 0V | 00:00:00 | 00:00:00 | 00:00:00 | |
| OM5KV | 2026-09-03 01:46:43 | 47.80447 | 17.30203 | 119° | 53km/h | 4891m | -9.6m/s | 0°C | 0% | 0hPa | 0V | 00:00:00 | 00:00:00 | 00:00:00 | |
| OM5KV | 2026-09-03 01:46:38 | 47.80475 | 17.30119 | 120° | 49km/h | 4945m | -9.4m/s | 0°C | 0% | 0hPa | 0V | 00:00:00 | 00:00:00 | 00:00:00 | |
| OM5KV | 2026-09-03 01:46:37 | 47.80481 | 17.30103 | 123° | 46km/h | 4956m | -10.6m/s | 0°C | 0% | 0hPa | 0V | 00:00:00 | 00:00:00 | 00:00:00 | |
| OE3OSB-13 | 2026-09-03 01:46:35 | 47.80499 | 17.30056 | 115° | 42km/h | 4989m | -9.7m/s | -10.3°C | 91.9% | 556.7hPa | 0V | 00:00:00 | 00:00:00 | 00:00:00 | |
| PETON7-10 | 2026-09-03 01:46:34 | 47.80499 | 17.30056 | 116° | 47km/h | 4989m | -9.7m/s | 0°C | 0% | 0hPa | 0V | 00:00:00 | 00:00:00 | 00:00:00 | |
| OM5KV | 2026-09-03 01:46:32 | 47.80511 | 17.30026 | 123° | 47km/h | 5011m | -10.4m/s | 0°C | 0% | 0hPa | 0V | 00:00:00 | 00:00:00 | 00:00:00 | |
| ATIDSZ-14 | 2026-09-03 01:46:28 | 47.80536 | 17.29962 | 120° | 51km/h | 5054m | -9.3m/s | 0°C | 0% | 0hPa | 0V | 00:00:00 | 00:00:00 | 00:00:00 | |
| OM5KV | 2026-09-03 01:46:26 | 47.80548 | 17.29931 | 117° | 49km/h | 5077m | -10.4m/s | 0°C | 0% | 0hPa | 0V | 00:00:00 | 00:00:00 | 00:00:00 | |
| OM5KV | 2026-09-03 01:46:21 | 47.80574 | 17.29849 | 116° | 51km/h | 5132m | -10.8m/s | 0°C | 0% | 0hPa | 0V | 00:00:00 | 00:00:00 | 00:00:00 | |
| OM5KV | 2026-09-03 01:46:20 | 47.80580 | 17.29832 | 119° | 51km/h | 5144m | -10.9m/s | 0°C | 0% | 0hPa | 0V | 00:00:00 | 00:00:00 | 00:00:00 | |
| PETON7-10 | 2026-09-03 01:46:19 | 47.80586 | 17.29815 | 116° | 47km/h | 5156m | -10.6m/s | 0°C | 0% | 0hPa | 0V | 00:00:00 | 00:00:00 | 00:00:00 | |
| OM5KV | 2026-09-03 01:46:16 | 47.80603 | 17.29762 | 117° | 57km/h | 5190m | -11.1m/s | 0°C | 0% | 0hPa | 0V | 00:00:00 | 00:00:00 | 00:00:00 | |
| OM5KV | 2026-09-03 01:46:15 | 47.80610 | 17.29744 | 118° | 53km/h | 5201m | -11.1m/s | 0°C | 0% | 0hPa | 0V | 00:00:00 | 00:00:00 | 00:00:00 | |
| OM5KV | 2026-09-03 01:46:10 | 47.80636 | 17.29662 | 114° | 46km/h | 5265m | -11.3m/s | 0°C | 0% | 0hPa | 0V | 00:00:00 | 00:00:00 | 00:00:00 | |
| OM5KV | 2026-09-03 01:46:09 | 47.80642 | 17.29647 | 123° | 47km/h | 5276m | -12.1m/s | 0°C | 0% | 0hPa | 0V | 00:00:00 | 00:00:00 | 00:00:00 | |
| ATIDSZ-14 | 2026-09-03 01:46:07 | 47.80653 | 17.29615 | 117° | 55km/h | 5304m | -14.5m/s | 0°C | 0% | 0hPa | 0V | 00:00:00 | 00:00:00 | 00:00:00 | |
| OM5KV | 2026-09-03 01:46:05 | 47.80663 | 17.29584 | 116° | 44km/h | 5328m | -11.2m/s | 0°C | 0% | 0hPa | 0V | 00:00:00 | 00:00:00 | 00:00:00 | |
| OM5KV | 2026-09-03 01:46:04 | 47.80667 | 17.29569 | 116° | 49km/h | 5340m | -11.8m/s | 0°C | 0% | 0hPa | 0V | 00:00:00 | 00:00:00 | 00:00:00 | |
| PETON7-10 | 2026-09-03 01:46:03 | 47.80673 | 17.29553 | 115° | 42km/h | 5352m | -10.9m/s | 0°C | 0% | 0hPa | 0V | 00:00:00 | 00:00:00 | 00:00:00 | |
| OM5KV | 2026-09-03 01:46:00 | 47.80688 | 17.29505 | 114° | 42km/h | 5388m | -11.7m/s | 0°C | 0% | 0hPa | 0V | 00:00:00 | 00:00:00 | 00:00:00 | |
| OM5KV | 2026-09-03 01:45:59 | 47.80693 | 17.29490 | 121° | 47km/h | 5400m | -12.2m/s | 0°C | 0% | 0hPa | 0V | 00:00:00 | 00:00:00 | 00:00:00 | |
| PETON7-10 | 2026-09-03 01:45:48 | 47.80745 | 17.29340 | 119° | 46km/h | 5536m | -11.6m/s | 0°C | 0% | 0hPa | 0V | 00:00:00 | 00:00:00 | 00:00:00 | |
| ATIDSZ-14 | 2026-09-03 01:45:46 | 47.80754 | 17.29310 | 117° | 44km/h | 5562m | -12.8m/s | 0°C | 0% | 0hPa | 0V | 00:00:00 | 00:00:00 | 00:00:00 | |
| OM5KV | 2026-09-03 01:45:43 | 47.80768 | 17.29267 | 122° | 44km/h | 5600m | -11.9m/s | 0°C | 0% | 0hPa | 0V | 00:00:00 | 00:00:00 | 00:00:00 | |
| S52SK | 2026-09-03 01:45:41 | 47.80779 | 17.29236 | 124° | 46km/h | 5627m | -13.7m/s | 0°C | 0% | 0hPa | 0V | 00:00:00 | 00:00:00 | 00:00:00 | |
| OM5KV | 2026-09-03 01:45:40 | 47.80785 | 17.29221 | 122° | 47km/h | 5640m | -12.2m/s | 0°C | 0% | 0hPa | 0V | 00:00:00 | 00:00:00 | 00:00:00 | |
| OE3OSB-13 | 2026-09-03 01:45:33 | 47.80840 | 17.29090 | 124° | 51km/h | 5745m | -11.5m/s | -14.2°C | 82.5% | 503.8hPa | 0V | 00:00:00 | 00:00:00 | 00:00:00 | |
| PETON7-10 | 2026-09-03 01:45:32 | 47.80840 | 17.29090 | 125° | 57km/h | 5745m | -11.4m/s | 0°C | 0% | 0hPa | 0V | 00:00:00 | 00:00:00 | 00:00:00 | |
| OM5KV | 2026-09-03 01:45:29 | 47.80864 | 17.29036 | 126° | 58km/h | 5786m | -12.2m/s | 0°C | 0% | 0hPa | 0V | 00:00:00 | 00:00:00 | 00:00:00 | |
| S52SK | 2026-09-03 01:45:27 | 47.80880 | 17.29000 | 123° | 60km/h | 5811m | -11.0m/s | 0°C | 0% | 0hPa | 0V | 00:00:00 | 00:00:00 | 00:00:00 | |
| ATIDSZ-14 | 2026-09-03 01:45:26 | 47.80888 | 17.28982 | 126° | 57km/h | 5824m | -10.9m/s | 0°C | 0% | 0hPa | 0V | 00:00:00 | 00:00:00 | 00:00:00 | |
| OM5KV | 2026-09-03 01:45:23 | 47.80909 | 17.28927 | 126° | 55km/h | 5861m | -11.2m/s | 0°C | 0% | 0hPa | 0V | 00:00:00 | 00:00:00 | 00:00:00 | |
| OM5KV | 2026-09-03 01:45:20 | 47.80932 | 17.28874 | 126° | 57km/h | 5901m | -11.9m/s | 0°C | 0% | 0hPa | 0V | 00:00:00 | 00:00:00 | 00:00:00 | |
| PETON7-10 | 2026-09-03 01:45:17 | 47.80953 | 17.28820 | 124° | 57km/h | 5939m | -13.0m/s | 0°C | 0% | 0hPa | 0V | 00:00:00 | 00:00:00 | 00:00:00 | |
| OM5KV | 2026-09-03 01:45:13 | 47.80983 | 17.28747 | 123° | 57km/h | 5991m | -11.7m/s | 0°C | 0% | 0hPa | 0V | 00:00:00 | 00:00:00 | 00:00:00 | |
| OM5KV | 2026-09-03 01:45:12 | 47.80990 | 17.28729 | 120° | 51km/h | 6003m | -12.6m/s | 0°C | 0% | 0hPa | 0V | 00:00:00 | 00:00:00 | 00:00:00 | |
| ATIDSZ-14 | 2026-09-03 01:45:05 | 47.81038 | 17.28601 | 118° | 57km/h | 6094m | -12.0m/s | 0°C | 0% | 0hPa | 0V | 00:00:00 | 00:00:00 | 00:00:00 | |
| PETON7-10 | 2026-09-03 01:45:01 | 47.81066 | 17.28526 | 117° | 57km/h | 6146m | -11.8m/s | 0°C | 0% | 0hPa | 0V | 00:00:00 | 00:00:00 | 00:00:00 | |
| OM5KV | 2026-09-03 01:44:59 | 47.81080 | 17.28489 | 117° | 57km/h | 6171m | -11.3m/s | 0°C | 0% | 0hPa | 0V | 00:00:00 | 00:00:00 | 00:00:00 | |
| OM5KV | 2026-09-03 01:44:56 | 47.81101 | 17.28432 | 116° | 58km/h | 6210m | -11.0m/s | 0°C | 0% | 0hPa | 0V | 00:00:00 | 00:00:00 | 00:00:00 | |
| OM5KV | 2026-09-03 01:44:48 | 47.81155 | 17.28287 | 119° | 53km/h | 6311m | -10.8m/s | 0°C | 0% | 0hPa | 0V | 00:00:00 | 00:00:00 | 00:00:00 | |
| PETON7-10 | 2026-09-03 01:44:46 | 47.81169 | 17.28252 | 123° | 49km/h | 6335m | -10.5m/s | 0°C | 0% | 0hPa | 0V | 00:00:00 | 00:00:00 | 00:00:00 | |
| OM5KV | 2026-09-03 01:44:45 | 47.81177 | 17.28235 | 122° | 55km/h | 6347m | -11.5m/s | 0°C | 0% | 0hPa | 0V | 00:00:00 | 00:00:00 | 00:00:00 | |
| ATIDSZ-14 | 2026-09-03 01:44:44 | 47.81184 | 17.28219 | 128° | 51km/h | 6361m | -11.9m/s | 0°C | 0% | 0hPa | 0V | 00:00:00 | 00:00:00 | 00:00:00 | |
| OM5KV | 2026-09-03 01:44:38 | 47.81227 | 17.28123 | 124° | 51km/h | 6440m | -12.3m/s | 0°C | 0% | 0hPa | 0V | 00:00:00 | 00:00:00 | 00:00:00 | |
| OM5KV | 2026-09-03 01:44:37 | 47.81234 | 17.28108 | 128° | 49km/h | 6452m | -10.8m/s | 0°C | 0% | 0hPa | 0V | 00:00:00 | 00:00:00 | 00:00:00 | |
| OM5KV | 2026-09-03 01:44:34 | 47.81255 | 17.28062 | 128° | 47km/h | 6490m | -13.1m/s | 0°C | 0% | 0hPa | 0V | 00:00:00 | 00:00:00 | 00:00:00 | |
| OM5KV | 2026-09-03 01:44:32 | 47.81271 | 17.28032 | 129° | 49km/h | 6515m | -11.4m/s | 0°C | 0% | 0hPa | 0V | 00:00:00 | 00:00:00 | 00:00:00 | |
| OM5KV | 2026-09-03 01:44:31 | 47.81279 | 17.28017 | 128° | 47km/h | 6528m | -12.1m/s | 0°C | 0% | 0hPa | 0V | 00:00:00 | 00:00:00 | 00:00:00 | |
| PETON7-10 | 2026-09-03 01:44:30 | 47.81286 | 17.28003 | 131° | 49km/h | 6541m | -11.5m/s | 0°C | 0% | 0hPa | 0V | 00:00:00 | 00:00:00 | 00:00:00 | |
| OM5KV | 2026-09-03 01:44:28 | 47.81303 | 17.27973 | 127° | 49km/h | 6566m | -12.0m/s | 0°C | 0% | 0hPa | 0V | 00:00:00 | 00:00:00 | 00:00:00 | |
| OM5KV | 2026-09-03 01:44:27 | 47.81310 | 17.27959 | 134° | 49km/h | 6578m | -12.2m/s | 0°C | 0% | 0hPa | 0V | 00:00:00 | 00:00:00 | 00:00:00 | |
| OM5KV | 2026-09-03 01:44:26 | 47.81319 | 17.27946 | 135° | 49km/h | 6592m | -13.9m/s | 0°C | 0% | 0hPa | 0V | 00:00:00 | 00:00:00 | 00:00:00 | |
| OE3JTB-15 | 2026-09-03 01:44:25 | 47.81327 | 17.27932 | 131° | 47km/h | 6607m | -13.6m/s | 0°C | 0% | 0hPa | 0V | 00:00:00 | 00:00:00 | 00:00:00 | |
| ATIDSZ-14 | 2026-09-03 01:44:24 | 47.81336 | 17.27919 | 136° | 49km/h | 6620m | -10.8m/s | 0°C | 0% | 0hPa | 0V | 00:00:00 | 00:00:00 | 00:00:00 | |
| OM5KV | 2026-09-03 01:44:21 | 47.81362 | 17.27878 | 133° | 53km/h | 6660m | -12.2m/s | 0°C | 0% | 0hPa | 0V | 00:00:00 | 00:00:00 | 00:00:00 | |
| OM5KV | 2026-09-03 01:44:20 | 47.81371 | 17.27864 | 134° | 47km/h | 6672m | -11.5m/s | 0°C | 0% | 0hPa | 0V | 00:00:00 | 00:00:00 | 00:00:00 | |
| S52SK | 2026-09-03 01:44:18 | 47.81386 | 17.27837 | 138° | 47km/h | 6698m | -11.9m/s | 0°C | 0% | 0hPa | 0V | 00:00:00 | 00:00:00 | 00:00:00 | |
| OM5KV | 2026-09-03 01:44:17 | 47.81394 | 17.27824 | 133° | 46km/h | 6711m | -12.9m/s | 0°C | 0% | 0hPa | 0V | 00:00:00 | 00:00:00 | 00:00:00 | |
| PETON7-10 | 2026-09-03 01:44:15 | 47.81410 | 17.27796 | 132° | 46km/h | 6739m | -12.9m/s | 0°C | 0% | 0hPa | 0V | 00:00:00 | 00:00:00 | 00:00:00 | |
| OM5KV | 2026-09-03 01:44:10 | 47.81450 | 17.27733 | 131° | 44km/h | 6805m | -11.3m/s | 0°C | 0% | 0hPa | 0V | 00:00:00 | 00:00:00 | 00:00:00 | |
| S52SK | 2026-09-03 01:44:09 | 47.81458 | 17.27720 | 138° | 47km/h | 6818m | -12.4m/s | 0°C | 0% | 0hPa | 0V | 00:00:00 | 00:00:00 | 00:00:00 | |
| ATIDSZ-14 | 2026-09-03 01:44:04 | 47.81500 | 17.27659 | 138° | 47km/h | 6884m | -11.7m/s | 0°C | 0% | 0hPa | 0V | 00:00:00 | 00:00:00 | 00:00:00 | |
| OM5KV | 2026-09-03 01:44:03 | 47.81509 | 17.27646 | 139° | 51km/h | 6898m | -11.5m/s | 0°C | 0% | 0hPa | 0V | 00:00:00 | 00:00:00 | 00:00:00 | |
| OE3OSB-13 | 2026-09-03 01:44:00 | 47.81552 | 17.27584 | 135° | 46km/h | 6963m | -12.6m/s | -22.4°C | 18.1% | 427.3hPa | 0V | 00:00:00 | 00:00:00 | 00:00:00 | |
| OM5KV | 2026-09-03 01:43:58 | 47.81552 | 17.27584 | 137° | 47km/h | 6964m | -12.6m/s | 0°C | 0% | 0hPa | 0V | 00:00:00 | 00:00:00 | 00:00:00 | |
| OE3JTB-15 | 2026-09-03 01:43:56 | 47.81569 | 17.27557 | 137° | 55km/h | 6989m | -11.7m/s | 0°C | 0% | 0hPa | 0V | 00:00:00 | 00:00:00 | 00:00:00 | |
| S52SK | 2026-09-03 01:43:54 | 47.81586 | 17.27530 | 140° | 49km/h | 7014m | -12.6m/s | 0°C | 0% | 0hPa | 0V | 00:00:00 | 00:00:00 | 00:00:00 | |
| OM5KV | 2026-09-03 01:43:53 | 47.81595 | 17.27518 | 137° | 47km/h | 7029m | -14.7m/s | 0°C | 0% | 0hPa | 0V | 00:00:00 | 00:00:00 | 00:00:00 | |
| OM5KV | 2026-09-03 01:43:52 | 47.81603 | 17.27505 | 133° | 49km/h | 7042m | -11.2m/s | 0°C | 0% | 0hPa | 0V | 00:00:00 | 00:00:00 | 00:00:00 | |
| OM5KV | 2026-09-03 01:43:48 | 47.81639 | 17.27453 | 133° | 51km/h | 7096m | -12.1m/s | 0°C | 0% | 0hPa | 0V | 00:00:00 | 00:00:00 | 00:00:00 | |
| OM5KV | 2026-09-03 01:43:47 | 47.81649 | 17.27440 | 139° | 49km/h | 7109m | -14.4m/s | 0°C | 0% | 0hPa | 0V | 00:00:00 | 00:00:00 | 00:00:00 | |
| PETON7-10 | 2026-09-03 01:43:45 | 47.81666 | 17.27412 | 130° | 57km/h | 7136m | -12.6m/s | 0°C | 0% | 0hPa | 0V | 00:00:00 | 00:00:00 | 00:00:00 | |
| ATIDSZ-14 | 2026-09-03 01:43:43 | 47.81682 | 17.27382 | 131° | 57km/h | 7162m | -12.0m/s | 0°C | 0% | 0hPa | 0V | 00:00:00 | 00:00:00 | 00:00:00 | |
| OM5KV | 2026-09-03 01:43:42 | 47.81692 | 17.27367 | 134° | 57km/h | 7176m | -13.4m/s | 0°C | 0% | 0hPa | 0V | 00:00:00 | 00:00:00 | 00:00:00 | |
| OM5KV | 2026-09-03 01:43:41 | 47.81701 | 17.27351 | 131° | 53km/h | 7190m | -12.6m/s | 0°C | 0% | 0hPa | 0V | 00:00:00 | 00:00:00 | 00:00:00 | |
| OM5KV | 2026-09-03 01:43:36 | 47.81748 | 17.27272 | 128° | 57km/h | 7257m | -13.4m/s | 0°C | 0% | 0hPa | 0V | 00:00:00 | 00:00:00 | 00:00:00 | |
| OM5KV | 2026-09-03 01:43:31 | 47.81789 | 17.27184 | 130° | 58km/h | 7321m | -12.4m/s | 0°C | 0% | 0hPa | 0V | 00:00:00 | 00:00:00 | 00:00:00 | |
| PETON7-10 | 2026-09-03 01:43:30 | 47.81798 | 17.27166 | 123° | 58km/h | 7335m | -13.5m/s | 0°C | 0% | 0hPa | 0V | 00:00:00 | 00:00:00 | 00:00:00 | |
| OM5KV | 2026-09-03 01:43:29 | 47.81806 | 17.27148 | 127° | 58km/h | 7350m | -13.2m/s | 0°C | 0% | 0hPa | 0V | 00:00:00 | 00:00:00 | 00:00:00 | |
| OE3OSB-13 | 2026-09-03 01:43:28 | 47.81822 | 17.27112 | 118° | 55km/h | 7376m | -12.6m/s | -25.2°C | 27.3% | 403.8hPa | 0V | 00:00:00 | 00:00:00 | 00:00:00 | |
| OE3JTB-15 | 2026-09-03 01:43:26 | 47.81830 | 17.27093 | 122° | 57km/h | 7390m | -12.6m/s | 0°C | 0% | 0hPa | 0V | 00:00:00 | 00:00:00 | 00:00:00 | |
| OM5KV | 2026-09-03 01:43:23 | 47.81854 | 17.27036 | 120° | 60km/h | 7430m | -11.9m/s | 0°C | 0% | 0hPa | 0V | 00:00:00 | 00:00:00 | 00:00:00 | |
| ATIDSZ-14 | 2026-09-03 01:43:20 | 47.81876 | 17.26980 | 119° | 58km/h | 7471m | -11.0m/s | 0°C | 0% | 0hPa | 0V | 00:00:00 | 00:00:00 | 00:00:00 | |
| PETON7-10 | 2026-09-03 01:43:15 | 47.81912 | 17.26884 | 118° | 55km/h | 7533m | -12.0m/s | 0°C | 0% | 0hPa | 0V | 00:00:00 | 00:00:00 | 00:00:00 | |
| OM5KV | 2026-09-03 01:43:13 | 47.81927 | 17.26847 | 117° | 57km/h | 7559m | -11.0m/s | 0°C | 0% | 0hPa | 0V | 00:00:00 | 00:00:00 | 00:00:00 | |
| OM5KV | 2026-09-03 01:43:10 | 47.81948 | 17.26792 | 124° | 53km/h | 7597m | -12.4m/s | 0°C | 0% | 0hPa | 0V | 00:00:00 | 00:00:00 | 00:00:00 | |
| OM5KV | 2026-09-03 01:43:07 | 47.81969 | 17.26737 | 121° | 53km/h | 7635m | -12.2m/s | 0°C | 0% | 0hPa | 0V | 00:00:00 | 00:00:00 | 00:00:00 | |
| OM5KV | 2026-09-03 01:43:03 | 47.81998 | 17.26671 | 127° | 51km/h | 7688m | -13.4m/s | 0°C | 0% | 0hPa | 0V | 00:00:00 | 00:00:00 | 00:00:00 | |
| PETON7-10 | 2026-09-03 01:42:59 | 47.82027 | 17.26606 | 125° | 53km/h | 7742m | -12.8m/s | 0°C | 0% | 0hPa | 0V | 00:00:00 | 00:00:00 | 00:00:00 | |
| OE3JTB-15 | 2026-09-03 01:42:57 | 47.82042 | 17.26573 | 125° | 51km/h | 7769m | -13.0m/s | 0°C | 0% | 0hPa | 0V | 00:00:00 | 00:00:00 | 00:00:00 | |
| OM5KV | 2026-09-03 01:42:56 | 47.82049 | 17.26557 | 125° | 53km/h | 7782m | -12.5m/s | 0°C | 0% | 0hPa | 0V | 00:00:00 | 00:00:00 | 00:00:00 | |
| ATIDSZ-14 | 2026-09-03 01:42:49 | 47.82102 | 17.26445 | 126° | 51km/h | 7877m | -11.4m/s | 0°C | 0% | 0hPa | 0V | 00:00:00 | 00:00:00 | 00:00:00 | |
| OM5KV | 2026-09-03 01:42:45 | 47.82136 | 17.26386 | 131° | 47km/h | 7931m | -11.8m/s | 0°C | 0% | 0hPa | 0V | 00:00:00 | 00:00:00 | 00:00:00 | |
| PETON7-10 | 2026-09-03 01:42:43 | 47.82152 | 17.26359 | 134° | 47km/h | 7957m | -11.1m/s | 0°C | 0% | 0hPa | 0V | 00:00:00 | 00:00:00 | 00:00:00 | |
| OM5KV | 2026-09-03 01:42:37 | 47.82206 | 17.26285 | 143° | 47km/h | 8037m | -13.3m/s | 0°C | 0% | 0hPa | 0V | 00:00:00 | 00:00:00 | 00:00:00 | |
| OM5KV | 2026-09-03 01:42:33 | 47.82242 | 17.26237 | 142° | 47km/h | 8091m | -11.9m/s | 0°C | 0% | 0hPa | 0V | 00:00:00 | 00:00:00 | 00:00:00 | |
| ATIDSZ-14 | 2026-09-03 01:42:28 | 47.82288 | 17.26177 | 137° | 46km/h | 8159m | -10.9m/s | 0°C | 0% | 0hPa | 0V | 00:00:00 | 00:00:00 | 00:00:00 | |
| OM5KV | 2026-09-03 01:42:27 | 47.82297 | 17.26166 | 143° | 49km/h | 8172m | -11.9m/s | 0°C | 0% | 0hPa | 0V | 00:00:00 | 00:00:00 | 00:00:00 | |
| OE3OSB-13 | 2026-09-03 01:42:26 | 47.82316 | 17.26142 | 137° | 51km/h | 8199m | -12.6m/s | -32.2°C | 25.7% | 359.7hPa | 0V | 00:00:00 | 00:00:00 | 00:00:00 | |
| OE3JTB-15 | 2026-09-03 01:42:25 | 47.82316 | 17.26142 | 138° | 49km/h | 8199m | -12.5m/s | 0°C | 0% | 0hPa | 0V | 00:00:00 | 00:00:00 | 00:00:00 | |
| OM5KV | 2026-09-03 01:42:24 | 47.82325 | 17.26130 | 140° | 49km/h | 8212m | -11.5m/s | 0°C | 0% | 0hPa | 0V | 00:00:00 | 00:00:00 | 00:00:00 | |
| S52SK | 2026-09-03 01:42:23 | 47.82334 | 17.26118 | 139° | 49km/h | 8225m | -12.4m/s | 0°C | 0% | 0hPa | 0V | 00:00:00 | 00:00:00 | 00:00:00 | |
| OM5KV | 2026-09-03 01:42:21 | 47.82353 | 17.26095 | 141° | 51km/h | 8253m | -13.1m/s | 0°C | 0% | 0hPa | 0V | 00:00:00 | 00:00:00 | 00:00:00 | |
| S52SK | 2026-09-03 01:42:14 | 47.82419 | 17.26012 | 138° | 44km/h | 8348m | -12.9m/s | 0°C | 0% | 0hPa | 0V | 00:00:00 | 00:00:00 | 00:00:00 | |
| OM5KV | 2026-09-03 01:42:13 | 47.82427 | 17.26000 | 134° | 51km/h | 8361m | -13.1m/s | 0°C | 0% | 0hPa | 0V | 00:00:00 | 00:00:00 | 00:00:00 | |
| PETON7-10 | 2026-09-03 01:42:11 | 47.82446 | 17.25974 | 137° | 51km/h | 8388m | -13.7m/s | 0°C | 0% | 0hPa | 0V | 00:00:00 | 00:00:00 | 00:00:00 | |
| ATIDSZ-14 | 2026-09-03 01:42:08 | 47.82473 | 17.25936 | 140° | 49km/h | 8429m | -12.6m/s | 0°C | 0% | 0hPa | 0V | 00:00:00 | 00:00:00 | 00:00:00 | |
| S52SK | 2026-09-03 01:42:07 | 47.82482 | 17.25923 | 138° | 53km/h | 8442m | -12.9m/s | 0°C | 0% | 0hPa | 0V | 00:00:00 | 00:00:00 | 00:00:00 | |
| OM5KV | 2026-09-03 01:42:02 | 47.82529 | 17.25857 | 141° | 49km/h | 8515m | -13.6m/s | 0°C | 0% | 0hPa | 0V | 00:00:00 | 00:00:00 | 00:00:00 | |
| S52SK | 2026-09-03 01:42:01 | 47.82538 | 17.25844 | 136° | 51km/h | 8529m | -13.3m/s | 0°C | 0% | 0hPa | 0V | 00:00:00 | 00:00:00 | 00:00:00 | |
| OE3OSB-13 | 2026-09-03 01:41:55 | 47.82603 | 17.25747 | 132° | 49km/h | 8627m | -13.2m/s | -36.1°C | 41.9% | 338.2hPa | 0V | 00:00:00 | 00:00:00 | 00:00:00 | |
| OM5KV | 2026-09-03 01:41:50 | 47.82638 | 17.25686 | 131° | 53km/h | 8683m | -12.7m/s | 0°C | 0% | 0hPa | 0V | 00:00:00 | 00:00:00 | 00:00:00 | |
| ATIDSZ-14 | 2026-09-03 01:41:48 | 47.82657 | 17.25654 | 136° | 57km/h | 8711m | -13.3m/s | 0°C | 0% | 0hPa | 0V | 00:00:00 | 00:00:00 | 00:00:00 | |
| OM5KV | 2026-09-03 01:41:45 | 47.82685 | 17.25607 | 128° | 53km/h | 8756m | -13.0m/s | 0°C | 0% | 0hPa | 0V | 00:00:00 | 00:00:00 | 00:00:00 | |
| OM5KV | 2026-09-03 01:41:44 | 47.82694 | 17.25591 | 134° | 58km/h | 8770m | -13.2m/s | 0°C | 0% | 0hPa | 0V | 00:00:00 | 00:00:00 | 00:00:00 | |
| S52SK | 2026-09-03 01:41:41 | 47.82721 | 17.25542 | 125° | 57km/h | 8812m | -12.4m/s | 0°C | 0% | 0hPa | 0V | 00:00:00 | 00:00:00 | 00:00:00 | |
| PETON7-10 | 2026-09-03 01:41:40 | 47.82729 | 17.25525 | 127° | 58km/h | 8825m | -11.8m/s | 0°C | 0% | 0hPa | 0V | 00:00:00 | 00:00:00 | 00:00:00 | |
| OM5KV | 2026-09-03 01:41:39 | 47.82737 | 17.25507 | 125° | 57km/h | 8839m | -14.1m/s | 0°C | 0% | 0hPa | 0V | 00:00:00 | 00:00:00 | 00:00:00 | |
| S52SK | 2026-09-03 01:41:34 | 47.82784 | 17.25421 | 126° | 64km/h | 8913m | -15.0m/s | 0°C | 0% | 0hPa | 0V | 00:00:00 | 00:00:00 | 00:00:00 | |
| OM5KV | 2026-09-03 01:41:33 | 47.82793 | 17.25403 | 132° | 58km/h | 8928m | -13.3m/s | 0°C | 0% | 0hPa | 0V | 00:00:00 | 00:00:00 | 00:00:00 | |
| ATIDSZ-14 | 2026-09-03 01:41:27 | 47.82849 | 17.25298 | 129° | 64km/h | 9016m | -14.1m/s | 0°C | 0% | 0hPa | 0V | 00:00:00 | 00:00:00 | 00:00:00 | |
| OM5KV | 2026-09-03 01:41:26 | 47.82859 | 17.25280 | 133° | 58km/h | 9031m | -14.0m/s | 0°C | 0% | 0hPa | 0V | 00:00:00 | 00:00:00 | 00:00:00 | |
| PETON7-10 | 2026-09-03 01:41:25 | 47.82869 | 17.25262 | 127° | 60km/h | 9046m | -13.1m/s | 0°C | 0% | 0hPa | 0V | 00:00:00 | 00:00:00 | 00:00:00 | |
| OE3OSB-13 | 2026-09-03 01:41:24 | 47.82887 | 17.25227 | 125° | 57km/h | 9076m | -12.7m/s | -40.4°C | 59.7% | 316.9hPa | 0V | 00:00:00 | 00:00:00 | 00:00:00 | |
| OM5KV | 2026-09-03 01:41:22 | 47.82896 | 17.25210 | 132° | 60km/h | 9089m | -11.8m/s | 0°C | 0% | 0hPa | 0V | 00:00:00 | 00:00:00 | 00:00:00 | |
| OM5KV | 2026-09-03 01:41:21 | 47.82906 | 17.25192 | 126° | 62km/h | 9103m | -13.6m/s | 0°C | 0% | 0hPa | 0V | 00:00:00 | 00:00:00 | 00:00:00 | |
| S52SK | 2026-09-03 01:41:19 | 47.82925 | 17.25156 | 127° | 60km/h | 9132m | -13.6m/s | 0°C | 0% | 0hPa | 0V | 00:00:00 | 00:00:00 | 00:00:00 | |
| OM5KV | 2026-09-03 01:41:16 | 47.82953 | 17.25101 | 131° | 62km/h | 9174m | -14.1m/s | 0°C | 0% | 0hPa | 0V | 00:00:00 | 00:00:00 | 00:00:00 | |
| OM5KV | 2026-09-03 01:41:15 | 47.82962 | 17.25084 | 127° | 60km/h | 9189m | -13.8m/s | 0°C | 0% | 0hPa | 0V | 00:00:00 | 00:00:00 | 00:00:00 | |
| PETON7-10 | 2026-09-03 01:41:10 | 47.83010 | 17.24990 | 127° | 62km/h | 9263m | -15.4m/s | 0°C | 0% | 0hPa | 0V | 00:00:00 | 00:00:00 | 00:00:00 | |
| S52SK | 2026-09-03 01:41:08 | 47.83029 | 17.24952 | 127° | 60km/h | 9293m | -13.5m/s | 0°C | 0% | 0hPa | 0V | 00:00:00 | 00:00:00 | 00:00:00 | |
| ATIDSZ-14 | 2026-09-03 01:41:07 | 47.83039 | 17.24934 | 131° | 64km/h | 9307m | -14.6m/s | 0°C | 0% | 0hPa | 0V | 00:00:00 | 00:00:00 | 00:00:00 | |
| OM5KV | 2026-09-03 01:41:05 | 47.83059 | 17.24897 | 129° | 66km/h | 9338m | -14.0m/s | 0°C | 0% | 0hPa | 0V | 00:00:00 | 00:00:00 | 00:00:00 | |
| OM5KV | 2026-09-03 01:41:04 | 47.83069 | 17.24879 | 133° | 60km/h | 9354m | -15.6m/s | 0°C | 0% | 0hPa | 0V | 00:00:00 | 00:00:00 | 00:00:00 | |
| S52SK | 2026-09-03 01:41:00 | 47.83108 | 17.24810 | 128° | 60km/h | 9415m | -13.7m/s | 0°C | 0% | 0hPa | 0V | 00:00:00 | 00:00:00 | 00:00:00 | |
| OE3OSB-13 | 2026-09-03 01:40:53 | 47.83193 | 17.24666 | 134° | 66km/h | 9534m | -13.5m/s | -44.8°C | 57.0% | 295.8hPa | 0V | 00:00:00 | 00:00:00 | 00:00:00 | |
| OM5KV | 2026-09-03 01:40:49 | 47.83228 | 17.24610 | 135° | 71km/h | 9579m | -13.1m/s | 0°C | 0% | 0hPa | 0V | 00:00:00 | 00:00:00 | 00:00:00 | |
| OM5KV | 2026-09-03 01:40:48 | 47.83240 | 17.24591 | 135° | 69km/h | 9593m | -12.9m/s | 0°C | 0% | 0hPa | 0V | 00:00:00 | 00:00:00 | 00:00:00 | |
| OM5KV | 2026-09-03 01:40:43 | 47.83304 | 17.24492 | 136° | 75km/h | 9665m | -12.9m/s | 0°C | 0% | 0hPa | 0V | 00:00:00 | 00:00:00 | 00:00:00 | |
| OM5KV | 2026-09-03 01:40:42 | 47.83318 | 17.24472 | 134° | 77km/h | 9680m | -13.7m/s | 0°C | 0% | 0hPa | 0V | 00:00:00 | 00:00:00 | 00:00:00 | |
| PETON7-10 | 2026-09-03 01:40:39 | 47.83360 | 17.24410 | 138° | 89km/h | 9728m | -15.3m/s | 0°C | 0% | 0hPa | 0V | 00:00:00 | 00:00:00 | 00:00:00 | |
| OM5KV | 2026-09-03 01:40:37 | 47.83389 | 17.24367 | 140° | 82km/h | 9758m | -13.6m/s | 0°C | 0% | 0hPa | 0V | 00:00:00 | 00:00:00 | 00:00:00 | |
| OM5KV | 2026-09-03 01:40:36 | 47.83405 | 17.24347 | 137° | 82km/h | 9773m | -13.1m/s | 0°C | 0% | 0hPa | 0V | 00:00:00 | 00:00:00 | 00:00:00 | |
| OM5KV | 2026-09-03 01:40:31 | 47.83486 | 17.24241 | 142° | 89km/h | 9849m | -13.3m/s | 0°C | 0% | 0hPa | 0V | 00:00:00 | 00:00:00 | 00:00:00 | |
| OM5KV | 2026-09-03 01:40:30 | 47.83504 | 17.24219 | 140° | 86km/h | 9863m | -14.4m/s | 0°C | 0% | 0hPa | 0V | 00:00:00 | 00:00:00 | 00:00:00 | |
| ATIDSZ-14 | 2026-09-03 01:40:26 | 47.83575 | 17.24133 | 145° | 93km/h | 9923m | -15.0m/s | 0°C | 0% | 0hPa | 0V | 00:00:00 | 00:00:00 | 00:00:00 | |
| OM5KV | 2026-09-03 01:40:25 | 47.83594 | 17.24111 | 141° | 97km/h | 9939m | -14.8m/s | 0°C | 0% | 0hPa | 0V | 00:00:00 | 00:00:00 | 00:00:00 | |
| PETON7-10 | 2026-09-03 01:40:22 | 47.83651 | 17.24044 | 143° | 106km/h | 9984m | -13.6m/s | 0°C | 0% | 0hPa | 0V | 00:00:00 | 00:00:00 | 00:00:00 | |
| OM5KV | 2026-09-03 01:40:19 | 47.83712 | 17.23977 | 147° | 102km/h | 10028m | -15.1m/s | 0°C | 0% | 0hPa | 0V | 00:00:00 | 00:00:00 | 00:00:00 | |
| OM5KV | 2026-09-03 01:40:18 | 47.83734 | 17.23954 | 144° | 110km/h | 10045m | -15.7m/s | 0°C | 0% | 0hPa | 0V | 00:00:00 | 00:00:00 | 00:00:00 | |
| OM5KV | 2026-09-03 01:40:14 | 47.83822 | 17.23862 | 146° | 111km/h | 10109m | -14.8m/s | 0°C | 0% | 0hPa | 0V | 00:00:00 | 00:00:00 | 00:00:00 | |
| OM5KV | 2026-09-03 01:40:13 | 47.83844 | 17.23840 | 147° | 106km/h | 10125m | -14.9m/s | 0°C | 0% | 0hPa | 0V | 00:00:00 | 00:00:00 | 00:00:00 | |
| OM5KV | 2026-09-03 01:40:12 | 47.83867 | 17.23817 | 148° | 111km/h | 10140m | -13.8m/s | 0°C | 0% | 0hPa | 0V | 00:00:00 | 00:00:00 | 00:00:00 | |
| PETON7-10 | 2026-09-03 01:40:07 | 47.83984 | 17.23703 | 149° | 111km/h | 10220m | -14.0m/s | 0°C | 0% | 0hPa | 0V | 00:00:00 | 00:00:00 | 00:00:00 | |
| ATIDSZ-14 | 2026-09-03 01:40:04 | 47.84053 | 17.23634 | 146° | 113km/h | 10265m | -15.2m/s | 0°C | 0% | 0hPa | 0V | 00:00:00 | 00:00:00 | 00:00:00 | |
| OM5KV | 2026-09-03 01:40:02 | 47.84101 | 17.23588 | 149° | 113km/h | 10295m | -13.9m/s | 0°C | 0% | 0hPa | 0V | 00:00:00 | 00:00:00 | 00:00:00 | |
| OE3OSB-13 | 2026-09-03 01:39:51 | 47.84377 | 17.23313 | 145° | 106km/h | 10483m | -15.2m/s | -51.1°C | 22.1% | 256.0hPa | 0V | 00:00:00 | 00:00:00 | 00:00:00 | |
| OE3JTB-15 | 2026-09-03 01:39:50 | 47.84377 | 17.23313 | 146° | 117km/h | 10483m | -15.1m/s | 0°C | 0% | 0hPa | 0V | 00:00:00 | 00:00:00 | 00:00:00 | |
| OM5KV | 2026-09-03 01:39:49 | 47.84399 | 17.23290 | 148° | 111km/h | 10499m | -14.7m/s | 0°C | 0% | 0hPa | 0V | 00:00:00 | 00:00:00 | 00:00:00 | |
| S52SK | 2026-09-03 01:39:46 | 47.84469 | 17.23220 | 146° | 113km/h | 10546m | -15.6m/s | 0°C | 0% | 0hPa | 0V | 00:00:00 | 00:00:00 | 00:00:00 | |
| OM5KV | 2026-09-03 01:39:45 | 47.84492 | 17.23196 | 146° | 108km/h | 10562m | -14.9m/s | 0°C | 0% | 0hPa | 0V | 00:00:00 | 00:00:00 | 00:00:00 | |
| ATIDSZ-14 | 2026-09-03 01:39:43 | 47.84538 | 17.23148 | 145° | 113km/h | 10593m | -14.9m/s | 0°C | 0% | 0hPa | 0V | 00:00:00 | 00:00:00 | 00:00:00 | |
| PETON7-10 | 2026-09-03 01:39:35 | 47.84731 | 17.22950 | 145° | 126km/h | 10721m | -15.0m/s | 0°C | 0% | 0hPa | 0V | 00:00:00 | 00:00:00 | 00:00:00 | |
| OM5KV | 2026-09-03 01:39:29 | 47.84880 | 17.22787 | 143° | 128km/h | 10817m | -14.3m/s | 0°C | 0% | 0hPa | 0V | 00:00:00 | 00:00:00 | 00:00:00 | |
| ATIDSZ-14 | 2026-09-03 01:39:22 | 47.85069 | 17.22590 | 146° | 135km/h | 10929m | -15.0m/s | 0°C | 0% | 0hPa | 0V | 00:00:00 | 00:00:00 | 00:00:00 | |
| OE3JTB-15 | 2026-09-03 01:39:21 | 47.85098 | 17.22562 | 147° | 135km/h | 10945m | -15.1m/s | 0°C | 0% | 0hPa | 0V | 00:00:00 | 00:00:00 | 00:00:00 | |
| OE3OSB-13 | 2026-09-03 01:39:20 | 47.85184 | 17.22478 | 147° | 133km/h | 10994m | -14.3m/s | -52.3°C | 12.3% | 236.5hPa | 0V | 00:00:00 | 00:00:00 | 00:00:00 | |
| OM5KV | 2026-09-03 01:39:17 | 47.85213 | 17.22450 | 148° | 139km/h | 11010m | -15.2m/s | 0°C | 0% | 0hPa | 0V | 00:00:00 | 00:00:00 | 00:00:00 | |
| OM5KV | 2026-09-03 01:39:14 | 47.85299 | 17.22366 | 148° | 137km/h | 11058m | -15.0m/s | 0°C | 0% | 0hPa | 0V | 00:00:00 | 00:00:00 | 00:00:00 | |
| OM5KV | 2026-09-03 01:39:12 | 47.85356 | 17.22310 | 149° | 133km/h | 11090m | -14.8m/s | 0°C | 0% | 0hPa | 0V | 00:00:00 | 00:00:00 | 00:00:00 | |
| OM5KV | 2026-09-03 01:39:11 | 47.85385 | 17.22283 | 149° | 137km/h | 11106m | -14.7m/s | 0°C | 0% | 0hPa | 0V | 00:00:00 | 00:00:00 | 00:00:00 | |
| OM5KV | 2026-09-03 01:39:06 | 47.85525 | 17.22148 | 148° | 128km/h | 11189m | -15.1m/s | 0°C | 0% | 0hPa | 0V | 00:00:00 | 00:00:00 | 00:00:00 | |
| PETON7-10 | 2026-09-03 01:39:05 | 47.85552 | 17.22122 | 149° | 135km/h | 11205m | -14.5m/s | 0°C | 0% | 0hPa | 0V | 00:00:00 | 00:00:00 | 00:00:00 | |
| OM5KV | 2026-09-03 01:39:00 | 47.85690 | 17.21992 | 148° | 135km/h | 11286m | -14.3m/s | 0°C | 0% | 0hPa | 0V | 00:00:00 | 00:00:00 | 00:00:00 | |
| OE3OSB-13 | 2026-09-03 01:38:49 | 47.86068 | 17.21646 | 148° | 135km/h | 11495m | -14.2m/s | -54.1°C | 3.5% | 218.7hPa | 0V | 00:00:00 | 00:00:00 | 00:00:00 | |
| S52SK | 2026-09-03 01:38:45 | 47.86128 | 17.21592 | 148° | 137km/h | 11526m | -15.1m/s | 0°C | 0% | 0hPa | 0V | 00:00:00 | 00:00:00 | 00:00:00 | |
| OM5KV | 2026-09-03 01:38:43 | 47.86185 | 17.21539 | 150° | 131km/h | 11558m | -15.4m/s | 0°C | 0% | 0hPa | 0V | 00:00:00 | 00:00:00 | 00:00:00 | |
| OM5KV | 2026-09-03 01:38:37 | 47.86353 | 17.21380 | 147° | 130km/h | 11657m | -15.4m/s | 0°C | 0% | 0hPa | 0V | 00:00:00 | 00:00:00 | 00:00:00 | |
| OM5KV | 2026-09-03 01:38:36 | 47.86380 | 17.21354 | 149° | 131km/h | 11674m | -15.4m/s | 0°C | 0% | 0hPa | 0V | 00:00:00 | 00:00:00 | 00:00:00 | |
| PETON7-10 | 2026-09-03 01:38:35 | 47.86409 | 17.21327 | 149° | 126km/h | 11690m | -15.3m/s | 0°C | 0% | 0hPa | 0V | 00:00:00 | 00:00:00 | 00:00:00 | |
| OM5KV | 2026-09-03 01:38:32 | 47.86491 | 17.21248 | 149° | 130km/h | 11739m | -15.6m/s | 0°C | 0% | 0hPa | 0V | 00:00:00 | 00:00:00 | 00:00:00 | |
| ATIDSZ-14 | 2026-09-03 01:38:27 | 47.86627 | 17.21113 | 146° | 126km/h | 11821m | -14.9m/s | 0°C | 0% | 0hPa | 0V | 00:00:00 | 00:00:00 | 00:00:00 | |
| OM5KV | 2026-09-03 01:38:24 | 47.86705 | 17.21035 | 148° | 122km/h | 11870m | -15.0m/s | 0°C | 0% | 0hPa | 0V | 00:00:00 | 00:00:00 | 00:00:00 | |
| OM5KV | 2026-09-03 01:38:23 | 47.86730 | 17.21009 | 146° | 122km/h | 11886m | -16.4m/s | 0°C | 0% | 0hPa | 0V | 00:00:00 | 00:00:00 | 00:00:00 | |
| PETON7-10 | 2026-09-03 01:38:20 | 47.86802 | 17.20932 | 144° | 113km/h | 11938m | -16.0m/s | 0°C | 0% | 0hPa | 0V | 00:00:00 | 00:00:00 | 00:00:00 | |
| OE3OSB-13 | 2026-09-03 01:38:18 | 47.86870 | 17.20855 | 142° | 111km/h | 11989m | -15.6m/s | -52.6°C | 0.0% | 202.3hPa | 0V | 00:00:00 | 00:00:00 | 00:00:00 | |
| OM5KV | 2026-09-03 01:38:16 | 47.86893 | 17.20828 | 142° | 115km/h | 12006m | -16.0m/s | 0°C | 0% | 0hPa | 0V | 00:00:00 | 00:00:00 | 00:00:00 | |
| OM5KV | 2026-09-03 01:38:11 | 47.87001 | 17.20692 | 140° | 111km/h | 12089m | -16.2m/s | 0°C | 0% | 0hPa | 0V | 00:00:00 | 00:00:00 | 00:00:00 | |
| OM5KV | 2026-09-03 01:38:10 | 47.87023 | 17.20664 | 140° | 113km/h | 12106m | -15.6m/s | 0°C | 0% | 0hPa | 0V | 00:00:00 | 00:00:00 | 00:00:00 | |
| OM5KV | 2026-09-03 01:38:07 | 47.87086 | 17.20580 | 142° | 111km/h | 12157m | -17.0m/s | 0°C | 0% | 0hPa | 0V | 00:00:00 | 00:00:00 | 00:00:00 | |
| PETON7-10 | 2026-09-03 01:38:04 | 47.87153 | 17.20497 | 139° | 102km/h | 12212m | -16.5m/s | 0°C | 0% | 0hPa | 0V | 00:00:00 | 00:00:00 | 00:00:00 | |
| ATIDSZ-14 | 2026-09-03 01:38:03 | 47.87175 | 17.20469 | 141° | 111km/h | 12229m | -17.5m/s | 0°C | 0% | 0hPa | 0V | 00:00:00 | 00:00:00 | 00:00:00 | |
| OM5KV | 2026-09-03 01:38:01 | 47.87219 | 17.20417 | 143° | 110km/h | 12265m | -16.2m/s | 0°C | 0% | 0hPa | 0V | 00:00:00 | 00:00:00 | 00:00:00 | |
| OE3OSB-13 | 2026-09-03 01:37:46 | 47.87512 | 17.20092 | 142° | 86km/h | 12524m | -15.6m/s | -52.2°C | 0.0% | 186.2hPa | 0V | 00:00:00 | 00:00:00 | 00:00:00 | |
| OM5KV | 2026-09-03 01:37:44 | 47.87547 | 17.20051 | 141° | 91km/h | 12558m | -16.2m/s | 0°C | 0% | 0hPa | 0V | 00:00:00 | 00:00:00 | 00:00:00 | |
| OM5KV | 2026-09-03 01:37:42 | 47.87579 | 17.20008 | 138° | 82km/h | 12592m | -16.7m/s | 0°C | 0% | 0hPa | 0V | 00:00:00 | 00:00:00 | 00:00:00 | |
| ATIDSZ-14 | 2026-09-03 01:37:39 | 47.87625 | 17.19942 | 134° | 82km/h | 12646m | -17.3m/s | 0°C | 0% | 0hPa | 0V | 00:00:00 | 00:00:00 | 00:00:00 | |
| OM5KV | 2026-09-03 01:37:38 | 47.87640 | 17.19919 | 136° | 84km/h | 12664m | -17.2m/s | 0°C | 0% | 0hPa | 0V | 00:00:00 | 00:00:00 | 00:00:00 | |
| OM5KV | 2026-09-03 01:37:36 | 47.87669 | 17.19872 | 135° | 86km/h | 12701m | -18.0m/s | 0°C | 0% | 0hPa | 0V | 00:00:00 | 00:00:00 | 00:00:00 | |
| S52SK | 2026-09-03 01:37:35 | 47.87683 | 17.19847 | 129° | 89km/h | 12720m | -17.6m/s | 0°C | 0% | 0hPa | 0V | 00:00:00 | 00:00:00 | 00:00:00 | |
| PETON7-10 | 2026-09-03 01:37:34 | 47.87697 | 17.19821 | 130° | 91km/h | 12738m | -17.7m/s | 0°C | 0% | 0hPa | 0V | 00:00:00 | 00:00:00 | 00:00:00 | |
| OM5KV | 2026-09-03 01:37:32 | 47.87726 | 17.19768 | 130° | 89km/h | 12776m | -17.4m/s | 0°C | 0% | 0hPa | 0V | 00:00:00 | 00:00:00 | 00:00:00 | |
| OM5KV | 2026-09-03 01:37:31 | 47.87741 | 17.19741 | 129° | 95km/h | 12794m | -16.9m/s | 0°C | 0% | 0hPa | 0V | 00:00:00 | 00:00:00 | 00:00:00 | |
| OM5KV | 2026-09-03 01:37:29 | 47.87770 | 17.19685 | 131° | 95km/h | 12830m | -16.7m/s | 0°C | 0% | 0hPa | 0V | 00:00:00 | 00:00:00 | 00:00:00 | |
| OE5DXL-15 | 2026-09-03 01:37:27 | 47.87799 | 17.19629 | 128° | 89km/h | 12867m | -17.1m/s | 0°C | 0% | 0hPa | 0V | 00:00:00 | 00:00:00 | 00:00:00 | |
| OM5KV | 2026-09-03 01:37:25 | 47.87828 | 17.19575 | 129° | 91km/h | 12903m | -16.7m/s | 0°C | 0% | 0hPa | 0V | 00:00:00 | 00:00:00 | 00:00:00 | |
| OM5KV | 2026-09-03 01:37:24 | 47.87842 | 17.19549 | 131° | 91km/h | 12921m | -16.7m/s | 0°C | 0% | 0hPa | 0V | 00:00:00 | 00:00:00 | 00:00:00 | |
| ATIDSZ-14 | 2026-09-03 01:37:19 | 47.87918 | 17.19413 | 130° | 97km/h | 13009m | -17.3m/s | 0°C | 0% | 0hPa | 0V | 00:00:00 | 00:00:00 | 00:00:00 | |
| OM5KV | 2026-09-03 01:37:18 | 47.87933 | 17.19386 | 131° | 91km/h | 13028m | -17.0m/s | 0°C | 0% | 0hPa | 0V | 00:00:00 | 00:00:00 | 00:00:00 | |
| PETON7-10 | 2026-09-03 01:37:17 | 47.87948 | 17.19360 | 133° | 91km/h | 13046m | -16.8m/s | 0°C | 0% | 0hPa | 0V | 00:00:00 | 00:00:00 | 00:00:00 | |
| OE3OSB-13 | 2026-09-03 01:37:15 | 47.87978 | 17.19306 | 127° | 91km/h | 13082m | -17.6m/s | -52.4°C | 0.0% | 170.7hPa | 0V | 00:00:00 | 00:00:00 | 00:00:00 | |
| OM5KV | 2026-09-03 01:37:13 | 47.88006 | 17.19253 | 131° | 88km/h | 13121m | -16.7m/s | 0°C | 0% | 0hPa | 0V | 00:00:00 | 00:00:00 | 00:00:00 | |
| OM5KV | 2026-09-03 01:37:12 | 47.88020 | 17.19227 | 130° | 88km/h | 13139m | -16.6m/s | 0°C | 0% | 0hPa | 0V | 00:00:00 | 00:00:00 | 00:00:00 | |
| OM5KV | 2026-09-03 01:37:07 | 47.88086 | 17.19091 | 125° | 93km/h | 13229m | -17.0m/s | 0°C | 0% | 0hPa | 0V | 00:00:00 | 00:00:00 | 00:00:00 | |
| OM5KV | 2026-09-03 01:37:06 | 47.88099 | 17.19062 | 123° | 93km/h | 13247m | -17.5m/s | 0°C | 0% | 0hPa | 0V | 00:00:00 | 00:00:00 | 00:00:00 | |
| PETON7-10 | 2026-09-03 01:37:02 | 47.88153 | 17.18946 | 125° | 82km/h | 13321m | -17.1m/s | 0°C | 0% | 0hPa | 0V | 00:00:00 | 00:00:00 | 00:00:00 | |
| ATIDSZ-14 | 2026-09-03 01:36:58 | 47.88206 | 17.18835 | 125° | 88km/h | 13397m | -18.2m/s | 0°C | 0% | 0hPa | 0V | 00:00:00 | 00:00:00 | 00:00:00 | |
| OM5KV | 2026-09-03 01:36:55 | 47.88241 | 17.18760 | 126° | 80km/h | 13458m | -18.6m/s | 0°C | 0% | 0hPa | 0V | 00:00:00 | 00:00:00 | 00:00:00 | |
| OE5DXL-15 | 2026-09-03 01:36:53 | 47.88262 | 17.18710 | 124° | 80km/h | 13496m | -17.9m/s | 0°C | 0% | 0hPa | 0V | 00:00:00 | 00:00:00 | 00:00:00 | |
| OM5KV | 2026-09-03 01:36:50 | 47.88291 | 17.18640 | 119° | 73km/h | 13554m | -17.8m/s | 0°C | 0% | 0hPa | 0V | 00:00:00 | 00:00:00 | 00:00:00 | |
| OM5KV | 2026-09-03 01:36:49 | 47.88299 | 17.18616 | 120° | 71km/h | 13573m | -17.2m/s | 0°C | 0% | 0hPa | 0V | 00:00:00 | 00:00:00 | 00:00:00 | |
| PETON7-10 | 2026-09-03 01:36:47 | 47.88317 | 17.18567 | 116° | 82km/h | 13612m | -18.2m/s | 0°C | 0% | 0hPa | 0V | 00:00:00 | 00:00:00 | 00:00:00 | |
| OM5KV | 2026-09-03 01:36:44 | 47.88343 | 17.18492 | 120° | 78km/h | 13667m | -17.7m/s | 0°C | 0% | 0hPa | 0V | 00:00:00 | 00:00:00 | 00:00:00 | |
| OM5KV | 2026-09-03 01:36:43 | 47.88353 | 17.18465 | 118° | 84km/h | 13686m | -18.8m/s | 0°C | 0% | 0hPa | 0V | 00:00:00 | 00:00:00 | 00:00:00 | |
| ATIDSZ-14 | 2026-09-03 01:36:38 | 47.88407 | 17.18331 | 125° | 86km/h | 13782m | -18.6m/s | 0°C | 0% | 0hPa | 0V | 00:00:00 | 00:00:00 | 00:00:00 | |
| S52SK | 2026-09-03 01:36:37 | 47.88419 | 17.18304 | 122° | 88km/h | 13801m | -19.2m/s | 0°C | 0% | 0hPa | 0V | 00:00:00 | 00:00:00 | 00:00:00 | |
| HA6NAB-11 | 2026-09-03 01:36:33 | 47.88465 | 17.18197 | 124° | 84km/h | 13882m | -18.8m/s | 0°C | 0% | 0hPa | 0V | 00:00:00 | 00:00:00 | 00:00:00 | |
| PETON7-10 | 2026-09-03 01:36:32 | 47.88476 | 17.18171 | 122° | 78km/h | 13901m | -18.7m/s | 0°C | 0% | 0hPa | 0V | 00:00:00 | 00:00:00 | 00:00:00 | |
| OM5KV | 2026-09-03 01:36:27 | 47.88527 | 17.18045 | 122° | 78km/h | 14003m | -19.6m/s | 0°C | 0% | 0hPa | 0V | 00:00:00 | 00:00:00 | 00:00:00 | |
| HA6NAB-11 | 2026-09-03 01:36:26 | 47.88537 | 17.18019 | 116° | 80km/h | 14023m | -19.7m/s | 0°C | 0% | 0hPa | 0V | 00:00:00 | 00:00:00 | 00:00:00 | |
| OE3JTB-15 | 2026-09-03 01:36:23 | 47.88562 | 17.17938 | 113° | 71km/h | 14085m | -20.8m/s | 0°C | 0% | 0hPa | 0V | 00:00:00 | 00:00:00 | 00:00:00 | |
| ATIDSZ-14 | 2026-09-03 01:36:16 | 47.88625 | 17.17744 | 120° | 80km/h | 14241m | -20.7m/s | 0°C | 0% | 0hPa | 0V | 00:00:00 | 00:00:00 | 00:00:00 | |
| OM5KV | 2026-09-03 01:36:15 | 47.88635 | 17.17718 | 121° | 80km/h | 14263m | -21.5m/s | 0°C | 0% | 0hPa | 0V | 00:00:00 | 00:00:00 | 00:00:00 | |
| HA6NAB-11 | 2026-09-03 01:36:14 | 47.88645 | 17.17692 | 122° | 77km/h | 14285m | -20.6m/s | 0°C | 0% | 0hPa | 0V | 00:00:00 | 00:00:00 | 00:00:00 | |
| OE3OSB-13 | 2026-09-03 01:36:13 | 47.88665 | 17.17642 | 122° | 75km/h | 14328m | -20.1m/s | -51.9°C | 0.0% | 140.6hPa | 0V | 00:00:00 | 00:00:00 | 00:00:00 | |
| HA6NAB-11 | 2026-09-03 01:36:09 | 47.88693 | 17.17567 | 123° | 77km/h | 14392m | -20.2m/s | 0°C | 0% | 0hPa | 0V | 00:00:00 | 00:00:00 | 00:00:00 | |
| PETON7-10 | 2026-09-03 01:36:02 | 47.88757 | 17.17415 | 127° | 58km/h | 14541m | -20.3m/s | 0°C | 0% | 0hPa | 0V | 00:00:00 | 00:00:00 | 00:00:00 | |
| OM5KV | 2026-09-03 01:35:59 | 47.88783 | 17.17358 | 127° | 60km/h | 14604m | -19.8m/s | 0°C | 0% | 0hPa | 0V | 00:00:00 | 00:00:00 | 00:00:00 | |
| OM5KV | 2026-09-03 01:35:56 | 47.88806 | 17.17303 | 127° | 55km/h | 14668m | -20.5m/s | 0°C | 0% | 0hPa | 0V | 00:00:00 | 00:00:00 | 00:00:00 | |
| ATIDSZ-14 | 2026-09-03 01:35:55 | 47.88814 | 17.17286 | 123° | 55km/h | 14690m | -20.6m/s | 0°C | 0% | 0hPa | 0V | 00:00:00 | 00:00:00 | 00:00:00 | |
| OM5KV | 2026-09-03 01:35:53 | 47.88827 | 17.17254 | 125° | 47km/h | 14732m | -19.7m/s | 0°C | 0% | 0hPa | 0V | 00:00:00 | 00:00:00 | 00:00:00 | |
| OE5DXL-15 | 2026-09-03 01:35:47 | 47.88859 | 17.17167 | 116° | 46km/h | 14859m | -20.1m/s | 0°C | 0% | 0hPa | 0V | 00:00:00 | 00:00:00 | 00:00:00 | |
| OM5KV | 2026-09-03 01:35:45 | 47.88868 | 17.17142 | 120° | 38km/h | 14901m | -20.4m/s | 0°C | 0% | 0hPa | 0V | 00:00:00 | 00:00:00 | 00:00:00 | |
| OM5KV | 2026-09-03 01:35:42 | 47.88880 | 17.17102 | 111° | 37km/h | 14965m | -21.0m/s | 0°C | 0% | 0hPa | 0V | 00:00:00 | 00:00:00 | 00:00:00 | |
| ATIDSZ-14 | 2026-09-03 01:35:34 | 47.88905 | 17.16978 | 103° | 53km/h | 15136m | -21.3m/s | 0°C | 0% | 0hPa | 0V | 00:00:00 | 00:00:00 | 00:00:00 | |
| OM5KV | 2026-09-03 01:35:33 | 47.88908 | 17.16959 | 100° | 46km/h | 15158m | -20.4m/s | 0°C | 0% | 0hPa | 0V | 00:00:00 | 00:00:00 | 00:00:00 | |
| PETON7-10 | 2026-09-03 01:35:29 | 47.88921 | 17.16885 | 109° | 55km/h | 15242m | -20.0m/s | 0°C | 0% | 0hPa | 0V | 00:00:00 | 00:00:00 | 00:00:00 | |
| OM5KV | 2026-09-03 01:35:28 | 47.88925 | 17.16865 | 107° | 57km/h | 15264m | -20.4m/s | 0°C | 0% | 0hPa | 0V | 00:00:00 | 00:00:00 | 00:00:00 | |
| OM5KV | 2026-09-03 01:35:27 | 47.88929 | 17.16846 | 108° | 51km/h | 15285m | -20.8m/s | 0°C | 0% | 0hPa | 0V | 00:00:00 | 00:00:00 | 00:00:00 | |
| S52SK | 2026-09-03 01:35:26 | 47.88934 | 17.16827 | 111° | 55km/h | 15307m | -20.4m/s | 0°C | 0% | 0hPa | 0V | 00:00:00 | 00:00:00 | 00:00:00 | |
| OM5KV | 2026-09-03 01:35:22 | 47.88951 | 17.16750 | 108° | 53km/h | 15393m | -20.5m/s | 0°C | 0% | 0hPa | 0V | 00:00:00 | 00:00:00 | 00:00:00 | |
| OM5KV | 2026-09-03 01:35:21 | 47.88956 | 17.16731 | 112° | 53km/h | 15414m | -20.0m/s | 0°C | 0% | 0hPa | 0V | 00:00:00 | 00:00:00 | 00:00:00 | |
| S52SK | 2026-09-03 01:35:19 | 47.88966 | 17.16693 | 109° | 55km/h | 15457m | -20.9m/s | 0°C | 0% | 0hPa | 0V | 00:00:00 | 00:00:00 | 00:00:00 | |
| OE5DXL-15 | 2026-09-03 01:35:15 | 47.88984 | 17.16618 | 115° | 58km/h | 15543m | -21.0m/s | 0°C | 0% | 0hPa | 0V | 00:00:00 | 00:00:00 | 00:00:00 | |
| PETON7-10 | 2026-09-03 01:35:14 | 47.88990 | 17.16599 | 118° | 57km/h | 15565m | -20.3m/s | 0°C | 0% | 0hPa | 0V | 00:00:00 | 00:00:00 | 00:00:00 | |
| ATIDSZ-14 | 2026-09-03 01:35:13 | 47.88996 | 17.16581 | 114° | 57km/h | 15585m | -20.1m/s | 0°C | 0% | 0hPa | 0V | 00:00:00 | 00:00:00 | 00:00:00 | |
| OE3OSB-13 | 2026-09-03 01:35:11 | 47.89014 | 17.16525 | 122° | 57km/h | 15650m | -20.4m/s | -54.8°C | 0.0% | 114.3hPa | 0V | 00:00:00 | 00:00:00 | 00:00:00 | |
| OM5KV | 2026-09-03 01:35:10 | 47.89014 | 17.16525 | 123° | 57km/h | 15650m | -20.4m/s | 0°C | 0% | 0hPa | 0V | 00:00:00 | 00:00:00 | 00:00:00 | |
| OM5KV | 2026-09-03 01:35:04 | 47.89062 | 17.16408 | 124° | 60km/h | 15782m | -19.3m/s | 0°C | 0% | 0hPa | 0V | 00:00:00 | 00:00:00 | 00:00:00 | |
| OM5KV | 2026-09-03 01:35:03 | 47.89071 | 17.16389 | 125° | 64km/h | 15803m | -21.1m/s | 0°C | 0% | 0hPa | 0V | 00:00:00 | 00:00:00 | 00:00:00 | |
| PETON7-10 | 2026-09-03 01:34:57 | 47.89110 | 17.16274 | 116° | 62km/h | 15934m | -20.6m/s | 0°C | 0% | 0hPa | 0V | 00:00:00 | 00:00:00 | 00:00:00 | |
| OM5KV | 2026-09-03 01:34:54 | 47.89127 | 17.16213 | 115° | 57km/h | 16001m | -21.5m/s | 0°C | 0% | 0hPa | 0V | 00:00:00 | 00:00:00 | 00:00:00 | |
| OM5KV | 2026-09-03 01:34:52 | 47.89136 | 17.16171 | 109° | 58km/h | 16045m | -21.9m/s | 0°C | 0% | 0hPa | 0V | 00:00:00 | 00:00:00 | 00:00:00 | |
| OM5KV | 2026-09-03 01:34:51 | 47.89141 | 17.16149 | 111° | 64km/h | 16067m | -21.2m/s | 0°C | 0% | 0hPa | 0V | 00:00:00 | 00:00:00 | 00:00:00 | |
| ATIDSZ-14 | 2026-09-03 01:34:50 | 47.89146 | 17.16126 | 106° | 66km/h | 16089m | -21.4m/s | 0°C | 0% | 0hPa | 0V | 00:00:00 | 00:00:00 | 00:00:00 | |
| OM5KV | 2026-09-03 01:34:47 | 47.89161 | 17.16056 | 107° | 68km/h | 16158m | -21.9m/s | 0°C | 0% | 0hPa | 0V | 00:00:00 | 00:00:00 | 00:00:00 | |
| OE5DXL-15 | 2026-09-03 01:34:43 | 47.89180 | 17.15960 | 108° | 53km/h | 16249m | -21.0m/s | 0°C | 0% | 0hPa | 0V | 00:00:00 | 00:00:00 | 00:00:00 | |
| PETON7-10 | 2026-09-03 01:34:42 | 47.89185 | 17.15936 | 111° | 60km/h | 16271m | -21.4m/s | 0°C | 0% | 0hPa | 0V | 00:00:00 | 00:00:00 | 00:00:00 | |
| OM5KV | 2026-09-03 01:34:41 | 47.89191 | 17.15911 | 111° | 71km/h | 16293m | -21.2m/s | 0°C | 0% | 0hPa | 0V | 00:00:00 | 00:00:00 | 00:00:00 | |
| OE3OSB-13 | 2026-09-03 01:34:40 | 47.89202 | 17.15864 | 110° | 62km/h | 16339m | -22.2m/s | -54.2°C | 0.0% | 102.5hPa | 0V | 00:00:00 | 00:00:00 | 00:00:00 | |
| OM5KV | 2026-09-03 01:34:36 | 47.89221 | 17.15800 | 117° | 57km/h | 16409m | -22.1m/s | 0°C | 0% | 0hPa | 0V | 00:00:00 | 00:00:00 | 00:00:00 | |
| OE3JTB-15 | 2026-09-03 01:34:30 | 47.89269 | 17.15673 | 123° | 40km/h | 16575m | -23.0m/s | 0°C | 0% | 0hPa | 0V | 00:00:00 | 00:00:00 | 00:00:00 | |
| ATIDSZ-14 | 2026-09-03 01:34:29 | 47.89277 | 17.15654 | 120° | 58km/h | 16599m | -23.4m/s | 0°C | 0% | 0hPa | 0V | 00:00:00 | 00:00:00 | 00:00:00 | |
| PETON7-10 | 2026-09-03 01:34:26 | 47.89290 | 17.15618 | 124° | 47km/h | 16648m | -22.2m/s | 0°C | 0% | 0hPa | 0V | 00:00:00 | 00:00:00 | 00:00:00 | |
| OM5KV | 2026-09-03 01:34:24 | 47.89307 | 17.15585 | 125° | 51km/h | 16696m | -22.0m/s | 0°C | 0% | 0hPa | 0V | 00:00:00 | 00:00:00 | 00:00:00 | |
| OM5KV | 2026-09-03 01:34:18 | 47.89351 | 17.15500 | 124° | 40km/h | 16840m | -23.1m/s | 0°C | 0% | 0hPa | 0V | 00:00:00 | 00:00:00 | 00:00:00 | |
| S52SK | 2026-09-03 01:34:17 | 47.89356 | 17.15487 | 123° | 42km/h | 16863m | -22.3m/s | 0°C | 0% | 0hPa | 0V | 00:00:00 | 00:00:00 | 00:00:00 | |
| OM5KV | 2026-09-03 01:34:16 | 47.89362 | 17.15474 | 126° | 42km/h | 16887m | -22.8m/s | 0°C | 0% | 0hPa | 0V | 00:00:00 | 00:00:00 | 00:00:00 | |
| OM5KV | 2026-09-03 01:34:13 | 47.89380 | 17.15433 | 119° | 44km/h | 16961m | -23.5m/s | 0°C | 0% | 0hPa | 0V | 00:00:00 | 00:00:00 | 00:00:00 | |
| OE5DXL-15 | 2026-09-03 01:34:12 | 47.89385 | 17.15419 | 118° | 16km/h | 16986m | -22.1m/s | 0°C | 0% | 0hPa | 0V | 00:00:00 | 00:00:00 | 00:00:00 | |
| PETON7-10 | 2026-09-03 01:34:11 | 47.89389 | 17.15406 | 118° | 31km/h | 17010m | -22.4m/s | 0°C | 0% | 0hPa | 0V | 00:00:00 | 00:00:00 | 00:00:00 | |
| S52SK | 2026-09-03 01:34:10 | 47.89393 | 17.15394 | 119° | 33km/h | 17033m | -23.1m/s | 0°C | 0% | 0hPa | 0V | 00:00:00 | 00:00:00 | 00:00:00 | |
| OM5KV | 2026-09-03 01:34:06 | 47.89406 | 17.15354 | 107° | 29km/h | 17132m | -23.8m/s | 0°C | 0% | 0hPa | 0V | 00:00:00 | 00:00:00 | 00:00:00 | |
| ATIDSZ-14 | 2026-09-03 01:34:05 | 47.89408 | 17.15343 | 104° | 27km/h | 17158m | -24.6m/s | 0°C | 0% | 0hPa | 0V | 00:00:00 | 00:00:00 | 00:00:00 | |
| OM5KV | 2026-09-03 01:34:04 | 47.89410 | 17.15334 | 101° | 27km/h | 17184m | -23.8m/s | 0°C | 0% | 0hPa | 0V | 00:00:00 | 00:00:00 | 00:00:00 | |
| OM5KV | 2026-09-03 01:34:01 | 47.89414 | 17.15301 | 104° | 35km/h | 17260m | -24.2m/s | 0°C | 0% | 0hPa | 0V | 00:00:00 | 00:00:00 | 00:00:00 | |
| OM5KV | 2026-09-03 01:34:00 | 47.89416 | 17.15288 | 101° | 37km/h | 17285m | -24.9m/s | 0°C | 0% | 0hPa | 0V | 00:00:00 | 00:00:00 | 00:00:00 | |
| OM5KV | 2026-09-03 01:33:59 | 47.89417 | 17.15274 | 98° | 35km/h | 17311m | -24.3m/s | 0°C | 0% | 0hPa | 0V | 00:00:00 | 00:00:00 | 00:00:00 | |
| OM5KV | 2026-09-03 01:33:55 | 47.89426 | 17.15225 | 110° | 40km/h | 17413m | -24.8m/s | 0°C | 0% | 0hPa | 0V | 00:00:00 | 00:00:00 | 00:00:00 | |
| OM5KV | 2026-09-03 01:33:54 | 47.89429 | 17.15212 | 107° | 37km/h | 17439m | -24.6m/s | 0°C | 0% | 0hPa | 0V | 00:00:00 | 00:00:00 | 00:00:00 | |
| OM5KV | 2026-09-03 01:33:49 | 47.89443 | 17.15148 | 107° | 35km/h | 17571m | -25.1m/s | 0°C | 0% | 0hPa | 0V | 00:00:00 | 00:00:00 | 00:00:00 | |
| OM5KV | 2026-09-03 01:33:43 | 47.89456 | 17.15069 | 102° | 38km/h | 17727m | -25.0m/s | 0°C | 0% | 0hPa | 0V | 00:00:00 | 00:00:00 | 00:00:00 | |
| PETON7-10 | 2026-09-03 01:33:41 | 47.89459 | 17.15042 | 98° | 38km/h | 17781m | -25.9m/s | 0°C | 0% | 0hPa | 0V | 00:00:00 | 00:00:00 | 00:00:00 | |
| HA6NAB-11 | 2026-09-03 01:33:40 | 47.89461 | 17.15028 | 103° | 37km/h | 17808m | -25.6m/s | 0°C | 0% | 0hPa | 0V | 00:00:00 | 00:00:00 | 00:00:00 | |
| OE3OSB-13 | 2026-09-03 01:33:38 | 47.89472 | 17.14974 | 104° | 38km/h | 17914m | -26.2m/s | -52.9°C | 0.0% | 80.1hPa | 0V | 00:00:00 | 00:00:00 | 00:00:00 | |
| HA6NAB-11 | 2026-09-03 01:33:34 | 47.89477 | 17.14947 | 108° | 38km/h | 17969m | -25.3m/s | 0°C | 0% | 0hPa | 0V | 00:00:00 | 00:00:00 | 00:00:00 | |
| OM5KV | 2026-09-03 01:33:33 | 47.89480 | 17.14933 | 108° | 38km/h | 17995m | -25.6m/s | 0°C | 0% | 0hPa | 0V | 00:00:00 | 00:00:00 | 00:00:00 | |
| OM5KV | 2026-09-03 01:33:30 | 47.89490 | 17.14889 | 110° | 42km/h | 18077m | -26.0m/s | 0°C | 0% | 0hPa | 0V | 00:00:00 | 00:00:00 | 00:00:00 | |
| OM5KV | 2026-09-03 01:33:29 | 47.89493 | 17.14875 | 110° | 37km/h | 18105m | -26.0m/s | 0°C | 0% | 0hPa | 0V | 00:00:00 | 00:00:00 | 00:00:00 | |
| HA6NAB-11 | 2026-09-03 01:33:27 | 47.89500 | 17.14849 | 111° | 35km/h | 18159m | -26.0m/s | 0°C | 0% | 0hPa | 0V | 00:00:00 | 00:00:00 | 00:00:00 | |
| PETON7-10 | 2026-09-03 01:33:26 | 47.89503 | 17.14837 | 107° | 26km/h | 18186m | -25.6m/s | 0°C | 0% | 0hPa | 0V | 00:00:00 | 00:00:00 | 00:00:00 | |
| OM5KV | 2026-09-03 01:33:25 | 47.89505 | 17.14825 | 104° | 33km/h | 18213m | -26.2m/s | 0°C | 0% | 0hPa | 0V | 00:00:00 | 00:00:00 | 00:00:00 | |
| OM5KV | 2026-09-03 01:33:22 | 47.89510 | 17.14787 | 94° | 37km/h | 18294m | -26.5m/s | 0°C | 0% | 0hPa | 0V | 00:00:00 | 00:00:00 | 00:00:00 | |
| ATIDSZ-14 | 2026-09-03 01:33:21 | 47.89510 | 17.14773 | 91° | 35km/h | 18322m | -26.5m/s | 0°C | 0% | 0hPa | 0V | 00:00:00 | 00:00:00 | 00:00:00 | |
| HA6NAB-11 | 2026-09-03 01:33:18 | 47.89508 | 17.14734 | 82° | 35km/h | 18404m | -25.7m/s | 0°C | 0% | 0hPa | 0V | 00:00:00 | 00:00:00 | 00:00:00 | |
| S52SK | 2026-09-03 01:33:12 | 47.89499 | 17.14652 | 90° | 37km/h | 18569m | -25.8m/s | 0°C | 0% | 0hPa | 0V | 00:00:00 | 00:00:00 | 00:00:00 | |
| OM5KV | 2026-09-03 01:33:09 | 47.89501 | 17.14611 | 101° | 37km/h | 18651m | -27.2m/s | 0°C | 0% | 0hPa | 0V | 00:00:00 | 00:00:00 | 00:00:00 | |
| S52SK | 2026-09-03 01:33:06 | 47.89508 | 17.14573 | 113° | 37km/h | 18734m | -26.8m/s | 0°C | 0% | 0hPa | 0V | 00:00:00 | 00:00:00 | 00:00:00 | |
| OM5KV | 2026-09-03 01:33:04 | 47.89516 | 17.14548 | 116° | 35km/h | 18790m | -27.2m/s | 0°C | 0% | 0hPa | 0V | 00:00:00 | 00:00:00 | 00:00:00 | |
| OM5KV | 2026-09-03 01:33:03 | 47.89520 | 17.14537 | 117° | 35km/h | 18818m | -27.1m/s | 0°C | 0% | 0hPa | 0V | 00:00:00 | 00:00:00 | 00:00:00 | |
| S52SK | 2026-09-03 01:33:01 | 47.89527 | 17.14514 | 119° | 31km/h | 18874m | -27.5m/s | 0°C | 0% | 0hPa | 0V | 00:00:00 | 00:00:00 | 00:00:00 | |
| OM5KV | 2026-09-03 01:32:58 | 47.89537 | 17.14481 | 111° | 31km/h | 18961m | -28.1m/s | 0°C | 0% | 0hPa | 0V | 00:00:00 | 00:00:00 | 00:00:00 | |
| OM5KV | 2026-09-03 01:32:53 | 47.89551 | 17.14432 | 97° | 27km/h | 19104m | -27.8m/s | 0°C | 0% | 0hPa | 0V | 00:00:00 | 00:00:00 | 00:00:00 | |
| ATIDSZ-14 | 2026-09-03 01:32:52 | 47.89551 | 17.14422 | 98° | 27km/h | 19132m | -27.8m/s | 0°C | 0% | 0hPa | 0V | 00:00:00 | 00:00:00 | 00:00:00 | |
| HA6NAB-11 | 2026-09-03 01:32:51 | 47.89552 | 17.14412 | 90° | 26km/h | 19160m | -27.8m/s | 0°C | 0% | 0hPa | 0V | 00:00:00 | 00:00:00 | 00:00:00 | |
| OM5KV | 2026-09-03 01:32:47 | 47.89550 | 17.14385 | 81° | 15km/h | 19276m | -28.4m/s | 0°C | 0% | 0hPa | 0V | 00:00:00 | 00:00:00 | 00:00:00 | |
| HA6NAB-11 | 2026-09-03 01:32:45 | 47.89548 | 17.14376 | 87° | 16km/h | 19336m | -29.0m/s | 0°C | 0% | 0hPa | 0V | 00:00:00 | 00:00:00 | 00:00:00 | |
| PETON7-10 | 2026-09-03 01:32:42 | 47.89547 | 17.14362 | 80° | 18km/h | 19424m | -27.5m/s | 0°C | 0% | 0hPa | 0V | 00:00:00 | 00:00:00 | 00:00:00 | |
| OM5KV | 2026-09-03 01:32:41 | 47.89547 | 17.14356 | 90° | 16km/h | 19453m | -28.5m/s | 0°C | 0% | 0hPa | 0V | 00:00:00 | 00:00:00 | 00:00:00 | |
| HA6NAB-11 | 2026-09-03 01:32:39 | 47.89547 | 17.14347 | 93° | 16km/h | 19514m | -29.3m/s | 0°C | 0% | 0hPa | 0V | 00:00:00 | 00:00:00 | 00:00:00 | |
| OE3OSB-13 | 2026-09-03 01:32:36 | 47.89548 | 17.14323 | 104° | 18km/h | 19632m | -28.0m/s | -53.9°C | 0.0% | 61.2hPa | 0V | 00:00:00 | 00:00:00 | 00:00:00 | |
| OM5KV | 2026-09-03 01:32:35 | 47.89548 | 17.14323 | 106° | 18km/h | 19632m | -28.0m/s | 0°C | 0% | 0hPa | 0V | 00:00:00 | 00:00:00 | 00:00:00 | |
| ATIDSZ-14 | 2026-09-03 01:32:32 | 47.89552 | 17.14302 | 105° | 24km/h | 19721m | -29.3m/s | 0°C | 0% | 0hPa | 0V | 00:00:00 | 00:00:00 | 00:00:00 | |
| HA6NAB-11 | 2026-09-03 01:32:31 | 47.89554 | 17.14294 | 108° | 22km/h | 19752m | -28.4m/s | 0°C | 0% | 0hPa | 0V | 00:00:00 | 00:00:00 | 00:00:00 | |
| OM5KV | 2026-09-03 01:32:30 | 47.89556 | 17.14286 | 109° | 22km/h | 19782m | -30.0m/s | 0°C | 0% | 0hPa | 0V | 00:00:00 | 00:00:00 | 00:00:00 | |
| HA6NAB-11 | 2026-09-03 01:32:25 | 47.89566 | 17.14251 | 107° | 16km/h | 19935m | -28.4m/s | 0°C | 0% | 0hPa | 0V | 00:00:00 | 00:00:00 | 00:00:00 | |
| OM5KV | 2026-09-03 01:32:24 | 47.89566 | 17.14245 | 98° | 13km/h | 19966m | -29.9m/s | 0°C | 0% | 0hPa | 0V | 00:00:00 | 00:00:00 | 00:00:00 | |
| PETON7-10 | 2026-09-03 01:32:19 | 47.89571 | 17.14212 | 97° | 26km/h | 20119m | -29.7m/s | 0°C | 0% | 0hPa | 0V | 00:00:00 | 00:00:00 | 00:00:00 | |
| OM5KV | 2026-09-03 01:32:14 | 47.89582 | 17.14162 | 117° | 31km/h | 20275m | -29.7m/s | 0°C | 0% | 0hPa | 0V | 00:00:00 | 00:00:00 | 00:00:00 | |
| OM5KV | 2026-09-03 01:32:13 | 47.89585 | 17.14152 | 118° | 31km/h | 20306m | -29.9m/s | 0°C | 0% | 0hPa | 0V | 00:00:00 | 00:00:00 | 00:00:00 | |
| OM5KV | 2026-09-03 01:32:07 | 47.89601 | 17.14100 | 113° | 20km/h | 20492m | -30.3m/s | 0°C | 0% | 0hPa | 0V | 00:00:00 | 00:00:00 | 00:00:00 | |
| OE3JTB-15 | 2026-09-03 01:32:06 | 47.89603 | 17.14092 | 105° | 18km/h | 20523m | -30.4m/s | 0°C | 0% | 0hPa | 0V | 00:00:00 | 00:00:00 | 00:00:00 | |
| OE3OSB-13 | 2026-09-03 01:32:05 | 47.89606 | 17.14075 | 100° | 26km/h | 20587m | -30.1m/s | -53.7°C | 0.0% | 52.7hPa | 0V | 00:00:00 | 00:00:00 | 00:00:00 | |
| OM5KV | 2026-09-03 01:32:01 | 47.89611 | 17.14045 | 115° | 29km/h | 20682m | -30.9m/s | 0°C | 0% | 0hPa | 0V | 00:00:00 | 00:00:00 | 00:00:00 | |
| PETON7-10 | 2026-09-03 01:32:00 | 47.89614 | 17.14035 | 117° | 9km/h | 20713m | -30.6m/s | 0°C | 0% | 0hPa | 0V | 00:00:00 | 00:00:00 | 00:00:00 | |
| S52SK | 2026-09-03 01:31:58 | 47.89622 | 17.14017 | 135° | 26km/h | 20778m | -31.4m/s | 0°C | 0% | 0hPa | 0V | 00:00:00 | 00:00:00 | 00:00:00 | |
| ATIDSZ-14 | 2026-09-03 01:31:55 | 47.89636 | 17.14000 | 160° | 22km/h | 20878m | -32.9m/s | 0°C | 0% | 0hPa | 0V | 00:00:00 | 00:00:00 | 00:00:00 | |
| S52SK | 2026-09-03 01:31:53 | 47.89644 | 17.13996 | 172° | 16km/h | 20943m | -32.3m/s | 0°C | 0% | 0hPa | 0V | 00:00:00 | 00:00:00 | 00:00:00 | |
| OM5KV | 2026-09-03 01:31:49 | 47.89660 | 17.13996 | 176° | 18km/h | 21078m | -33.1m/s | 0°C | 0% | 0hPa | 0V | 00:00:00 | 00:00:00 | 00:00:00 | |
| OM5KV | 2026-09-03 01:31:43 | 47.89679 | 17.13994 | 166° | 5km/h | 21285m | -33.3m/s | 0°C | 0% | 0hPa | 0V | 00:00:00 | 00:00:00 | 00:00:00 | |
| OE3OSB-13 | 2026-09-03 01:31:34 | 47.89697 | 17.13969 | 135° | 11km/h | 21636m | -34.5m/s | -52.5°C | 0.0% | 44.6hPa | 0V | 00:00:00 | 00:00:00 | 00:00:00 | |
| OM5KV | 2026-09-03 01:31:33 | 47.89697 | 17.13969 | 136° | 13km/h | 21636m | -34.5m/s | 0°C | 0% | 0hPa | 0V | 00:00:00 | 00:00:00 | 00:00:00 | |
| OM5KV | 2026-09-03 01:31:27 | 47.89712 | 17.13953 | 154° | 11km/h | 21846m | -32.8m/s | 0°C | 0% | 0hPa | 0V | 00:00:00 | 00:00:00 | 00:00:00 | |
| OM5KV | 2026-09-03 01:31:24 | 47.89719 | 17.13953 | 220° | 7km/h | 21950m | -34.2m/s | 0°C | 0% | 0hPa | 0V | 00:00:00 | 00:00:00 | 00:00:00 | |
| OM5KV | 2026-09-03 01:31:22 | 47.89721 | 17.13958 | 224° | 5km/h | 22020m | -34.3m/s | 0°C | 0% | 0hPa | 0V | 00:00:00 | 00:00:00 | 00:00:00 | |
| OM5KV | 2026-09-03 01:31:17 | 47.89722 | 17.13966 | 0° | 0km/h | 22197m | -34.2m/s | 0°C | 0% | 0hPa | 0V | 00:00:00 | 00:00:00 | 00:00:00 | |
| OE3JTB-15 | 2026-09-03 01:31:15 | 47.89721 | 17.13966 | 1° | 7km/h | 22267m | -34.0m/s | 0°C | 0% | 0hPa | 0V | 00:00:00 | 00:00:00 | 00:00:00 | |
| OM5KV | 2026-09-03 01:31:11 | 47.89717 | 17.13959 | 48° | 7km/h | 22411m | -35.6m/s | 0°C | 0% | 0hPa | 0V | 00:00:00 | 00:00:00 | 00:00:00 | |
| PETON7-10 | 2026-09-03 01:31:09 | 47.89714 | 17.13954 | 46° | 4km/h | 22484m | -35.5m/s | 0°C | 0% | 0hPa | 0V | 00:00:00 | 00:00:00 | 00:00:00 | |
| OM5KV | 2026-09-03 01:31:02 | 47.89704 | 17.13935 | 93° | 7km/h | 22742m | -35.8m/s | 0°C | 0% | 0hPa | 0V | 00:00:00 | 00:00:00 | 00:00:00 | |
| ATIDSZ-14 | 2026-09-03 01:30:59 | 47.89704 | 17.13929 | 115° | 7km/h | 22854m | -36.1m/s | 0°C | 0% | 0hPa | 0V | 00:00:00 | 00:00:00 | 00:00:00 | |
| OM5KV | 2026-09-03 01:30:58 | 47.89705 | 17.13927 | 138° | 7km/h | 22892m | -37.4m/s | 0°C | 0% | 0hPa | 0V | 00:00:00 | 00:00:00 | 00:00:00 | |
| OM5KV | 2026-09-03 01:30:57 | 47.89706 | 17.13925 | 145° | 5km/h | 22930m | -37.3m/s | 0°C | 0% | 0hPa | 0V | 00:00:00 | 00:00:00 | 00:00:00 | |
| OE5DXL-15 | 2026-09-03 01:30:52 | 47.89707 | 17.13922 | 35° | 5km/h | 23124m | -38.4m/s | 0°C | 0% | 0hPa | 0V | 00:00:00 | 00:00:00 | 00:00:00 | |
| S52SK | 2026-09-03 01:30:51 | 47.89706 | 17.13921 | 19° | 4km/h | 23164m | -38.0m/s | 0°C | 0% | 0hPa | 0V | 00:00:00 | 00:00:00 | 00:00:00 | |
| OM5KV | 2026-09-03 01:30:50 | 47.89706 | 17.13921 | 89° | 4km/h | 23204m | -37.8m/s | 0°C | 0% | 0hPa | 0V | 00:00:00 | 00:00:00 | 00:00:00 | |
| PETON7-10 | 2026-09-03 01:30:49 | 47.89705 | 17.13920 | 49° | 5km/h | 23242m | -37.0m/s | 0°C | 0% | 0hPa | 0V | 00:00:00 | 00:00:00 | 00:00:00 | |
| S52SK | 2026-09-03 01:30:45 | 47.89703 | 17.13916 | 55° | 4km/h | 23399m | -39.1m/s | 0°C | 0% | 0hPa | 0V | 00:00:00 | 00:00:00 | 00:00:00 | |
| OM5KV | 2026-09-03 01:30:44 | 47.89703 | 17.13915 | 93° | 5km/h | 23440m | -40.2m/s | 0°C | 0% | 0hPa | 0V | 00:00:00 | 00:00:00 | 00:00:00 | |
| OM5KV | 2026-09-03 01:30:43 | 47.89703 | 17.13913 | 111° | 7km/h | 23481m | -40.4m/s | 0°C | 0% | 0hPa | 0V | 00:00:00 | 00:00:00 | 00:00:00 | |
| ATIDSZ-14 | 2026-09-03 01:30:38 | 47.89707 | 17.13903 | 120° | 11km/h | 23693m | -42.8m/s | 0°C | 0% | 0hPa | 0V | 00:00:00 | 00:00:00 | 00:00:00 | |
| OM5KV | 2026-09-03 01:30:37 | 47.89708 | 17.13900 | 108° | 7km/h | 23737m | -41.0m/s | 0°C | 0% | 0hPa | 0V | 00:00:00 | 00:00:00 | 00:00:00 | |
| PETON7-10 | 2026-09-03 01:30:32 | 47.89713 | 17.13888 | 164° | 4km/h | 23948m | -42.9m/s | 0°C | 0% | 0hPa | 0V | 00:00:00 | 00:00:00 | 00:00:00 | |
| OM5KV | 2026-09-03 01:30:31 | 47.89714 | 17.13887 | 170° | 9km/h | 23992m | -41.7m/s | 0°C | 0% | 0hPa | 0V | 00:00:00 | 00:00:00 | 00:00:00 | |
| OM5KV | 2026-09-03 01:30:27 | 47.89721 | 17.13884 | 201° | 7km/h | 24165m | -42.0m/s | 0°C | 0% | 0hPa | 0V | 00:00:00 | 00:00:00 | 00:00:00 | |
| OE5DXL-15 | 2026-09-03 01:30:22 | 47.89728 | 17.13893 | 257° | 9km/h | 24386m | -41.0m/s | 0°C | 0% | 0hPa | 0V | 00:00:00 | 00:00:00 | 00:00:00 | |
| OM5KV | 2026-09-03 01:30:21 | 47.89728 | 17.13895 | 249° | 4km/h | 24429m | -41.2m/s | 0°C | 0% | 0hPa | 0V | 00:00:00 | 00:00:00 | 00:00:00 | |
| OM5KV | 2026-09-03 01:30:15 | 47.89727 | 17.13890 | 49° | 5km/h | 24677m | -40.1m/s | 0°C | 0% | 0hPa | 0V | 00:00:00 | 00:00:00 | 00:00:00 | |
| OM5KV | 2026-09-03 01:30:10 | 47.89726 | 17.13874 | 102° | 9km/h | 24894m | -43.8m/s | 0°C | 0% | 0hPa | 0V | 00:00:00 | 00:00:00 | 00:00:00 | |
| OM5KV | 2026-09-03 01:30:09 | 47.89727 | 17.13871 | 130° | 9km/h | 24939m | -42.0m/s | 0°C | 0% | 0hPa | 0V | 00:00:00 | 00:00:00 | 00:00:00 | |
| OM5KV | 2026-09-03 01:30:08 | 47.89729 | 17.13868 | 123° | 7km/h | 24983m | -44.1m/s | 0°C | 0% | 0hPa | 0V | 00:00:00 | 00:00:00 | 00:00:00 | |
| OE3JTB-15 | 2026-09-03 01:30:07 | 47.89730 | 17.13864 | 134° | 13km/h | 25028m | -42.2m/s | 0°C | 0% | 0hPa | 0V | 00:00:00 | 00:00:00 | 00:00:00 | |
| ATIDSZ-14 | 2026-09-03 01:30:05 | 47.89734 | 17.13858 | 141° | 15km/h | 25116m | -42.6m/s | 0°C | 0% | 0hPa | 0V | 00:00:00 | 00:00:00 | 00:00:00 | |
| OE5MMP-10 | 2026-09-03 01:30:04 | 47.89738 | 17.13856 | 150° | 15km/h | 25160m | -41.2m/s | 0°C | 0% | 0hPa | 0V | 00:00:00 | 00:00:00 | 00:00:00 | |
| OM5KV | 2026-09-03 01:30:01 | 47.89748 | 17.13847 | 166° | 22km/h | 25293m | -43.8m/s | 0°C | 0% | 0hPa | 0V | 00:00:00 | 00:00:00 | 00:00:00 | |
| OM5KV | 2026-09-03 01:30:00 | 47.89753 | 17.13845 | 170° | 20km/h | 25338m | -41.1m/s | 0°C | 0% | 0hPa | 0V | 00:00:00 | 00:00:00 | 00:00:00 | |
| OM5KV | 2026-09-03 01:29:50 | 47.89783 | 17.13826 | 125° | 11km/h | 25785m | -44.5m/s | 0°C | 0% | 0hPa | 0V | 00:00:00 | 00:00:00 | 00:00:00 | |
| OE5MMP-10 | 2026-09-03 01:29:49 | 47.89785 | 17.13822 | 114° | 13km/h | 25831m | -45.0m/s | 0°C | 0% | 0hPa | 0V | 00:00:00 | 00:00:00 | 00:00:00 | |
| S52SK | 2026-09-03 01:29:47 | 47.89789 | 17.13810 | 125° | 20km/h | 25924m | -47.1m/s | 0°C | 0% | 0hPa | 0V | 00:00:00 | 00:00:00 | 00:00:00 | |
| ATIDSZ-14 | 2026-09-03 01:29:43 | 47.89800 | 17.13790 | 139° | 18km/h | 26115m | -46.5m/s | 0°C | 0% | 0hPa | 0V | 00:00:00 | 00:00:00 | 00:00:00 | |
| S52SK | 2026-09-03 01:29:42 | 47.89803 | 17.13785 | 138° | 16km/h | 26163m | -46.3m/s | 0°C | 0% | 0hPa | 0V | 00:00:00 | 00:00:00 | 00:00:00 | |
| OM5KV | 2026-09-03 01:29:41 | 47.89806 | 17.13782 | 145° | 15km/h | 26212m | -46.5m/s | 0°C | 0% | 0hPa | 0V | 00:00:00 | 00:00:00 | 00:00:00 | |
| S52SK | 2026-09-03 01:29:37 | 47.89817 | 17.13773 | 174° | 11km/h | 26402m | -47.2m/s | 0°C | 0% | 0hPa | 0V | 00:00:00 | 00:00:00 | 00:00:00 | |
| OM5KV | 2026-09-03 01:29:36 | 47.89819 | 17.13773 | 165° | 7km/h | 26451m | -46.4m/s | 0°C | 0% | 0hPa | 0V | 00:00:00 | 00:00:00 | 00:00:00 | |
| OE5MMP-10 | 2026-09-03 01:29:32 | 47.89825 | 17.13767 | 152° | 4km/h | 26639m | -43.9m/s | 0°C | 0% | 0hPa | 0V | 00:00:00 | 00:00:00 | 00:00:00 | |
| OM5KV | 2026-09-03 01:29:28 | 47.89828 | 17.13762 | 172° | 4km/h | 26831m | -48.7m/s | 0°C | 0% | 0hPa | 0V | 00:00:00 | 00:00:00 | 00:00:00 | |
| OE5MMP-10 | 2026-09-03 01:29:22 | 47.89830 | 17.13766 | 331° | 7km/h | 27123m | -46.8m/s | 0°C | 0% | 0hPa | 0V | 00:00:00 | 00:00:00 | 00:00:00 | |
| OM5KV | 2026-09-03 01:29:21 | 47.89828 | 17.13769 | 327° | 13km/h | 27172m | -47.2m/s | 0°C | 0% | 0hPa | 0V | 00:00:00 | 00:00:00 | 00:00:00 | |
| ATIDSZ-14 | 2026-09-03 01:29:15 | 47.89816 | 17.13777 | 301° | 2km/h | 27469m | -47.8m/s | 0°C | 0% | 0hPa | 0V | 00:00:00 | 00:00:00 | 00:00:00 | |
| OM5KV | 2026-09-03 01:29:13 | 47.89815 | 17.13778 | 251° | 4km/h | 27571m | -48.3m/s | 0°C | 0% | 0hPa | 0V | 00:00:00 | 00:00:00 | 00:00:00 | |
| OM5KV | 2026-09-03 01:29:10 | 47.89814 | 17.13780 | 305° | 7km/h | 27726m | -47.7m/s | 0°C | 0% | 0hPa | 0V | 00:00:00 | 00:00:00 | 00:00:00 | |
| OE5MMP-10 | 2026-09-03 01:29:09 | 47.89813 | 17.13782 | 312° | 7km/h | 27776m | -47.8m/s | 0°C | 0% | 0hPa | 0V | 00:00:00 | 00:00:00 | 00:00:00 | |
| PETON7-10 | 2026-09-03 01:29:02 | 47.89803 | 17.13792 | 350° | 11km/h | 28145m | -51.4m/s | 0°C | 0% | 0hPa | 0V | 00:00:00 | 00:00:00 | 00:00:00 | |
| OM5KV | 2026-09-03 01:28:58 | 47.89796 | 17.13786 | 41° | 11km/h | 28360m | -53.9m/s | 0°C | 0% | 0hPa | 0V | 00:00:00 | 00:00:00 | 00:00:00 | |
| OE5MMP-10 | 2026-09-03 01:28:56 | 47.89792 | 17.13779 | 56° | 11km/h | 28470m | -55.3m/s | 0°C | 0% | 0hPa | 0V | 00:00:00 | 00:00:00 | 00:00:00 | |
| OM5KV | 2026-09-03 01:28:52 | 47.89787 | 17.13762 | 81° | 11km/h | 28694m | -53.3m/s | 0°C | 0% | 0hPa | 0V | 00:00:00 | 00:00:00 | 00:00:00 | |
| OM5KV | 2026-09-03 01:28:50 | 47.89787 | 17.13754 | 102° | 9km/h | 28803m | -52.4m/s | 0°C | 0% | 0hPa | 0V | 00:00:00 | 00:00:00 | 00:00:00 | |
| OM5KV | 2026-09-03 01:28:46 | 47.89792 | 17.13740 | 133° | 13km/h | 29026m | -55.7m/s | 0°C | 0% | 0hPa | 0V | 00:00:00 | 00:00:00 | 00:00:00 | |
| OE5MMP-10 | 2026-09-03 01:28:45 | 47.89794 | 17.13736 | 141° | 13km/h | 29084m | -57.0m/s | 0°C | 0% | 0hPa | 0V | 00:00:00 | 00:00:00 | 00:00:00 | |
| ATIDSZ-14 | 2026-09-03 01:28:40 | 47.89806 | 17.13727 | 185° | 7km/h | 29369m | -54.1m/s | 0°C | 0% | 0hPa | 0V | 00:00:00 | 00:00:00 | 00:00:00 | |
| OM5KV | 2026-09-03 01:28:37 | 47.89809 | 17.13726 | 149° | 5km/h | 29537m | -54.4m/s | 0°C | 0% | 0hPa | 0V | 00:00:00 | 00:00:00 | 00:00:00 | |
| S52SK | 2026-09-03 01:28:35 | 47.89811 | 17.13721 | 119° | 9km/h | 29649m | -54.3m/s | 0°C | 0% | 0hPa | 0V | 00:00:00 | 00:00:00 | 00:00:00 | |
| OM5KV | 2026-09-03 01:28:33 | 47.89812 | 17.13714 | 89° | 13km/h | 29766m | -57.9m/s | 0°C | 0% | 0hPa | 0V | 00:00:00 | 00:00:00 | 00:00:00 | |
| S52SK | 2026-09-03 01:28:29 | 47.89816 | 17.13693 | 118° | 15km/h | 29999m | -54.5m/s | 0°C | 0% | 0hPa | 0V | 00:00:00 | 00:00:00 | 00:00:00 | |
| OE3OSB-13 | 2026-09-03 01:28:27 | 47.89820 | 17.13684 | 138° | 13km/h | 30111m | -53.7m/s | -41.4°C | 0% | 11.8hPa | 0V | 00:00:00 | 00:00:00 | 00:00:00 | |
| OE5MMP-10 | 2026-09-03 01:28:25 | 47.89824 | 17.13679 | 152° | 11km/h | 30226m | -56.2m/s | 0°C | 0% | 0hPa | 0V | 00:00:00 | 00:00:00 | 00:00:00 | |
| OM5KV | 2026-09-03 01:28:23 | 47.89827 | 17.13676 | 152° | 7km/h | 30342m | -55.7m/s | 0°C | 0% | 0hPa | 0V | 00:00:00 | 00:00:00 | 00:00:00 | |
| OE3JTB-15 | 2026-09-03 01:28:20 | 47.89827 | 17.13672 | 24° | 15km/h | 30515m | -57.0m/s | 0°C | 0% | 0hPa | 0V | 00:00:00 | 00:00:00 | 00:00:00 | |
| OM5KV | 2026-09-03 01:28:16 | 47.89814 | 17.13660 | 43° | 11km/h | 30753m | -60.7m/s | 0°C | 0% | 0hPa | 0V | 00:00:00 | 00:00:00 | 00:00:00 | |
| OM5KV | 2026-09-03 01:28:09 | 47.89797 | 17.13628 | 45° | 13km/h | 31199m | -63.4m/s | 0°C | 0% | 0hPa | 0V | 00:00:00 | 00:00:00 | 00:00:00 | |
| OE5DXL-15 | 2026-09-03 01:28:08 | 47.89794 | 17.13625 | 35° | 13km/h | 31264m | -63.6m/s | 0°C | 0% | 0hPa | 0V | 00:00:00 | 00:00:00 | 00:00:00 | |
| OE3OSB-13 | 2026-09-03 01:27:56 | 47.89751 | 17.13507 | 93° | 2km/h | 33013m | -71.1m/s | -36.2°C | 0.0% | 7.5hPa | 0V | 00:00:00 | 00:00:00 | 00:00:00 | |
| OM5KV | 2026-09-03 01:27:53 | 47.89761 | 17.13558 | 58° | 20km/h | 32240m | -65.0m/s | 0°C | 0% | 0hPa | 0V | 00:00:00 | 00:00:00 | 00:00:00 | |
| OM5KV | 2026-09-03 01:27:52 | 47.89758 | 17.13552 | 60° | 20km/h | 32306m | -64.4m/s | 0°C | 0% | 0hPa | 0V | 00:00:00 | 00:00:00 | 00:00:00 | |
| OE3JTB-15 | 2026-09-03 01:27:47 | 47.89752 | 17.13520 | 91° | 7km/h | 32647m | -69.9m/s | 0°C | 0% | 0hPa | 0V | 00:00:00 | 00:00:00 | 00:00:00 | |
| OM5KV | 2026-09-03 01:27:39 | 47.89751 | 17.13502 | 102° | 5km/h | 33230m | -70.2m/s | 0°C | 0% | 0hPa | 0V | 00:00:00 | 00:00:00 | 00:00:00 | |
| OE5DXL-15 | 2026-09-03 01:27:38 | 47.89751 | 17.13517 | 93° | 22km/h | 33302m | -70.9m/s | 0°C | 0% | 0hPa | 0V | 00:00:00 | 00:00:00 | 00:00:00 | |
| OM5KV | 2026-09-03 01:27:34 | 47.89750 | 17.13493 | 66° | 4km/h | 33588m | -70.0m/s | 0°C | 0% | 0hPa | 0V | 00:00:00 | 00:00:00 | 00:00:00 | |
| OM5KV | 2026-09-03 01:27:26 | 47.89756 | 17.13497 | 212° | 5km/h | 34167m | -67.2m/s | 0°C | 0% | 0hPa | 0V | 00:00:00 | 00:00:00 | 00:00:00 | |
| S52SK | 2026-09-03 01:27:25 | 47.89758 | 17.13497 | 212° | 7km/h | 34237m | -67.7m/s | 0°C | 0% | 0hPa | 0V | 00:00:00 | 00:00:00 | 00:00:00 | |
| OM5KV | 2026-09-03 01:27:19 | 47.89754 | 17.13492 | 33° | 7km/h | 34661m | -66.2m/s | 0°C | 0% | 0hPa | 0V | 00:00:00 | 00:00:00 | 00:00:00 | |
| OE5MMP-10 | 2026-09-03 01:27:17 | 47.89752 | 17.13488 | 87° | 11km/h | 34798m | -70.3m/s | 0°C | 0% | 0hPa | 0V | 00:00:00 | 00:00:00 | 00:00:00 | |
| OM5KV | 2026-09-03 01:27:14 | 47.89759 | 17.13478 | 162° | 11km/h | 35013m | -66.9m/s | 0°C | 0% | 0hPa | 0V | 00:00:00 | 00:00:00 | 00:00:00 | |
| OM5KV | 2026-09-03 01:27:08 | 47.89782 | 17.13490 | 221° | 22km/h | 35389m | -60.2m/s | 0°C | 0% | 0hPa | 0V | 00:00:00 | 00:00:00 | 00:00:00 | |
| OM5KV | 2026-09-03 01:27:02 | 47.89796 | 17.13507 | 183° | 5km/h | 35720m | -48.6m/s | 0°C | 0% | 0hPa | 0V | 00:00:00 | 00:00:00 | 00:00:00 | |
| OM5KV | 2026-09-03 01:27:01 | 47.89796 | 17.13506 | 183° | 5km/h | 35771m | -48.2m/s | 0°C | 0% | 0hPa | 0V | 00:00:00 | 00:00:00 | 00:00:00 | |
| PETON7-10 | 2026-09-03 01:27:00 | 47.89796 | 17.13504 | 139° | 40km/h | 35823m | -46.5m/s | 0°C | 0% | 0hPa | 0V | 00:00:00 | 00:00:00 | 00:00:00 | |
| OM5KV | 2026-09-03 01:26:56 | 47.89811 | 17.13545 | 251° | 64km/h | 35992m | -22.1m/s | 0°C | 0% | 0hPa | 0V | 00:00:00 | 00:00:00 | 00:00:00 | |
| OM5KV | 2026-09-03 01:26:54 | 47.89819 | 17.13586 | 252° | 55km/h | 36038m | -8.5m/s | 0°C | 0% | 0hPa | 0V | 00:00:00 | 00:00:00 | 00:00:00 | |
| OM5KV | 2026-09-03 01:26:49 | 47.89875 | 17.13629 | 106° | 18km/h | 36015m | 7.1m/s | 0°C | 0% | 0hPa | 0V | 00:00:00 | 00:00:00 | 00:00:00 | |
| OE3JTB-15 | 2026-09-03 01:26:48 | 47.89872 | 17.13623 | 13° | 42km/h | 36007m | 9.4m/s | 0°C | 0% | 0hPa | 0V | 00:00:00 | 00:00:00 | 00:00:00 | |
| OE5MMP-10 | 2026-09-03 01:26:46 | 47.89852 | 17.13623 | 342° | 42km/h | 35990m | 5.7m/s | 0°C | 0% | 0hPa | 0V | 00:00:00 | 00:00:00 | 00:00:00 | |
| ATIDSZ-14 | 2026-09-03 01:26:45 | 47.89842 | 17.13631 | 318° | 46km/h | 35986m | 3.3m/s | 0°C | 0% | 0hPa | 0V | 00:00:00 | 00:00:00 | 00:00:00 | |
| OM5KV | 2026-09-03 01:26:44 | 47.89835 | 17.13645 | 294° | 47km/h | 35982m | 5.8m/s | 0°C | 0% | 0hPa | 0V | 00:00:00 | 00:00:00 | 00:00:00 | |
| OM5KV | 2026-09-03 01:26:43 | 47.89833 | 17.13663 | 260° | 47km/h | 35972m | 8.5m/s | 0°C | 0% | 0hPa | 0V | 00:00:00 | 00:00:00 | 00:00:00 | |
| PETON7-10 | 2026-09-03 01:26:42 | 47.89839 | 17.13679 | 224° | 53km/h | 35963m | 5.4m/s | 0°C | 0% | 0hPa | 0V | 00:00:00 | 00:00:00 | 00:00:00 | |
| OE5DXL-15 | 2026-09-03 01:26:40 | 47.89862 | 17.13691 | 168° | 40km/h | 35953m | 5.3m/s | 0°C | 0% | 0hPa | 0V | 00:00:00 | 00:00:00 | 00:00:00 | |
| OM5KV | 2026-09-03 01:26:38 | 47.89871 | 17.13675 | 76° | 31km/h | 35941m | 7.5m/s | 0°C | 0% | 0hPa | 0V | 00:00:00 | 00:00:00 | 00:00:00 | |
| OE5MMP-10 | 2026-09-03 01:26:36 | 47.89856 | 17.13663 | 352° | 42km/h | 35924m | 4.9m/s | 0°C | 0% | 0hPa | 0V | 00:00:00 | 00:00:00 | 00:00:00 | |
| LZ4TU-5 | 2026-09-03 01:26:35 | 47.89847 | 17.13669 | 318° | 40km/h | 35918m | 4.2m/s | 0°C | 0% | 0hPa | 0V | 00:00:00 | 00:00:00 | 00:00:00 | |
| OM5KV | 2026-09-03 01:26:32 | 47.89845 | 17.13719 | 232° | 55km/h | 35902m | 3.6m/s | 0°C | 0% | 0hPa | 0V | 00:00:00 | 00:00:00 | 00:00:00 | |
| OM5KV | 2026-09-03 01:26:27 | 47.89880 | 17.13703 | 57° | 26km/h | 35869m | 7.2m/s | 0°C | 0% | 0hPa | 0V | 00:00:00 | 00:00:00 | 00:00:00 | |
| OE5MMP-10 | 2026-09-03 01:26:26 | 47.89874 | 17.13697 | 17° | 42km/h | 35862m | 5.0m/s | 0°C | 0% | 0hPa | 0V | 00:00:00 | 00:00:00 | 00:00:00 | |
| ATIDSZ-14 | 2026-09-03 01:26:23 | 47.89856 | 17.13725 | 259° | 53km/h | 35840m | 9.3m/s | 0°C | 0% | 0hPa | 0V | 00:00:00 | 00:00:00 | 00:00:00 | |
| OM5KV | 2026-09-03 01:26:22 | 47.89860 | 17.13742 | 239° | 58km/h | 35829m | 5.5m/s | 0°C | 0% | 0hPa | 0V | 00:00:00 | 00:00:00 | 00:00:00 | |
| PETON7-10 | 2026-09-03 01:26:20 | 47.89878 | 17.13759 | 184° | 44km/h | 35822m | 4.8m/s | 0°C | 0% | 0hPa | 0V | 00:00:00 | 00:00:00 | 00:00:00 | |
| OE3JTB-15 | 2026-09-03 01:26:19 | 47.89886 | 17.13757 | 143° | 37km/h | 35817m | 9.3m/s | 0°C | 0% | 0hPa | 0V | 00:00:00 | 00:00:00 | 00:00:00 | |
| S52SK | 2026-09-03 01:26:16 | 47.89886 | 17.13723 | 42° | 26km/h | 35791m | 4.9m/s | 0°C | 0% | 0hPa | 0V | 00:00:00 | 00:00:00 | 00:00:00 | |
| OE5MMP-10 | 2026-09-03 01:26:15 | 47.89879 | 17.13722 | 346° | 42km/h | 35784m | 7.1m/s | 0°C | 0% | 0hPa | 0V | 00:00:00 | 00:00:00 | 00:00:00 | |
| OE5DXL-15 | 2026-09-03 01:26:10 | 47.89907 | 17.13785 | 207° | 38km/h | 35742m | 0.6m/s | 0°C | 0% | 0hPa | 0V | 00:00:00 | 00:00:00 | 00:00:00 | |
| OE5MMP-10 | 2026-09-03 01:26:05 | 47.89932 | 17.13770 | 45° | 51km/h | 35708m | 0.2m/s | 0°C | 0% | 0hPa | 0V | 00:00:00 | 00:00:00 | 00:00:00 | |
| PETON7-10 | 2026-09-03 01:26:04 | 47.89927 | 17.13765 | 7° | 40km/h | 35706m | -0.3m/s | 0°C | 0% | 0hPa | 0V | 00:00:00 | 00:00:00 | 00:00:00 | |
| ATIDSZ-14 | 2026-09-03 01:26:02 | 47.89928 | 17.13777 | 243° | 33km/h | 35697m | 8.1m/s | 0°C | 0% | 0hPa | 0V | 00:00:00 | 00:00:00 | 00:00:00 | |
| OE3OSB-13 | 2026-09-03 01:25:52 | 47.89971 | 17.13792 | 249° | 40km/h | 35643m | 6.7m/s | -31.8°C | 0.0% | 4.8hPa | 0V | 00:00:00 | 00:00:00 | 00:00:00 | |
| OM5KV | 2026-09-03 01:25:50 | 47.89991 | 17.13810 | 186° | 51km/h | 35630m | 2.5m/s | 0°C | 0% | 0hPa | 0V | 00:00:00 | 00:00:00 | 00:00:00 | |
| PETON7-10 | 2026-09-03 01:25:49 | 47.89991 | 17.13809 | 186° | 53km/h | 35630m | 2.5m/s | 0°C | 0% | 0hPa | 0V | 00:00:00 | 00:00:00 | 00:00:00 | |
| OE5MMP-10 | 2026-09-03 01:25:45 | 47.90021 | 17.13773 | 71° | 42km/h | 35614m | 3.7m/s | 0°C | 0% | 0hPa | 0V | 00:00:00 | 00:00:00 | 00:00:00 | |
| OM5KV | 2026-09-03 01:25:44 | 47.90017 | 17.13763 | 36° | 27km/h | 35610m | 4.6m/s | 0°C | 0% | 0hPa | 0V | 00:00:00 | 00:00:00 | 00:00:00 | |
| ATIDSZ-14 | 2026-09-03 01:25:41 | 47.90010 | 17.13781 | 244° | 42km/h | 35595m | 6.9m/s | 0°C | 0% | 0hPa | 0V | 00:00:00 | 00:00:00 | 00:00:00 | |
| OE5DXL-15 | 2026-09-03 01:25:39 | 47.90031 | 17.13802 | 189° | 49km/h | 35585m | 2.6m/s | 0°C | 0% | 0hPa | 0V | 00:00:00 | 00:00:00 | 00:00:00 | |
| OM5KV | 2026-09-03 01:25:36 | 47.90068 | 17.13782 | 126° | 46km/h | 35570m | 9.5m/s | 0°C | 0% | 0hPa | 0V | 00:00:00 | 00:00:00 | 00:00:00 | |
| OE5MMP-10 | 2026-09-03 01:25:35 | 47.90069 | 17.13767 | 75° | 44km/h | 35561m | 6.8m/s | 0°C | 0% | 0hPa | 0V | 00:00:00 | 00:00:00 | 00:00:00 | |
| OM5KV | 2026-09-03 01:25:30 | 47.90069 | 17.13778 | 222° | 62km/h | 35534m | 7.5m/s | 0°C | 0% | 0hPa | 0V | 00:00:00 | 00:00:00 | 00:00:00 | |
| OM5KV | 2026-09-03 01:25:29 | 47.90082 | 17.13790 | 205° | 66km/h | 35528m | 4.5m/s | 0°C | 0% | 0hPa | 0V | 00:00:00 | 00:00:00 | 00:00:00 | |
| OE5MMP-10 | 2026-09-03 01:25:24 | 47.90119 | 17.13759 | 58° | 49km/h | 35498m | 4.0m/s | 0°C | 0% | 0hPa | 0V | 00:00:00 | 00:00:00 | 00:00:00 | |
| LZ4TU-5 | 2026-09-03 01:25:22 | 47.90112 | 17.13757 | 270° | 22km/h | 35489m | 4.7m/s | 0°C | 0% | 0hPa | 0V | 00:00:00 | 00:00:00 | 00:00:00 | |
| OE3OSB-13 | 2026-09-03 01:25:21 | 47.90120 | 17.13780 | 227° | 58km/h | 35474m | 8.7m/s | -31.8°C | 0.0% | 5.0hPa | 0V | 00:00:00 | 00:00:00 | 00:00:00 | |
| OM5KV | 2026-09-03 01:25:20 | 47.90119 | 17.13780 | 229° | 58km/h | 35475m | 8.7m/s | 0°C | 0% | 0hPa | 0V | 00:00:00 | 00:00:00 | 00:00:00 | |
| PETON7-10 | 2026-09-03 01:25:19 | 47.90133 | 17.13796 | 212° | 53km/h | 35467m | 4.0m/s | 0°C | 0% | 0hPa | 0V | 00:00:00 | 00:00:00 | 00:00:00 | |
| OK1ALN | 2026-09-03 01:25:18 | 47.90151 | 17.13806 | 190° | 77km/h | 35462m | 1.7m/s | 0°C | 0% | 0hPa | 0V | 00:00:00 | 00:00:00 | 00:00:00 | |
| LZ4TU-5 | 2026-09-03 01:25:17 | 47.90169 | 17.13806 | 171° | 66km/h | 35460m | 4.6m/s | 0°C | 0% | 0hPa | 0V | 00:00:00 | 00:00:00 | 00:00:00 | |
| OM5KV | 2026-09-03 01:25:14 | 47.90193 | 17.13774 | 79° | 27km/h | 35441m | 8.8m/s | 0°C | 0% | 0hPa | 0V | 00:00:00 | 00:00:00 | 00:00:00 | |
| OE5MMP-10 | 2026-09-03 01:25:12 | 47.90186 | 17.13775 | 288° | 47km/h | 35428m | 4.4m/s | 0°C | 0% | 0hPa | 0V | 00:00:00 | 00:00:00 | 00:00:00 | |
| OE5DXL-15 | 2026-09-03 01:25:09 | 47.90201 | 17.13816 | 214° | 47km/h | 35407m | 6.9m/s | 0°C | 0% | 0hPa | 0V | 00:00:00 | 00:00:00 | 00:00:00 | |
| OM5KV | 2026-09-03 01:25:08 | 47.90218 | 17.13824 | 193° | 73km/h | 35400m | 4.2m/s | 0°C | 0% | 0hPa | 0V | 00:00:00 | 00:00:00 | 00:00:00 | |
| OE5MMP-10 | 2026-09-03 01:25:02 | 47.90254 | 17.13780 | 290° | 46km/h | 35368m | 7.0m/s | 0°C | 0% | 0hPa | 0V | 00:00:00 | 00:00:00 | 00:00:00 | |
| OM5KV | 2026-09-03 01:25:01 | 47.90252 | 17.13791 | 268° | 42km/h | 35361m | 7.4m/s | 0°C | 0% | 0hPa | 0V | 00:00:00 | 00:00:00 | 00:00:00 | |
| PETON7-10 | 2026-09-03 01:25:00 | 47.90254 | 17.13808 | 250° | 44km/h | 35353m | 5.2m/s | 0°C | 0% | 0hPa | 0V | 00:00:00 | 00:00:00 | 00:00:00 | |
| OE3OSB-13 | 2026-09-03 01:24:50 | 47.90331 | 17.13839 | 225° | 64km/h | 35290m | 7.6m/s | -32.0°C | 0.0% | 5.2hPa | 0V | 00:00:00 | 00:00:00 | 00:00:00 | |
| OM5KV | 2026-09-03 01:24:45 | 47.90380 | 17.13844 | 130° | 40km/h | 35271m | 12.4m/s | 0°C | 0% | 0hPa | 0V | 00:00:00 | 00:00:00 | 00:00:00 | |
| OM5KV | 2026-09-03 01:24:44 | 47.90383 | 17.13828 | 89° | 46km/h | 35257m | 11.7m/s | 0°C | 0% | 0hPa | 0V | 00:00:00 | 00:00:00 | 00:00:00 | |
| OE5MMP-10 | 2026-09-03 01:24:42 | 47.90374 | 17.13795 | 45° | 35km/h | 35241m | 1.5m/s | 0°C | 0% | 0hPa | 0V | 00:00:00 | 00:00:00 | 00:00:00 | |
| OM5KV | 2026-09-03 01:24:39 | 47.90368 | 17.13793 | 254° | 22km/h | 35223m | 9.4m/s | 0°C | 0% | 0hPa | 0V | 00:00:00 | 00:00:00 | 00:00:00 | |
| OM5KV | 2026-09-03 01:24:38 | 47.90373 | 17.13802 | 225° | 46km/h | 35213m | 8.6m/s | 0°C | 0% | 0hPa | 0V | 00:00:00 | 00:00:00 | 00:00:00 | |
| ATIDSZ-14 | 2026-09-03 01:24:36 | 47.90399 | 17.13812 | 175° | 58km/h | 35197m | 1.5m/s | 0°C | 0% | 0hPa | 0V | 00:00:00 | 00:00:00 | 00:00:00 | |
| OE5DXL-15 | 2026-09-03 01:24:35 | 47.90412 | 17.13807 | 142° | 37km/h | 35194m | -0.6m/s | 0°C | 0% | 0hPa | 0V | 00:00:00 | 00:00:00 | 00:00:00 | |
| OM5KV | 2026-09-03 01:24:33 | 47.90421 | 17.13789 | 78° | 27km/h | 35194m | 1.1m/s | 0°C | 0% | 0hPa | 0V | 00:00:00 | 00:00:00 | 00:00:00 | |
| OE5MMP-10 | 2026-09-03 01:24:32 | 47.90417 | 17.13779 | 44° | 37km/h | 35193m | 4.1m/s | 0°C | 0% | 0hPa | 0V | 00:00:00 | 00:00:00 | 00:00:00 | |
| PETON7-10 | 2026-09-03 01:24:29 | 47.90400 | 17.13779 | 287° | 29km/h | 35176m | 5.0m/s | 0°C | 0% | 0hPa | 0V | 00:00:00 | 00:00:00 | 00:00:00 | |
| OE3JTB-15 | 2026-09-03 01:24:23 | 47.90431 | 17.13747 | 89° | 38km/h | 35147m | 6.1m/s | 0°C | 0% | 0hPa | 0V | 00:00:00 | 00:00:00 | 00:00:00 | |
| OE5MMP-10 | 2026-09-03 01:24:22 | 47.90428 | 17.13725 | 73° | 38km/h | 35142m | 3.5m/s | 0°C | 0% | 0hPa | 0V | 00:00:00 | 00:00:00 | 00:00:00 | |
| OM5KV | 2026-09-03 01:24:20 | 47.90419 | 17.13700 | 21° | 13km/h | 35133m | 7.0m/s | 0°C | 0% | 0hPa | 0V | 00:00:00 | 00:00:00 | 00:00:00 | |
| OE3OSB-13 | 2026-09-03 01:24:19 | 47.90415 | 17.13706 | 247° | 31km/h | 35119m | 5.1m/s | -33.1°C | 0.0% | 5.4hPa | 0V | 00:00:00 | 00:00:00 | 00:00:00 | |
| ATIDSZ-14 | 2026-09-03 01:24:15 | 47.90431 | 17.13707 | 148° | 35km/h | 35112m | 6.0m/s | 0°C | 0% | 0hPa | 0V | 00:00:00 | 00:00:00 | 00:00:00 | |
| OM5KV | 2026-09-03 01:24:14 | 47.90436 | 17.13693 | 114° | 46km/h | 35106m | 7.5m/s | 0°C | 0% | 0hPa | 0V | 00:00:00 | 00:00:00 | 00:00:00 | |
| OM5KV | 2026-09-03 01:24:13 | 47.90438 | 17.13672 | 95° | 60km/h | 35098m | 7.8m/s | 0°C | 0% | 0hPa | 0V | 00:00:00 | 00:00:00 | 00:00:00 | |
| OE5MMP-10 | 2026-09-03 01:24:11 | 47.90430 | 17.13628 | 54° | 37km/h | 35092m | 2.6m/s | 0°C | 0% | 0hPa | 0V | 00:00:00 | 00:00:00 | 00:00:00 | |
| OM5KV | 2026-09-03 01:24:07 | 47.90419 | 17.13631 | 241° | 33km/h | 35065m | 4.7m/s | 0°C | 0% | 0hPa | 0V | 00:00:00 | 00:00:00 | 00:00:00 | |
| LZ4TU-5 | 2026-09-03 01:24:04 | 47.90435 | 17.13634 | 128° | 22km/h | 35061m | 9.4m/s | 0°C | 0% | 0hPa | 0V | 00:00:00 | 00:00:00 | 00:00:00 | |
| OE5DXL-15 | 2026-09-03 01:24:03 | 47.90437 | 17.13623 | 85° | 38km/h | 35052m | 14.2m/s | 0°C | 0% | 0hPa | 0V | 00:00:00 | 00:00:00 | 00:00:00 | |
| OE5MMP-10 | 2026-09-03 01:24:00 | 47.90418 | 17.13577 | 41° | 38km/h | 35024m | -1.0m/s | 0°C | 0% | 0hPa | 0V | 00:00:00 | 00:00:00 | 00:00:00 | |
| OE3OSB-13 | 2026-09-03 01:23:48 | 47.90372 | 17.13549 | 314° | 37km/h | 34956m | 6.1m/s | -33.3°C | 0.0% | 5.5hPa | 0V | 00:00:00 | 00:00:00 | 00:00:00 | |
| S52SK | 2026-09-03 01:23:46 | 47.90368 | 17.13557 | 268° | 26km/h | 34951m | 6.2m/s | 0°C | 0% | 0hPa | 0V | 00:00:00 | 00:00:00 | 00:00:00 | |
| OM5KV | 2026-09-03 01:23:45 | 47.90371 | 17.13563 | 210° | 24km/h | 34945m | 4.9m/s | 0°C | 0% | 0hPa | 0V | 00:00:00 | 00:00:00 | 00:00:00 | |
| OM5KV | 2026-09-03 01:23:41 | 47.90382 | 17.13529 | 55° | 49km/h | 34922m | 5.3m/s | 0°C | 0% | 0hPa | 0V | 00:00:00 | 00:00:00 | 00:00:00 | |
| S52SK | 2026-09-03 01:23:40 | 47.90372 | 17.13518 | 21° | 51km/h | 34917m | 6.1m/s | 0°C | 0% | 0hPa | 0V | 00:00:00 | 00:00:00 | 00:00:00 | |
| OM5KV | 2026-09-03 01:23:34 | 47.90343 | 17.13578 | 184° | 20km/h | 34878m | 9.1m/s | 0°C | 0% | 0hPa | 0V | 00:00:00 | 00:00:00 | 00:00:00 | |
| S52SK | 2026-09-03 01:23:33 | 47.90348 | 17.13571 | 110° | 42km/h | 34868m | 8.6m/s | 0°C | 0% | 0hPa | 0V | 00:00:00 | 00:00:00 | 00:00:00 | |
| OE5DXL-15 | 2026-09-03 01:23:32 | 47.90350 | 17.13552 | 90° | 46km/h | 34861m | 4.4m/s | 0°C | 0% | 0hPa | 0V | 00:00:00 | 00:00:00 | 00:00:00 | |
| OM5KV | 2026-09-03 01:23:30 | 47.90340 | 17.13517 | 44° | 46km/h | 34856m | 2.8m/s | 0°C | 0% | 0hPa | 0V | 00:00:00 | 00:00:00 | 00:00:00 | |
| S52SK | 2026-09-03 01:23:27 | 47.90314 | 17.13528 | 295° | 58km/h | 34832m | 6.7m/s | 0°C | 0% | 0hPa | 0V | 00:00:00 | 00:00:00 | 00:00:00 | |
| OE5MMP-10 | 2026-09-03 01:23:26 | 47.90310 | 17.13547 | 272° | 47km/h | 34827m | 1.8m/s | 0°C | 0% | 0hPa | 0V | 00:00:00 | 00:00:00 | 00:00:00 | |
| OE3JTB-15 | 2026-09-03 01:23:25 | 47.90312 | 17.13563 | 246° | 47km/h | 34826m | 0.3m/s | 0°C | 0% | 0hPa | 0V | 00:00:00 | 00:00:00 | 00:00:00 | |
| S52SK | 2026-09-03 01:23:21 | 47.90325 | 17.13539 | 69° | 60km/h | 34811m | 4.3m/s | 0°C | 0% | 0hPa | 0V | 00:00:00 | 00:00:00 | 00:00:00 | |
| OM5KV | 2026-09-03 01:23:19 | 47.90306 | 17.13516 | 8° | 51km/h | 34803m | 5.4m/s | 0°C | 0% | 0hPa | 0V | 00:00:00 | 00:00:00 | 00:00:00 | |
| OE3OSB-13 | 2026-09-03 01:23:17 | 47.90276 | 17.13552 | 278° | 60km/h | 34775m | 5.6m/s | -34.0°C | 0.0% | 5.7hPa | 0V | 00:00:00 | 00:00:00 | 00:00:00 | |
| OE5MMP-10 | 2026-09-03 01:23:16 | 47.90276 | 17.13552 | 279° | 46km/h | 34775m | 5.6m/s | 0°C | 0% | 0hPa | 0V | 00:00:00 | 00:00:00 | 00:00:00 | |
| OM5KV | 2026-09-03 01:23:12 | 47.90299 | 17.13582 | 116° | 37km/h | 34753m | 5.2m/s | 0°C | 0% | 0hPa | 0V | 00:00:00 | 00:00:00 | 00:00:00 | |
| OK1ALN | 2026-09-03 01:23:10 | 47.90293 | 17.13552 | 43° | 57km/h | 34742m | 5.9m/s | 0°C | 0% | 0hPa | 0V | 00:00:00 | 00:00:00 | 00:00:00 | |
| ATIDSZ-14 | 2026-09-03 01:23:09 | 47.90281 | 17.13542 | 17° | 55km/h | 34736m | 4.5m/s | 0°C | 0% | 0hPa | 0V | 00:00:00 | 00:00:00 | 00:00:00 | |
| OM5KV | 2026-09-03 01:23:07 | 47.90254 | 17.13557 | 310° | 57km/h | 34728m | 5.2m/s | 0°C | 0% | 0hPa | 0V | 00:00:00 | 00:00:00 | 00:00:00 | |
| OE5MMP-10 | 2026-09-03 01:23:06 | 47.90248 | 17.13577 | 276° | 53km/h | 34723m | 4.9m/s | 0°C | 0% | 0hPa | 0V | 00:00:00 | 00:00:00 | 00:00:00 | |
| OE5DXL-15 | 2026-09-03 01:23:01 | 47.90275 | 17.13571 | 72° | 51km/h | 34694m | 4.7m/s | 0°C | 0% | 0hPa | 0V | 00:00:00 | 00:00:00 | 00:00:00 | |
| OE3OSB-13 | 2026-09-03 01:22:46 | 47.90194 | 17.13595 | 226° | 38km/h | 34619m | 4.9m/s | -35.4°C | 0.0% | 5.8hPa | 0V | 00:00:00 | 00:00:00 | 00:00:00 | |
| OE5MMP-10 | 2026-09-03 01:22:43 | 47.90211 | 17.13594 | 133° | 57km/h | 34609m | 4.1m/s | 0°C | 0% | 0hPa | 0V | 00:00:00 | 00:00:00 | 00:00:00 | |
| LZ4TU-5 | 2026-09-03 01:22:41 | 47.90210 | 17.13561 | 48° | 58km/h | 34605m | 5.6m/s | 0°C | 0% | 0hPa | 0V | 00:00:00 | 00:00:00 | 00:00:00 | |
| OM5KV | 2026-09-03 01:22:38 | 47.90166 | 17.13565 | 311° | 77km/h | 34583m | 5.1m/s | 0°C | 0% | 0hPa | 0V | 00:00:00 | 00:00:00 | 00:00:00 | |
| LZ4TU-5 | 2026-09-03 01:22:36 | 47.90157 | 17.13612 | 260° | 57km/h | 34576m | 4.1m/s | 0°C | 0% | 0hPa | 0V | 00:00:00 | 00:00:00 | 00:00:00 | |
| OE5MMP-10 | 2026-09-03 01:22:33 | 47.90178 | 17.13627 | 128° | 51km/h | 34557m | 6.3m/s | 0°C | 0% | 0hPa | 0V | 00:00:00 | 00:00:00 | 00:00:00 | |
| OM5KV | 2026-09-03 01:22:32 | 47.90180 | 17.13613 | 87° | 46km/h | 34551m | 5.0m/s | 0°C | 0% | 0hPa | 0V | 00:00:00 | 00:00:00 | 00:00:00 | |
| OE5DXL-15 | 2026-09-03 01:22:31 | 47.90175 | 17.13598 | 40° | 57km/h | 34546m | 5.0m/s | 0°C | 0% | 0hPa | 0V | 00:00:00 | 00:00:00 | 00:00:00 | |
| OK1ALN | 2026-09-03 01:22:28 | 47.90136 | 17.13606 | 312° | 71km/h | 34531m | 4.4m/s | 0°C | 0% | 0hPa | 0V | 00:00:00 | 00:00:00 | 00:00:00 | |
| OE3JTB-15 | 2026-09-03 01:22:27 | 47.90127 | 17.13630 | 288° | 53km/h | 34526m | 4.3m/s | 0°C | 0% | 0hPa | 0V | 00:00:00 | 00:00:00 | 00:00:00 | |
| ATIDSZ-14 | 2026-09-03 01:22:26 | 47.90125 | 17.13655 | 267° | 62km/h | 34522m | 6.2m/s | 0°C | 0% | 0hPa | 0V | 00:00:00 | 00:00:00 | 00:00:00 | |
| OE5MMP-10 | 2026-09-03 01:22:23 | 47.90150 | 17.13684 | 159° | 51km/h | 34503m | 5.4m/s | 0°C | 0% | 0hPa | 0V | 00:00:00 | 00:00:00 | 00:00:00 | |
| LZ4TU-5 | 2026-09-03 01:22:19 | 47.90130 | 17.13649 | 358° | 55km/h | 34480m | 5.3m/s | 0°C | 0% | 0hPa | 0V | 00:00:00 | 00:00:00 | 00:00:00 | |
| OM5KV | 2026-09-03 01:22:18 | 47.90117 | 17.13655 | 329° | 60km/h | 34475m | 3.7m/s | 0°C | 0% | 0hPa | 0V | 00:00:00 | 00:00:00 | 00:00:00 | |
| S52SK | 2026-09-03 01:22:14 | 47.90110 | 17.13740 | 228° | 62km/h | 34457m | 5.6m/s | 0°C | 0% | 0hPa | 0V | 00:00:00 | 00:00:00 | 00:00:00 | |
| OE5MMP-10 | 2026-09-03 01:22:13 | 47.90122 | 17.13751 | 194° | 55km/h | 34451m | 6.4m/s | 0°C | 0% | 0hPa | 0V | 00:00:00 | 00:00:00 | 00:00:00 | |
| OM5KV | 2026-09-03 01:22:12 | 47.90133 | 17.13750 | 158° | 42km/h | 34444m | 7.1m/s | 0°C | 0% | 0hPa | 0V | 00:00:00 | 00:00:00 | 00:00:00 | |
| OK1ALN | 2026-09-03 01:22:08 | 47.90116 | 17.13709 | 352° | 55km/h | 34421m | 3.2m/s | 0°C | 0% | 0hPa | 0V | 00:00:00 | 00:00:00 | 00:00:00 | |
| OM5KV | 2026-09-03 01:22:07 | 47.90103 | 17.13718 | 314° | 58km/h | 34418m | 5.2m/s | 0°C | 0% | 0hPa | 0V | 00:00:00 | 00:00:00 | 00:00:00 | |
| ATIDSZ-14 | 2026-09-03 01:22:06 | 47.90095 | 17.13738 | 283° | 68km/h | 34412m | 6.0m/s | 0°C | 0% | 0hPa | 0V | 00:00:00 | 00:00:00 | 00:00:00 | |
| OM5KV | 2026-09-03 01:22:05 | 47.90096 | 17.13763 | 257° | 71km/h | 34406m | 7.9m/s | 0°C | 0% | 0hPa | 0V | 00:00:00 | 00:00:00 | 00:00:00 | |
| S52SK | 2026-09-03 01:22:03 | 47.90119 | 17.13800 | 203° | 77km/h | 34391m | 4.5m/s | 0°C | 0% | 0hPa | 0V | 00:00:00 | 00:00:00 | 00:00:00 | |
| OM5KV | 2026-09-03 01:22:01 | 47.90147 | 17.13800 | 142° | 42km/h | 34382m | 7.3m/s | 0°C | 0% | 0hPa | 0V | 00:00:00 | 00:00:00 | 00:00:00 | |
| OE5DXL-15 | 2026-09-03 01:22:00 | 47.90151 | 17.13790 | 98° | 37km/h | 34375m | 8.3m/s | 0°C | 0% | 0hPa | 0V | 00:00:00 | 00:00:00 | 00:00:00 | |
| OE3OSB-13 | 2026-09-03 01:21:44 | 47.90180 | 17.13862 | 207° | 26km/h | 34276m | 8.3m/s | -35.5°C | 0.0% | 6.1hPa | 0V | 00:00:00 | 00:00:00 | 00:00:00 | |
| OE5MMP-10 | 2026-09-03 01:21:43 | 47.90180 | 17.13862 | 208° | 37km/h | 34276m | 8.3m/s | 0°C | 0% | 0hPa | 0V | 00:00:00 | 00:00:00 | 00:00:00 | |
| ATIDSZ-14 | 2026-09-03 01:21:41 | 47.90201 | 17.13862 | 171° | 58km/h | 34258m | 6.4m/s | 0°C | 0% | 0hPa | 0V | 00:00:00 | 00:00:00 | 00:00:00 | |
| OM5KV | 2026-09-03 01:21:35 | 47.90221 | 17.13882 | 325° | 42km/h | 34221m | 4.1m/s | 0°C | 0% | 0hPa | 0V | 00:00:00 | 00:00:00 | 00:00:00 | |
| OE5MMP-10 | 2026-09-03 01:21:33 | 47.90206 | 17.13892 | 338° | 31km/h | 34215m | 5.2m/s | 0°C | 0% | 0hPa | 0V | 00:00:00 | 00:00:00 | 00:00:00 | |
| OE5DXL-15 | 2026-09-03 01:21:30 | 47.90219 | 17.13885 | 170° | 42km/h | 34191m | 5.3m/s | 0°C | 0% | 0hPa | 0V | 00:00:00 | 00:00:00 | 00:00:00 | |
| OE3JTB-15 | 2026-09-03 01:21:29 | 47.90231 | 17.13884 | 182° | 40km/h | 34187m | 2.9m/s | 0°C | 0% | 0hPa | 0V | 00:00:00 | 00:00:00 | 00:00:00 | |
| OK1ALN | 2026-09-03 01:21:26 | 47.90247 | 17.13904 | 287° | 27km/h | 34173m | 7.1m/s | 0°C | 0% | 0hPa | 0V | 00:00:00 | 00:00:00 | 00:00:00 | |
| OE5MMP-10 | 2026-09-03 01:21:23 | 47.90221 | 17.13917 | 17° | 38km/h | 34153m | 5.2m/s | 0°C | 0% | 0hPa | 0V | 00:00:00 | 00:00:00 | 00:00:00 | |
| ATIDSZ-14 | 2026-09-03 01:21:20 | 47.90216 | 17.13893 | 160° | 29km/h | 34134m | 5.8m/s | 0°C | 0% | 0hPa | 0V | 00:00:00 | 00:00:00 | 00:00:00 | |
| OM5KV | 2026-09-03 01:21:17 | 47.90237 | 17.13913 | 256° | 46km/h | 34115m | 6.4m/s | 0°C | 0% | 0hPa | 0V | 00:00:00 | 00:00:00 | 00:00:00 | |
| OE5MMP-10 | 2026-09-03 01:21:12 | 47.90208 | 17.13926 | 82° | 49km/h | 34083m | 6.1m/s | 0°C | 0% | 0hPa | 0V | 00:00:00 | 00:00:00 | 00:00:00 | |
| OM5KV | 2026-09-03 01:21:11 | 47.90209 | 17.13908 | 109° | 47km/h | 34079m | -0.1m/s | 0°C | 0% | 0hPa | 0V | 00:00:00 | 00:00:00 | 00:00:00 | |
| OM5KV | 2026-09-03 01:21:06 | 47.90232 | 17.13932 | 290° | 68km/h | 34047m | 2.7m/s | 0°C | 0% | 0hPa | 0V | 00:00:00 | 00:00:00 | 00:00:00 | |
| LZ4TU-5 | 2026-09-03 01:21:04 | 47.90214 | 17.13961 | 343° | 40km/h | 34044m | 3.0m/s | 0°C | 0% | 0hPa | 0V | 00:00:00 | 00:00:00 | 00:00:00 | |
| OE5MMP-10 | 2026-09-03 01:21:00 | 47.90203 | 17.13914 | 130° | 53km/h | 34011m | 4.1m/s | 0°C | 0% | 0hPa | 0V | 00:00:00 | 00:00:00 | 00:00:00 | |
| ATIDSZ-14 | 2026-09-03 01:20:59 | 47.90213 | 17.13902 | 158° | 46km/h | 34008m | 2.5m/s | 0°C | 0% | 0hPa | 0V | 00:00:00 | 00:00:00 | 00:00:00 | |
| OM5KV | 2026-09-03 01:20:55 | 47.90229 | 17.13939 | 310° | 55km/h | 33982m | 5.8m/s | 0°C | 0% | 0hPa | 0V | 00:00:00 | 00:00:00 | 00:00:00 | |
| S52SK | 2026-09-03 01:20:54 | 47.90218 | 17.13949 | 350° | 55km/h | 33978m | 4.6m/s | 0°C | 0% | 0hPa | 0V | 00:00:00 | 00:00:00 | 00:00:00 | |
| OM5KV | 2026-09-03 01:20:53 | 47.90204 | 17.13947 | 19° | 57km/h | 33973m | 5.3m/s | 0°C | 0% | 0hPa | 0V | 00:00:00 | 00:00:00 | 00:00:00 | |
| OE5MMP-10 | 2026-09-03 01:20:49 | 47.90198 | 17.13878 | 150° | 55km/h | 33949m | 4.9m/s | 0°C | 0% | 0hPa | 0V | 00:00:00 | 00:00:00 | 00:00:00 | |
| S52SK | 2026-09-03 01:20:48 | 47.90210 | 17.13874 | 194° | 46km/h | 33943m | 8.0m/s | 0°C | 0% | 0hPa | 0V | 00:00:00 | 00:00:00 | 00:00:00 | |
| OM5KV | 2026-09-03 01:20:47 | 47.90220 | 17.13884 | 230° | 53km/h | 33933m | 9.1m/s | 0°C | 0% | 0hPa | 0V | 00:00:00 | 00:00:00 | 00:00:00 | |
| OK1ALN | 2026-09-03 01:20:44 | 47.90209 | 17.13934 | 342° | 47km/h | 33917m | 2.8m/s | 0°C | 0% | 0hPa | 0V | 00:00:00 | 00:00:00 | 00:00:00 | |
| S52SK | 2026-09-03 01:20:42 | 47.90190 | 17.13927 | 55° | 46km/h | 33905m | 9.4m/s | 0°C | 0% | 0hPa | 0V | 00:00:00 | 00:00:00 | 00:00:00 | |
| OE3OSB-13 | 2026-09-03 01:20:41 | 47.90190 | 17.13887 | 121° | 62km/h | 33886m | 4.0m/s | -36.0°C | 0.0% | 6.6hPa | 0V | 00:00:00 | 00:00:00 | 00:00:00 | |
| ATIDSZ-14 | 2026-09-03 01:20:38 | 47.90212 | 17.13867 | 182° | 46km/h | 33879m | 3.9m/s | 0°C | 0% | 0hPa | 0V | 00:00:00 | 00:00:00 | 00:00:00 | |
| OE5MMP-10 | 2026-09-03 01:20:34 | 47.90214 | 17.13916 | 332° | 47km/h | 33853m | 3.7m/s | 0°C | 0% | 0hPa | 0V | 00:00:00 | 00:00:00 | 00:00:00 | |
| OM5KV | 2026-09-03 01:20:32 | 47.90192 | 17.13910 | 48° | 53km/h | 33843m | 5.3m/s | 0°C | 0% | 0hPa | 0V | 00:00:00 | 00:00:00 | 00:00:00 | |
| OE3JTB-15 | 2026-09-03 01:20:31 | 47.90186 | 17.13892 | 80° | 37km/h | 33836m | 6.6m/s | 0°C | 0% | 0hPa | 0V | 00:00:00 | 00:00:00 | 00:00:00 | |
| OE5DXL-15 | 2026-09-03 01:20:30 | 47.90188 | 17.13871 | 110° | 35km/h | 33829m | 6.7m/s | 0°C | 0% | 0hPa | 0V | 00:00:00 | 00:00:00 | 00:00:00 | |
| OM5KV | 2026-09-03 01:20:29 | 47.90196 | 17.13849 | 134° | 62km/h | 33823m | 5.8m/s | 0°C | 0% | 0hPa | 0V | 00:00:00 | 00:00:00 | 00:00:00 | |
| OM5KV | 2026-09-03 01:20:26 | 47.90224 | 17.13847 | 266° | 26km/h | 33806m | 8.6m/s | 0°C | 0% | 0hPa | 0V | 00:00:00 | 00:00:00 | 00:00:00 | |
| OM5KV | 2026-09-03 01:20:25 | 47.90221 | 17.13858 | 314° | 40km/h | 33798m | 8.4m/s | 0°C | 0% | 0hPa | 0V | 00:00:00 | 00:00:00 | 00:00:00 | |
| OM5KV | 2026-09-03 01:20:24 | 47.90212 | 17.13865 | 347° | 46km/h | 33790m | 5.4m/s | 0°C | 0% | 0hPa | 0V | 00:00:00 | 00:00:00 | 00:00:00 | |
| OK1ALN | 2026-09-03 01:20:23 | 47.90200 | 17.13865 | 17° | 49km/h | 33784m | 6.3m/s | 0°C | 0% | 0hPa | 0V | 00:00:00 | 00:00:00 | 00:00:00 | |
| OE5MMP-10 | 2026-09-03 01:20:21 | 47.90182 | 17.13839 | 71° | 44km/h | 33772m | 6.7m/s | 0°C | 0% | 0hPa | 0V | 00:00:00 | 00:00:00 | 00:00:00 | |
| ATIDSZ-14 | 2026-09-03 01:20:18 | 47.90193 | 17.13801 | 169° | 33km/h | 33754m | 4.9m/s | 0°C | 0% | 0hPa | 0V | 00:00:00 | 00:00:00 | 00:00:00 | |
| OM5KV | 2026-09-03 01:20:14 | 47.90191 | 17.13819 | 355° | 42km/h | 33729m | 6.5m/s | 0°C | 0% | 0hPa | 0V | 00:00:00 | 00:00:00 | 00:00:00 | |
| OM5KV | 2026-09-03 01:20:13 | 47.90180 | 17.13817 | 17° | 46km/h | 33723m | 4.8m/s | 0°C | 0% | 0hPa | 0V | 00:00:00 | 00:00:00 | 00:00:00 | |
| OE5MMP-10 | 2026-09-03 01:20:11 | 47.90164 | 17.13800 | 63° | 22km/h | 33713m | 6.0m/s | 0°C | 0% | 0hPa | 0V | 00:00:00 | 00:00:00 | 00:00:00 | |
| OE3OSB-13 | 2026-09-03 01:20:10 | 47.90165 | 17.13782 | 121° | 16km/h | 33699m | 5.8m/s | -36.9°C | 0.0% | 6.8hPa | 0V | 00:00:00 | 00:00:00 | 00:00:00 | |
| OM5KV | 2026-09-03 01:20:08 | 47.90167 | 17.13779 | 162° | 11km/h | 33692m | 6.2m/s | 0°C | 0% | 0hPa | 0V | 00:00:00 | 00:00:00 | 00:00:00 | |
| OM5KV | 2026-09-03 01:20:06 | 47.90166 | 17.13783 | 331° | 20km/h | 33680m | 4.7m/s | 0°C | 0% | 0hPa | 0V | 00:00:00 | 00:00:00 | 00:00:00 | |
| OM5KV | 2026-09-03 01:20:03 | 47.90146 | 17.13784 | 22° | 35km/h | 33665m | 6.5m/s | 0°C | 0% | 0hPa | 0V | 00:00:00 | 00:00:00 | 00:00:00 | |
| OM5KV | 2026-09-03 01:20:02 | 47.90135 | 17.13770 | 61° | 24km/h | 33652m | 7.4m/s | 0°C | 0% | 0hPa | 0V | 00:00:00 | 00:00:00 | 00:00:00 | |
| OE5MMP-10 | 2026-09-03 01:20:01 | 47.90135 | 17.13770 | 61° | 20km/h | 33652m | 7.3m/s | 0°C | 0% | 0hPa | 0V | 00:00:00 | 00:00:00 | 00:00:00 | |
| OE5DXL-15 | 2026-09-03 01:20:00 | 47.90134 | 17.13764 | 90° | 24km/h | 33646m | 6.0m/s | 0°C | 0% | 0hPa | 0V | 00:00:00 | 00:00:00 | 00:00:00 | |
| ATIDSZ-14 | 2026-09-03 01:19:57 | 47.90129 | 17.13768 | 308° | 26km/h | 33626m | 8.1m/s | 0°C | 0% | 0hPa | 0V | 00:00:00 | 00:00:00 | 00:00:00 | |
| OM5KV | 2026-09-03 01:19:56 | 47.90123 | 17.13777 | 327° | 42km/h | 33619m | 7.2m/s | 0°C | 0% | 0hPa | 0V | 00:00:00 | 00:00:00 | 00:00:00 | |
| OM5KV | 2026-09-03 01:19:54 | 47.90101 | 17.13787 | 358° | 42km/h | 33611m | 2.5m/s | 0°C | 0% | 0hPa | 0V | 00:00:00 | 00:00:00 | 00:00:00 | |
| OM5KV | 2026-09-03 01:19:53 | 47.90092 | 17.13785 | 21° | 31km/h | 33607m | 6.1m/s | 0°C | 0% | 0hPa | 0V | 00:00:00 | 00:00:00 | 00:00:00 | |
| OE5MMP-10 | 2026-09-03 01:19:51 | 47.90085 | 17.13769 | 94° | 26km/h | 33590m | 9.0m/s | 0°C | 0% | 0hPa | 0V | 00:00:00 | 00:00:00 | 00:00:00 | |
| OM5KV | 2026-09-03 01:19:48 | 47.90093 | 17.13751 | 203° | 4km/h | 33575m | 7.1m/s | 0°C | 0% | 0hPa | 0V | 00:00:00 | 00:00:00 | 00:00:00 | |
| OK1ALN | 2026-09-03 01:19:42 | 47.90053 | 17.13758 | 56° | 26km/h | 33533m | 6.8m/s | 0°C | 0% | 0hPa | 0V | 00:00:00 | 00:00:00 | 00:00:00 | |
| OE5MMP-10 | 2026-09-03 01:19:41 | 47.90052 | 17.13749 | 98° | 18km/h | 33527m | 6.4m/s | 0°C | 0% | 0hPa | 0V | 00:00:00 | 00:00:00 | 00:00:00 | |
| PG1ADW-2 | 2026-09-03 01:19:39 | 47.90057 | 17.13733 | 139° | 26km/h | 33516m | 5.3m/s | 0°C | 0% | 0hPa | 0V | 00:00:00 | 00:00:00 | 00:00:00 | |
| ATIDSZ-14 | 2026-09-03 01:19:36 | 47.90060 | 17.13737 | 308° | 16km/h | 33497m | 4.7m/s | 0°C | 0% | 0hPa | 0V | 00:00:00 | 00:00:00 | 00:00:00 | |
| S52SK | 2026-09-03 01:19:34 | 47.90053 | 17.13741 | 21° | 15km/h | 33485m | 6.4m/s | 0°C | 0% | 0hPa | 0V | 00:00:00 | 00:00:00 | 00:00:00 | |
| OE3JTB-15 | 2026-09-03 01:19:33 | 47.90050 | 17.13736 | 63° | 24km/h | 33478m | 7.8m/s | 0°C | 0% | 0hPa | 0V | 00:00:00 | 00:00:00 | 00:00:00 | |
| OE5MMP-10 | 2026-09-03 01:19:31 | 47.90045 | 17.13715 | 81° | 16km/h | 33463m | 4.6m/s | 0°C | 0% | 0hPa | 0V | 00:00:00 | 00:00:00 | 00:00:00 | |
| OE5DXL-15 | 2026-09-03 01:19:30 | 47.90044 | 17.13706 | 72° | 26km/h | 33459m | 5.4m/s | 0°C | 0% | 0hPa | 0V | 00:00:00 | 00:00:00 | 00:00:00 | |
| OM5KV | 2026-09-03 01:19:25 | 47.90048 | 17.13699 | 159° | 16km/h | 33430m | 6.8m/s | 0°C | 0% | 0hPa | 0V | 00:00:00 | 00:00:00 | 00:00:00 | |
| OM5KV | 2026-09-03 01:19:24 | 47.90051 | 17.13695 | 108° | 20km/h | 33423m | 5.4m/s | 0°C | 0% | 0hPa | 0V | 00:00:00 | 00:00:00 | 00:00:00 | |
| OE5MMP-10 | 2026-09-03 01:19:21 | 47.90040 | 17.13667 | 30° | 22km/h | 33403m | 7.4m/s | 0°C | 0% | 0hPa | 0V | 00:00:00 | 00:00:00 | 00:00:00 | |
| OM5KV | 2026-09-03 01:19:17 | 47.90020 | 17.13666 | 221° | 9km/h | 33385m | 9.3m/s | 0°C | 0% | 0hPa | 0V | 00:00:00 | 00:00:00 | 00:00:00 | |
| PETON7-10 | 2026-09-03 01:19:15 | 47.90033 | 17.13667 | 177° | 27km/h | 33369m | 4.4m/s | 0°C | 0% | 0hPa | 0V | 00:00:00 | 00:00:00 | 00:00:00 | |
| OM5KV | 2026-09-03 01:19:14 | 47.90041 | 17.13666 | 170° | 24km/h | 33366m | 0.6m/s | 0°C | 0% | 0hPa | 0V | 00:00:00 | 00:00:00 | 00:00:00 | |
| OE5MMP-10 | 2026-09-03 01:19:11 | 47.90040 | 17.13659 | 4° | 33km/h | 33346m | 8.1m/s | 0°C | 0% | 0hPa | 0V | 00:00:00 | 00:00:00 | 00:00:00 | |
| OM5KV | 2026-09-03 01:19:08 | 47.90007 | 17.13652 | 25° | 31km/h | 33337m | 2.5m/s | 0°C | 0% | 0hPa | 0V | 00:00:00 | 00:00:00 | 00:00:00 | |
| OE3JTB-15 | 2026-09-03 01:19:04 | 47.90018 | 17.13640 | 195° | 33km/h | 33312m | 3.1m/s | 0°C | 0% | 0hPa | 0V | 00:00:00 | 00:00:00 | 00:00:00 | |
| OM5KV | 2026-09-03 01:19:03 | 47.90026 | 17.13646 | 226° | 31km/h | 33309m | 3.0m/s | 0°C | 0% | 0hPa | 0V | 00:00:00 | 00:00:00 | 00:00:00 | |
| OE5MMP-10 | 2026-09-03 01:19:01 | 47.90027 | 17.13666 | 316° | 38km/h | 33299m | 8.2m/s | 0°C | 0% | 0hPa | 0V | 00:00:00 | 00:00:00 | 00:00:00 | |
| OE5DXL-15 | 2026-09-03 01:19:00 | 47.90018 | 17.13672 | 355° | 31km/h | 33292m | 6.9m/s | 0°C | 0% | 0hPa | 0V | 00:00:00 | 00:00:00 | 00:00:00 | |
| PETON7-10 | 2026-09-03 01:18:57 | 47.89991 | 17.13651 | 65° | 33km/h | 33276m | 6.9m/s | 0°C | 0% | 0hPa | 0V | 00:00:00 | 00:00:00 | 00:00:00 | |
| OK1SLM-15 | 2026-09-03 01:18:55 | 47.89996 | 17.13635 | 175° | 29km/h | 33265m | 5.7m/s | 0°C | 0% | 0hPa | 0V | 00:00:00 | 00:00:00 | 00:00:00 | |
| PG1ADW-2 | 2026-09-03 01:18:52 | 47.90008 | 17.13663 | 280° | 22km/h | 33244m | 4.5m/s | 0°C | 0% | 0hPa | 0V | 00:00:00 | 00:00:00 | 00:00:00 | |
| OE5MMP-10 | 2026-09-03 01:18:51 | 47.90004 | 17.13678 | 310° | 29km/h | 33241m | 2.6m/s | 0°C | 0% | 0hPa | 0V | 00:00:00 | 00:00:00 | 00:00:00 | |
| OK1SLM-15 | 2026-09-03 01:18:50 | 47.89996 | 17.13687 | 339° | 37km/h | 33238m | 2.7m/s | 0°C | 0% | 0hPa | 0V | 00:00:00 | 00:00:00 | 00:00:00 | |
| OK1SLM-15 | 2026-09-03 01:18:44 | 47.89992 | 17.13640 | 163° | 11km/h | 33208m | 5.3m/s | 0°C | 0% | 0hPa | 0V | 00:00:00 | 00:00:00 | 00:00:00 | |
| OM5KV | 2026-09-03 01:18:43 | 47.89994 | 17.13642 | 273° | 13km/h | 33201m | 9.2m/s | 0°C | 0% | 0hPa | 0V | 00:00:00 | 00:00:00 | 00:00:00 | |
| OE5MMP-10 | 2026-09-03 01:18:41 | 47.89985 | 17.13662 | 308° | 24km/h | 33184m | 4.6m/s | 0°C | 0% | 0hPa | 0V | 00:00:00 | 00:00:00 | 00:00:00 | |
| OK1ALN | 2026-09-03 01:18:40 | 47.89978 | 17.13674 | 316° | 40km/h | 33181m | 2.6m/s | 0°C | 0% | 0hPa | 0V | 00:00:00 | 00:00:00 | 00:00:00 | |
| OM5KV | 2026-09-03 01:18:38 | 47.89970 | 17.13684 | 47° | 4km/h | 33172m | 6.7m/s | 0°C | 0% | 0hPa | 0V | 00:00:00 | 00:00:00 | 00:00:00 | |
| OE3OSB-13 | 2026-09-03 01:18:37 | 47.89976 | 17.13672 | 130° | 33km/h | 33156m | 6.1m/s | -37.7°C | 0.0% | 7.4hPa | 0V | 00:00:00 | 00:00:00 | 00:00:00 | |
| OM5KV | 2026-09-03 01:18:36 | 47.89976 | 17.13672 | 131° | 35km/h | 33156m | 6.1m/s | 0°C | 0% | 0hPa | 0V | 00:00:00 | 00:00:00 | 00:00:00 | |
| OE3JTB-15 | 2026-09-03 01:18:35 | 47.89981 | 17.13663 | 127° | 24km/h | 33152m | 2.8m/s | 0°C | 0% | 0hPa | 0V | 00:00:00 | 00:00:00 | 00:00:00 | |
| S52SK | 2026-09-03 01:18:32 | 47.89981 | 17.13646 | 357° | 20km/h | 33138m | 7.5m/s | 0°C | 0% | 0hPa | 0V | 00:00:00 | 00:00:00 | 00:00:00 | |
| OE5MMP-10 | 2026-09-03 01:18:31 | 47.89974 | 17.13649 | 332° | 27km/h | 33131m | 6.0m/s | 0°C | 0% | 0hPa | 0V | 00:00:00 | 00:00:00 | 00:00:00 | |
| OE5DXL-15 | 2026-09-03 01:18:30 | 47.89966 | 17.13656 | 324° | 24km/h | 33126m | 3.5m/s | 0°C | 0% | 0hPa | 0V | 00:00:00 | 00:00:00 | 00:00:00 | |
| ATIDSZ-14 | 2026-09-03 01:18:29 | 47.89960 | 17.13665 | 309° | 29km/h | 33122m | 3.2m/s | 0°C | 0% | 0hPa | 0V | 00:00:00 | 00:00:00 | 00:00:00 | |
| S52SK | 2026-09-03 01:18:26 | 47.89965 | 17.13679 | 174° | 27km/h | 33102m | 6.0m/s | 0°C | 0% | 0hPa | 0V | 00:00:00 | 00:00:00 | 00:00:00 | |
| OM5KV | 2026-09-03 01:18:24 | 47.89974 | 17.13668 | 111° | 18km/h | 33094m | 2.6m/s | 0°C | 0% | 0hPa | 0V | 00:00:00 | 00:00:00 | 00:00:00 | |
| OE5MMP-10 | 2026-09-03 01:18:21 | 47.89960 | 17.13657 | 351° | 24km/h | 33075m | 5.0m/s | 0°C | 0% | 0hPa | 0V | 00:00:00 | 00:00:00 | 00:00:00 | |
| PETON7-10 | 2026-09-03 01:18:19 | 47.89941 | 17.13664 | 332° | 18km/h | 33069m | 3.0m/s | 0°C | 0% | 0hPa | 0V | 00:00:00 | 00:00:00 | 00:00:00 | |
| OM5KV | 2026-09-03 01:18:12 | 47.89953 | 17.13664 | 340° | 13km/h | 33029m | 6.7m/s | 0°C | 0% | 0hPa | 0V | 00:00:00 | 00:00:00 | 00:00:00 | |
| OE5MMP-10 | 2026-09-03 01:18:11 | 47.89947 | 17.13669 | 344° | 24km/h | 33022m | 7.2m/s | 0°C | 0% | 0hPa | 0V | 00:00:00 | 00:00:00 | 00:00:00 | |
| ATIDSZ-14 | 2026-09-03 01:18:08 | 47.89929 | 17.13668 | 38° | 16km/h | 33010m | 5.8m/s | 0°C | 0% | 0hPa | 0V | 00:00:00 | 00:00:00 | 00:00:00 | |
| OM5KV | 2026-09-03 01:18:07 | 47.89928 | 17.13663 | 101° | 18km/h | 33004m | 8.6m/s | 0°C | 0% | 0hPa | 0V | 00:00:00 | 00:00:00 | 00:00:00 | |
| OE3OSB-13 | 2026-09-03 01:18:06 | 47.89939 | 17.13649 | 151° | 35km/h | 32989m | 4.3m/s | -38.4°C | 0.0% | 7.5hPa | 0V | 00:00:00 | 00:00:00 | 00:00:00 | |
| OE5DXL-15 | 2026-09-03 01:18:01 | 47.89945 | 17.13651 | 357° | 24km/h | 32962m | 2.7m/s | 0°C | 0% | 0hPa | 0V | 00:00:00 | 00:00:00 | 00:00:00 | |
| OK1ALN | 2026-09-03 01:17:59 | 47.89939 | 17.13649 | 31° | 26km/h | 32958m | 3.9m/s | 0°C | 0% | 0hPa | 0V | 00:00:00 | 00:00:00 | 00:00:00 | |
| OM5KV | 2026-09-03 01:17:54 | 47.89954 | 17.13597 | 154° | 35km/h | 32928m | 4.7m/s | 0°C | 0% | 0hPa | 0V | 00:00:00 | 00:00:00 | 00:00:00 | |
| OE5MMP-10 | 2026-09-03 01:17:51 | 47.89961 | 17.13592 | 6° | 24km/h | 32910m | 5.3m/s | 0°C | 0% | 0hPa | 0V | 00:00:00 | 00:00:00 | 00:00:00 | |
| OM5KV | 2026-09-03 01:17:49 | 47.89953 | 17.13584 | 48° | 26km/h | 32897m | 5.9m/s | 0°C | 0% | 0hPa | 0V | 00:00:00 | 00:00:00 | 00:00:00 | |
| ATIDSZ-14 | 2026-09-03 01:17:47 | 47.89946 | 17.13562 | 82° | 37km/h | 32885m | 5.4m/s | 0°C | 0% | 0hPa | 0V | 00:00:00 | 00:00:00 | 00:00:00 | |
| OM5KV | 2026-09-03 01:17:43 | 47.89946 | 17.13522 | 105° | 9km/h | 32863m | 6.1m/s | 0°C | 0% | 0hPa | 0V | 00:00:00 | 00:00:00 | 00:00:00 | |
| OE5MMP-10 | 2026-09-03 01:17:41 | 47.89947 | 17.13515 | 109° | 26km/h | 32853m | 4.8m/s | 0°C | 0% | 0hPa | 0V | 00:00:00 | 00:00:00 | 00:00:00 | |
| OM5KV | 2026-09-03 01:17:39 | 47.89949 | 17.13502 | 95° | 24km/h | 32841m | 6.2m/s | 0°C | 0% | 0hPa | 0V | 00:00:00 | 00:00:00 | 00:00:00 | |
| OK1ALN | 2026-09-03 01:17:38 | 47.89949 | 17.13492 | 86° | 27km/h | 32836m | 5.0m/s | 0°C | 0% | 0hPa | 0V | 00:00:00 | 00:00:00 | 00:00:00 | |
| OE3JTB-15 | 2026-09-03 01:17:37 | 47.89948 | 17.13482 | 75° | 29km/h | 32831m | 4.5m/s | 0°C | 0% | 0hPa | 0V | 00:00:00 | 00:00:00 | 00:00:00 | |
| OE3OSB-13 | 2026-09-03 01:17:35 | 47.89941 | 17.13467 | 35° | 13km/h | 32814m | 4.9m/s | -39.1°C | 0.0% | 7.8hPa | 0V | 00:00:00 | 00:00:00 | 00:00:00 | |
| PETON7-10 | 2026-09-03 01:17:34 | 47.89940 | 17.13467 | 36° | 29km/h | 32814m | 4.8m/s | 0°C | 0% | 0hPa | 0V | 00:00:00 | 00:00:00 | 00:00:00 | |
| OM5KV | 2026-09-03 01:17:31 | 47.89937 | 17.13443 | 91° | 37km/h | 32796m | 8.3m/s | 0°C | 0% | 0hPa | 0V | 00:00:00 | 00:00:00 | 00:00:00 | |
| OE5DXL-15 | 2026-09-03 01:17:30 | 47.89936 | 17.13429 | 89° | 27km/h | 32789m | 5.0m/s | 0°C | 0% | 0hPa | 0V | 00:00:00 | 00:00:00 | 00:00:00 | |
| OE5MMP-10 | 2026-09-03 01:17:28 | 47.89934 | 17.13402 | 76° | 26km/h | 32780m | 6.4m/s | 0°C | 0% | 0hPa | 0V | 00:00:00 | 00:00:00 | 00:00:00 | |
| S52SK | 2026-09-03 01:17:27 | 47.89932 | 17.13395 | 44° | 18km/h | 32773m | 7.6m/s | 0°C | 0% | 0hPa | 0V | 00:00:00 | 00:00:00 | 00:00:00 | |
| ATIDSZ-14 | 2026-09-03 01:17:26 | 47.89928 | 17.13392 | 358° | 18km/h | 32766m | 5.5m/s | 0°C | 0% | 0hPa | 0V | 00:00:00 | 00:00:00 | 00:00:00 | |
| OM5KV | 2026-09-03 01:17:23 | 47.89913 | 17.13387 | 48° | 26km/h | 32753m | 6.8m/s | 0°C | 0% | 0hPa | 0V | 00:00:00 | 00:00:00 | 00:00:00 | |
| S52SK | 2026-09-03 01:17:22 | 47.89910 | 17.13377 | 70° | 37km/h | 32746m | 8.2m/s | 0°C | 0% | 0hPa | 0V | 00:00:00 | 00:00:00 | 00:00:00 | |
| OM5KV | 2026-09-03 01:17:19 | 47.89902 | 17.13332 | 75° | 35km/h | 32729m | 5.5m/s | 0°C | 0% | 0hPa | 0V | 00:00:00 | 00:00:00 | 00:00:00 | |
| OE5MMP-10 | 2026-09-03 01:17:18 | 47.89899 | 17.13322 | 54° | 29km/h | 32724m | 6.9m/s | 0°C | 0% | 0hPa | 0V | 00:00:00 | 00:00:00 | 00:00:00 | |
| S52SK | 2026-09-03 01:17:17 | 47.89894 | 17.13317 | 17° | 26km/h | 32717m | 7.0m/s | 0°C | 0% | 0hPa | 0V | 00:00:00 | 00:00:00 | 00:00:00 | |
| OM5KV | 2026-09-03 01:17:12 | 47.89856 | 17.13290 | 64° | 38km/h | 32688m | 6.6m/s | 0°C | 0% | 0hPa | 0V | 00:00:00 | 00:00:00 | 00:00:00 | |
| OE5MMP-10 | 2026-09-03 01:17:08 | 47.89847 | 17.13256 | 12° | 20km/h | 32662m | 7.0m/s | 0°C | 0% | 0hPa | 0V | 00:00:00 | 00:00:00 | 00:00:00 | |
| OE3OSB-13 | 2026-09-03 01:17:04 | 47.89831 | 17.13241 | 52° | 27km/h | 32632m | 6.1m/s | -39.8°C | 0.0% | 7.9hPa | 0V | 00:00:00 | 00:00:00 | 00:00:00 | |
| OM5KV | 2026-09-03 01:17:01 | 47.89819 | 17.13228 | 24° | 29km/h | 32621m | 7.8m/s | 0°C | 0% | 0hPa | 0V | 00:00:00 | 00:00:00 | 00:00:00 | |
| OE5DXL-15 | 2026-09-03 01:17:00 | 47.89813 | 17.13225 | 360° | 16km/h | 32612m | 7.3m/s | 0°C | 0% | 0hPa | 0V | 00:00:00 | 00:00:00 | 00:00:00 | |
| OE5MMP-10 | 2026-09-03 01:16:58 | 47.89803 | 17.13228 | 342° | 15km/h | 32600m | 3.9m/s | 0°C | 0% | 0hPa | 0V | 00:00:00 | 00:00:00 | 00:00:00 | |
| OK1ALN | 2026-09-03 01:16:56 | 47.89797 | 17.13225 | 53° | 13km/h | 32587m | 7.0m/s | 0°C | 0% | 0hPa | 0V | 00:00:00 | 00:00:00 | 00:00:00 | |
| OM5KV | 2026-09-03 01:16:49 | 47.89779 | 17.13218 | 14° | 20km/h | 32546m | 6.8m/s | 0°C | 0% | 0hPa | 0V | 00:00:00 | 00:00:00 | 00:00:00 | |
| OE5MMP-10 | 2026-09-03 01:16:48 | 47.89775 | 17.13215 | 49° | 15km/h | 32540m | 8.1m/s | 0°C | 0% | 0hPa | 0V | 00:00:00 | 00:00:00 | 00:00:00 | |
| PETON7-10 | 2026-09-03 01:16:45 | 47.89768 | 17.13193 | 76° | 18km/h | 32519m | 6.6m/s | 0°C | 0% | 0hPa | 0V | 00:00:00 | 00:00:00 | 00:00:00 | |
| ATIDSZ-14 | 2026-09-03 01:16:43 | 47.89767 | 17.13192 | 279° | 5km/h | 32506m | 4.9m/s | 0°C | 0% | 0hPa | 0V | 00:00:00 | 00:00:00 | 00:00:00 | |
| OE3JTB-15 | 2026-09-03 01:16:39 | 47.89757 | 17.13183 | 46° | 24km/h | 32482m | 6.6m/s | 0°C | 0% | 0hPa | 0V | 00:00:00 | 00:00:00 | 00:00:00 | |
| OE5MMP-10 | 2026-09-03 01:16:38 | 47.89751 | 17.13175 | 37° | 22km/h | 32476m | 5.2m/s | 0°C | 0% | 0hPa | 0V | 00:00:00 | 00:00:00 | 00:00:00 | |
| OM5KV | 2026-09-03 01:16:37 | 47.89743 | 17.13168 | 31° | 29km/h | 32471m | 4.7m/s | 0°C | 0% | 0hPa | 0V | 00:00:00 | 00:00:00 | 00:00:00 | |
| OK1ALN | 2026-09-03 01:16:35 | 47.89732 | 17.13162 | 360° | 15km/h | 32458m | 7.1m/s | 0°C | 0% | 0hPa | 0V | 00:00:00 | 00:00:00 | 00:00:00 | |
| OM5KV | 2026-09-03 01:16:32 | 47.89729 | 17.13157 | 96° | 16km/h | 32438m | 7.5m/s | 0°C | 0% | 0hPa | 0V | 00:00:00 | 00:00:00 | 00:00:00 | |
| OE5DXL-15 | 2026-09-03 01:16:30 | 47.89727 | 17.13138 | 79° | 24km/h | 32426m | 4.8m/s | 0°C | 0% | 0hPa | 0V | 00:00:00 | 00:00:00 | 00:00:00 | |
| OE5MMP-10 | 2026-09-03 01:16:28 | 47.89722 | 17.13122 | 38° | 22km/h | 32415m | 6.8m/s | 0°C | 0% | 0hPa | 0V | 00:00:00 | 00:00:00 | 00:00:00 | |
| OM5KV | 2026-09-03 01:16:26 | 47.89713 | 17.13118 | 7° | 18km/h | 32401m | 5.1m/s | 0°C | 0% | 0hPa | 0V | 00:00:00 | 00:00:00 | 00:00:00 | |
| ATIDSZ-14 | 2026-09-03 01:16:22 | 47.89698 | 17.13090 | 71° | 37km/h | 32376m | 5.9m/s | 0°C | 0% | 0hPa | 0V | 00:00:00 | 00:00:00 | 00:00:00 | |
| OM5KV | 2026-09-03 01:16:21 | 47.89695 | 17.13078 | 66° | 33km/h | 32371m | 3.8m/s | 0°C | 0% | 0hPa | 0V | 00:00:00 | 00:00:00 | 00:00:00 | |
| OE5MMP-10 | 2026-09-03 01:16:18 | 47.89681 | 17.13062 | 353° | 24km/h | 32350m | 7.4m/s | 0°C | 0% | 0hPa | 0V | 00:00:00 | 00:00:00 | 00:00:00 | |
| PETON7-10 | 2026-09-03 01:16:14 | 47.89658 | 17.13051 | 57° | 20km/h | 32324m | 7.4m/s | 0°C | 0% | 0hPa | 0V | 00:00:00 | 00:00:00 | 00:00:00 | |
| OE3JTB-15 | 2026-09-03 01:16:10 | 47.89647 | 17.13018 | 40° | 18km/h | 32297m | 7.3m/s | 0°C | 0% | 0hPa | 0V | 00:00:00 | 00:00:00 | 00:00:00 | |
| OM5KV | 2026-09-03 01:16:09 | 47.89646 | 17.13017 | 355° | 7km/h | 32290m | 5.4m/s | 0°C | 0% | 0hPa | 0V | 00:00:00 | 00:00:00 | 00:00:00 | |
| OE5MMP-10 | 2026-09-03 01:16:08 | 47.89643 | 17.13017 | 360° | 16km/h | 32285m | 4.7m/s | 0°C | 0% | 0hPa | 0V | 00:00:00 | 00:00:00 | 00:00:00 | |
| OM5KV | 2026-09-03 01:16:03 | 47.89619 | 17.12992 | 35° | 22km/h | 32251m | 6.6m/s | 0°C | 0% | 0hPa | 0V | 00:00:00 | 00:00:00 | 00:00:00 | |
| ATIDSZ-14 | 2026-09-03 01:16:02 | 47.89614 | 17.12988 | 12° | 15km/h | 32244m | 6.5m/s | 0°C | 0% | 0hPa | 0V | 00:00:00 | 00:00:00 | 00:00:00 | |
| OE5DXL-15 | 2026-09-03 01:16:00 | 47.89608 | 17.12987 | 23° | 20km/h | 32233m | 4.8m/s | 0°C | 0% | 0hPa | 0V | 00:00:00 | 00:00:00 | 00:00:00 | |
| PETON7-10 | 2026-09-03 01:15:59 | 47.89606 | 17.12984 | 47° | 20km/h | 32227m | 7.2m/s | 0°C | 0% | 0hPa | 0V | 00:00:00 | 00:00:00 | 00:00:00 | |
| OE5MMP-10 | 2026-09-03 01:15:58 | 47.89603 | 17.12978 | 59° | 22km/h | 32219m | 8.1m/s | 0°C | 0% | 0hPa | 0V | 00:00:00 | 00:00:00 | 00:00:00 | |
| OM5KV | 2026-09-03 01:15:57 | 47.89600 | 17.12971 | 61° | 24km/h | 32212m | 6.0m/s | 0°C | 0% | 0hPa | 0V | 00:00:00 | 00:00:00 | 00:00:00 | |
| OK1ALN | 2026-09-03 01:15:54 | 47.89593 | 17.12959 | 330° | 7km/h | 32194m | 8.0m/s | 0°C | 0% | 0hPa | 0V | 00:00:00 | 00:00:00 | 00:00:00 | |
| OE5MMP-10 | 2026-09-03 01:15:48 | 47.89565 | 17.12949 | 58° | 22km/h | 32155m | 5.5m/s | 0°C | 0% | 0hPa | 0V | 00:00:00 | 00:00:00 | 00:00:00 | |
| PETON7-10 | 2026-09-03 01:15:43 | 47.89561 | 17.12930 | 316° | 20km/h | 32123m | 6.5m/s | 0°C | 0% | 0hPa | 0V | 00:00:00 | 00:00:00 | 00:00:00 | |
| ATIDSZ-14 | 2026-09-03 01:15:42 | 47.89559 | 17.12931 | 8° | 13km/h | 32116m | 7.2m/s | 0°C | 0% | 0hPa | 0V | 00:00:00 | 00:00:00 | 00:00:00 | |
| OE3JTB-15 | 2026-09-03 01:15:41 | 47.89554 | 17.12928 | 25° | 20km/h | 32109m | 6.7m/s | 0°C | 0% | 0hPa | 0V | 00:00:00 | 00:00:00 | 00:00:00 | |
| OE5MMP-10 | 2026-09-03 01:15:36 | 47.89536 | 17.12897 | 78° | 20km/h | 32078m | 5.6m/s | 0°C | 0% | 0hPa | 0V | 00:00:00 | 00:00:00 | 00:00:00 | |
| OK1ALN | 2026-09-03 01:15:34 | 47.89532 | 17.12883 | 58° | 26km/h | 32065m | 7.6m/s | 0°C | 0% | 0hPa | 0V | 00:00:00 | 00:00:00 | 00:00:00 | |
| OE3OSB-13 | 2026-09-03 01:15:31 | 47.89510 | 17.12862 | 5° | 16km/h | 32039m | 7.4m/s | -41.0°C | 0.0% | 8.8hPa | 0V | 00:00:00 | 00:00:00 | 00:00:00 | |
| OE5DXL-15 | 2026-09-03 01:15:30 | 47.89510 | 17.12862 | 6° | 18km/h | 32040m | 7.4m/s | 0°C | 0% | 0hPa | 0V | 00:00:00 | 00:00:00 | 00:00:00 | |
| PETON7-10 | 2026-09-03 01:15:28 | 47.89504 | 17.12862 | 4° | 22km/h | 32027m | 5.2m/s | 0°C | 0% | 0hPa | 0V | 00:00:00 | 00:00:00 | 00:00:00 | |
| OE5MMP-10 | 2026-09-03 01:15:26 | 47.89497 | 17.12856 | 45° | 18km/h | 32015m | 8.7m/s | 0°C | 0% | 0hPa | 0V | 00:00:00 | 00:00:00 | 00:00:00 | |
| ATIDSZ-14 | 2026-09-03 01:15:20 | 47.89485 | 17.12818 | 210° | 11km/h | 31976m | 6.1m/s | 0°C | 0% | 0hPa | 0V | 00:00:00 | 00:00:00 | 00:00:00 | |
| OE5MMP-10 | 2026-09-03 01:15:16 | 47.89476 | 17.12815 | 31° | 16km/h | 31948m | 6.4m/s | 0°C | 0% | 0hPa | 0V | 00:00:00 | 00:00:00 | 00:00:00 | |
| PETON7-10 | 2026-09-03 01:15:13 | 47.89464 | 17.12798 | 95° | 18km/h | 31928m | 7.5m/s | 0°C | 0% | 0hPa | 0V | 00:00:00 | 00:00:00 | 00:00:00 | |
| OE3JTB-15 | 2026-09-03 01:15:12 | 47.89465 | 17.12793 | 130° | 24km/h | 31920m | 6.5m/s | 0°C | 0% | 0hPa | 0V | 00:00:00 | 00:00:00 | 00:00:00 | |
| S52SK | 2026-09-03 01:15:10 | 47.89470 | 17.12783 | 111° | 16km/h | 31907m | 6.5m/s | 0°C | 0% | 0hPa | 0V | 00:00:00 | 00:00:00 | 00:00:00 | |
| OE5MMP-10 | 2026-09-03 01:15:06 | 47.89464 | 17.12779 | 325° | 24km/h | 31881m | 7.2m/s | 0°C | 0% | 0hPa | 0V | 00:00:00 | 00:00:00 | 00:00:00 | |
| S52SK | 2026-09-03 01:15:04 | 47.89455 | 17.12784 | 359° | 22km/h | 31871m | 3.0m/s | 0°C | 0% | 0hPa | 0V | 00:00:00 | 00:00:00 | 00:00:00 | |
| OE3OSB-13 | 2026-09-03 01:15:00 | 47.89438 | 17.12752 | 200° | 13km/h | 31837m | 9.9m/s | -40.8°C | 0.0% | 9.0hPa | 0V | 00:00:00 | 00:00:00 | 00:00:00 | |
| S52SK | 2026-09-03 01:14:59 | 47.89436 | 17.12752 | 127° | 11km/h | 31845m | 5.2m/s | 0°C | 0% | 0hPa | 0V | 00:00:00 | 00:00:00 | 00:00:00 | |
| PETON7-10 | 2026-09-03 01:14:57 | 47.89442 | 17.12757 | 240° | 29km/h | 31828m | 8.3m/s | 0°C | 0% | 0hPa | 0V | 00:00:00 | 00:00:00 | 00:00:00 | |
| OE5MMP-10 | 2026-09-03 01:14:56 | 47.89444 | 17.12769 | 268° | 31km/h | 31821m | 4.0m/s | 0°C | 0% | 0hPa | 0V | 00:00:00 | 00:00:00 | 00:00:00 | |
| OK1ALN | 2026-09-03 01:14:53 | 47.89430 | 17.12790 | 14° | 33km/h | 31805m | 9.7m/s | 0°C | 0% | 0hPa | 0V | 00:00:00 | 00:00:00 | 00:00:00 | |
| OE5MMP-10 | 2026-09-03 01:14:46 | 47.89422 | 17.12767 | 271° | 20km/h | 31762m | 6.1m/s | 0°C | 0% | 0hPa | 0V | 00:00:00 | 00:00:00 | 00:00:00 | |
| OE3JTB-15 | 2026-09-03 01:14:43 | 47.89409 | 17.12791 | 359° | 15km/h | 31744m | 6.1m/s | 0°C | 0% | 0hPa | 0V | 00:00:00 | 00:00:00 | 00:00:00 | |
| PETON7-10 | 2026-09-03 01:14:41 | 47.89399 | 17.12782 | 54° | 13km/h | 31732m | 6.3m/s | 0°C | 0% | 0hPa | 0V | 00:00:00 | 00:00:00 | 00:00:00 | |
| ATIDSZ-14 | 2026-09-03 01:14:40 | 47.89397 | 17.12776 | 84° | 16km/h | 31726m | 7.2m/s | 0°C | 0% | 0hPa | 0V | 00:00:00 | 00:00:00 | 00:00:00 | |
| OE5MMP-10 | 2026-09-03 01:14:36 | 47.89403 | 17.12774 | 264° | 15km/h | 31700m | 6.3m/s | 0°C | 0% | 0hPa | 0V | 00:00:00 | 00:00:00 | 00:00:00 | |
| OK1ALN | 2026-09-03 01:14:31 | 47.89384 | 17.12790 | 307° | 16km/h | 31671m | 6.2m/s | 0°C | 0% | 0hPa | 0V | 00:00:00 | 00:00:00 | 00:00:00 | |
| OE5DXL-15 | 2026-09-03 01:14:30 | 47.89382 | 17.12795 | 268° | 13km/h | 31664m | 6.5m/s | 0°C | 0% | 0hPa | 0V | 00:00:00 | 00:00:00 | 00:00:00 | |
| OE3OSB-13 | 2026-09-03 01:14:29 | 47.89384 | 17.12800 | 150° | 2km/h | 31654m | 4.5m/s | -40.4°C | 0.0% | 9.3hPa | 0V | 00:00:00 | 00:00:00 | 00:00:00 | |
| OE5MMP-10 | 2026-09-03 01:14:25 | 47.89377 | 17.12788 | 42° | 16km/h | 31634m | 5.5m/s | 0°C | 0% | 0hPa | 0V | 00:00:00 | 00:00:00 | 00:00:00 | |
| PETON7-10 | 2026-09-03 01:14:24 | 47.89373 | 17.12784 | 37° | 13km/h | 31628m | 5.8m/s | 0°C | 0% | 0hPa | 0V | 00:00:00 | 00:00:00 | 00:00:00 | |
| ATIDSZ-14 | 2026-09-03 01:14:20 | 47.89369 | 17.12792 | 278° | 13km/h | 31603m | 5.9m/s | 0°C | 0% | 0hPa | 0V | 00:00:00 | 00:00:00 | 00:00:00 | |
| OE5MMP-10 | 2026-09-03 01:14:15 | 47.89356 | 17.12783 | 65° | 9km/h | 31571m | 8.0m/s | 0°C | 0% | 0hPa | 0V | 00:00:00 | 00:00:00 | 00:00:00 | |
| OE3JTB-15 | 2026-09-03 01:14:14 | 47.89356 | 17.12780 | 89° | 13km/h | 31564m | 5.8m/s | 0°C | 0% | 0hPa | 0V | 00:00:00 | 00:00:00 | 00:00:00 | |
| OK1ALN | 2026-09-03 01:14:10 | 47.89351 | 17.12766 | 40° | 15km/h | 31539m | 4.7m/s | 0°C | 0% | 0hPa | 0V | 00:00:00 | 00:00:00 | 00:00:00 | |
| PETON7-10 | 2026-09-03 01:14:09 | 47.89349 | 17.12764 | 30° | 15km/h | 31534m | 5.3m/s | 0°C | 0% | 0hPa | 0V | 00:00:00 | 00:00:00 | 00:00:00 | |
| OE5MMP-10 | 2026-09-03 01:14:05 | 47.89349 | 17.12761 | 79° | 15km/h | 31511m | 5.8m/s | 0°C | 0% | 0hPa | 0V | 00:00:00 | 00:00:00 | 00:00:00 | |
| S52SK | 2026-09-03 01:14:01 | 47.89339 | 17.12731 | 61° | 16km/h | 31488m | 3.7m/s | 0°C | 0% | 0hPa | 0V | 00:00:00 | 00:00:00 | 00:00:00 | |
| OE5DXL-15 | 2026-09-03 01:14:00 | 47.89338 | 17.12727 | 91° | 18km/h | 31483m | 7.6m/s | 0°C | 0% | 0hPa | 0V | 00:00:00 | 00:00:00 | 00:00:00 | |
| OE3OSB-13 | 2026-09-03 01:13:57 | 47.89345 | 17.12741 | 253° | 4km/h | 31460m | 5.4m/s | -40.7°C | 0.0% | 9.6hPa | 0V | 00:00:00 | 00:00:00 | 00:00:00 | |
| S52SK | 2026-09-03 01:13:56 | 47.89345 | 17.12741 | 254° | 4km/h | 31460m | 5.4m/s | 0°C | 0% | 0hPa | 0V | 00:00:00 | 00:00:00 | 00:00:00 | |
| OE5MMP-10 | 2026-09-03 01:13:55 | 47.89344 | 17.12740 | 59° | 15km/h | 31454m | 7.1m/s | 0°C | 0% | 0hPa | 0V | 00:00:00 | 00:00:00 | 00:00:00 | |
| PETON7-10 | 2026-09-03 01:13:53 | 47.89339 | 17.12722 | 74° | 18km/h | 31440m | 5.9m/s | 0°C | 0% | 0hPa | 0V | 00:00:00 | 00:00:00 | 00:00:00 | |
| S52SK | 2026-09-03 01:13:51 | 47.89338 | 17.12701 | 99° | 20km/h | 31429m | 5.1m/s | 0°C | 0% | 0hPa | 0V | 00:00:00 | 00:00:00 | 00:00:00 | |
| PG1ADW-2 | 2026-09-03 01:13:49 | 47.89339 | 17.12693 | 193° | 18km/h | 31419m | 4.7m/s | 0°C | 0% | 0hPa | 0V | 00:00:00 | 00:00:00 | 00:00:00 | |
| OE5MMP-10 | 2026-09-03 01:13:45 | 47.89333 | 17.12689 | 85° | 20km/h | 31395m | 5.6m/s | 0°C | 0% | 0hPa | 0V | 00:00:00 | 00:00:00 | 00:00:00 | |
| PETON7-10 | 2026-09-03 01:13:38 | 47.89325 | 17.12647 | 344° | 16km/h | 31354m | 3.7m/s | 0°C | 0% | 0hPa | 0V | 00:00:00 | 00:00:00 | 00:00:00 | |
| ATIDSZ-14 | 2026-09-03 01:13:37 | 47.89320 | 17.12650 | 321° | 18km/h | 31350m | 5.3m/s | 0°C | 0% | 0hPa | 0V | 00:00:00 | 00:00:00 | 00:00:00 | |
| OE5MMP-10 | 2026-09-03 01:13:35 | 47.89320 | 17.12656 | 175° | 16km/h | 31338m | 4.7m/s | 0°C | 0% | 0hPa | 0V | 00:00:00 | 00:00:00 | 00:00:00 | |
| OE5DXL-15 | 2026-09-03 01:13:30 | 47.89320 | 17.12617 | 46° | 18km/h | 31310m | 4.3m/s | 0°C | 0% | 0hPa | 0V | 00:00:00 | 00:00:00 | 00:00:00 | |
| OK1ALN | 2026-09-03 01:13:28 | 47.89314 | 17.12610 | 351° | 4km/h | 31298m | 6.5m/s | 0°C | 0% | 0hPa | 0V | 00:00:00 | 00:00:00 | 00:00:00 | |
| OE3OSB-13 | 2026-09-03 01:13:26 | 47.89312 | 17.12610 | 53° | 7km/h | 31280m | 7.4m/s | -41.5°C | 0.0% | 9.8hPa | 0V | 00:00:00 | 00:00:00 | 00:00:00 | |
| OE5MMP-10 | 2026-09-03 01:13:25 | 47.89312 | 17.12610 | 54° | 22km/h | 31281m | 7.3m/s | 0°C | 0% | 0hPa | 0V | 00:00:00 | 00:00:00 | 00:00:00 | |
| PETON7-10 | 2026-09-03 01:13:22 | 47.89310 | 17.12590 | 96° | 26km/h | 31263m | 6.5m/s | 0°C | 0% | 0hPa | 0V | 00:00:00 | 00:00:00 | 00:00:00 | |
| OE3JTB-15 | 2026-09-03 01:13:16 | 47.89299 | 17.12540 | 37° | 22km/h | 31229m | 3.2m/s | 0°C | 0% | 0hPa | 0V | 00:00:00 | 00:00:00 | 00:00:00 | |
| OE5MMP-10 | 2026-09-03 01:13:15 | 47.89297 | 17.12536 | 58° | 26km/h | 31225m | 5.1m/s | 0°C | 0% | 0hPa | 0V | 00:00:00 | 00:00:00 | 00:00:00 | |
| PETON7-10 | 2026-09-03 01:13:07 | 47.89293 | 17.12477 | 52° | 18km/h | 31179m | 5.1m/s | 0°C | 0% | 0hPa | 0V | 00:00:00 | 00:00:00 | 00:00:00 | |
| OE5MMP-10 | 2026-09-03 01:13:05 | 47.89287 | 17.12465 | 59° | 20km/h | 31166m | 6.3m/s | 0°C | 0% | 0hPa | 0V | 00:00:00 | 00:00:00 | 00:00:00 | |
| OE5DXL-15 | 2026-09-03 01:13:00 | 47.89287 | 17.12453 | 121° | 26km/h | 31137m | 6.4m/s | 0°C | 0% | 0hPa | 0V | 00:00:00 | 00:00:00 | 00:00:00 | |
| OE3OSB-13 | 2026-09-03 01:12:55 | 47.89268 | 17.12399 | 11° | 35km/h | 31102m | 3.2m/s | -42.4°C | 0.0% | 10.2hPa | 0V | 00:00:00 | 00:00:00 | 00:00:00 | |
| OE5MMP-10 | 2026-09-03 01:12:54 | 47.89268 | 17.12399 | 12° | 31km/h | 31102m | 3.2m/s | 0°C | 0% | 0hPa | 0V | 00:00:00 | 00:00:00 | 00:00:00 | |
| PETON7-10 | 2026-09-03 01:12:52 | 47.89257 | 17.12399 | 331° | 24km/h | 31096m | 7.1m/s | 0°C | 0% | 0hPa | 0V | 00:00:00 | 00:00:00 | 00:00:00 | |
| S52SK | 2026-09-03 01:12:49 | 47.89268 | 17.12392 | 134° | 33km/h | 31076m | 2.3m/s | 0°C | 0% | 0hPa | 0V | 00:00:00 | 00:00:00 | 00:00:00 | |
| OK1ALN | 2026-09-03 01:12:47 | 47.89271 | 17.12369 | 75° | 33km/h | 31068m | 7.5m/s | 0°C | 0% | 0hPa | 0V | 00:00:00 | 00:00:00 | 00:00:00 | |
| OE5MMP-10 | 2026-09-03 01:12:44 | 47.89246 | 17.12345 | 5° | 22km/h | 31048m | 4.6m/s | 0°C | 0% | 0hPa | 0V | 00:00:00 | 00:00:00 | 00:00:00 | |
| S52SK | 2026-09-03 01:12:43 | 47.89237 | 17.12346 | 349° | 29km/h | 31043m | 4.2m/s | 0°C | 0% | 0hPa | 0V | 00:00:00 | 00:00:00 | 00:00:00 | |
| PETON7-10 | 2026-09-03 01:12:37 | 47.89239 | 17.12326 | 76° | 16km/h | 31007m | 5.2m/s | 0°C | 0% | 0hPa | 0V | 00:00:00 | 00:00:00 | 00:00:00 | |
| OE5MMP-10 | 2026-09-03 01:12:34 | 47.89227 | 17.12308 | 5° | 16km/h | 30990m | 5.1m/s | 0°C | 0% | 0hPa | 0V | 00:00:00 | 00:00:00 | 00:00:00 | |
| OE5DXL-15 | 2026-09-03 01:12:30 | 47.89207 | 17.12304 | 28° | 15km/h | 30969m | 4.5m/s | 0°C | 0% | 0hPa | 0V | 00:00:00 | 00:00:00 | 00:00:00 | |
| OK1ALN | 2026-09-03 01:12:25 | 47.89210 | 17.12298 | 118° | 16km/h | 30941m | 4.9m/s | 0°C | 0% | 0hPa | 0V | 00:00:00 | 00:00:00 | 00:00:00 | |
| OE5MMP-10 | 2026-09-03 01:12:24 | 47.89211 | 17.12290 | 95° | 16km/h | 30934m | 7.6m/s | 0°C | 0% | 0hPa | 0V | 00:00:00 | 00:00:00 | 00:00:00 | |
| PETON7-10 | 2026-09-03 01:12:22 | 47.89207 | 17.12272 | 53° | 15km/h | 30924m | 3.4m/s | 0°C | 0% | 0hPa | 0V | 00:00:00 | 00:00:00 | 00:00:00 | |
| OE3JTB-15 | 2026-09-03 01:12:18 | 47.89196 | 17.12275 | 262° | 15km/h | 30899m | 4.5m/s | 0°C | 0% | 0hPa | 0V | 00:00:00 | 00:00:00 | 00:00:00 | |
| OE5MMP-10 | 2026-09-03 01:12:14 | 47.89203 | 17.12270 | 98° | 11km/h | 30875m | 5.7m/s | 0°C | 0% | 0hPa | 0V | 00:00:00 | 00:00:00 | 00:00:00 | |
| ATIDSZ-14 | 2026-09-03 01:12:13 | 47.89203 | 17.12260 | 88° | 27km/h | 30869m | 5.8m/s | 0°C | 0% | 0hPa | 0V | 00:00:00 | 00:00:00 | 00:00:00 | |
| PETON7-10 | 2026-09-03 01:12:05 | 47.89199 | 17.12250 | 190° | 16km/h | 30821m | 4.8m/s | 0°C | 0% | 0hPa | 0V | 00:00:00 | 00:00:00 | 00:00:00 | |
| OE5MMP-10 | 2026-09-03 01:12:04 | 47.89201 | 17.12251 | 199° | 18km/h | 30816m | 6.5m/s | 0°C | 0% | 0hPa | 0V | 00:00:00 | 00:00:00 | 00:00:00 | |
| OE5DXL-15 | 2026-09-03 01:12:00 | 47.89216 | 17.12243 | 137° | 16km/h | 30792m | 6.6m/s | 0°C | 0% | 0hPa | 0V | 00:00:00 | 00:00:00 | 00:00:00 | |
| OE3OSB-13 | 2026-09-03 01:11:53 | 47.89220 | 17.12241 | 133° | 18km/h | 30743m | 7.3m/s | -42.0°C | 0.0% | 10.8hPa | 0V | 00:00:00 | 00:00:00 | 00:00:00 | |
| ATIDSZ-14 | 2026-09-03 01:11:52 | 47.89220 | 17.12241 | 134° | 18km/h | 30744m | 7.3m/s | 0°C | 0% | 0hPa | 0V | 00:00:00 | 00:00:00 | 00:00:00 | |
| PETON7-10 | 2026-09-03 01:11:50 | 47.89228 | 17.12224 | 120° | 15km/h | 30731m | 5.0m/s | 0°C | 0% | 0hPa | 0V | 00:00:00 | 00:00:00 | 00:00:00 | |
| OE3JTB-15 | 2026-09-03 01:11:49 | 47.89231 | 17.12215 | 116° | 20km/h | 30726m | 5.8m/s | 0°C | 0% | 0hPa | 0V | 00:00:00 | 00:00:00 | 00:00:00 | |
| S52SK | 2026-09-03 01:11:45 | 47.89226 | 17.12208 | 5° | 13km/h | 30700m | 6.8m/s | 0°C | 0% | 0hPa | 0V | 00:00:00 | 00:00:00 | 00:00:00 | |
| OE5MMP-10 | 2026-09-03 01:11:44 | 47.89223 | 17.12206 | 39° | 15km/h | 30693m | 6.1m/s | 0°C | 0% | 0hPa | 0V | 00:00:00 | 00:00:00 | 00:00:00 | |
| OK1ALN | 2026-09-03 01:11:43 | 47.89222 | 17.12204 | 83° | 7km/h | 30688m | 5.0m/s | 0°C | 0% | 0hPa | 0V | 00:00:00 | 00:00:00 | 00:00:00 | |
| 9A1FER-10 | 2026-09-03 01:11:41 | 47.89225 | 17.12200 | 168° | 18km/h | 30676m | 6.9m/s | 0°C | 0% | 0hPa | 0V | 00:00:00 | 00:00:00 | 00:00:00 | |
| S52SK | 2026-09-03 01:11:39 | 47.89231 | 17.12199 | 168° | 15km/h | 30664m | 4.6m/s | 0°C | 0% | 0hPa | 0V | 00:00:00 | 00:00:00 | 00:00:00 | |
| PETON7-10 | 2026-09-03 01:11:35 | 47.89237 | 17.12176 | 98° | 27km/h | 30639m | 3.4m/s | 0°C | 0% | 0hPa | 0V | 00:00:00 | 00:00:00 | 00:00:00 | |
| S52SK | 2026-09-03 01:11:34 | 47.89238 | 17.12171 | 129° | 11km/h | 30635m | 4.4m/s | 0°C | 0% | 0hPa | 0V | 00:00:00 | 00:00:00 | 00:00:00 | |
| OE5MMP-10 | 2026-09-03 01:11:33 | 47.89240 | 17.12170 | 194° | 24km/h | 30629m | 7.9m/s | 0°C | 0% | 0hPa | 0V | 00:00:00 | 00:00:00 | 00:00:00 | |
| ATIDSZ-14 | 2026-09-03 01:11:32 | 47.89244 | 17.12173 | 218° | 26km/h | 30620m | 8.5m/s | 0°C | 0% | 0hPa | 0V | 00:00:00 | 00:00:00 | 00:00:00 | |
| OE5DXL-15 | 2026-09-03 01:11:30 | 47.89258 | 17.12185 | 199° | 26km/h | 30609m | 3.8m/s | 0°C | 0% | 0hPa | 0V | 00:00:00 | 00:00:00 | 00:00:00 | |
| OE5MMP-10 | 2026-09-03 01:11:23 | 47.89285 | 17.12150 | 206° | 27km/h | 30566m | 7.1m/s | 0°C | 0% | 0hPa | 0V | 00:00:00 | 00:00:00 | 00:00:00 | |
| OE3JTB-15 | 2026-09-03 01:11:20 | 47.89308 | 17.12161 | 182° | 22km/h | 30548m | 6.4m/s | 0°C | 0% | 0hPa | 0V | 00:00:00 | 00:00:00 | 00:00:00 | |
| PETON7-10 | 2026-09-03 01:11:19 | 47.89317 | 17.12159 | 161° | 26km/h | 30542m | 6.0m/s | 0°C | 0% | 0hPa | 0V | 00:00:00 | 00:00:00 | 00:00:00 | |
| OE5MMP-10 | 2026-09-03 01:11:13 | 47.89344 | 17.12134 | 177° | 24km/h | 30505m | 4.6m/s | 0°C | 0% | 0hPa | 0V | 00:00:00 | 00:00:00 | 00:00:00 | |
| ATIDSZ-14 | 2026-09-03 01:11:12 | 47.89349 | 17.12132 | 163° | 22km/h | 30499m | 6.2m/s | 0°C | 0% | 0hPa | 0V | 00:00:00 | 00:00:00 | 00:00:00 | |
| PETON7-10 | 2026-09-03 01:11:04 | 47.89390 | 17.12108 | 148° | 18km/h | 30447m | 6.1m/s | 0°C | 0% | 0hPa | 0V | 00:00:00 | 00:00:00 | 00:00:00 | |
| OE5MMP-10 | 2026-09-03 01:11:03 | 47.89391 | 17.12104 | 100° | 26km/h | 30439m | 8.7m/s | 0°C | 0% | 0hPa | 0V | 00:00:00 | 00:00:00 | 00:00:00 | |
| OK1ALN | 2026-09-03 01:11:02 | 47.89392 | 17.12096 | 94° | 26km/h | 30431m | 6.7m/s | 0°C | 0% | 0hPa | 0V | 00:00:00 | 00:00:00 | 00:00:00 | |
| OE5DXL-15 | 2026-09-03 01:11:00 | 47.89395 | 17.12076 | 118° | 22km/h | 30419m | 7.9m/s | 0°C | 0% | 0hPa | 0V | 00:00:00 | 00:00:00 | 00:00:00 | |
| HA6NAB-11 | 2026-09-03 01:10:54 | 47.89425 | 17.12047 | 130° | 13km/h | 30378m | 5.5m/s | 0°C | 0% | 0hPa | 0V | 00:00:00 | 00:00:00 | 00:00:00 | |
| OE5MMP-10 | 2026-09-03 01:10:53 | 47.89426 | 17.12043 | 124° | 16km/h | 30371m | 7.2m/s | 0°C | 0% | 0hPa | 0V | 00:00:00 | 00:00:00 | 00:00:00 | |
| ATIDSZ-14 | 2026-09-03 01:10:51 | 47.89427 | 17.12041 | 133° | 7km/h | 30358m | 4.4m/s | 0°C | 0% | 0hPa | 0V | 00:00:00 | 00:00:00 | 00:00:00 | |
| PETON7-10 | 2026-09-03 01:10:49 | 47.89432 | 17.12031 | 119° | 22km/h | 30348m | 8.2m/s | 0°C | 0% | 0hPa | 0V | 00:00:00 | 00:00:00 | 00:00:00 | |
| HA6NAB-11 | 2026-09-03 01:10:48 | 47.89436 | 17.12021 | 118° | 35km/h | 30340m | 6.8m/s | 0°C | 0% | 0hPa | 0V | 00:00:00 | 00:00:00 | 00:00:00 | |
| OE5MMP-10 | 2026-09-03 01:10:43 | 47.89453 | 17.11991 | 237° | 20km/h | 30309m | 4.6m/s | 0°C | 0% | 0hPa | 0V | 00:00:00 | 00:00:00 | 00:00:00 | |
| OK1ALN | 2026-09-03 01:10:41 | 47.89454 | 17.11989 | 97° | 13km/h | 30298m | 7.2m/s | 0°C | 0% | 0hPa | 0V | 00:00:00 | 00:00:00 | 00:00:00 | |
| HA6NAB-11 | 2026-09-03 01:10:37 | 47.89462 | 17.11942 | 113° | 33km/h | 30273m | 6.0m/s | 0°C | 0% | 0hPa | 0V | 00:00:00 | 00:00:00 | 00:00:00 | |
| S52SK | 2026-09-03 01:10:36 | 47.89464 | 17.11933 | 128° | 22km/h | 30266m | 7.2m/s | 0°C | 0% | 0hPa | 0V | 00:00:00 | 00:00:00 | 00:00:00 | |
| OE5MMP-10 | 2026-09-03 01:10:33 | 47.89477 | 17.11930 | 185° | 22km/h | 30247m | 5.5m/s | 0°C | 0% | 0hPa | 0V | 00:00:00 | 00:00:00 | 00:00:00 | |
| S52SK | 2026-09-03 01:10:31 | 47.89486 | 17.11923 | 135° | 29km/h | 30233m | 7.6m/s | 0°C | 0% | 0hPa | 0V | 00:00:00 | 00:00:00 | 00:00:00 | |
| OE5DXL-15 | 2026-09-03 01:10:30 | 47.89491 | 17.11914 | 123° | 20km/h | 30226m | 6.4m/s | 0°C | 0% | 0hPa | 0V | 00:00:00 | 00:00:00 | 00:00:00 | |
| ATIDSZ-14 | 2026-09-03 01:10:28 | 47.89499 | 17.11892 | 110° | 26km/h | 30215m | 6.3m/s | 0°C | 0% | 0hPa | 0V | 00:00:00 | 00:00:00 | 00:00:00 | |
| S52SK | 2026-09-03 01:10:25 | 47.89503 | 17.11880 | 192° | 7km/h | 30195m | 5.5m/s | 0°C | 0% | 0hPa | 0V | 00:00:00 | 00:00:00 | 00:00:00 | |
| OE5MMP-10 | 2026-09-03 01:10:23 | 47.89509 | 17.11877 | 150° | 22km/h | 30182m | 6.5m/s | 0°C | 0% | 0hPa | 0V | 00:00:00 | 00:00:00 | 00:00:00 | |
| OE3JTB-15 | 2026-09-03 01:10:22 | 47.89515 | 17.11870 | 138° | 22km/h | 30175m | 6.8m/s | 0°C | 0% | 0hPa | 0V | 00:00:00 | 00:00:00 | 00:00:00 | |
| OE3OSB-13 | 2026-09-03 01:10:20 | 47.89529 | 17.11842 | 118° | 24km/h | 30158m | 7.0m/s | -43.9°C | 0.0% | 11.9hPa | 0V | 00:00:00 | 00:00:00 | 00:00:00 | |
| PETON7-10 | 2026-09-03 01:10:16 | 47.89532 | 17.11828 | 93° | 20km/h | 30139m | 5.6m/s | 0°C | 0% | 0hPa | 0V | 00:00:00 | 00:00:00 | 00:00:00 | |
| OE5MMP-10 | 2026-09-03 01:10:13 | 47.89534 | 17.11804 | 100° | 24km/h | 30121m | 4.2m/s | 0°C | 0% | 0hPa | 0V | 00:00:00 | 00:00:00 | 00:00:00 | |
| ATIDSZ-14 | 2026-09-03 01:10:07 | 47.89543 | 17.11765 | 124° | 27km/h | 30083m | 7.6m/s | 0°C | 0% | 0hPa | 0V | 00:00:00 | 00:00:00 | 00:00:00 | |
| OE5MMP-10 | 2026-09-03 01:10:03 | 47.89551 | 17.11726 | 73° | 26km/h | 30060m | 7.7m/s | 0°C | 0% | 0hPa | 0V | 00:00:00 | 00:00:00 | 00:00:00 | |
| PETON7-10 | 2026-09-03 01:10:01 | 47.89547 | 17.11721 | 15° | 18km/h | 30048m | 4.1m/s | 0°C | 0% | 0hPa | 0V | 00:00:00 | 00:00:00 | 00:00:00 | |
| OE5DXL-15 | 2026-09-03 01:10:00 | 47.89545 | 17.11719 | 80° | 18km/h | 30044m | 4.7m/s | 0°C | 0% | 0hPa | 0V | 00:00:00 | 00:00:00 | 00:00:00 | |
| OE3OSB-13 | 2026-09-03 01:09:50 | 47.89550 | 17.11637 | 111° | 20km/h | 29969m | 5.2m/s | -43.7°C | 0.0% | 12.2hPa | 0V | 00:00:00 | 00:00:00 | 00:00:00 | |
| ATIDSZ-14 | 2026-09-03 01:09:47 | 47.89551 | 17.11629 | 100° | 18km/h | 29963m | 7.4m/s | 0°C | 0% | 0hPa | 0V | 00:00:00 | 00:00:00 | 00:00:00 | |
| PETON7-10 | 2026-09-03 01:09:46 | 47.89551 | 17.11623 | 75° | 18km/h | 29955m | 7.0m/s | 0°C | 0% | 0hPa | 0V | 00:00:00 | 00:00:00 | 00:00:00 | |
| OE5MMP-10 | 2026-09-03 01:09:42 | 47.89544 | 17.11595 | 79° | 18km/h | 29931m | 5.1m/s | 0°C | 0% | 0hPa | 0V | 00:00:00 | 00:00:00 | 00:00:00 | |
| OK1ALN | 2026-09-03 01:09:39 | 47.89538 | 17.11585 | 353° | 13km/h | 29914m | 8.5m/s | 0°C | 0% | 0hPa | 0V | 00:00:00 | 00:00:00 | 00:00:00 | |
| OE5MMP-10 | 2026-09-03 01:09:32 | 47.89525 | 17.11555 | 62° | 13km/h | 29872m | 7.2m/s | 0°C | 0% | 0hPa | 0V | 00:00:00 | 00:00:00 | 00:00:00 | |
| OE5DXL-15 | 2026-09-03 01:09:30 | 47.89518 | 17.11550 | 344° | 13km/h | 29859m | 4.7m/s | 0°C | 0% | 0hPa | 0V | 00:00:00 | 00:00:00 | 00:00:00 | |
| PETON7-10 | 2026-09-03 01:09:29 | 47.89515 | 17.11552 | 325° | 11km/h | 29854m | 5.3m/s | 0°C | 0% | 0hPa | 0V | 00:00:00 | 00:00:00 | 00:00:00 | |
| ATIDSZ-14 | 2026-09-03 01:09:27 | 47.89514 | 17.11556 | 186° | 7km/h | 29840m | 6.4m/s | 0°C | 0% | 0hPa | 0V | 00:00:00 | 00:00:00 | 00:00:00 | |
| OK1SLM-15 | 2026-09-03 01:09:26 | 47.89517 | 17.11555 | 163° | 9km/h | 29834m | 5.4m/s | 0°C | 0% | 0hPa | 0V | 00:00:00 | 00:00:00 | 00:00:00 | |
| OE3JTB-15 | 2026-09-03 01:09:24 | 47.89519 | 17.11552 | 78° | 15km/h | 29822m | 7.1m/s | 0°C | 0% | 0hPa | 0V | 00:00:00 | 00:00:00 | 00:00:00 | |
| S52SK | 2026-09-03 01:09:23 | 47.89518 | 17.11549 | 57° | 11km/h | 29815m | 6.0m/s | 0°C | 0% | 0hPa | 0V | 00:00:00 | 00:00:00 | 00:00:00 | |
| OE5MMP-10 | 2026-09-03 01:09:22 | 47.89517 | 17.11545 | 62° | 11km/h | 29809m | 6.3m/s | 0°C | 0% | 0hPa | 0V | 00:00:00 | 00:00:00 | 00:00:00 | |
| OK1SLM-15 | 2026-09-03 01:09:20 | 47.89514 | 17.11535 | 81° | 9km/h | 29797m | 4.2m/s | 0°C | 0% | 0hPa | 0V | 00:00:00 | 00:00:00 | 00:00:00 | |
| OE3OSB-13 | 2026-09-03 01:09:18 | 47.89511 | 17.11539 | 299° | 16km/h | 29779m | 8.0m/s | -44.3°C | 0.0% | 12.5hPa | 0V | 00:00:00 | 00:00:00 | 00:00:00 | |
| S52SK | 2026-09-03 01:09:17 | 47.89511 | 17.11539 | 301° | 18km/h | 29779m | 8.0m/s | 0°C | 0% | 0hPa | 0V | 00:00:00 | 00:00:00 | 00:00:00 | |
| PETON7-10 | 2026-09-03 01:09:14 | 47.89508 | 17.11550 | 147° | 15km/h | 29764m | 6.4m/s | 0°C | 0% | 0hPa | 0V | 00:00:00 | 00:00:00 | 00:00:00 | |
| OE5MMP-10 | 2026-09-03 01:09:12 | 47.89512 | 17.11538 | 112° | 18km/h | 29749m | 5.6m/s | 0°C | 0% | 0hPa | 0V | 00:00:00 | 00:00:00 | 00:00:00 | |
| ATIDSZ-14 | 2026-09-03 01:09:07 | 47.89508 | 17.11517 | 307° | 20km/h | 29723m | 5.4m/s | 0°C | 0% | 0hPa | 0V | 00:00:00 | 00:00:00 | 00:00:00 | |
| OE5MMP-10 | 2026-09-03 01:09:02 | 47.89512 | 17.11524 | 125° | 15km/h | 29693m | 7.9m/s | 0°C | 0% | 0hPa | 0V | 00:00:00 | 00:00:00 | 00:00:00 | |
| OK1SLM-15 | 2026-09-03 01:09:01 | 47.89513 | 17.11520 | 94° | 13km/h | 29685m | 6.3m/s | 0°C | 0% | 0hPa | 0V | 00:00:00 | 00:00:00 | 00:00:00 | |
| OE5DXL-15 | 2026-09-03 01:09:00 | 47.89513 | 17.11514 | 81° | 16km/h | 29680m | 5.2m/s | 0°C | 0% | 0hPa | 0V | 00:00:00 | 00:00:00 | 00:00:00 | |
| OE3OSB-13 | 2026-09-03 01:08:47 | 47.89527 | 17.11475 | 329° | 9km/h | 29600m | 6.9m/s | -44.3°C | 0.0% | 12.9hPa | 0V | 00:00:00 | 00:00:00 | 00:00:00 | |
| ATIDSZ-14 | 2026-09-03 01:08:46 | 47.89527 | 17.11475 | 331° | 9km/h | 29600m | 6.9m/s | 0°C | 0% | 0hPa | 0V | 00:00:00 | 00:00:00 | 00:00:00 | |
| PETON7-10 | 2026-09-03 01:08:44 | 47.89526 | 17.11488 | 254° | 16km/h | 29588m | 5.9m/s | 0°C | 0% | 0hPa | 0V | 00:00:00 | 00:00:00 | 00:00:00 | |
| OE5MMP-10 | 2026-09-03 01:08:42 | 47.89534 | 17.11501 | 199° | 16km/h | 29577m | 4.8m/s | 0°C | 0% | 0hPa | 0V | 00:00:00 | 00:00:00 | 00:00:00 | |
| OK1ALN | 2026-09-03 01:08:37 | 47.89545 | 17.11485 | 68° | 13km/h | 29549m | 4.2m/s | 0°C | 0% | 0hPa | 0V | 00:00:00 | 00:00:00 | 00:00:00 | |
| OE5MMP-10 | 2026-09-03 01:08:32 | 47.89553 | 17.11483 | 237° | 7km/h | 29521m | 6.3m/s | 0°C | 0% | 0hPa | 0V | 00:00:00 | 00:00:00 | 00:00:00 | |
| OE5DXL-15 | 2026-09-03 01:08:30 | 47.89552 | 17.11487 | 345° | 13km/h | 29507m | 5.5m/s | 0°C | 0% | 0hPa | 0V | 00:00:00 | 00:00:00 | 00:00:00 | |
| PETON7-10 | 2026-09-03 01:08:29 | 47.89551 | 17.11487 | 43° | 13km/h | 29502m | 4.5m/s | 0°C | 0% | 0hPa | 0V | 00:00:00 | 00:00:00 | 00:00:00 | |
| OE3JTB-15 | 2026-09-03 01:08:26 | 47.89555 | 17.11479 | 144° | 13km/h | 29484m | 4.7m/s | 0°C | 0% | 0hPa | 0V | 00:00:00 | 00:00:00 | 00:00:00 | |
| ATIDSZ-14 | 2026-09-03 01:08:25 | 47.89558 | 17.11476 | 141° | 11km/h | 29478m | 6.4m/s | 0°C | 0% | 0hPa | 0V | 00:00:00 | 00:00:00 | 00:00:00 | |
| OE5MMP-10 | 2026-09-03 01:08:22 | 47.89560 | 17.11477 | 243° | 15km/h | 29462m | 3.8m/s | 0°C | 0% | 0hPa | 0V | 00:00:00 | 00:00:00 | 00:00:00 | |
| OE3OSB-13 | 2026-09-03 01:08:17 | 47.89575 | 17.11481 | 56° | 18km/h | 29420m | 5.0m/s | -44.5°C | 0.0% | 13.2hPa | 0V | 00:00:00 | 00:00:00 | 00:00:00 | |
| PETON7-10 | 2026-09-03 01:08:14 | 47.89573 | 17.11474 | 74° | 15km/h | 29416m | 3.9m/s | 0°C | 0% | 0hPa | 0V | 00:00:00 | 00:00:00 | 00:00:00 | |
| OE5MMP-10 | 2026-09-03 01:08:12 | 47.89576 | 17.11464 | 154° | 13km/h | 29405m | 6.6m/s | 0°C | 0% | 0hPa | 0V | 00:00:00 | 00:00:00 | 00:00:00 | |
| ATIDSZ-14 | 2026-09-03 01:08:05 | 47.89598 | 17.11473 | 137° | 15km/h | 29364m | 6.7m/s | 0°C | 0% | 0hPa | 0V | 00:00:00 | 00:00:00 | 00:00:00 | |
| OE5MMP-10 | 2026-09-03 01:08:01 | 47.89611 | 17.11460 | 182° | 15km/h | 29343m | 6.6m/s | 0°C | 0% | 0hPa | 0V | 00:00:00 | 00:00:00 | 00:00:00 | |
| OE5DXL-15 | 2026-09-03 01:08:00 | 47.89612 | 17.11460 | 198° | 16km/h | 29337m | 5.8m/s | 0°C | 0% | 0hPa | 0V | 00:00:00 | 00:00:00 | 00:00:00 | |
| OE3OSB-13 | 2026-09-03 01:07:46 | 47.89669 | 17.11413 | 203° | 9km/h | 29244m | 5.4m/s | -44.8°C | 0.0% | 13.7hPa | 0V | 00:00:00 | 00:00:00 | 00:00:00 | |
| PETON7-10 | 2026-09-03 01:07:44 | 47.89669 | 17.11413 | 204° | 16km/h | 29244m | 5.3m/s | 0°C | 0% | 0hPa | 0V | 00:00:00 | 00:00:00 | 00:00:00 | |
| OE5MMP-10 | 2026-09-03 01:07:41 | 47.89678 | 17.11408 | 136° | 18km/h | 29225m | 6.3m/s | 0°C | 0% | 0hPa | 0V | 00:00:00 | 00:00:00 | 00:00:00 | |
| OK1ALN | 2026-09-03 01:07:36 | 47.89695 | 17.11388 | 142° | 11km/h | 29196m | 5.4m/s | 0°C | 0% | 0hPa | 0V | 00:00:00 | 00:00:00 | 00:00:00 | |
| OE5MMP-10 | 2026-09-03 01:07:31 | 47.89708 | 17.11360 | 138° | 15km/h | 29168m | 6.9m/s | 0°C | 0% | 0hPa | 0V | 00:00:00 | 00:00:00 | 00:00:00 | |
| OE5DXL-15 | 2026-09-03 01:07:30 | 47.89710 | 17.11359 | 191° | 15km/h | 29161m | 7.3m/s | 0°C | 0% | 0hPa | 0V | 00:00:00 | 00:00:00 | 00:00:00 | |
| PETON7-10 | 2026-09-03 01:07:29 | 47.89712 | 17.11361 | 209° | 13km/h | 29155m | 5.0m/s | 0°C | 0% | 0hPa | 0V | 00:00:00 | 00:00:00 | 00:00:00 | |
| OE3JTB-15 | 2026-09-03 01:07:28 | 47.89715 | 17.11362 | 182° | 15km/h | 29150m | 4.5m/s | 0°C | 0% | 0hPa | 0V | 00:00:00 | 00:00:00 | 00:00:00 | |
| ATIDSZ-14 | 2026-09-03 01:07:25 | 47.89731 | 17.11349 | 131° | 29km/h | 29132m | 4.1m/s | 0°C | 0% | 0hPa | 0V | 00:00:00 | 00:00:00 | 00:00:00 | |
| OE5MMP-10 | 2026-09-03 01:07:18 | 47.89740 | 17.11331 | 159° | 11km/h | 29088m | 4.1m/s | 0°C | 0% | 0hPa | 0V | 00:00:00 | 00:00:00 | 00:00:00 | |
| OK1ALN | 2026-09-03 01:07:16 | 47.89745 | 17.11326 | 140° | 9km/h | 29076m | 7.2m/s | 0°C | 0% | 0hPa | 0V | 00:00:00 | 00:00:00 | 00:00:00 | |
| OE3OSB-13 | 2026-09-03 01:07:14 | 47.89750 | 17.11315 | 122° | 18km/h | 29057m | 7.1m/s | -45.2°C | 0.0% | 14.0hPa | 0V | 00:00:00 | 00:00:00 | 00:00:00 | |
| OE5MMP-10 | 2026-09-03 01:07:07 | 47.89760 | 17.11293 | 214° | 15km/h | 29021m | 3.1m/s | 0°C | 0% | 0hPa | 0V | 00:00:00 | 00:00:00 | 00:00:00 | |
| ATIDSZ-14 | 2026-09-03 01:07:05 | 47.89764 | 17.11289 | 138° | 20km/h | 29011m | 7.5m/s | 0°C | 0% | 0hPa | 0V | 00:00:00 | 00:00:00 | 00:00:00 | |
| OE5DXL-15 | 2026-09-03 01:07:00 | 47.89778 | 17.11255 | 40° | 18km/h | 28980m | 6.5m/s | 0°C | 0% | 0hPa | 0V | 00:00:00 | 00:00:00 | 00:00:00 | |
| PETON7-10 | 2026-09-03 01:06:59 | 47.89776 | 17.11253 | 15° | 16km/h | 28975m | 4.8m/s | 0°C | 0% | 0hPa | 0V | 00:00:00 | 00:00:00 | 00:00:00 | |
| OE5MMP-10 | 2026-09-03 01:06:57 | 47.89772 | 17.11248 | 82° | 18km/h | 28963m | 6.5m/s | 0°C | 0% | 0hPa | 0V | 00:00:00 | 00:00:00 | 00:00:00 | |
| OK1ALN | 2026-09-03 01:06:55 | 47.89774 | 17.11235 | 108° | 22km/h | 28951m | 5.1m/s | 0°C | 0% | 0hPa | 0V | 00:00:00 | 00:00:00 | 00:00:00 | |
| OE5MMP-10 | 2026-09-03 01:06:47 | 47.89781 | 17.11185 | 52° | 16km/h | 28902m | 7.8m/s | 0°C | 0% | 0hPa | 0V | 00:00:00 | 00:00:00 | 00:00:00 | |
| ATIDSZ-14 | 2026-09-03 01:06:44 | 47.89771 | 17.11168 | 76° | 16km/h | 28885m | 5.7m/s | 0°C | 0% | 0hPa | 0V | 00:00:00 | 00:00:00 | 00:00:00 | |
| OE3OSB-13 | 2026-09-03 01:06:42 | 47.89780 | 17.11150 | 150° | 24km/h | 28866m | 4.5m/s | -45.6°C | 0.0% | 14.5hPa | 0V | 00:00:00 | 00:00:00 | 00:00:00 | |
| OE5MMP-10 | 2026-09-03 01:06:35 | 47.89773 | 17.11122 | 62° | 15km/h | 28828m | 5.1m/s | 0°C | 0% | 0hPa | 0V | 00:00:00 | 00:00:00 | 00:00:00 | |
| OK1ALN | 2026-09-03 01:06:34 | 47.89770 | 17.11113 | 62° | 26km/h | 28823m | 4.4m/s | 0°C | 0% | 0hPa | 0V | 00:00:00 | 00:00:00 | 00:00:00 | |
| OE5DXL-15 | 2026-09-03 01:06:30 | 47.89763 | 17.11097 | 105° | 15km/h | 28796m | 7.1m/s | 0°C | 0% | 0hPa | 0V | 00:00:00 | 00:00:00 | 00:00:00 | |
| PETON7-10 | 2026-09-03 01:06:29 | 47.89764 | 17.11093 | 117° | 15km/h | 28790m | 6.2m/s | 0°C | 0% | 0hPa | 0V | 00:00:00 | 00:00:00 | 00:00:00 | |
| OE5MMP-10 | 2026-09-03 01:06:25 | 47.89759 | 17.11080 | 14° | 15km/h | 28766m | 6.4m/s | 0°C | 0% | 0hPa | 0V | 00:00:00 | 00:00:00 | 00:00:00 | |
| ATIDSZ-14 | 2026-09-03 01:06:23 | 47.89751 | 17.11072 | 53° | 20km/h | 28754m | 6.6m/s | 0°C | 0% | 0hPa | 0V | 00:00:00 | 00:00:00 | 00:00:00 | |
| OE5MMP-10 | 2026-09-03 01:06:15 | 47.89742 | 17.11043 | 51° | 15km/h | 28704m | 6.6m/s | 0°C | 0% | 0hPa | 0V | 00:00:00 | 00:00:00 | 00:00:00 | |
| PETON7-10 | 2026-09-03 01:06:13 | 47.89738 | 17.11033 | 64° | 18km/h | 28693m | 5.2m/s | 0°C | 0% | 0hPa | 0V | 00:00:00 | 00:00:00 | 00:00:00 | |
| OE3OSB-13 | 2026-09-03 01:06:12 | 47.89732 | 17.11020 | 50° | 9km/h | 28675m | 5.1m/s | -45.6°C | 0.0% | 14.9hPa | 0V | 00:00:00 | 00:00:00 | 00:00:00 | |
| S52SK | 2026-09-03 01:06:10 | 47.89732 | 17.11020 | 51° | 9km/h | 28675m | 5.1m/s | 0°C | 0% | 0hPa | 0V | 00:00:00 | 00:00:00 | 00:00:00 | |
| S52SK | 2026-09-03 01:06:05 | 47.89724 | 17.10996 | 31° | 16km/h | 28646m | 7.0m/s | 0°C | 0% | 0hPa | 0V | 00:00:00 | 00:00:00 | 00:00:00 | |
| ATIDSZ-14 | 2026-09-03 01:06:03 | 47.89713 | 17.10993 | 7° | 26km/h | 28632m | 4.9m/s | 0°C | 0% | 0hPa | 0V | 00:00:00 | 00:00:00 | 00:00:00 | |
| OE5DXL-15 | 2026-09-03 01:06:00 | 47.89701 | 17.10982 | 82° | 15km/h | 28615m | 7.1m/s | 0°C | 0% | 0hPa | 0V | 00:00:00 | 00:00:00 | 00:00:00 | |
| PETON7-10 | 2026-09-03 01:05:58 | 47.89701 | 17.10968 | 87° | 16km/h | 28603m | 7.7m/s | 0°C | 0% | 0hPa | 0V | 00:00:00 | 00:00:00 | 00:00:00 | |
| OE5MMP-10 | 2026-09-03 01:05:54 | 47.89695 | 17.10958 | 55° | 20km/h | 28582m | 7.1m/s | 0°C | 0% | 0hPa | 0V | 00:00:00 | 00:00:00 | 00:00:00 | |
| OK1ALN | 2026-09-03 01:05:53 | 47.89693 | 17.10952 | 65° | 22km/h | 28575m | 6.8m/s | 0°C | 0% | 0hPa | 0V | 00:00:00 | 00:00:00 | 00:00:00 | |
| OE5MMP-10 | 2026-09-03 01:05:44 | 47.89664 | 17.10906 | 59° | 15km/h | 28517m | 4.9m/s | 0°C | 0% | 0hPa | 0V | 00:00:00 | 00:00:00 | 00:00:00 | |
| PETON7-10 | 2026-09-03 01:05:42 | 47.89658 | 17.10901 | 6° | 11km/h | 28503m | 6.1m/s | 0°C | 0% | 0hPa | 0V | 00:00:00 | 00:00:00 | 00:00:00 | |
| OE3OSB-13 | 2026-09-03 01:05:40 | 47.89645 | 17.10893 | 35° | 20km/h | 28483m | 4.1m/s | -46.0°C | 0.0% | 15.4hPa | 0V | 00:00:00 | 00:00:00 | 00:00:00 | |
| OE3JTB-15 | 2026-09-03 01:05:32 | 47.89627 | 17.10876 | 32° | 11km/h | 28432m | 6.2m/s | 0°C | 0% | 0hPa | 0V | 00:00:00 | 00:00:00 | 00:00:00 | |
| OE5DXL-15 | 2026-09-03 01:05:30 | 47.89627 | 17.10876 | 32° | 11km/h | 28432m | 6.2m/s | 0°C | 0% | 0hPa | 0V | 00:00:00 | 00:00:00 | 00:00:00 | |
| PETON7-10 | 2026-09-03 01:05:25 | 47.89617 | 17.10884 | 6° | 13km/h | 28399m | 5.1m/s | 0°C | 0% | 0hPa | 0V | 00:00:00 | 00:00:00 | 00:00:00 | |
| OE5MMP-10 | 2026-09-03 01:05:24 | 47.89616 | 17.10885 | 279° | 11km/h | 28395m | 4.9m/s | 0°C | 0% | 0hPa | 0V | 00:00:00 | 00:00:00 | 00:00:00 | |
| OE5MMP-10 | 2026-09-03 01:05:14 | 47.89594 | 17.10892 | 251° | 13km/h | 28338m | 5.0m/s | 0°C | 0% | 0hPa | 0V | 00:00:00 | 00:00:00 | 00:00:00 | |
| OK1ALN | 2026-09-03 01:05:11 | 47.89603 | 17.10898 | 141° | 13km/h | 28320m | 5.2m/s | 0°C | 0% | 0hPa | 0V | 00:00:00 | 00:00:00 | 00:00:00 | |
| PETON7-10 | 2026-09-03 01:05:09 | 47.89604 | 17.10892 | 46° | 11km/h | 28308m | 7.3m/s | 0°C | 0% | 0hPa | 0V | 00:00:00 | 00:00:00 | 00:00:00 | |
| OE5MMP-10 | 2026-09-03 01:05:04 | 47.89591 | 17.10891 | 343° | 13km/h | 28281m | 4.4m/s | 0°C | 0% | 0hPa | 0V | 00:00:00 | 00:00:00 | 00:00:00 | |
| OE3JTB-15 | 2026-09-03 01:05:03 | 47.89594 | 17.10911 | 245° | 13km/h | 28258m | 4.4m/s | 0°C | 0% | 0hPa | 0V | 00:00:00 | 00:00:00 | 00:00:00 | |
| OE5DXL-15 | 2026-09-03 01:05:00 | 47.89594 | 17.10911 | 245° | 13km/h | 28258m | 4.4m/s | 0°C | 0% | 0hPa | 0V | 00:00:00 | 00:00:00 | 00:00:00 | |
| OE5MMP-10 | 2026-09-03 01:04:54 | 47.89590 | 17.10909 | 317° | 15km/h | 28223m | 6.5m/s | 0°C | 0% | 0hPa | 0V | 00:00:00 | 00:00:00 | 00:00:00 | |
| PETON7-10 | 2026-09-03 01:04:50 | 47.89585 | 17.10933 | 207° | 9km/h | 28202m | 8.1m/s | 0°C | 0% | 0hPa | 0V | 00:00:00 | 00:00:00 | 00:00:00 | |
| OE5MMP-10 | 2026-09-03 01:04:44 | 47.89590 | 17.10938 | 274° | 13km/h | 28167m | 5.4m/s | 0°C | 0% | 0hPa | 0V | 00:00:00 | 00:00:00 | 00:00:00 | |
| S52SK | 2026-09-03 01:04:42 | 47.89589 | 17.10952 | 280° | 11km/h | 28157m | 6.6m/s | 0°C | 0% | 0hPa | 0V | 00:00:00 | 00:00:00 | 00:00:00 | |
| ATIDSZ-14 | 2026-09-03 01:04:40 | 47.89589 | 17.10951 | 91° | 9km/h | 28144m | 5.1m/s | 0°C | 0% | 0hPa | 0V | 00:00:00 | 00:00:00 | 00:00:00 | |
| OE3OSB-13 | 2026-09-03 01:04:38 | 47.89589 | 17.10950 | 275° | 11km/h | 28126m | 6.2m/s | -46.5°C | 0.1% | 16.3hPa | 0V | 00:00:00 | 00:00:00 | 00:00:00 | |
| OE5MMP-10 | 2026-09-03 01:04:34 | 47.89586 | 17.10963 | 303° | 7km/h | 28109m | 6.7m/s | 0°C | 0% | 0hPa | 0V | 00:00:00 | 00:00:00 | 00:00:00 | |
| OE3JTB-15 | 2026-09-03 01:04:33 | 47.89584 | 17.10975 | 269° | 13km/h | 28092m | 7.5m/s | 0°C | 0% | 0hPa | 0V | 00:00:00 | 00:00:00 | 00:00:00 | |
| OE5DXL-15 | 2026-09-03 01:04:30 | 47.89585 | 17.10980 | 256° | 15km/h | 28085m | 5.0m/s | 0°C | 0% | 0hPa | 0V | 00:00:00 | 00:00:00 | 00:00:00 | |
| OK1ALN | 2026-09-03 01:04:29 | 47.89586 | 17.10984 | 244° | 9km/h | 28080m | 4.7m/s | 0°C | 0% | 0hPa | 0V | 00:00:00 | 00:00:00 | 00:00:00 | |
| OE5MMP-10 | 2026-09-03 01:04:24 | 47.89589 | 17.10992 | 264° | 13km/h | 28053m | 7.6m/s | 0°C | 0% | 0hPa | 0V | 00:00:00 | 00:00:00 | 00:00:00 | |
| ATIDSZ-14 | 2026-09-03 01:04:20 | 47.89589 | 17.11022 | 293° | 5km/h | 28031m | 6.7m/s | 0°C | 0% | 0hPa | 0V | 00:00:00 | 00:00:00 | 00:00:00 | |
| PETON7-10 | 2026-09-03 01:04:19 | 47.89589 | 17.11022 | 111° | 15km/h | 28025m | 5.3m/s | 0°C | 0% | 0hPa | 0V | 00:00:00 | 00:00:00 | 00:00:00 | |
| OE5MMP-10 | 2026-09-03 01:04:14 | 47.89593 | 17.11036 | 279° | 15km/h | 27997m | 5.3m/s | 0°C | 0% | 0hPa | 0V | 00:00:00 | 00:00:00 | 00:00:00 | |
| OK1ALN | 2026-09-03 01:04:09 | 47.89590 | 17.11061 | 224° | 16km/h | 27970m | 7.1m/s | 0°C | 0% | 0hPa | 0V | 00:00:00 | 00:00:00 | 00:00:00 | |
| OE3OSB-13 | 2026-09-03 01:04:07 | 47.89601 | 17.11070 | 194° | 9km/h | 27954m | 5.1m/s | -46.3°C | 0.7% | 16.6hPa | 0V | 00:00:00 | 00:00:00 | 00:00:00 | |
| OE3JTB-15 | 2026-09-03 01:04:04 | 47.89597 | 17.11072 | 300° | 18km/h | 27931m | 5.9m/s | 0°C | 0% | 0hPa | 0V | 00:00:00 | 00:00:00 | 00:00:00 | |
| PETON7-10 | 2026-09-03 01:04:00 | 47.89599 | 17.11087 | 236° | 20km/h | 27920m | 4.3m/s | 0°C | 0% | 0hPa | 0V | 00:00:00 | 00:00:00 | 00:00:00 | |
| ATIDSZ-14 | 2026-09-03 01:03:58 | 47.89610 | 17.11099 | 200° | 24km/h | 27911m | 5.8m/s | 0°C | 0% | 0hPa | 0V | 00:00:00 | 00:00:00 | 00:00:00 | |
| OE5MMP-10 | 2026-09-03 01:03:55 | 47.89618 | 17.11096 | 305° | 11km/h | 27886m | 7.6m/s | 0°C | 0% | 0hPa | 0V | 00:00:00 | 00:00:00 | 00:00:00 | |
| OK1ALN | 2026-09-03 01:03:48 | 47.89627 | 17.11123 | 202° | 27km/h | 27851m | 6.9m/s | 0°C | 0% | 0hPa | 0V | 00:00:00 | 00:00:00 | 00:00:00 | |
| PETON7-10 | 2026-09-03 01:03:45 | 47.89642 | 17.11132 | 179° | 15km/h | 27836m | 6.2m/s | 0°C | 0% | 0hPa | 0V | 00:00:00 | 00:00:00 | 00:00:00 | |
| OE5MMP-10 | 2026-09-03 01:03:44 | 47.89643 | 17.11130 | 88° | 22km/h | 27828m | 8.4m/s | 0°C | 0% | 0hPa | 0V | 00:00:00 | 00:00:00 | 00:00:00 | |
| ATIDSZ-14 | 2026-09-03 01:03:37 | 47.89660 | 17.11143 | 184° | 35km/h | 27790m | 6.0m/s | 0°C | 0% | 0hPa | 0V | 00:00:00 | 00:00:00 | 00:00:00 | |
| OE3OSB-13 | 2026-09-03 01:03:36 | 47.89673 | 17.11137 | 136° | 20km/h | 27779m | 5.1m/s | -46.4°C | 1.4% | 17.1hPa | 0V | 00:00:00 | 00:00:00 | 00:00:00 | |
| OE5MMP-10 | 2026-09-03 01:03:34 | 47.89675 | 17.11132 | 108° | 16km/h | 27774m | 5.8m/s | 0°C | 0% | 0hPa | 0V | 00:00:00 | 00:00:00 | 00:00:00 | |
| PETON7-10 | 2026-09-03 01:03:29 | 47.89672 | 17.11132 | 146° | 13km/h | 27747m | 6.5m/s | 0°C | 0% | 0hPa | 0V | 00:00:00 | 00:00:00 | 00:00:00 | |
| OK1ALN | 2026-09-03 01:03:27 | 47.89680 | 17.11126 | 158° | 26km/h | 27735m | 4.8m/s | 0°C | 0% | 0hPa | 0V | 00:00:00 | 00:00:00 | 00:00:00 | |
| OE5MMP-10 | 2026-09-03 01:03:25 | 47.89700 | 17.11123 | 190° | 13km/h | 27717m | 3.9m/s | 0°C | 0% | 0hPa | 0V | 00:00:00 | 00:00:00 | 00:00:00 | |
| S52SK | 2026-09-03 01:03:21 | 47.89708 | 17.11119 | 83° | 11km/h | 27700m | 6.0m/s | 0°C | 0% | 0hPa | 0V | 00:00:00 | 00:00:00 | 00:00:00 | |
| ATIDSZ-14 | 2026-09-03 01:03:16 | 47.89710 | 17.11119 | 191° | 15km/h | 27672m | 6.6m/s | 0°C | 0% | 0hPa | 0V | 00:00:00 | 00:00:00 | 00:00:00 | |
| PETON7-10 | 2026-09-03 01:03:14 | 47.89720 | 17.11117 | 163° | 18km/h | 27659m | 4.7m/s | 0°C | 0% | 0hPa | 0V | 00:00:00 | 00:00:00 | 00:00:00 | |
| S52SK | 2026-09-03 01:03:11 | 47.89733 | 17.11116 | 241° | 7km/h | 27642m | 5.1m/s | 0°C | 0% | 0hPa | 0V | 00:00:00 | 00:00:00 | 00:00:00 | |
| OK1ALN | 2026-09-03 01:03:07 | 47.89719 | 17.11114 | 26° | 18km/h | 27618m | 3.7m/s | 0°C | 0% | 0hPa | 0V | 00:00:00 | 00:00:00 | 00:00:00 | |
| OE3OSB-13 | 2026-09-03 01:03:05 | 47.89718 | 17.11113 | 193° | 15km/h | 27601m | 5.3m/s | -47.0°C | 2.3% | 17.6hPa | 0V | 00:00:00 | 00:00:00 | 00:00:00 | |
| OE5MMP-10 | 2026-09-03 01:03:04 | 47.89718 | 17.11112 | 194° | 15km/h | 27601m | 5.3m/s | 0°C | 0% | 0hPa | 0V | 00:00:00 | 00:00:00 | 00:00:00 | |
| PETON7-10 | 2026-09-03 01:02:57 | 47.89719 | 17.11112 | 346° | 16km/h | 27562m | 3.0m/s | 0°C | 0% | 0hPa | 0V | 00:00:00 | 00:00:00 | 00:00:00 | |
| ATIDSZ-14 | 2026-09-03 01:02:55 | 47.89710 | 17.11111 | 52° | 15km/h | 27551m | 7.0m/s | 0°C | 0% | 0hPa | 0V | 00:00:00 | 00:00:00 | 00:00:00 | |
| OE5MMP-10 | 2026-09-03 01:02:54 | 47.89710 | 17.11106 | 102° | 15km/h | 27544m | 6.0m/s | 0°C | 0% | 0hPa | 0V | 00:00:00 | 00:00:00 | 00:00:00 | |
| OK1ALN | 2026-09-03 01:02:46 | 47.89712 | 17.11110 | 9° | 24km/h | 27499m | 5.3m/s | 0°C | 0% | 0hPa | 0V | 00:00:00 | 00:00:00 | 00:00:00 | |
| OE5MMP-10 | 2026-09-03 01:02:44 | 47.89700 | 17.11110 | 340° | 16km/h | 27488m | 5.6m/s | 0°C | 0% | 0hPa | 0V | 00:00:00 | 00:00:00 | 00:00:00 | |
| PETON7-10 | 2026-09-03 01:02:42 | 47.89697 | 17.11115 | 227° | 5km/h | 27477m | 6.0m/s | 0°C | 0% | 0hPa | 0V | 00:00:00 | 00:00:00 | 00:00:00 | |
| ATIDSZ-14 | 2026-09-03 01:02:35 | 47.89699 | 17.11130 | 330° | 33km/h | 27437m | 4.5m/s | 0°C | 0% | 0hPa | 0V | 00:00:00 | 00:00:00 | 00:00:00 | |
| OE3OSB-13 | 2026-09-03 01:02:34 | 47.89685 | 17.11137 | 0° | 22km/h | 27425m | 5.8m/s | -46.7°C | 3.6% | 18.1hPa | 0V | 00:00:00 | 00:00:00 | 00:00:00 | |
| OK1ALN | 2026-09-03 01:02:25 | 47.89675 | 17.11154 | 344° | 15km/h | 27381m | 5.2m/s | 0°C | 0% | 0hPa | 0V | 00:00:00 | 00:00:00 | 00:00:00 | |
| OE5MMP-10 | 2026-09-03 01:02:24 | 47.89672 | 17.11155 | 352° | 18km/h | 27377m | 4.1m/s | 0°C | 0% | 0hPa | 0V | 00:00:00 | 00:00:00 | 00:00:00 | |
| OE5MMP-10 | 2026-09-03 01:02:14 | 47.89635 | 17.11188 | 290° | 16km/h | 27317m | 4.6m/s | 0°C | 0% | 0hPa | 0V | 00:00:00 | 00:00:00 | 00:00:00 | |
| OE3JTB-15 | 2026-09-03 01:02:07 | 47.89608 | 17.11205 | 285° | 9km/h | 27272m | 3.8m/s | 0°C | 0% | 0hPa | 0V | 00:00:00 | 00:00:00 | 00:00:00 | |
| OE5MMP-10 | 2026-09-03 01:02:04 | 47.89607 | 17.11212 | 296° | 7km/h | 27260m | 7.5m/s | 0°C | 0% | 0hPa | 0V | 00:00:00 | 00:00:00 | 00:00:00 | |
| OE3OSB-13 | 2026-09-03 01:02:03 | 47.89605 | 17.11212 | 353° | 4km/h | 27249m | 5.1m/s | -46.8°C | 4.3% | 18.7hPa | 0V | 00:00:00 | 00:00:00 | 00:00:00 | |
| OE5MMP-10 | 2026-09-03 01:01:54 | 47.89594 | 17.11226 | 293° | 7km/h | 27201m | 7.5m/s | 0°C | 0% | 0hPa | 0V | 00:00:00 | 00:00:00 | 00:00:00 | |
| ATIDSZ-14 | 2026-09-03 01:01:52 | 47.89593 | 17.11234 | 291° | 11km/h | 27188m | 5.3m/s | 0°C | 0% | 0hPa | 0V | 00:00:00 | 00:00:00 | 00:00:00 | |
| OE5MMP-10 | 2026-09-03 01:01:44 | 47.89597 | 17.11267 | 188° | 9km/h | 27142m | 6.5m/s | 0°C | 0% | 0hPa | 0V | 00:00:00 | 00:00:00 | 00:00:00 | |
| OK1ALN | 2026-09-03 01:01:43 | 47.89599 | 17.11249 | 134° | 9km/h | 27135m | 6.7m/s | 0°C | 0% | 0hPa | 0V | 00:00:00 | 00:00:00 | 00:00:00 | |
| OE3JTB-15 | 2026-09-03 01:01:37 | 47.89600 | 17.11259 | 248° | 13km/h | 27100m | 6.0m/s | 0°C | 0% | 0hPa | 0V | 00:00:00 | 00:00:00 | 00:00:00 | |
| OE5MMP-10 | 2026-09-03 01:01:34 | 47.89607 | 17.11260 | 175° | 15km/h | 27082m | 5.4m/s | 0°C | 0% | 0hPa | 0V | 00:00:00 | 00:00:00 | 00:00:00 | |
| OE3OSB-13 | 2026-09-03 01:01:32 | 47.89618 | 17.11266 | 216° | 15km/h | 27064m | 4.8m/s | -47.6°C | 4.7% | 19.1hPa | 0V | 00:00:00 | 00:00:00 | 00:00:00 | |
| ATIDSZ-14 | 2026-09-03 01:01:31 | 47.89618 | 17.11267 | 218° | 16km/h | 27064m | 4.8m/s | 0°C | 0% | 0hPa | 0V | 00:00:00 | 00:00:00 | 00:00:00 | |
| OE5MMP-10 | 2026-09-03 01:01:24 | 47.89638 | 17.11270 | 193° | 15km/h | 27023m | 4.5m/s | 0°C | 0% | 0hPa | 0V | 00:00:00 | 00:00:00 | 00:00:00 | |
| OE5MMP-10 | 2026-09-03 01:01:13 | 47.89656 | 17.11280 | 134° | 11km/h | 26959m | 5.4m/s | 0°C | 0% | 0hPa | 0V | 00:00:00 | 00:00:00 | 00:00:00 | |
| ATIDSZ-14 | 2026-09-03 01:01:11 | 47.89662 | 17.11275 | 165° | 15km/h | 26947m | 7.0m/s | 0°C | 0% | 0hPa | 0V | 00:00:00 | 00:00:00 | 00:00:00 | |
| OE3JTB-15 | 2026-09-03 01:01:08 | 47.89667 | 17.11275 | 33° | 5km/h | 26930m | 6.8m/s | 0°C | 0% | 0hPa | 0V | 00:00:00 | 00:00:00 | 00:00:00 | |
| S52SK | 2026-09-03 01:01:06 | 47.89665 | 17.11272 | 23° | 9km/h | 26917m | 5.0m/s | 0°C | 0% | 0hPa | 0V | 00:00:00 | 00:00:00 | 00:00:00 | |
| OE5MMP-10 | 2026-09-03 01:01:03 | 47.89662 | 17.11276 | 242° | 7km/h | 26899m | 5.7m/s | 0°C | 0% | 0hPa | 0V | 00:00:00 | 00:00:00 | 00:00:00 | |
| OK1ALN | 2026-09-03 01:01:02 | 47.89664 | 17.11278 | 207° | 9km/h | 26894m | 4.5m/s | 0°C | 0% | 0hPa | 0V | 00:00:00 | 00:00:00 | 00:00:00 | |
| OE3OSB-13 | 2026-09-03 01:01:01 | 47.89668 | 17.11276 | 115° | 11km/h | 26881m | 5.9m/s | -47.6°C | 5.2% | 19.8hPa | 0V | 00:00:00 | 00:00:00 | 00:00:00 | |
| S52SK | 2026-09-03 01:01:00 | 47.89668 | 17.11276 | 117° | 11km/h | 26881m | 5.9m/s | 0°C | 0% | 0hPa | 0V | 00:00:00 | 00:00:00 | 00:00:00 | |
| PETON7-10 | 2026-09-03 01:00:55 | 47.89668 | 17.11270 | 337° | 5km/h | 26853m | 4.9m/s | 0°C | 0% | 0hPa | 0V | 00:00:00 | 00:00:00 | 00:00:00 | |
| OE5MMP-10 | 2026-09-03 01:00:53 | 47.89665 | 17.11268 | 57° | 5km/h | 26841m | 5.1m/s | 0°C | 0% | 0hPa | 0V | 00:00:00 | 00:00:00 | 00:00:00 | |
| ATIDSZ-14 | 2026-09-03 01:00:50 | 47.89666 | 17.11265 | 212° | 5km/h | 26823m | 5.7m/s | 0°C | 0% | 0hPa | 0V | 00:00:00 | 00:00:00 | 00:00:00 | |
| HA6NAB-11 | 2026-09-03 01:00:49 | 47.89667 | 17.11266 | 209° | 4km/h | 26818m | 4.4m/s | 0°C | 0% | 0hPa | 0V | 00:00:00 | 00:00:00 | 00:00:00 | |
| OE5MMP-10 | 2026-09-03 01:00:43 | 47.89661 | 17.11263 | 263° | 5km/h | 26784m | 4.4m/s | 0°C | 0% | 0hPa | 0V | 00:00:00 | 00:00:00 | 00:00:00 | |
| OK1ALN | 2026-09-03 01:00:42 | 47.89662 | 17.11263 | 168° | 4km/h | 26779m | 5.5m/s | 0°C | 0% | 0hPa | 0V | 00:00:00 | 00:00:00 | 00:00:00 | |
| OE3JTB-15 | 2026-09-03 01:00:39 | 47.89665 | 17.11260 | 264° | 11km/h | 26749m | 5.2m/s | 0°C | 0% | 0hPa | 0V | 00:00:00 | 00:00:00 | 00:00:00 | |
| HA6NAB-11 | 2026-09-03 01:00:37 | 47.89666 | 17.11260 | 265° | 7km/h | 26749m | 5.3m/s | 0°C | 0% | 0hPa | 0V | 00:00:00 | 00:00:00 | 00:00:00 | |
| PETON7-10 | 2026-09-03 01:00:36 | 47.89665 | 17.11262 | 282° | 11km/h | 26745m | 4.0m/s | 0°C | 0% | 0hPa | 0V | 00:00:00 | 00:00:00 | 00:00:00 | |
| OE5MMP-10 | 2026-09-03 01:00:33 | 47.89666 | 17.11261 | 135° | 11km/h | 26729m | 3.8m/s | 0°C | 0% | 0hPa | 0V | 00:00:00 | 00:00:00 | 00:00:00 | |
| HA6NAB-11 | 2026-09-03 01:00:31 | 47.89671 | 17.11262 | 212° | 16km/h | 26718m | 7.2m/s | 0°C | 0% | 0hPa | 0V | 00:00:00 | 00:00:00 | 00:00:00 | |
| OE3OSB-13 | 2026-09-03 01:00:30 | 47.89678 | 17.11271 | 220° | 18km/h | 26706m | 4.7m/s | -48.1°C | 5.0% | 20.3hPa | 0V | 00:00:00 | 00:00:00 | 00:00:00 | |
| ATIDSZ-14 | 2026-09-03 01:00:29 | 47.89678 | 17.11271 | 222° | 20km/h | 26706m | 4.7m/s | 0°C | 0% | 0hPa | 0V | 00:00:00 | 00:00:00 | 00:00:00 | |
| OE5MMP-10 | 2026-09-03 01:00:23 | 47.89688 | 17.11276 | 222° | 9km/h | 26673m | 5.6m/s | 0°C | 0% | 0hPa | 0V | 00:00:00 | 00:00:00 | 00:00:00 | |
| OK1ALN | 2026-09-03 01:00:21 | 47.89695 | 17.11281 | 187° | 16km/h | 26664m | 5.4m/s | 0°C | 0% | 0hPa | 0V | 00:00:00 | 00:00:00 | 00:00:00 | |
| PETON7-10 | 2026-09-03 01:00:19 | 47.89703 | 17.11277 | 141° | 13km/h | 26651m | 5.4m/s | 0°C | 0% | 0hPa | 0V | 00:00:00 | 00:00:00 | 00:00:00 | |
| OE5MMP-10 | 2026-09-03 01:00:11 | 47.89712 | 17.11275 | 196° | 11km/h | 26607m | 6.3m/s | 0°C | 0% | 0hPa | 0V | 00:00:00 | 00:00:00 | 00:00:00 | |
| OE3JTB-15 | 2026-09-03 01:00:10 | 47.89718 | 17.11275 | 174° | 18km/h | 26594m | 4.8m/s | 0°C | 0% | 0hPa | 0V | 00:00:00 | 00:00:00 | 00:00:00 | |
| ATIDSZ-14 | 2026-09-03 01:00:08 | 47.89722 | 17.11273 | 156° | 18km/h | 26589m | 4.8m/s | 0°C | 0% | 0hPa | 0V | 00:00:00 | 00:00:00 | 00:00:00 | |
| OE5MMP-10 | 2026-09-03 01:00:01 | 47.89730 | 17.11280 | 246° | 11km/h | 26552m | 3.4m/s | 0°C | 0% | 0hPa | 0V | 00:00:00 | 00:00:00 | 00:00:00 | |
| OE3OSB-13 | 2026-09-03 00:59:59 | 47.89733 | 17.11282 | 105° | 11km/h | 26535m | 5.2m/s | -49.2°C | 5.0% | 20.9hPa | 0V | 00:00:00 | 00:00:00 | 00:00:00 | |
| PETON7-10 | 2026-09-03 00:59:58 | 47.89733 | 17.11282 | 106° | 15km/h | 26535m | 5.1m/s | 0°C | 0% | 0hPa | 0V | 00:00:00 | 00:00:00 | 00:00:00 | |
| OE5MMP-10 | 2026-09-03 00:59:51 | 47.89749 | 17.11266 | 201° | 18km/h | 26497m | 4.7m/s | 0°C | 0% | 0hPa | 0V | 00:00:00 | 00:00:00 | 00:00:00 | |
| ATIDSZ-14 | 2026-09-03 00:59:48 | 47.89763 | 17.11273 | 183° | 18km/h | 26482m | 3.1m/s | 0°C | 0% | 0hPa | 0V | 00:00:00 | 00:00:00 | 00:00:00 | |
| PETON7-10 | 2026-09-03 00:59:43 | 47.89765 | 17.11247 | 81° | 20km/h | 26455m | 5.5m/s | 0°C | 0% | 0hPa | 0V | 00:00:00 | 00:00:00 | 00:00:00 | |
| OE5MMP-10 | 2026-09-03 00:59:41 | 47.89769 | 17.11244 | 195° | 22km/h | 26444m | 5.4m/s | 0°C | 0% | 0hPa | 0V | 00:00:00 | 00:00:00 | 00:00:00 | |
| OE3JTB-15 | 2026-09-03 00:59:37 | 47.89797 | 17.11236 | 144° | 22km/h | 26416m | 5.5m/s | 0°C | 0% | 0hPa | 0V | 00:00:00 | 00:00:00 | 00:00:00 | |
| OE5DXL-15 | 2026-09-03 00:59:35 | 47.89801 | 17.11231 | 141° | 20km/h | 26411m | 5.6m/s | 0°C | 0% | 0hPa | 0V | 00:00:00 | 00:00:00 | 00:00:00 | |
| OE5MMP-10 | 2026-09-03 00:59:30 | 47.89811 | 17.11194 | 110° | 24km/h | 26387m | 3.5m/s | 0°C | 0% | 0hPa | 0V | 00:00:00 | 00:00:00 | 00:00:00 | |
| OE3OSB-13 | 2026-09-03 00:59:28 | 47.89819 | 17.11192 | 207° | 20km/h | 26369m | 4.7m/s | -49.7°C | 6.3% | 21.4hPa | 0V | 00:00:00 | 00:00:00 | 00:00:00 | |
| ATIDSZ-14 | 2026-09-03 00:59:27 | 47.89819 | 17.11192 | 209° | 22km/h | 26369m | 4.7m/s | 0°C | 0% | 0hPa | 0V | 00:00:00 | 00:00:00 | 00:00:00 | |
| OK1ALN | 2026-09-03 00:59:21 | 47.89847 | 17.11153 | 92° | 27km/h | 26338m | 6.3m/s | 0°C | 0% | 0hPa | 0V | 00:00:00 | 00:00:00 | 00:00:00 | |
| OE5MMP-10 | 2026-09-03 00:59:20 | 47.89847 | 17.11146 | 81° | 20km/h | 26332m | 5.6m/s | 0°C | 0% | 0hPa | 0V | 00:00:00 | 00:00:00 | 00:00:00 | |
| PETON7-10 | 2026-09-03 00:59:12 | 47.89872 | 17.11099 | 124° | 16km/h | 26288m | 6.4m/s | 0°C | 0% | 0hPa | 0V | 00:00:00 | 00:00:00 | 00:00:00 | |
| OE5MMP-10 | 2026-09-03 00:59:10 | 47.89876 | 17.11086 | 105° | 18km/h | 26277m | 5.6m/s | 0°C | 0% | 0hPa | 0V | 00:00:00 | 00:00:00 | 00:00:00 | |
| OE3JTB-15 | 2026-09-03 00:59:08 | 47.89878 | 17.11060 | 95° | 16km/h | 26255m | 7.3m/s | 0°C | 0% | 0hPa | 0V | 00:00:00 | 00:00:00 | 00:00:00 | |
| ATIDSZ-14 | 2026-09-03 00:59:04 | 47.89880 | 17.11053 | 129° | 16km/h | 26243m | 4.3m/s | 0°C | 0% | 0hPa | 0V | 00:00:00 | 00:00:00 | 00:00:00 | |
| OK1ALN | 2026-09-03 00:59:01 | 47.89891 | 17.11030 | 123° | 27km/h | 26228m | 3.0m/s | 0°C | 0% | 0hPa | 0V | 00:00:00 | 00:00:00 | 00:00:00 | |
| OE5MMP-10 | 2026-09-03 00:59:00 | 47.89894 | 17.11023 | 124° | 16km/h | 26224m | 6.0m/s | 0°C | 0% | 0hPa | 0V | 00:00:00 | 00:00:00 | 00:00:00 | |
| OE3OSB-13 | 2026-09-03 00:58:57 | 47.89900 | 17.11013 | 114° | 11km/h | 26200m | 5.8m/s | -49.9°C | 6.8% | 22.0hPa | 0V | 00:00:00 | 00:00:00 | 00:00:00 | |
| S52SK | 2026-09-03 00:58:56 | 47.89899 | 17.11013 | 115° | 11km/h | 26201m | 5.8m/s | 0°C | 0% | 0hPa | 0V | 00:00:00 | 00:00:00 | 00:00:00 | |
| S52SK | 2026-09-03 00:58:51 | 47.89907 | 17.10977 | 95° | 11km/h | 26172m | 5.7m/s | 0°C | 0% | 0hPa | 0V | 00:00:00 | 00:00:00 | 00:00:00 | |
| OE5MMP-10 | 2026-09-03 00:58:50 | 47.89907 | 17.10974 | 70° | 13km/h | 26167m | 4.0m/s | 0°C | 0% | 0hPa | 0V | 00:00:00 | 00:00:00 | 00:00:00 | |
| ATIDSZ-14 | 2026-09-03 00:58:43 | 47.89908 | 17.10944 | 130° | 7km/h | 26128m | 4.5m/s | 0°C | 0% | 0hPa | 0V | 00:00:00 | 00:00:00 | 00:00:00 | |
| PETON7-10 | 2026-09-03 00:58:42 | 47.89909 | 17.10940 | 113° | 15km/h | 26123m | 5.6m/s | 0°C | 0% | 0hPa | 0V | 00:00:00 | 00:00:00 | 00:00:00 | |
| OE5MMP-10 | 2026-09-03 00:58:40 | 47.89911 | 17.10927 | 88° | 16km/h | 26110m | 5.0m/s | 0°C | 0% | 0hPa | 0V | 00:00:00 | 00:00:00 | 00:00:00 | |
| OE3JTB-15 | 2026-09-03 00:58:36 | 47.89906 | 17.10887 | 109° | 13km/h | 26070m | 4.5m/s | 0°C | 0% | 0hPa | 0V | 00:00:00 | 00:00:00 | 00:00:00 | |
| OE5MMP-10 | 2026-09-03 00:58:30 | 47.89910 | 17.10870 | 101° | 15km/h | 26052m | 5.0m/s | 0°C | 0% | 0hPa | 0V | 00:00:00 | 00:00:00 | 00:00:00 | |
| OE5DXL-15 | 2026-09-03 00:58:28 | 47.89909 | 17.10858 | 80° | 11km/h | 26042m | 7.1m/s | 0°C | 0% | 0hPa | 0V | 00:00:00 | 00:00:00 | 00:00:00 | |
| PETON7-10 | 2026-09-03 00:58:26 | 47.89907 | 17.10841 | 74° | 11km/h | 26030m | 4.3m/s | 0°C | 0% | 0hPa | 0V | 00:00:00 | 00:00:00 | 00:00:00 | |
| OE3OSB-13 | 2026-09-03 00:58:25 | 47.89904 | 17.10831 | 61° | 7km/h | 26018m | 6.1m/s | -50.1°C | 6.2% | 22.6hPa | 0V | 00:00:00 | 00:00:00 | 00:00:00 | |
| ATIDSZ-14 | 2026-09-03 00:58:22 | 47.89903 | 17.10826 | 95° | 9km/h | 26009m | 5.8m/s | 0°C | 0% | 0hPa | 0V | 00:00:00 | 00:00:00 | 00:00:00 | |
| OE5MMP-10 | 2026-09-03 00:58:19 | 47.89906 | 17.10807 | 111° | 9km/h | 25991m | 4.6m/s | 0°C | 0% | 0hPa | 0V | 00:00:00 | 00:00:00 | 00:00:00 | |
| PETON7-10 | 2026-09-03 00:58:11 | 47.89904 | 17.10797 | 205° | 7km/h | 25943m | 7.1m/s | 0°C | 0% | 0hPa | 0V | 00:00:00 | 00:00:00 | 00:00:00 | |
| OE3JTB-15 | 2026-09-03 00:58:06 | 47.89913 | 17.10789 | 274° | 9km/h | 25902m | 5.2m/s | 0°C | 0% | 0hPa | 0V | 00:00:00 | 00:00:00 | 00:00:00 | |
| ATIDSZ-14 | 2026-09-03 00:58:01 | 47.89915 | 17.10786 | 119° | 9km/h | 25884m | 5.3m/s | 0°C | 0% | 0hPa | 0V | 00:00:00 | 00:00:00 | 00:00:00 | |
| OE5DXL-15 | 2026-09-03 00:57:58 | 47.89922 | 17.10781 | 190° | 9km/h | 25867m | 5.9m/s | 0°C | 0% | 0hPa | 0V | 00:00:00 | 00:00:00 | 00:00:00 | |
| PETON7-10 | 2026-09-03 00:57:56 | 47.89927 | 17.10782 | 169° | 7km/h | 25856m | 6.5m/s | 0°C | 0% | 0hPa | 0V | 00:00:00 | 00:00:00 | 00:00:00 | |
| OE5MMP-10 | 2026-09-03 00:57:54 | 47.89930 | 17.10778 | 129° | 9km/h | 25845m | 4.9m/s | 0°C | 0% | 0hPa | 0V | 00:00:00 | 00:00:00 | 00:00:00 | |
| PG1ADW-2 | 2026-09-03 00:57:53 | 47.89931 | 17.10777 | 172° | 9km/h | 25839m | 5.8m/s | 0°C | 0% | 0hPa | 0V | 00:00:00 | 00:00:00 | 00:00:00 | |
| OE5MMP-10 | 2026-09-03 00:57:43 | 47.89941 | 17.10783 | 230° | 11km/h | 25783m | 4.7m/s | 0°C | 0% | 0hPa | 0V | 00:00:00 | 00:00:00 | 00:00:00 | |
| PETON7-10 | 2026-09-03 00:57:41 | 47.89941 | 17.10783 | 55° | 9km/h | 25770m | 5.9m/s | 0°C | 0% | 0hPa | 0V | 00:00:00 | 00:00:00 | 00:00:00 | |
| ATIDSZ-14 | 2026-09-03 00:57:40 | 47.89939 | 17.10779 | 69° | 13km/h | 25765m | 4.2m/s | 0°C | 0% | 0hPa | 0V | 00:00:00 | 00:00:00 | 00:00:00 | |
| OK1ALN | 2026-09-03 00:57:38 | 47.89940 | 17.10773 | 147° | 9km/h | 25753m | 6.8m/s | 0°C | 0% | 0hPa | 0V | 00:00:00 | 00:00:00 | 00:00:00 | |
| OE3JTB-15 | 2026-09-03 00:57:36 | 47.89949 | 17.10769 | 153° | 15km/h | 25735m | 6.7m/s | 0°C | 0% | 0hPa | 0V | 00:00:00 | 00:00:00 | 00:00:00 | |
| PG1ADW-2 | 2026-09-03 00:57:33 | 47.89953 | 17.10766 | 182° | 15km/h | 25725m | 5.3m/s | 0°C | 0% | 0hPa | 0V | 00:00:00 | 00:00:00 | 00:00:00 | |
| OE5MMP-10 | 2026-09-03 00:57:32 | 47.89955 | 17.10767 | 235° | 15km/h | 25718m | 7.6m/s | 0°C | 0% | 0hPa | 0V | 00:00:00 | 00:00:00 | 00:00:00 | |
| OE5DXL-15 | 2026-09-03 00:57:28 | 47.89955 | 17.10774 | 92° | 18km/h | 25695m | 5.2m/s | 0°C | 0% | 0hPa | 0V | 00:00:00 | 00:00:00 | 00:00:00 | |
| PETON7-10 | 2026-09-03 00:57:26 | 47.89959 | 17.10764 | 145° | 20km/h | 25685m | 6.2m/s | 0°C | 0% | 0hPa | 0V | 00:00:00 | 00:00:00 | 00:00:00 | |
| OE3OSB-13 | 2026-09-03 00:57:23 | 47.89975 | 17.10763 | 200° | 15km/h | 25667m | 6.3m/s | -50.6°C | 5.6% | 23.9hPa | 0V | 00:00:00 | 00:00:00 | 00:00:00 | |
| OE5MMP-10 | 2026-09-03 00:57:22 | 47.89977 | 17.10765 | 228° | 16km/h | 25661m | 6.9m/s | 0°C | 0% | 0hPa | 0V | 00:00:00 | 00:00:00 | 00:00:00 | |
| ATIDSZ-14 | 2026-09-03 00:57:20 | 47.89977 | 17.10771 | 293° | 11km/h | 25649m | 6.0m/s | 0°C | 0% | 0hPa | 0V | 00:00:00 | 00:00:00 | 00:00:00 | |
| OK1ALN | 2026-09-03 00:57:18 | 47.89977 | 17.10777 | 185° | 5km/h | 25638m | 4.5m/s | 0°C | 0% | 0hPa | 0V | 00:00:00 | 00:00:00 | 00:00:00 | |
| PETON7-10 | 2026-09-03 00:57:11 | 47.90008 | 17.10756 | 244° | 16km/h | 25596m | 6.0m/s | 0°C | 0% | 0hPa | 0V | 00:00:00 | 00:00:00 | 00:00:00 | |
| OE3JTB-15 | 2026-09-03 00:57:07 | 47.90018 | 17.10760 | 148° | 18km/h | 25562m | 6.0m/s | 0°C | 0% | 0hPa | 0V | 00:00:00 | 00:00:00 | 00:00:00 | |
| OE5MMP-10 | 2026-09-03 00:57:01 | 47.90038 | 17.10740 | 132° | 20km/h | 25540m | 5.9m/s | 0°C | 0% | 0hPa | 0V | 00:00:00 | 00:00:00 | 00:00:00 | |
| OE3OSB-13 | 2026-09-03 00:56:52 | 47.90064 | 17.10734 | 125° | 27km/h | 25485m | 7.1m/s | -50.3°C | 6.9% | 24.6hPa | 0V | 00:00:00 | 00:00:00 | 00:00:00 | |
| OE5MMP-10 | 2026-09-03 00:56:49 | 47.90073 | 17.10719 | 138° | 18km/h | 25473m | 5.6m/s | 0°C | 0% | 0hPa | 0V | 00:00:00 | 00:00:00 | 00:00:00 | |
| S52SK | 2026-09-03 00:56:43 | 47.90099 | 17.10710 | 147° | 16km/h | 25441m | 4.5m/s | 0°C | 0% | 0hPa | 0V | 00:00:00 | 00:00:00 | 00:00:00 | |
| PETON7-10 | 2026-09-03 00:56:40 | 47.90101 | 17.10692 | 80° | 16km/h | 25424m | 3.5m/s | 0°C | 0% | 0hPa | 0V | 00:00:00 | 00:00:00 | 00:00:00 | |
| OE5MMP-10 | 2026-09-03 00:56:39 | 47.90101 | 17.10686 | 103° | 20km/h | 25419m | 5.4m/s | 0°C | 0% | 0hPa | 0V | 00:00:00 | 00:00:00 | 00:00:00 | |
| ATIDSZ-14 | 2026-09-03 00:56:38 | 47.90103 | 17.10680 | 145° | 18km/h | 25413m | 7.3m/s | 0°C | 0% | 0hPa | 0V | 00:00:00 | 00:00:00 | 00:00:00 | |
| S52SK | 2026-09-03 00:56:37 | 47.90108 | 17.10677 | 169° | 26km/h | 25406m | 6.1m/s | 0°C | 0% | 0hPa | 0V | 00:00:00 | 00:00:00 | 00:00:00 | |
| OK1ALN | 2026-09-03 00:56:36 | 47.90114 | 17.10676 | 173° | 29km/h | 25401m | 3.5m/s | 0°C | 0% | 0hPa | 0V | 00:00:00 | 00:00:00 | 00:00:00 | |
| OE5MMP-10 | 2026-09-03 00:56:29 | 47.90130 | 17.10643 | 112° | 16km/h | 25363m | 4.7m/s | 0°C | 0% | 0hPa | 0V | 00:00:00 | 00:00:00 | 00:00:00 | |
| OE5DXL-15 | 2026-09-03 00:56:28 | 47.90131 | 17.10639 | 118° | 15km/h | 25358m | 4.8m/s | 0°C | 0% | 0hPa | 0V | 00:00:00 | 00:00:00 | 00:00:00 | |
| PETON7-10 | 2026-09-03 00:56:25 | 47.90136 | 17.10624 | 127° | 18km/h | 25342m | 4.1m/s | 0°C | 0% | 0hPa | 0V | 00:00:00 | 00:00:00 | 00:00:00 | |
| OE3OSB-13 | 2026-09-03 00:56:21 | 47.90153 | 17.10600 | 86° | 13km/h | 25314m | 6.7m/s | -51.1°C | 7.3% | 25.2hPa | 0V | 00:00:00 | 00:00:00 | 00:00:00 | |
| OE5MMP-10 | 2026-09-03 00:56:19 | 47.90152 | 17.10595 | 65° | 18km/h | 25308m | 4.6m/s | 0°C | 0% | 0hPa | 0V | 00:00:00 | 00:00:00 | 00:00:00 | |
| ATIDSZ-14 | 2026-09-03 00:56:17 | 47.90150 | 17.10585 | 109° | 11km/h | 25300m | 5.0m/s | 0°C | 0% | 0hPa | 0V | 00:00:00 | 00:00:00 | 00:00:00 | |
| OK1ALN | 2026-09-03 00:56:15 | 47.90157 | 17.10579 | 164° | 24km/h | 25287m | 6.1m/s | 0°C | 0% | 0hPa | 0V | 00:00:00 | 00:00:00 | 00:00:00 | |
| PETON7-10 | 2026-09-03 00:56:10 | 47.90172 | 17.10565 | 44° | 13km/h | 25261m | 6.2m/s | 0°C | 0% | 0hPa | 0V | 00:00:00 | 00:00:00 | 00:00:00 | |
| OE3JTB-15 | 2026-09-03 00:56:09 | 47.90168 | 17.10561 | 58° | 13km/h | 25245m | 4.9m/s | 0°C | 0% | 0hPa | 0V | 00:00:00 | 00:00:00 | 00:00:00 | |
| OE3OSB-13 | 2026-09-03 00:55:50 | 47.90180 | 17.10521 | 90° | 7km/h | 25150m | 6.3m/s | -51.1°C | 8.0% | 25.9hPa | 0V | 00:00:00 | 00:00:00 | 00:00:00 | |
| OE5MMP-10 | 2026-09-03 00:55:39 | 47.90182 | 17.10489 | 206° | 5km/h | 25098m | 5.0m/s | 0°C | 0% | 0hPa | 0V | 00:00:00 | 00:00:00 | 00:00:00 | |
| ATIDSZ-14 | 2026-09-03 00:55:38 | 47.90179 | 17.10483 | 63° | 22km/h | 25085m | 5.7m/s | 0°C | 0% | 0hPa | 0V | 00:00:00 | 00:00:00 | 00:00:00 | |
| OK1ALN | 2026-09-03 00:55:34 | 47.90173 | 17.10451 | 109° | 9km/h | 25064m | 5.4m/s | 0°C | 0% | 0hPa | 0V | 00:00:00 | 00:00:00 | 00:00:00 | |
| OE5MMP-10 | 2026-09-03 00:55:29 | 47.90174 | 17.10445 | 57° | 16km/h | 25046m | 5.6m/s | 0°C | 0% | 0hPa | 0V | 00:00:00 | 00:00:00 | 00:00:00 | |
| OE5DXL-15 | 2026-09-03 00:55:28 | 47.90172 | 17.10440 | 60° | 18km/h | 25041m | 4.8m/s | 0°C | 0% | 0hPa | 0V | 00:00:00 | 00:00:00 | 00:00:00 | |
| PETON7-10 | 2026-09-03 00:55:22 | 47.90171 | 17.10405 | 79° | 16km/h | 25009m | 5.7m/s | 0°C | 0% | 0hPa | 0V | 00:00:00 | 00:00:00 | 00:00:00 | |
| OE3OSB-13 | 2026-09-03 00:55:19 | 47.90168 | 17.10381 | 114° | 9km/h | 24988m | 4.8m/s | -51.4°C | 8.0% | 26.6hPa | 0V | 00:00:00 | 00:00:00 | 00:00:00 | |
| ATIDSZ-14 | 2026-09-03 00:55:16 | 47.90171 | 17.10371 | 102° | 20km/h | 24979m | 6.1m/s | 0°C | 0% | 0hPa | 0V | 00:00:00 | 00:00:00 | 00:00:00 | |
| OK1ALN | 2026-09-03 00:55:12 | 47.90166 | 17.10340 | 49° | 13km/h | 24957m | 6.4m/s | 0°C | 0% | 0hPa | 0V | 00:00:00 | 00:00:00 | 00:00:00 | |
| OE3JTB-15 | 2026-09-03 00:55:11 | 47.90161 | 17.10335 | 37° | 16km/h | 24945m | 5.5m/s | 0°C | 0% | 0hPa | 0V | 00:00:00 | 00:00:00 | 00:00:00 | |
| OE5MMP-10 | 2026-09-03 00:55:08 | 47.90157 | 17.10326 | 79° | 18km/h | 24934m | 4.5m/s | 0°C | 0% | 0hPa | 0V | 00:00:00 | 00:00:00 | 00:00:00 | |
| PETON7-10 | 2026-09-03 00:55:06 | 47.90158 | 17.10314 | 117° | 16km/h | 24924m | 6.5m/s | 0°C | 0% | 0hPa | 0V | 00:00:00 | 00:00:00 | 00:00:00 | |
| PG1ADW-2 | 2026-09-03 00:55:02 | 47.90156 | 17.10289 | 56° | 16km/h | 24903m | 5.2m/s | 0°C | 0% | 0hPa | 0V | 00:00:00 | 00:00:00 | 00:00:00 | |
| OE3OSB-13 | 2026-09-03 00:54:48 | 47.90111 | 17.10215 | 38° | 13km/h | 24824m | 6.3m/s | -51.8°C | 8.8% | 27.3hPa | 0V | 00:00:00 | 00:00:00 | 00:00:00 | |
| S52SK | 2026-09-03 00:54:47 | 47.90112 | 17.10215 | 39° | 15km/h | 24824m | 6.3m/s | 0°C | 0% | 0hPa | 0V | 00:00:00 | 00:00:00 | 00:00:00 | |
| OE3JTB-15 | 2026-09-03 00:54:42 | 47.90094 | 17.10198 | 356° | 9km/h | 24786m | 6.8m/s | 0°C | 0% | 0hPa | 0V | 00:00:00 | 00:00:00 | 00:00:00 | |
| OE5MMP-10 | 2026-09-03 00:54:37 | 47.90083 | 17.10199 | 23° | 13km/h | 24770m | 6.4m/s | 0°C | 0% | 0hPa | 0V | 00:00:00 | 00:00:00 | 00:00:00 | |
| PETON7-10 | 2026-09-03 00:54:36 | 47.90080 | 17.10197 | 40° | 9km/h | 24765m | 4.2m/s | 0°C | 0% | 0hPa | 0V | 00:00:00 | 00:00:00 | 00:00:00 | |
| ATIDSZ-14 | 2026-09-03 00:54:35 | 47.90078 | 17.10193 | 44° | 9km/h | 24761m | 3.8m/s | 0°C | 0% | 0hPa | 0V | 00:00:00 | 00:00:00 | 00:00:00 | |
| OK1ALN | 2026-09-03 00:54:30 | 47.90071 | 17.10198 | 2° | 13km/h | 24735m | 6.4m/s | 0°C | 0% | 0hPa | 0V | 00:00:00 | 00:00:00 | 00:00:00 | |
| OE5DXL-15 | 2026-09-03 00:54:28 | 47.90063 | 17.10197 | 1° | 7km/h | 24724m | 4.4m/s | 0°C | 0% | 0hPa | 0V | 00:00:00 | 00:00:00 | 00:00:00 | |
| OE5MMP-10 | 2026-09-03 00:54:27 | 47.90059 | 17.10198 | 341° | 9km/h | 24719m | 6.0m/s | 0°C | 0% | 0hPa | 0V | 00:00:00 | 00:00:00 | 00:00:00 | |
| PETON7-10 | 2026-09-03 00:54:21 | 47.90055 | 17.10205 | 201° | 7km/h | 24686m | 6.6m/s | 0°C | 0% | 0hPa | 0V | 00:00:00 | 00:00:00 | 00:00:00 | |
| OE3OSB-13 | 2026-09-03 00:54:17 | 47.90057 | 17.10215 | 347° | 7km/h | 24658m | 4.9m/s | -52.5°C | 9.2% | 28.0hPa | 0V | 00:00:00 | 00:00:00 | 00:00:00 | |
| ATIDSZ-14 | 2026-09-03 00:54:15 | 47.90055 | 17.10216 | 322° | 7km/h | 24653m | 6.6m/s | 0°C | 0% | 0hPa | 0V | 00:00:00 | 00:00:00 | 00:00:00 | |
| OE3JTB-15 | 2026-09-03 00:54:13 | 47.90056 | 17.10222 | 201° | 7km/h | 24637m | 5.7m/s | 0°C | 0% | 0hPa | 0V | 00:00:00 | 00:00:00 | 00:00:00 | |
| OK1ALN | 2026-09-03 00:54:09 | 47.90060 | 17.10220 | 175° | 7km/h | 24620m | 5.1m/s | 0°C | 0% | 0hPa | 0V | 00:00:00 | 00:00:00 | 00:00:00 | |
| OE5MMP-10 | 2026-09-03 00:54:07 | 47.90064 | 17.10224 | 230° | 7km/h | 24608m | 4.7m/s | 0°C | 0% | 0hPa | 0V | 00:00:00 | 00:00:00 | 00:00:00 | |
| PETON7-10 | 2026-09-03 00:54:03 | 47.90065 | 17.10226 | 66° | 7km/h | 24588m | 3.5m/s | 0°C | 0% | 0hPa | 0V | 00:00:00 | 00:00:00 | 00:00:00 | |
| OE3OSB-13 | 2026-09-03 00:53:46 | 47.90089 | 17.10229 | 250° | 7km/h | 24490m | 6.3m/s | -52.5°C | 8.9% | 28.6hPa | 0V | 00:00:00 | 00:00:00 | 00:00:00 | |
| OE3JTB-15 | 2026-09-03 00:53:44 | 47.90089 | 17.10231 | 290° | 15km/h | 24484m | 5.6m/s | 0°C | 0% | 0hPa | 0V | 00:00:00 | 00:00:00 | 00:00:00 | |
| ATIDSZ-14 | 2026-09-03 00:53:34 | 47.90110 | 17.10256 | 184° | 15km/h | 24430m | 4.7m/s | 0°C | 0% | 0hPa | 0V | 00:00:00 | 00:00:00 | 00:00:00 | |
| PETON7-10 | 2026-09-03 00:53:33 | 47.90113 | 17.10256 | 198° | 16km/h | 24425m | 5.4m/s | 0°C | 0% | 0hPa | 0V | 00:00:00 | 00:00:00 | 00:00:00 | |
| OE5DXL-15 | 2026-09-03 00:53:29 | 47.90125 | 17.10276 | 211° | 16km/h | 24397m | 4.5m/s | 0°C | 0% | 0hPa | 0V | 00:00:00 | 00:00:00 | 00:00:00 | |
| OE5MMP-10 | 2026-09-03 00:53:24 | 47.90136 | 17.10286 | 200° | 16km/h | 24375m | 4.8m/s | 0°C | 0% | 0hPa | 0V | 00:00:00 | 00:00:00 | 00:00:00 | |
| OE3OSB-13 | 2026-09-03 00:53:15 | 47.90169 | 17.10324 | 204° | 20km/h | 24322m | 4.6m/s | -52.3°C | 8.7% | 29.4hPa | 0V | 00:00:00 | 00:00:00 | 00:00:00 | |
| OE5MMP-10 | 2026-09-03 00:53:14 | 47.90169 | 17.10324 | 205° | 13km/h | 24322m | 4.6m/s | 0°C | 0% | 0hPa | 0V | 00:00:00 | 00:00:00 | 00:00:00 | |
| ATIDSZ-14 | 2026-09-03 00:53:13 | 47.90173 | 17.10326 | 203° | 15km/h | 24316m | 6.2m/s | 0°C | 0% | 0hPa | 0V | 00:00:00 | 00:00:00 | 00:00:00 | |
| S52SK | 2026-09-03 00:53:08 | 47.90189 | 17.10328 | 184° | 15km/h | 24288m | 4.4m/s | 0°C | 0% | 0hPa | 0V | 00:00:00 | 00:00:00 | 00:00:00 | |
| OK1ALN | 2026-09-03 00:53:07 | 47.90192 | 17.10329 | 196° | 11km/h | 24283m | 6.5m/s | 0°C | 0% | 0hPa | 0V | 00:00:00 | 00:00:00 | 00:00:00 | |
| OE5MMP-10 | 2026-09-03 00:53:04 | 47.90199 | 17.10333 | 187° | 16km/h | 24267m | 5.1m/s | 0°C | 0% | 0hPa | 0V | 00:00:00 | 00:00:00 | 00:00:00 | |
| S52SK | 2026-09-03 00:53:03 | 47.90203 | 17.10333 | 174° | 20km/h | 24261m | 7.2m/s | 0°C | 0% | 0hPa | 0V | 00:00:00 | 00:00:00 | 00:00:00 | |
| PETON7-10 | 2026-09-03 00:53:00 | 47.90220 | 17.10328 | 175° | 16km/h | 24243m | 6.3m/s | 0°C | 0% | 0hPa | 0V | 00:00:00 | 00:00:00 | 00:00:00 | |
| OE3OSB-13 | 2026-09-03 00:52:44 | 47.90288 | 17.10304 | 151° | 16km/h | 24148m | 4.8m/s | -52.5°C | 8.2% | 30.3hPa | 0V | 00:00:00 | 00:00:00 | 00:00:00 | |
| OE5MMP-10 | 2026-09-03 00:52:41 | 47.90294 | 17.10296 | 128° | 13km/h | 24137m | 6.8m/s | 0°C | 0% | 0hPa | 0V | 00:00:00 | 00:00:00 | 00:00:00 | |
| OE5MMP-10 | 2026-09-03 00:52:31 | 47.90322 | 17.10264 | 119° | 11km/h | 24082m | 6.2m/s | 0°C | 0% | 0hPa | 0V | 00:00:00 | 00:00:00 | 00:00:00 | |
| PETON7-10 | 2026-09-03 00:52:30 | 47.90324 | 17.10257 | 112° | 13km/h | 24076m | 5.3m/s | 0°C | 0% | 0hPa | 0V | 00:00:00 | 00:00:00 | 00:00:00 | |
| OE5DXL-15 | 2026-09-03 00:52:28 | 47.90326 | 17.10241 | 88° | 11km/h | 24065m | 6.9m/s | 0°C | 0% | 0hPa | 0V | 00:00:00 | 00:00:00 | 00:00:00 | |
| OK1ALN | 2026-09-03 00:52:26 | 47.90323 | 17.10227 | 72° | 15km/h | 24054m | 4.4m/s | 0°C | 0% | 0hPa | 0V | 00:00:00 | 00:00:00 | 00:00:00 | |
| OE5MMP-10 | 2026-09-03 00:52:20 | 47.90325 | 17.10216 | 27° | 13km/h | 24019m | 4.9m/s | 0°C | 0% | 0hPa | 0V | 00:00:00 | 00:00:00 | 00:00:00 | |
| PETON7-10 | 2026-09-03 00:52:15 | 47.90325 | 17.10194 | 76° | 9km/h | 23992m | 6.5m/s | 0°C | 0% | 0hPa | 0V | 00:00:00 | 00:00:00 | 00:00:00 | |
| OE3OSB-13 | 2026-09-03 00:52:12 | 47.90320 | 17.10186 | 0° | 2km/h | 23976m | 6.2m/s | -53.3°C | 8.3% | 31.1hPa | 0V | 00:00:00 | 00:00:00 | 00:00:00 | |
| ATIDSZ-14 | 2026-09-03 00:52:11 | 47.90320 | 17.10186 | 223° | 5km/h | 23971m | 5.6m/s | 0°C | 0% | 0hPa | 0V | 00:00:00 | 00:00:00 | 00:00:00 | |
| OE5MMP-10 | 2026-09-03 00:52:10 | 47.90321 | 17.10188 | 228° | 9km/h | 23966m | 4.5m/s | 0°C | 0% | 0hPa | 0V | 00:00:00 | 00:00:00 | 00:00:00 | |
| OK1ALN | 2026-09-03 00:52:05 | 47.90320 | 17.10183 | 102° | 16km/h | 23938m | 6.2m/s | 0°C | 0% | 0hPa | 0V | 00:00:00 | 00:00:00 | 00:00:00 | |
| OE5MMP-10 | 2026-09-03 00:51:59 | 47.90319 | 17.10165 | 246° | 7km/h | 23907m | 5.3m/s | 0°C | 0% | 0hPa | 0V | 00:00:00 | 00:00:00 | 00:00:00 | |
| OE5DXL-15 | 2026-09-03 00:51:58 | 47.90321 | 17.10167 | 203° | 7km/h | 23901m | 6.6m/s | 0°C | 0% | 0hPa | 0V | 00:00:00 | 00:00:00 | 00:00:00 | |
| ATIDSZ-14 | 2026-09-03 00:51:50 | 47.90327 | 17.10153 | 158° | 7km/h | 23857m | 5.0m/s | 0°C | 0% | 0hPa | 0V | 00:00:00 | 00:00:00 | 00:00:00 | |
| OE5MMP-10 | 2026-09-03 00:51:48 | 47.90330 | 17.10153 | 252° | 7km/h | 23846m | 7.0m/s | 0°C | 0% | 0hPa | 0V | 00:00:00 | 00:00:00 | 00:00:00 | |
| OE3JTB-15 | 2026-09-03 00:51:47 | 47.90329 | 17.10157 | 224° | 9km/h | 23829m | 6.6m/s | 0°C | 0% | 0hPa | 0V | 00:00:00 | 00:00:00 | 00:00:00 | |
| OK1ALN | 2026-09-03 00:51:45 | 47.90329 | 17.10157 | 225° | 5km/h | 23829m | 6.7m/s | 0°C | 0% | 0hPa | 0V | 00:00:00 | 00:00:00 | 00:00:00 | |
| PETON7-10 | 2026-09-03 00:51:43 | 47.90332 | 17.10158 | 141° | 5km/h | 23819m | 4.5m/s | 0°C | 0% | 0hPa | 0V | 00:00:00 | 00:00:00 | 00:00:00 | |
| OE3OSB-13 | 2026-09-03 00:51:42 | 47.90331 | 17.10149 | 66° | 9km/h | 23802m | 4.2m/s | -53.0°C | 8.2% | 32.0hPa | 0V | 00:00:00 | 00:00:00 | 00:00:00 | |
| OE5MMP-10 | 2026-09-03 00:51:36 | 47.90336 | 17.10147 | 208° | 7km/h | 23781m | 5.5m/s | 0°C | 0% | 0hPa | 0V | 00:00:00 | 00:00:00 | 00:00:00 | |
| ATIDSZ-14 | 2026-09-03 00:51:29 | 47.90341 | 17.10148 | 121° | 11km/h | 23743m | 6.6m/s | 0°C | 0% | 0hPa | 0V | 00:00:00 | 00:00:00 | 00:00:00 | |
| PETON7-10 | 2026-09-03 00:51:28 | 47.90342 | 17.10143 | 111° | 11km/h | 23737m | 5.5m/s | 0°C | 0% | 0hPa | 0V | 00:00:00 | 00:00:00 | 00:00:00 | |
| OE5MMP-10 | 2026-09-03 00:51:26 | 47.90346 | 17.10134 | 141° | 9km/h | 23726m | 6.6m/s | 0°C | 0% | 0hPa | 0V | 00:00:00 | 00:00:00 | 00:00:00 | |
| OK1ALN | 2026-09-03 00:51:24 | 47.90352 | 17.10132 | 212° | 11km/h | 23715m | 4.6m/s | 0°C | 0% | 0hPa | 0V | 00:00:00 | 00:00:00 | 00:00:00 | |
| OE3JTB-15 | 2026-09-03 00:51:18 | 47.90351 | 17.10136 | 100° | 9km/h | 23669m | 5.0m/s | 0°C | 0% | 0hPa | 0V | 00:00:00 | 00:00:00 | 00:00:00 | |
| OE5MMP-10 | 2026-09-03 00:51:15 | 47.90352 | 17.10131 | 112° | 11km/h | 23664m | 4.6m/s | 0°C | 0% | 0hPa | 0V | 00:00:00 | 00:00:00 | 00:00:00 | |
| PETON7-10 | 2026-09-03 00:51:13 | 47.90357 | 17.10124 | 172° | 9km/h | 23653m | 5.8m/s | 0°C | 0% | 0hPa | 0V | 00:00:00 | 00:00:00 | 00:00:00 | |
| OE3OSB-13 | 2026-09-03 00:51:11 | 47.90358 | 17.10130 | 349° | 11km/h | 23631m | 5.1m/s | -52.8°C | 8.4% | 32.9hPa | 0V | 00:00:00 | 00:00:00 | 00:00:00 | |
| ATIDSZ-14 | 2026-09-03 00:51:08 | 47.90356 | 17.10131 | 355° | 11km/h | 23626m | 4.4m/s | 0°C | 0% | 0hPa | 0V | 00:00:00 | 00:00:00 | 00:00:00 | |
| OK1ALN | 2026-09-03 00:51:04 | 47.90356 | 17.10133 | 139° | 7km/h | 23602m | 7.0m/s | 0°C | 0% | 0hPa | 0V | 00:00:00 | 00:00:00 | 00:00:00 | |
| PETON7-10 | 2026-09-03 00:50:58 | 47.90353 | 17.10134 | 354° | 9km/h | 23569m | 6.8m/s | 0°C | 0% | 0hPa | 0V | 00:00:00 | 00:00:00 | 00:00:00 | |
| OE5MMP-10 | 2026-09-03 00:50:55 | 47.90346 | 17.10133 | 18° | 9km/h | 23554m | 6.8m/s | 0°C | 0% | 0hPa | 0V | 00:00:00 | 00:00:00 | 00:00:00 | |
| ATIDSZ-14 | 2026-09-03 00:50:48 | 47.90348 | 17.10125 | 314° | 11km/h | 23514m | 4.9m/s | 0°C | 0% | 0hPa | 0V | 00:00:00 | 00:00:00 | 00:00:00 | |
| OE5MMP-10 | 2026-09-03 00:50:45 | 47.90340 | 17.10131 | 355° | 9km/h | 23498m | 4.2m/s | 0°C | 0% | 0hPa | 0V | 00:00:00 | 00:00:00 | 00:00:00 | |
| PETON7-10 | 2026-09-03 00:50:43 | 47.90338 | 17.10132 | 215° | 7km/h | 23488m | 7.1m/s | 0°C | 0% | 0hPa | 0V | 00:00:00 | 00:00:00 | 00:00:00 | |
| S52SK | 2026-09-03 00:50:39 | 47.90344 | 17.10133 | 16° | 7km/h | 23465m | 5.2m/s | 0°C | 0% | 0hPa | 0V | 00:00:00 | 00:00:00 | 00:00:00 | |
| OE5MMP-10 | 2026-09-03 00:50:35 | 47.90332 | 17.10140 | 311° | 7km/h | 23444m | 4.2m/s | 0°C | 0% | 0hPa | 0V | 00:00:00 | 00:00:00 | 00:00:00 | |
| OE5DXL-15 | 2026-09-03 00:50:28 | 47.90330 | 17.10136 | 320° | 9km/h | 23408m | 4.3m/s | 0°C | 0% | 0hPa | 0V | 00:00:00 | 00:00:00 | 00:00:00 | |
| ATIDSZ-14 | 2026-09-03 00:50:27 | 47.90329 | 17.10137 | 357° | 9km/h | 23402m | 6.7m/s | 0°C | 0% | 0hPa | 0V | 00:00:00 | 00:00:00 | 00:00:00 | |
| PETON7-10 | 2026-09-03 00:50:26 | 47.90326 | 17.10137 | 2° | 11km/h | 23396m | 4.9m/s | 0°C | 0% | 0hPa | 0V | 00:00:00 | 00:00:00 | 00:00:00 | |
| OE5MMP-10 | 2026-09-03 00:50:25 | 47.90322 | 17.10137 | 359° | 13km/h | 23391m | 4.4m/s | 0°C | 0% | 0hPa | 0V | 00:00:00 | 00:00:00 | 00:00:00 | |
| OK1ALN | 2026-09-03 00:50:23 | 47.90318 | 17.10139 | 332° | 9km/h | 23381m | 4.3m/s | 0°C | 0% | 0hPa | 0V | 00:00:00 | 00:00:00 | 00:00:00 | |
| OE3JTB-15 | 2026-09-03 00:50:20 | 47.90295 | 17.10139 | 57° | 7km/h | 23349m | 6.1m/s | 0°C | 0% | 0hPa | 0V | 00:00:00 | 00:00:00 | 00:00:00 | |
| OE5MMP-10 | 2026-09-03 00:50:15 | 47.90296 | 17.10136 | 136° | 7km/h | 23340m | 3.8m/s | 0°C | 0% | 0hPa | 0V | 00:00:00 | 00:00:00 | 00:00:00 | |
| PETON7-10 | 2026-09-03 00:50:11 | 47.90289 | 17.10139 | 338° | 7km/h | 23319m | 6.6m/s | 0°C | 0% | 0hPa | 0V | 00:00:00 | 00:00:00 | 00:00:00 | |
| OE3OSB-13 | 2026-09-03 00:50:08 | 47.90282 | 17.10135 | 42° | 11km/h | 23296m | 4.6m/s | -53.0°C | 8.0% | 34.6hPa | 0V | 00:00:00 | 00:00:00 | 00:00:00 | |
| ATIDSZ-14 | 2026-09-03 00:50:07 | 47.90282 | 17.10135 | 43° | 11km/h | 23297m | 4.6m/s | 0°C | 0% | 0hPa | 0V | 00:00:00 | 00:00:00 | 00:00:00 | |
| OE5MMP-10 | 2026-09-03 00:50:05 | 47.90280 | 17.10129 | 106° | 7km/h | 23287m | 6.3m/s | 0°C | 0% | 0hPa | 0V | 00:00:00 | 00:00:00 | 00:00:00 | |
| OK1ALN | 2026-09-03 00:50:02 | 47.90283 | 17.10128 | 296° | 4km/h | 23272m | 6.1m/s | 0°C | 0% | 0hPa | 0V | 00:00:00 | 00:00:00 | 00:00:00 | |
| OE5DXL-15 | 2026-09-03 00:49:58 | 47.90275 | 17.10137 | 322° | 7km/h | 23251m | 4.7m/s | 0°C | 0% | 0hPa | 0V | 00:00:00 | 00:00:00 | 00:00:00 | |
| PETON7-10 | 2026-09-03 00:49:56 | 47.90272 | 17.10136 | 27° | 7km/h | 23241m | 6.1m/s | 0°C | 0% | 0hPa | 0V | 00:00:00 | 00:00:00 | 00:00:00 | |
| OE5MMP-10 | 2026-09-03 00:49:55 | 47.90270 | 17.10134 | 23° | 5km/h | 23236m | 4.8m/s | 0°C | 0% | 0hPa | 0V | 00:00:00 | 00:00:00 | 00:00:00 | |
| OE3JTB-15 | 2026-09-03 00:49:51 | 47.90269 | 17.10144 | 16° | 7km/h | 23200m | 4.2m/s | 0°C | 0% | 0hPa | 0V | 00:00:00 | 00:00:00 | 00:00:00 | |
| ATIDSZ-14 | 2026-09-03 00:49:46 | 47.90268 | 17.10142 | 90° | 4km/h | 23189m | 5.1m/s | 0°C | 0% | 0hPa | 0V | 00:00:00 | 00:00:00 | 00:00:00 | |
| OE5MMP-10 | 2026-09-03 00:49:45 | 47.90268 | 17.10140 | 49° | 7km/h | 23184m | 3.9m/s | 0°C | 0% | 0hPa | 0V | 00:00:00 | 00:00:00 | 00:00:00 | |
| OK1ALN | 2026-09-03 00:49:42 | 47.90261 | 17.10137 | 361° | 11km/h | 23169m | 4.1m/s | 0°C | 0% | 0hPa | 0V | 00:00:00 | 00:00:00 | 00:00:00 | |
| PETON7-10 | 2026-09-03 00:49:39 | 47.90261 | 17.10142 | 216° | 7km/h | 23153m | 4.2m/s | 0°C | 0% | 0hPa | 0V | 00:00:00 | 00:00:00 | 00:00:00 | |
| OE3OSB-13 | 2026-09-03 00:49:37 | 47.90263 | 17.10145 | 30° | 5km/h | 23138m | 4.9m/s | -52.7°C | 8.0% | 35.5hPa | 0V | 00:00:00 | 00:00:00 | 00:00:00 | |
| OE5MMP-10 | 2026-09-03 00:49:35 | 47.90262 | 17.10143 | 46° | 7km/h | 23133m | 4.5m/s | 0°C | 0% | 0hPa | 0V | 00:00:00 | 00:00:00 | 00:00:00 | |
| ATIDSZ-14 | 2026-09-03 00:49:26 | 47.90264 | 17.10140 | 193° | 9km/h | 23088m | 4.0m/s | 0°C | 0% | 0hPa | 0V | 00:00:00 | 00:00:00 | 00:00:00 | |
| PETON7-10 | 2026-09-03 00:49:25 | 47.90266 | 17.10139 | 56° | 5km/h | 23077m | 5.3m/s | 0°C | 0% | 0hPa | 0V | 00:00:00 | 00:00:00 | 00:00:00 | |
| OE5MMP-10 | 2026-09-03 00:49:22 | 47.90262 | 17.10134 | 49° | 4km/h | 23067m | 5.8m/s | 0°C | 0% | 0hPa | 0V | 00:00:00 | 00:00:00 | 00:00:00 | |
| OE3JTB-15 | 2026-09-03 00:49:21 | 47.90262 | 17.10130 | 40° | 7km/h | 23047m | 6.0m/s | 0°C | 0% | 0hPa | 0V | 00:00:00 | 00:00:00 | 00:00:00 | |
| OE5MMP-10 | 2026-09-03 00:49:12 | 47.90264 | 17.10132 | 5° | 5km/h | 23017m | 6.3m/s | 0°C | 0% | 0hPa | 0V | 00:00:00 | 00:00:00 | 00:00:00 | |
| PETON7-10 | 2026-09-03 00:49:09 | 47.90261 | 17.10127 | 80° | 7km/h | 23002m | 6.0m/s | 0°C | 0% | 0hPa | 0V | 00:00:00 | 00:00:00 | 00:00:00 | |
| OE3OSB-13 | 2026-09-03 00:49:06 | 47.90265 | 17.10123 | 138° | 2km/h | 22980m | 4.9m/s | -52.7°C | 8.4% | 36.3hPa | 0V | 00:00:00 | 00:00:00 | 00:00:00 | |
| ATIDSZ-14 | 2026-09-03 00:49:05 | 47.90265 | 17.10123 | 139° | 2km/h | 22980m | 4.9m/s | 0°C | 0% | 0hPa | 0V | 00:00:00 | 00:00:00 | 00:00:00 | |
| OE5MMP-10 | 2026-09-03 00:49:02 | 47.90268 | 17.10125 | 205° | 7km/h | 22965m | 4.9m/s | 0°C | 0% | 0hPa | 0V | 00:00:00 | 00:00:00 | 00:00:00 | |
| OK1ALN | 2026-09-03 00:49:01 | 47.90269 | 17.10125 | 172° | 4km/h | 22961m | 3.3m/s | 0°C | 0% | 0hPa | 0V | 00:00:00 | 00:00:00 | 00:00:00 | |
| OE5DXL-15 | 2026-09-03 00:48:58 | 47.90267 | 17.10118 | 65° | 9km/h | 22945m | 3.9m/s | 0°C | 0% | 0hPa | 0V | 00:00:00 | 00:00:00 | 00:00:00 | |
| PETON7-10 | 2026-09-03 00:48:54 | 47.90269 | 17.10109 | 189° | 9km/h | 22925m | 4.1m/s | 0°C | 0% | 0hPa | 0V | 00:00:00 | 00:00:00 | 00:00:00 | |
| OE5MMP-10 | 2026-09-03 00:48:52 | 47.90270 | 17.10108 | 54° | 11km/h | 22915m | 4.4m/s | 0°C | 0% | 0hPa | 0V | 00:00:00 | 00:00:00 | 00:00:00 | |
| S52SK | 2026-09-03 00:48:50 | 47.90268 | 17.10100 | 90° | 15km/h | 22906m | 5.7m/s | 0°C | 0% | 0hPa | 0V | 00:00:00 | 00:00:00 | 00:00:00 | |
| ATIDSZ-14 | 2026-09-03 00:48:44 | 47.90272 | 17.10081 | 311° | 7km/h | 22876m | 4.7m/s | 0°C | 0% | 0hPa | 0V | 00:00:00 | 00:00:00 | 00:00:00 | |
| OE5MMP-10 | 2026-09-03 00:48:42 | 47.90271 | 17.10085 | 292° | 7km/h | 22866m | 4.2m/s | 0°C | 0% | 0hPa | 0V | 00:00:00 | 00:00:00 | 00:00:00 | |
| OK1ALN | 2026-09-03 00:48:40 | 47.90269 | 17.10084 | 50° | 9km/h | 22856m | 6.1m/s | 0°C | 0% | 0hPa | 0V | 00:00:00 | 00:00:00 | 00:00:00 | |
| OE3OSB-13 | 2026-09-03 00:48:35 | 47.90273 | 17.10067 | 225° | 5km/h | 22828m | 3.9m/s | -52.2°C | 8.5% | 37.2hPa | 0V | 00:00:00 | 00:00:00 | 00:00:00 | |
| OE5MMP-10 | 2026-09-03 00:48:30 | 47.90264 | 17.10069 | 34° | 7km/h | 22808m | 5.7m/s | 0°C | 0% | 0hPa | 0V | 00:00:00 | 00:00:00 | 00:00:00 | |
| OE5DXL-15 | 2026-09-03 00:48:28 | 47.90264 | 17.10062 | 124° | 9km/h | 22798m | 3.9m/s | 0°C | 0% | 0hPa | 0V | 00:00:00 | 00:00:00 | 00:00:00 | |
| ATIDSZ-14 | 2026-09-03 00:48:23 | 47.90268 | 17.10056 | 0° | 0km/h | 22773m | 6.1m/s | 0°C | 0% | 0hPa | 0V | 00:00:00 | 00:00:00 | 00:00:00 | |
| PETON7-10 | 2026-09-03 00:48:22 | 47.90267 | 17.10056 | 19° | 9km/h | 22767m | 4.9m/s | 0°C | 0% | 0hPa | 0V | 00:00:00 | 00:00:00 | 00:00:00 | |
| OK1ALN | 2026-09-03 00:48:20 | 47.90264 | 17.10055 | 8° | 13km/h | 22757m | 6.4m/s | 0°C | 0% | 0hPa | 0V | 00:00:00 | 00:00:00 | 00:00:00 | |
| OE5MMP-10 | 2026-09-03 00:48:19 | 47.90260 | 17.10054 | 5° | 11km/h | 22751m | 5.3m/s | 0°C | 0% | 0hPa | 0V | 00:00:00 | 00:00:00 | 00:00:00 | |
| OE5MMP-10 | 2026-09-03 00:48:09 | 47.90244 | 17.10041 | 30° | 11km/h | 22701m | 5.1m/s | 0°C | 0% | 0hPa | 0V | 00:00:00 | 00:00:00 | 00:00:00 | |
| PETON7-10 | 2026-09-03 00:48:07 | 47.90241 | 17.10036 | 36° | 13km/h | 22691m | 4.2m/s | 0°C | 0% | 0hPa | 0V | 00:00:00 | 00:00:00 | 00:00:00 | |
| OE3OSB-13 | 2026-09-03 00:48:04 | 47.90227 | 17.10034 | 1° | 9km/h | 22672m | 4.1m/s | -52.0°C | 8.8% | 38.1hPa | 0V | 00:00:00 | 00:00:00 | 00:00:00 | |
| ATIDSZ-14 | 2026-09-03 00:48:02 | 47.90225 | 17.10033 | 75° | 2km/h | 22667m | 6.7m/s | 0°C | 0% | 0hPa | 0V | 00:00:00 | 00:00:00 | 00:00:00 | |
| OE5MMP-10 | 2026-09-03 00:47:59 | 47.90227 | 17.10023 | 78° | 13km/h | 22652m | 5.8m/s | 0°C | 0% | 0hPa | 0V | 00:00:00 | 00:00:00 | 00:00:00 | |
| OE5DXL-15 | 2026-09-03 00:47:58 | 47.90225 | 17.10018 | 57° | 11km/h | 22646m | 4.5m/s | 0°C | 0% | 0hPa | 0V | 00:00:00 | 00:00:00 | 00:00:00 | |
| PETON7-10 | 2026-09-03 00:47:52 | 47.90211 | 17.09995 | 29° | 11km/h | 22617m | 6.3m/s | 0°C | 0% | 0hPa | 0V | 00:00:00 | 00:00:00 | 00:00:00 | |
| OE5MMP-10 | 2026-09-03 00:47:49 | 47.90205 | 17.09993 | 331° | 9km/h | 22601m | 6.2m/s | 0°C | 0% | 0hPa | 0V | 00:00:00 | 00:00:00 | 00:00:00 | |
| ATIDSZ-14 | 2026-09-03 00:47:42 | 47.90188 | 17.09975 | 37° | 7km/h | 22566m | 5.2m/s | 0°C | 0% | 0hPa | 0V | 00:00:00 | 00:00:00 | 00:00:00 | |
| OE5MMP-10 | 2026-09-03 00:47:39 | 47.90183 | 17.09971 | 29° | 13km/h | 22550m | 5.7m/s | 0°C | 0% | 0hPa | 0V | 00:00:00 | 00:00:00 | 00:00:00 | |
| OK1ALN | 2026-09-03 00:47:38 | 47.90180 | 17.09968 | 36° | 15km/h | 22546m | 4.1m/s | 0°C | 0% | 0hPa | 0V | 00:00:00 | 00:00:00 | 00:00:00 | |
| PETON7-10 | 2026-09-03 00:47:37 | 47.90177 | 17.09965 | 40° | 13km/h | 22541m | 4.7m/s | 0°C | 0% | 0hPa | 0V | 00:00:00 | 00:00:00 | 00:00:00 | |
| OE3OSB-13 | 2026-09-03 00:47:33 | 47.90163 | 17.09952 | 18° | 16km/h | 22515m | 4.7m/s | -52.4°C | 8.7% | 39.1hPa | 0V | 00:00:00 | 00:00:00 | 00:00:00 | |
| OE5MMP-10 | 2026-09-03 00:47:28 | 47.90154 | 17.09953 | 346° | 13km/h | 22496m | 5.0m/s | 0°C | 0% | 0hPa | 0V | 00:00:00 | 00:00:00 | 00:00:00 | |
| PETON7-10 | 2026-09-03 00:47:22 | 47.90134 | 17.09948 | 38° | 9km/h | 22465m | 3.9m/s | 0°C | 0% | 0hPa | 0V | 00:00:00 | 00:00:00 | 00:00:00 | |
| ATIDSZ-14 | 2026-09-03 00:47:21 | 47.90133 | 17.09946 | 51° | 9km/h | 22461m | 5.3m/s | 0°C | 0% | 0hPa | 0V | 00:00:00 | 00:00:00 | 00:00:00 | |
| OK1ALN | 2026-09-03 00:47:17 | 47.90125 | 17.09937 | 349° | 5km/h | 22442m | 6.7m/s | 0°C | 0% | 0hPa | 0V | 00:00:00 | 00:00:00 | 00:00:00 | |
| OE5MMP-10 | 2026-09-03 00:47:08 | 47.90111 | 17.09928 | 68° | 5km/h | 22397m | 4.9m/s | 0°C | 0% | 0hPa | 0V | 00:00:00 | 00:00:00 | 00:00:00 | |
| PETON7-10 | 2026-09-03 00:47:07 | 47.90110 | 17.09927 | 28° | 5km/h | 22392m | 5.6m/s | 0°C | 0% | 0hPa | 0V | 00:00:00 | 00:00:00 | 00:00:00 | |
| OE3OSB-13 | 2026-09-03 00:47:02 | 47.90104 | 17.09923 | 66° | 5km/h | 22361m | 6.2m/s | -52.6°C | 8.4% | 40.0hPa | 0V | 00:00:00 | 00:00:00 | 00:00:00 | |
| ATIDSZ-14 | 2026-09-03 00:47:00 | 47.90103 | 17.09921 | 68° | 7km/h | 22356m | 4.3m/s | 0°C | 0% | 0hPa | 0V | 00:00:00 | 00:00:00 | 00:00:00 | |
| OE5DXL-15 | 2026-09-03 00:46:58 | 47.90103 | 17.09917 | 154° | 7km/h | 22347m | 6.2m/s | 0°C | 0% | 0hPa | 0V | 00:00:00 | 00:00:00 | 00:00:00 | |
| OE5MMP-10 | 2026-09-03 00:46:57 | 47.90105 | 17.09917 | 197° | 5km/h | 22341m | 5.0m/s | 0°C | 0% | 0hPa | 0V | 00:00:00 | 00:00:00 | 00:00:00 | |
| OK1ALN | 2026-09-03 00:46:56 | 47.90106 | 17.09919 | 210° | 7km/h | 22336m | 4.1m/s | 0°C | 0% | 0hPa | 0V | 00:00:00 | 00:00:00 | 00:00:00 | |
| OE3JTB-15 | 2026-09-03 00:46:55 | 47.90105 | 17.09920 | 335° | 9km/h | 22317m | 4.8m/s | 0°C | 0% | 0hPa | 0V | 00:00:00 | 00:00:00 | 00:00:00 | |
| OE5MMP-10 | 2026-09-03 00:46:47 | 47.90106 | 17.09928 | 280° | 9km/h | 22292m | 4.1m/s | 0°C | 0% | 0hPa | 0V | 00:00:00 | 00:00:00 | 00:00:00 | |
| ATIDSZ-14 | 2026-09-03 00:46:39 | 47.90103 | 17.09945 | 269° | 11km/h | 22251m | 5.0m/s | 0°C | 0% | 0hPa | 0V | 00:00:00 | 00:00:00 | 00:00:00 | |
| PETON7-10 | 2026-09-03 00:46:36 | 47.90101 | 17.09958 | 306° | 13km/h | 22236m | 4.4m/s | 0°C | 0% | 0hPa | 0V | 00:00:00 | 00:00:00 | 00:00:00 | |
| OK1ALN | 2026-09-03 00:46:35 | 47.90099 | 17.09962 | 309° | 13km/h | 22232m | 4.1m/s | 0°C | 0% | 0hPa | 0V | 00:00:00 | 00:00:00 | 00:00:00 | |
| OE3OSB-13 | 2026-09-03 00:46:31 | 47.90094 | 17.09977 | 321° | 7km/h | 22206m | 4.0m/s | -52.7°C | 8.2% | 41.0hPa | 0V | 00:00:00 | 00:00:00 | 00:00:00 | |
| OE5DXL-15 | 2026-09-03 00:46:28 | 47.90092 | 17.09982 | 251° | 11km/h | 22196m | 6.9m/s | 0°C | 0% | 0hPa | 0V | 00:00:00 | 00:00:00 | 00:00:00 | |
| OE5MMP-10 | 2026-09-03 00:46:27 | 47.90093 | 17.09985 | 245° | 15km/h | 22190m | 4.8m/s | 0°C | 0% | 0hPa | 0V | 00:00:00 | 00:00:00 | 00:00:00 | |
| S52SK | 2026-09-03 00:46:26 | 47.90095 | 17.09990 | 255° | 15km/h | 22186m | 3.6m/s | 0°C | 0% | 0hPa | 0V | 00:00:00 | 00:00:00 | 00:00:00 | |
| OE3JTB-15 | 2026-09-03 00:46:25 | 47.90095 | 17.09995 | 276° | 9km/h | 22181m | 6.0m/s | 0°C | 0% | 0hPa | 0V | 00:00:00 | 00:00:00 | 00:00:00 | |
| PETON7-10 | 2026-09-03 00:46:21 | 47.90091 | 17.10017 | 278° | 9km/h | 22161m | 4.5m/s | 0°C | 0% | 0hPa | 0V | 00:00:00 | 00:00:00 | 00:00:00 | |
| S52SK | 2026-09-03 00:46:20 | 47.90090 | 17.10022 | 290° | 13km/h | 22156m | 5.1m/s | 0°C | 0% | 0hPa | 0V | 00:00:00 | 00:00:00 | 00:00:00 | |
| ATIDSZ-14 | 2026-09-03 00:46:19 | 47.90089 | 17.10027 | 300° | 13km/h | 22151m | 4.8m/s | 0°C | 0% | 0hPa | 0V | 00:00:00 | 00:00:00 | 00:00:00 | |
| OE5MMP-10 | 2026-09-03 00:46:17 | 47.90088 | 17.10033 | 242° | 7km/h | 22143m | 5.3m/s | 0°C | 0% | 0hPa | 0V | 00:00:00 | 00:00:00 | 00:00:00 | |
| OK1ALN | 2026-09-03 00:46:14 | 47.90097 | 17.10041 | 207° | 11km/h | 22127m | 4.4m/s | 0°C | 0% | 0hPa | 0V | 00:00:00 | 00:00:00 | 00:00:00 | |
| OE5MMP-10 | 2026-09-03 00:46:08 | 47.90101 | 17.10051 | 224° | 9km/h | 22093m | 5.5m/s | 0°C | 0% | 0hPa | 0V | 00:00:00 | 00:00:00 | 00:00:00 | |
| PETON7-10 | 2026-09-03 00:46:06 | 47.90102 | 17.10052 | 238° | 9km/h | 22088m | 5.0m/s | 0°C | 0% | 0hPa | 0V | 00:00:00 | 00:00:00 | 00:00:00 | |
| OE3OSB-13 | 2026-09-03 00:46:00 | 47.90118 | 17.10062 | 282° | 4km/h | 22053m | 4.4m/s | -52.8°C | 8.3% | 42.0hPa | 0V | 00:00:00 | 00:00:00 | 00:00:00 | |
| OE5DXL-15 | 2026-09-03 00:45:58 | 47.90118 | 17.10063 | 253° | 11km/h | 22048m | 5.5m/s | 0°C | 0% | 0hPa | 0V | 00:00:00 | 00:00:00 | 00:00:00 | |
| OE5MMP-10 | 2026-09-03 00:45:57 | 47.90118 | 17.10064 | 216° | 9km/h | 22043m | 5.1m/s | 0°C | 0% | 0hPa | 0V | 00:00:00 | 00:00:00 | 00:00:00 | |
| OE3JTB-15 | 2026-09-03 00:45:56 | 47.90120 | 17.10066 | 213° | 13km/h | 22038m | 3.5m/s | 0°C | 0% | 0hPa | 0V | 00:00:00 | 00:00:00 | 00:00:00 | |
| PG1ADW-2 | 2026-09-03 00:45:54 | 47.90122 | 17.10069 | 237° | 11km/h | 22029m | 4.7m/s | 0°C | 0% | 0hPa | 0V | 00:00:00 | 00:00:00 | 00:00:00 | |
| PETON7-10 | 2026-09-03 00:45:51 | 47.90130 | 17.10073 | 184° | 13km/h | 22014m | 5.6m/s | 0°C | 0% | 0hPa | 0V | 00:00:00 | 00:00:00 | 00:00:00 | |
| OE5MMP-10 | 2026-09-03 00:45:47 | 47.90141 | 17.10077 | 261° | 11km/h | 21995m | 3.8m/s | 0°C | 0% | 0hPa | 0V | 00:00:00 | 00:00:00 | 00:00:00 | |
| OE5MMP-10 | 2026-09-03 00:45:37 | 47.90170 | 17.10072 | 164° | 13km/h | 21946m | 4.0m/s | 0°C | 0% | 0hPa | 0V | 00:00:00 | 00:00:00 | 00:00:00 | |
| PETON7-10 | 2026-09-03 00:45:36 | 47.90173 | 17.10071 | 184° | 16km/h | 21940m | 6.5m/s | 0°C | 0% | 0hPa | 0V | 00:00:00 | 00:00:00 | 00:00:00 | |
| OK1ALN | 2026-09-03 00:45:32 | 47.90177 | 17.10076 | 167° | 15km/h | 21921m | 4.9m/s | 0°C | 0% | 0hPa | 0V | 00:00:00 | 00:00:00 | 00:00:00 | |
| OE3OSB-13 | 2026-09-03 00:45:29 | 47.90196 | 17.10057 | 127° | 18km/h | 21901m | 5.3m/s | -53.0°C | 8.0% | 43.0hPa | 0V | 00:00:00 | 00:00:00 | 00:00:00 | |
| OE5DXL-15 | 2026-09-03 00:45:28 | 47.90195 | 17.10057 | 128° | 16km/h | 21901m | 5.3m/s | 0°C | 0% | 0hPa | 0V | 00:00:00 | 00:00:00 | 00:00:00 | |
| OE5MMP-10 | 2026-09-03 00:45:27 | 47.90198 | 17.10051 | 126° | 16km/h | 21897m | 4.1m/s | 0°C | 0% | 0hPa | 0V | 00:00:00 | 00:00:00 | 00:00:00 | |
| PETON7-10 | 2026-09-03 00:45:20 | 47.90214 | 17.10024 | 107° | 16km/h | 21864m | 4.6m/s | 0°C | 0% | 0hPa | 0V | 00:00:00 | 00:00:00 | 00:00:00 | |
| OE5MMP-10 | 2026-09-03 00:45:18 | 47.90224 | 17.10006 | 133° | 18km/h | 21849m | 3.8m/s | 0°C | 0% | 0hPa | 0V | 00:00:00 | 00:00:00 | 00:00:00 | |
| ATIDSZ-14 | 2026-09-03 00:45:16 | 47.90228 | 17.09998 | 125° | 26km/h | 21844m | 5.2m/s | 0°C | 0% | 0hPa | 0V | 00:00:00 | 00:00:00 | 00:00:00 | |
| OK1ALN | 2026-09-03 00:45:12 | 47.90238 | 17.09974 | 153° | 15km/h | 21826m | 5.8m/s | 0°C | 0% | 0hPa | 0V | 00:00:00 | 00:00:00 | 00:00:00 | |
| OE5MMP-10 | 2026-09-03 00:45:08 | 47.90252 | 17.09959 | 105° | 16km/h | 21802m | 3.7m/s | 0°C | 0% | 0hPa | 0V | 00:00:00 | 00:00:00 | 00:00:00 | |
| PETON7-10 | 2026-09-03 00:45:05 | 47.90255 | 17.09950 | 142° | 16km/h | 21792m | 5.6m/s | 0°C | 0% | 0hPa | 0V | 00:00:00 | 00:00:00 | 00:00:00 | |
| OE5DXL-15 | 2026-09-03 00:44:58 | 47.90280 | 17.09921 | 174° | 15km/h | 21758m | 6.0m/s | 0°C | 0% | 0hPa | 0V | 00:00:00 | 00:00:00 | 00:00:00 | |
| OE5MMP-10 | 2026-09-03 00:44:57 | 47.90284 | 17.09920 | 185° | 13km/h | 21753m | 4.2m/s | 0°C | 0% | 0hPa | 0V | 00:00:00 | 00:00:00 | 00:00:00 | |
| ATIDSZ-14 | 2026-09-03 00:44:56 | 47.90290 | 17.09919 | 138° | 11km/h | 21744m | 6.2m/s | 0°C | 0% | 0hPa | 0V | 00:00:00 | 00:00:00 | 00:00:00 | |
| OK1ALN | 2026-09-03 00:44:51 | 47.90297 | 17.09900 | 143° | 15km/h | 21723m | 4.7m/s | 0°C | 0% | 0hPa | 0V | 00:00:00 | 00:00:00 | 00:00:00 | |
| PETON7-10 | 2026-09-03 00:44:50 | 47.90300 | 17.09897 | 150° | 15km/h | 21719m | 4.4m/s | 0°C | 0% | 0hPa | 0V | 00:00:00 | 00:00:00 | 00:00:00 | |
| OE5MMP-10 | 2026-09-03 00:44:46 | 47.90312 | 17.09891 | 188° | 16km/h | 21698m | 6.1m/s | 0°C | 0% | 0hPa | 0V | 00:00:00 | 00:00:00 | 00:00:00 | |
| S52SK | 2026-09-03 00:44:39 | 47.90337 | 17.09860 | 149° | 15km/h | 21662m | 4.7m/s | 0°C | 0% | 0hPa | 0V | 00:00:00 | 00:00:00 | 00:00:00 | |
| OE5MMP-10 | 2026-09-03 00:44:35 | 47.90345 | 17.09856 | 174° | 13km/h | 21642m | 4.3m/s | 0°C | 0% | 0hPa | 0V | 00:00:00 | 00:00:00 | 00:00:00 | |
| S52SK | 2026-09-03 00:44:34 | 47.90348 | 17.09856 | 180° | 13km/h | 21637m | 6.0m/s | 0°C | 0% | 0hPa | 0V | 00:00:00 | 00:00:00 | 00:00:00 | |
| OE3JTB-15 | 2026-09-03 00:44:29 | 47.90358 | 17.09831 | 85° | 11km/h | 21613m | 4.5m/s | 0°C | 0% | 0hPa | 0V | 00:00:00 | 00:00:00 | 00:00:00 | |
| OE5DXL-15 | 2026-09-03 00:44:28 | 47.90358 | 17.09826 | 87° | 9km/h | 21608m | 6.0m/s | 0°C | 0% | 0hPa | 0V | 00:00:00 | 00:00:00 | 00:00:00 | |
| OE3OSB-13 | 2026-09-03 00:44:26 | 47.90358 | 17.09824 | 188° | 2km/h | 21598m | 4.5m/s | -53.3°C | 8.0% | 45.2hPa | 0V | 00:00:00 | 00:00:00 | 00:00:00 | |
| OE5MMP-10 | 2026-09-03 00:44:25 | 47.90359 | 17.09823 | 148° | 13km/h | 21593m | 5.6m/s | 0°C | 0% | 0hPa | 0V | 00:00:00 | 00:00:00 | 00:00:00 | |
| PETON7-10 | 2026-09-03 00:44:20 | 47.90367 | 17.09801 | 129° | 11km/h | 21567m | 4.2m/s | 0°C | 0% | 0hPa | 0V | 00:00:00 | 00:00:00 | 00:00:00 | |
| OE5MMP-10 | 2026-09-03 00:44:15 | 47.90379 | 17.09787 | 195° | 9km/h | 21543m | 5.9m/s | 0°C | 0% | 0hPa | 0V | 00:00:00 | 00:00:00 | 00:00:00 | |
| OE5MMP-10 | 2026-09-03 00:44:05 | 47.90392 | 17.09772 | 157° | 5km/h | 21491m | 5.5m/s | 0°C | 0% | 0hPa | 0V | 00:00:00 | 00:00:00 | 00:00:00 | |
| OE3JTB-15 | 2026-09-03 00:44:00 | 47.90400 | 17.09766 | 120° | 9km/h | 21466m | 5.8m/s | 0°C | 0% | 0hPa | 0V | 00:00:00 | 00:00:00 | 00:00:00 | |
| OE3OSB-13 | 2026-09-03 00:43:56 | 47.90398 | 17.09772 | 216° | 4km/h | 21442m | 4.4m/s | -53.2°C | 8.2% | 46.3hPa | 0V | 00:00:00 | 00:00:00 | 00:00:00 | |
| OE5MMP-10 | 2026-09-03 00:43:55 | 47.90398 | 17.09772 | 217° | 9km/h | 21442m | 4.3m/s | 0°C | 0% | 0hPa | 0V | 00:00:00 | 00:00:00 | 00:00:00 | |
| ATIDSZ-14 | 2026-09-03 00:43:54 | 47.90400 | 17.09772 | 172° | 9km/h | 21437m | 5.2m/s | 0°C | 0% | 0hPa | 0V | 00:00:00 | 00:00:00 | 00:00:00 | |
| PETON7-10 | 2026-09-03 00:43:50 | 47.90408 | 17.09763 | 88° | 7km/h | 21418m | 3.8m/s | 0°C | 0% | 0hPa | 0V | 00:00:00 | 00:00:00 | 00:00:00 | |
| OE5MMP-10 | 2026-09-03 00:43:44 | 47.90421 | 17.09771 | 180° | 11km/h | 21388m | 6.0m/s | 0°C | 0% | 0hPa | 0V | 00:00:00 | 00:00:00 | 00:00:00 | |
| PETON7-10 | 2026-09-03 00:43:35 | 47.90441 | 17.09776 | 198° | 9km/h | 21345m | 5.9m/s | 0°C | 0% | 0hPa | 0V | 00:00:00 | 00:00:00 | 00:00:00 | |
| ATIDSZ-14 | 2026-09-03 00:43:34 | 47.90445 | 17.09778 | 190° | 15km/h | 21340m | 4.0m/s | 0°C | 0% | 0hPa | 0V | 00:00:00 | 00:00:00 | 00:00:00 | |
| OE5MMP-10 | 2026-09-03 00:43:33 | 47.90447 | 17.09778 | 190° | 11km/h | 21335m | 5.2m/s | 0°C | 0% | 0hPa | 0V | 00:00:00 | 00:00:00 | 00:00:00 | |
| OE3JTB-15 | 2026-09-03 00:43:31 | 47.90450 | 17.09778 | 165° | 13km/h | 21325m | 4.7m/s | 0°C | 0% | 0hPa | 0V | 00:00:00 | 00:00:00 | 00:00:00 | |
| OE5DXL-15 | 2026-09-03 00:43:28 | 47.90457 | 17.09777 | 173° | 15km/h | 21309m | 4.3m/s | 0°C | 0% | 0hPa | 0V | 00:00:00 | 00:00:00 | 00:00:00 | |
| OE3OSB-13 | 2026-09-03 00:43:25 | 47.90468 | 17.09773 | 169° | 15km/h | 21288m | 6.3m/s | -52.9°C | 7.8% | 47.5hPa | 0V | 00:00:00 | 00:00:00 | 00:00:00 | |
| OE5MMP-10 | 2026-09-03 00:43:22 | 47.90475 | 17.09771 | 168° | 13km/h | 21280m | 3.8m/s | 0°C | 0% | 0hPa | 0V | 00:00:00 | 00:00:00 | 00:00:00 | |
| PETON7-10 | 2026-09-03 00:43:17 | 47.90483 | 17.09770 | 170° | 16km/h | 21255m | 4.1m/s | 0°C | 0% | 0hPa | 0V | 00:00:00 | 00:00:00 | 00:00:00 | |
| ATIDSZ-14 | 2026-09-03 00:43:14 | 47.90495 | 17.09758 | 129° | 20km/h | 21241m | 5.2m/s | 0°C | 0% | 0hPa | 0V | 00:00:00 | 00:00:00 | 00:00:00 | |
| OE5MMP-10 | 2026-09-03 00:43:12 | 47.90501 | 17.09748 | 150° | 18km/h | 21231m | 5.6m/s | 0°C | 0% | 0hPa | 0V | 00:00:00 | 00:00:00 | 00:00:00 | |
| OE3JTB-15 | 2026-09-03 00:43:02 | 47.90543 | 17.09734 | 144° | 18km/h | 21180m | 4.4m/s | 0°C | 0% | 0hPa | 0V | 00:00:00 | 00:00:00 | 00:00:00 | |
| OE5MMP-10 | 2026-09-03 00:43:01 | 47.90546 | 17.09731 | 158° | 20km/h | 21175m | 4.0m/s | 0°C | 0% | 0hPa | 0V | 00:00:00 | 00:00:00 | 00:00:00 | |
| OE3OSB-13 | 2026-09-03 00:42:53 | 47.90593 | 17.09711 | 158° | 22km/h | 21132m | 3.7m/s | -53.1°C | 7.7% | 48.6hPa | 0V | 00:00:00 | 00:00:00 | 00:00:00 | |
| OE5MMP-10 | 2026-09-03 00:42:49 | 47.90603 | 17.09707 | 197° | 18km/h | 21117m | 4.1m/s | 0°C | 0% | 0hPa | 0V | 00:00:00 | 00:00:00 | 00:00:00 | |
| PETON7-10 | 2026-09-03 00:42:46 | 47.90616 | 17.09710 | 176° | 15km/h | 21103m | 3.8m/s | 0°C | 0% | 0hPa | 0V | 00:00:00 | 00:00:00 | 00:00:00 | |
| OE5MMP-10 | 2026-09-03 00:42:39 | 47.90642 | 17.09685 | 186° | 13km/h | 21068m | 4.3m/s | 0°C | 0% | 0hPa | 0V | 00:00:00 | 00:00:00 | 00:00:00 | |
| OE3JTB-15 | 2026-09-03 00:42:33 | 47.90666 | 17.09673 | 124° | 22km/h | 21029m | 5.9m/s | 0°C | 0% | 0hPa | 0V | 00:00:00 | 00:00:00 | 00:00:00 | |
| OE5MMP-10 | 2026-09-03 00:42:29 | 47.90669 | 17.09666 | 150° | 20km/h | 21019m | 4.3m/s | 0°C | 0% | 0hPa | 0V | 00:00:00 | 00:00:00 | 00:00:00 | |
| OE5DXL-15 | 2026-09-03 00:42:28 | 47.90673 | 17.09664 | 171° | 24km/h | 21014m | 6.2m/s | 0°C | 0% | 0hPa | 0V | 00:00:00 | 00:00:00 | 00:00:00 | |
| S52SK | 2026-09-03 00:42:27 | 47.90677 | 17.09664 | 176° | 22km/h | 21009m | 4.6m/s | 0°C | 0% | 0hPa | 0V | 00:00:00 | 00:00:00 | 00:00:00 | |
| S52SK | 2026-09-03 00:42:22 | 47.90702 | 17.09649 | 151° | 22km/h | 20984m | 5.0m/s | 0°C | 0% | 0hPa | 0V | 00:00:00 | 00:00:00 | 00:00:00 | |
| OE5MMP-10 | 2026-09-03 00:42:20 | 47.90713 | 17.09633 | 120° | 22km/h | 20969m | 5.3m/s | 0°C | 0% | 0hPa | 0V | 00:00:00 | 00:00:00 | 00:00:00 | |
| PETON7-10 | 2026-09-03 00:42:15 | 47.90734 | 17.09614 | 159° | 27km/h | 20944m | 4.9m/s | 0°C | 0% | 0hPa | 0V | 00:00:00 | 00:00:00 | 00:00:00 | |
| ATIDSZ-14 | 2026-09-03 00:42:12 | 47.90742 | 17.09603 | 128° | 24km/h | 20933m | 4.7m/s | 0°C | 0% | 0hPa | 0V | 00:00:00 | 00:00:00 | 00:00:00 | |
| OE5MMP-10 | 2026-09-03 00:42:09 | 47.90755 | 17.09579 | 137° | 27km/h | 20917m | 4.9m/s | 0°C | 0% | 0hPa | 0V | 00:00:00 | 00:00:00 | 00:00:00 | |
| OE3JTB-15 | 2026-09-03 00:42:05 | 47.90777 | 17.09541 | 137° | 29km/h | 20893m | 6.0m/s | 0°C | 0% | 0hPa | 0V | 00:00:00 | 00:00:00 | 00:00:00 | |
| OE5MMP-10 | 2026-09-03 00:41:59 | 47.90799 | 17.09496 | 124° | 27km/h | 20867m | 5.6m/s | 0°C | 0% | 0hPa | 0V | 00:00:00 | 00:00:00 | 00:00:00 | |
| OE5DXL-15 | 2026-09-03 00:41:58 | 47.90804 | 17.09486 | 131° | 27km/h | 20861m | 5.4m/s | 0°C | 0% | 0hPa | 0V | 00:00:00 | 00:00:00 | 00:00:00 | |
| ATIDSZ-14 | 2026-09-03 00:41:51 | 47.90833 | 17.09434 | 128° | 29km/h | 20827m | 3.7m/s | 0°C | 0% | 0hPa | 0V | 00:00:00 | 00:00:00 | 00:00:00 | |
| OE5MMP-10 | 2026-09-03 00:41:49 | 47.90840 | 17.09413 | 105° | 35km/h | 20817m | 5.6m/s | 0°C | 0% | 0hPa | 0V | 00:00:00 | 00:00:00 | 00:00:00 | |
| PETON7-10 | 2026-09-03 00:41:43 | 47.90862 | 17.09337 | 115° | 26km/h | 20787m | 6.4m/s | 0°C | 0% | 0hPa | 0V | 00:00:00 | 00:00:00 | 00:00:00 | |
| OE5MMP-10 | 2026-09-03 00:41:39 | 47.90872 | 17.09302 | 116° | 24km/h | 20767m | 4.0m/s | 0°C | 0% | 0hPa | 0V | 00:00:00 | 00:00:00 | 00:00:00 | |
| OE3JTB-15 | 2026-09-03 00:41:35 | 47.90879 | 17.09256 | 104° | 22km/h | 20745m | 5.3m/s | 0°C | 0% | 0hPa | 0V | 00:00:00 | 00:00:00 | 00:00:00 | |
| ATIDSZ-14 | 2026-09-03 00:41:30 | 47.90887 | 17.09216 | 79° | 16km/h | 20721m | 4.6m/s | 0°C | 0% | 0hPa | 0V | 00:00:00 | 00:00:00 | 00:00:00 | |
| OE5MMP-10 | 2026-09-03 00:41:28 | 47.90887 | 17.09193 | 102° | 24km/h | 20705m | 4.6m/s | 0°C | 0% | 0hPa | 0V | 00:00:00 | 00:00:00 | 00:00:00 | |
| OE3OSB-13 | 2026-09-03 00:41:20 | 47.90883 | 17.09123 | 46° | 20km/h | 20664m | 4.7m/s | -54.3°C | 7.3% | 52.2hPa | 0V | 00:00:00 | 00:00:00 | 00:00:00 | |
| OE5MMP-10 | 2026-09-03 00:41:17 | 47.90876 | 17.09109 | 70° | 20km/h | 20654m | 5.7m/s | 0°C | 0% | 0hPa | 0V | 00:00:00 | 00:00:00 | 00:00:00 | |
| PETON7-10 | 2026-09-03 00:41:13 | 47.90868 | 17.09069 | 70° | 16km/h | 20633m | 4.1m/s | 0°C | 0% | 0hPa | 0V | 00:00:00 | 00:00:00 | 00:00:00 | |
| ATIDSZ-14 | 2026-09-03 00:41:10 | 47.90866 | 17.09049 | 110° | 9km/h | 20619m | 4.0m/s | 0°C | 0% | 0hPa | 0V | 00:00:00 | 00:00:00 | 00:00:00 | |
| OE5MMP-10 | 2026-09-03 00:41:07 | 47.90865 | 17.09039 | 63° | 20km/h | 20604m | 4.4m/s | 0°C | 0% | 0hPa | 0V | 00:00:00 | 00:00:00 | 00:00:00 | |
| OE3JTB-15 | 2026-09-03 00:41:02 | 47.90863 | 17.08985 | 79° | 16km/h | 20571m | 3.6m/s | 0°C | 0% | 0hPa | 0V | 00:00:00 | 00:00:00 | 00:00:00 | |
| OE3OSB-13 | 2026-09-03 00:40:49 | 47.90872 | 17.08914 | 91° | 11km/h | 20513m | 4.4m/s | -54.1°C | 7.1% | 53.5hPa | 0V | 00:00:00 | 00:00:00 | 00:00:00 | |
| OE5MMP-10 | 2026-09-03 00:40:47 | 47.90872 | 17.08909 | 119° | 18km/h | 20508m | 6.1m/s | 0°C | 0% | 0hPa | 0V | 00:00:00 | 00:00:00 | 00:00:00 | |
| PETON7-10 | 2026-09-03 00:40:41 | 47.90885 | 17.08876 | 120° | 22km/h | 20479m | 5.5m/s | 0°C | 0% | 0hPa | 0V | 00:00:00 | 00:00:00 | 00:00:00 | |
| OE5MMP-10 | 2026-09-03 00:40:37 | 47.90893 | 17.08849 | 105° | 24km/h | 20460m | 4.4m/s | 0°C | 0% | 0hPa | 0V | 00:00:00 | 00:00:00 | 00:00:00 | |
| OE3JTB-15 | 2026-09-03 00:40:33 | 47.90910 | 17.08804 | 115° | 29km/h | 20432m | 3.9m/s | 0°C | 0% | 0hPa | 0V | 00:00:00 | 00:00:00 | 00:00:00 | |
| ATIDSZ-14 | 2026-09-03 00:40:29 | 47.90916 | 17.08789 | 132° | 26km/h | 20422m | 4.4m/s | 0°C | 0% | 0hPa | 0V | 00:00:00 | 00:00:00 | 00:00:00 | |
| OE5DXL-15 | 2026-09-03 00:40:28 | 47.90921 | 17.08782 | 130° | 29km/h | 20418m | 3.8m/s | 0°C | 0% | 0hPa | 0V | 00:00:00 | 00:00:00 | 00:00:00 | |
| OE5MMP-10 | 2026-09-03 00:40:27 | 47.90924 | 17.08774 | 120° | 24km/h | 20413m | 5.5m/s | 0°C | 0% | 0hPa | 0V | 00:00:00 | 00:00:00 | 00:00:00 | |
| PETON7-10 | 2026-09-03 00:40:26 | 47.90926 | 17.08767 | 110° | 27km/h | 20408m | 4.5m/s | 0°C | 0% | 0hPa | 0V | 00:00:00 | 00:00:00 | 00:00:00 | |
| S52SK | 2026-09-03 00:40:23 | 47.90933 | 17.08748 | 138° | 20km/h | 20395m | 4.8m/s | 0°C | 0% | 0hPa | 0V | 00:00:00 | 00:00:00 | 00:00:00 | |
| OE3OSB-13 | 2026-09-03 00:40:18 | 47.90951 | 17.08692 | 115° | 35km/h | 20369m | 5.5m/s | -54.6°C | 6.7% | 54.7hPa | 0V | 00:00:00 | 00:00:00 | 00:00:00 | |
| OE5MMP-10 | 2026-09-03 00:40:17 | 47.90951 | 17.08692 | 116° | 31km/h | 20369m | 5.4m/s | 0°C | 0% | 0hPa | 0V | 00:00:00 | 00:00:00 | 00:00:00 | |
| PETON7-10 | 2026-09-03 00:40:11 | 47.90970 | 17.08639 | 103° | 35km/h | 20343m | 5.0m/s | 0°C | 0% | 0hPa | 0V | 00:00:00 | 00:00:00 | 00:00:00 | |
| OE5MMP-10 | 2026-09-03 00:40:07 | 47.90979 | 17.08585 | 99° | 35km/h | 20323m | 4.7m/s | 0°C | 0% | 0hPa | 0V | 00:00:00 | 00:00:00 | 00:00:00 | |
| ATIDSZ-14 | 2026-09-03 00:40:06 | 47.90980 | 17.08571 | 102° | 38km/h | 20319m | 3.7m/s | 0°C | 0% | 0hPa | 0V | 00:00:00 | 00:00:00 | 00:00:00 | |
| OE3JTB-15 | 2026-09-03 00:40:04 | 47.90990 | 17.08512 | 90° | 31km/h | 20295m | 4.0m/s | 0°C | 0% | 0hPa | 0V | 00:00:00 | 00:00:00 | 00:00:00 | |
| OE3OSB-13 | 2026-09-03 00:39:47 | 47.91003 | 17.08329 | 94° | 38km/h | 20226m | 4.7m/s | -54.8°C | 6.8% | 56.0hPa | 0V | 00:00:00 | 00:00:00 | 00:00:00 | |
| ATIDSZ-14 | 2026-09-03 00:39:45 | 47.91004 | 17.08315 | 98° | 37km/h | 20222m | 3.9m/s | 0°C | 0% | 0hPa | 0V | 00:00:00 | 00:00:00 | 00:00:00 | |
| OE5MMP-10 | 2026-09-03 00:39:37 | 47.91009 | 17.08227 | 83° | 24km/h | 20182m | 6.2m/s | 0°C | 0% | 0hPa | 0V | 00:00:00 | 00:00:00 | 00:00:00 | |
| OE3JTB-15 | 2026-09-03 00:39:33 | 47.91013 | 17.08180 | 112° | 18km/h | 20154m | 5.3m/s | 0°C | 0% | 0hPa | 0V | 00:00:00 | 00:00:00 | 00:00:00 | |
| OE5DXL-15 | 2026-09-03 00:39:28 | 47.91013 | 17.08151 | 83° | 16km/h | 20138m | 4.8m/s | 0°C | 0% | 0hPa | 0V | 00:00:00 | 00:00:00 | 00:00:00 | |
| OE5MMP-10 | 2026-09-03 00:39:27 | 47.91013 | 17.08140 | 92° | 20km/h | 20134m | 5.0m/s | 0°C | 0% | 0hPa | 0V | 00:00:00 | 00:00:00 | 00:00:00 | |
| PETON7-10 | 2026-09-03 00:39:26 | 47.91013 | 17.08130 | 101° | 18km/h | 20129m | 5.1m/s | 0°C | 0% | 0hPa | 0V | 00:00:00 | 00:00:00 | 00:00:00 | |
| ATIDSZ-14 | 2026-09-03 00:39:25 | 47.91014 | 17.08122 | 106° | 22km/h | 20124m | 4.2m/s | 0°C | 0% | 0hPa | 0V | 00:00:00 | 00:00:00 | 00:00:00 | |
| OE5MMP-10 | 2026-09-03 00:39:18 | 47.91015 | 17.08082 | 65° | 20km/h | 20083m | 5.1m/s | 0°C | 0% | 0hPa | 0V | 00:00:00 | 00:00:00 | 00:00:00 | |
| OE3OSB-13 | 2026-09-03 00:39:16 | 47.91010 | 17.08062 | 79° | 29km/h | 20075m | 5.0m/s | -54.3°C | 7.2% | 57.3hPa | 0V | 00:00:00 | 00:00:00 | 00:00:00 | |
| PETON7-10 | 2026-09-03 00:39:10 | 47.91019 | 17.08025 | 96° | 11km/h | 20050m | 5.7m/s | 0°C | 0% | 0hPa | 0V | 00:00:00 | 00:00:00 | 00:00:00 | |
| OE5MMP-10 | 2026-09-03 00:39:07 | 47.91017 | 17.08013 | 84° | 11km/h | 20035m | 5.8m/s | 0°C | 0% | 0hPa | 0V | 00:00:00 | 00:00:00 | 00:00:00 | |
| ATIDSZ-14 | 2026-09-03 00:39:04 | 47.91018 | 17.08003 | 95° | 15km/h | 20019m | 6.9m/s | 0°C | 0% | 0hPa | 0V | 00:00:00 | 00:00:00 | 00:00:00 | |
| OE3JTB-15 | 2026-09-03 00:39:03 | 47.91023 | 17.07981 | 142° | 16km/h | 19999m | 4.6m/s | 0°C | 0% | 0hPa | 0V | 00:00:00 | 00:00:00 | 00:00:00 | |
| OE3OSB-13 | 2026-09-03 00:38:45 | 47.91048 | 17.07920 | 98° | 13km/h | 19920m | 5.9m/s | -53.6°C | 7.1% | 58.7hPa | 0V | 00:00:00 | 00:00:00 | 00:00:00 | |
| ATIDSZ-14 | 2026-09-03 00:38:43 | 47.91048 | 17.07914 | 95° | 15km/h | 19914m | 4.4m/s | 0°C | 0% | 0hPa | 0V | 00:00:00 | 00:00:00 | 00:00:00 | |
| OE5MMP-10 | 2026-09-03 00:38:37 | 47.91069 | 17.07880 | 117° | 26km/h | 19885m | 4.0m/s | 0°C | 0% | 0hPa | 0V | 00:00:00 | 00:00:00 | 00:00:00 | |
| OE3JTB-15 | 2026-09-03 00:38:33 | 47.91086 | 17.07819 | 125° | 22km/h | 19849m | 6.6m/s | 0°C | 0% | 0hPa | 0V | 00:00:00 | 00:00:00 | 00:00:00 | |
| S52SK | 2026-09-03 00:38:29 | 47.91091 | 17.07812 | 138° | 27km/h | 19844m | 5.3m/s | 0°C | 0% | 0hPa | 0V | 00:00:00 | 00:00:00 | 00:00:00 | |
| OE5DXL-15 | 2026-09-03 00:38:28 | 47.91096 | 17.07805 | 140° | 22km/h | 19839m | 3.7m/s | 0°C | 0% | 0hPa | 0V | 00:00:00 | 00:00:00 | 00:00:00 | |
| OE5MMP-10 | 2026-09-03 00:38:27 | 47.91100 | 17.07798 | 128° | 24km/h | 19835m | 5.7m/s | 0°C | 0% | 0hPa | 0V | 00:00:00 | 00:00:00 | 00:00:00 | |
| S52SK | 2026-09-03 00:38:24 | 47.91107 | 17.07766 | 108° | 26km/h | 19814m | 6.0m/s | 0°C | 0% | 0hPa | 0V | 00:00:00 | 00:00:00 | 00:00:00 | |
| PETON7-10 | 2026-09-03 00:38:22 | 47.91109 | 17.07757 | 111° | 22km/h | 19808m | 4.5m/s | 0°C | 0% | 0hPa | 0V | 00:00:00 | 00:00:00 | 00:00:00 | |
| OE5MMP-10 | 2026-09-03 00:38:17 | 47.91120 | 17.07718 | 127° | 20km/h | 19784m | 4.8m/s | 0°C | 0% | 0hPa | 0V | 00:00:00 | 00:00:00 | 00:00:00 | |
| PETON7-10 | 2026-09-03 00:38:07 | 47.91137 | 17.07647 | 98° | 18km/h | 19738m | 4.5m/s | 0°C | 0% | 0hPa | 0V | 00:00:00 | 00:00:00 | 00:00:00 | |
| OE5MMP-10 | 2026-09-03 00:38:06 | 47.91138 | 17.07640 | 107° | 18km/h | 19733m | 5.0m/s | 0°C | 0% | 0hPa | 0V | 00:00:00 | 00:00:00 | 00:00:00 | |
| ATIDSZ-14 | 2026-09-03 00:38:02 | 47.91144 | 17.07609 | 87° | 20km/h | 19713m | 4.9m/s | 0°C | 0% | 0hPa | 0V | 00:00:00 | 00:00:00 | 00:00:00 | |
| OE5DXL-15 | 2026-09-03 00:37:58 | 47.91145 | 17.07581 | 105° | 15km/h | 19695m | 3.6m/s | 0°C | 0% | 0hPa | 0V | 00:00:00 | 00:00:00 | 00:00:00 | |
| OE5MMP-10 | 2026-09-03 00:37:55 | 47.91144 | 17.07564 | 72° | 15km/h | 19680m | 4.2m/s | 0°C | 0% | 0hPa | 0V | 00:00:00 | 00:00:00 | 00:00:00 | |
| PETON7-10 | 2026-09-03 00:37:52 | 47.91145 | 17.07547 | 116° | 16km/h | 19665m | 4.0m/s | 0°C | 0% | 0hPa | 0V | 00:00:00 | 00:00:00 | 00:00:00 | |
| OE5MMP-10 | 2026-09-03 00:37:45 | 47.91153 | 17.07510 | 83° | 16km/h | 19633m | 5.2m/s | 0°C | 0% | 0hPa | 0V | 00:00:00 | 00:00:00 | 00:00:00 | |
| ATIDSZ-14 | 2026-09-03 00:37:42 | 47.91154 | 17.07481 | 114° | 16km/h | 19614m | 4.0m/s | 0°C | 0% | 0hPa | 0V | 00:00:00 | 00:00:00 | 00:00:00 | |
| PETON7-10 | 2026-09-03 00:37:37 | 47.91158 | 17.07463 | 121° | 11km/h | 19594m | 5.6m/s | 0°C | 0% | 0hPa | 0V | 00:00:00 | 00:00:00 | 00:00:00 | |
| OE3JTB-15 | 2026-09-03 00:37:33 | 47.91159 | 17.07437 | 129° | 11km/h | 19562m | 4.8m/s | 0°C | 0% | 0hPa | 0V | 00:00:00 | 00:00:00 | 00:00:00 | |
| OE5DXL-15 | 2026-09-03 00:37:28 | 47.91164 | 17.07426 | 112° | 11km/h | 19554m | 5.1m/s | 0°C | 0% | 0hPa | 0V | 00:00:00 | 00:00:00 | 00:00:00 | |
| OE5MMP-10 | 2026-09-03 00:37:25 | 47.91163 | 17.07410 | 75° | 11km/h | 19540m | 4.6m/s | 0°C | 0% | 0hPa | 0V | 00:00:00 | 00:00:00 | 00:00:00 | |
| PETON7-10 | 2026-09-03 00:37:21 | 47.91168 | 17.07398 | 112° | 11km/h | 19518m | 6.0m/s | 0°C | 0% | 0hPa | 0V | 00:00:00 | 00:00:00 | 00:00:00 | |
| OE5MMP-10 | 2026-09-03 00:37:15 | 47.91164 | 17.07374 | 99° | 11km/h | 19491m | 4.8m/s | 0°C | 0% | 0hPa | 0V | 00:00:00 | 00:00:00 | 00:00:00 | |
| OE3OSB-13 | 2026-09-03 00:37:12 | 47.91162 | 17.07362 | 20° | 7km/h | 19472m | 5.8m/s | -53.2°C | 7.3% | 63.1hPa | 0V | 00:00:00 | 00:00:00 | 00:00:00 | |
| PETON7-10 | 2026-09-03 00:37:06 | 47.91156 | 17.07346 | 120° | 13km/h | 19447m | 6.1m/s | 0°C | 0% | 0hPa | 0V | 00:00:00 | 00:00:00 | 00:00:00 | |
| OE5MMP-10 | 2026-09-03 00:37:03 | 47.91163 | 17.07343 | 163° | 13km/h | 19432m | 5.6m/s | 0°C | 0% | 0hPa | 0V | 00:00:00 | 00:00:00 | 00:00:00 | |
| ATIDSZ-14 | 2026-09-03 00:37:01 | 47.91162 | 17.07339 | 31° | 11km/h | 19421m | 4.7m/s | 0°C | 0% | 0hPa | 0V | 00:00:00 | 00:00:00 | 00:00:00 | |
| OE3JTB-15 | 2026-09-03 00:37:00 | 47.91153 | 17.07338 | 348° | 13km/h | 19406m | 4.7m/s | 0°C | 0% | 0hPa | 0V | 00:00:00 | 00:00:00 | 00:00:00 | |
| OE5DXL-15 | 2026-09-03 00:36:58 | 47.91153 | 17.07338 | 348° | 15km/h | 19406m | 4.7m/s | 0°C | 0% | 0hPa | 0V | 00:00:00 | 00:00:00 | 00:00:00 | |
| OE5MMP-10 | 2026-09-03 00:36:53 | 47.91155 | 17.07316 | 119° | 13km/h | 19381m | 3.5m/s | 0°C | 0% | 0hPa | 0V | 00:00:00 | 00:00:00 | 00:00:00 | |
| PETON7-10 | 2026-09-03 00:36:51 | 47.91159 | 17.07311 | 204° | 15km/h | 19371m | 5.5m/s | 0°C | 0% | 0hPa | 0V | 00:00:00 | 00:00:00 | 00:00:00 | |
| OE5MMP-10 | 2026-09-03 00:36:42 | 47.91142 | 17.07303 | 121° | 13km/h | 19320m | 6.5m/s | 0°C | 0% | 0hPa | 0V | 00:00:00 | 00:00:00 | 00:00:00 | |
| ATIDSZ-14 | 2026-09-03 00:36:40 | 47.91145 | 17.07291 | 105° | 22km/h | 19307m | 6.0m/s | 0°C | 0% | 0hPa | 0V | 00:00:00 | 00:00:00 | 00:00:00 | |
| PETON7-10 | 2026-09-03 00:36:36 | 47.91148 | 17.07268 | 64° | 15km/h | 19287m | 4.0m/s | 0°C | 0% | 0hPa | 0V | 00:00:00 | 00:00:00 | 00:00:00 | |
| OE5MMP-10 | 2026-09-03 00:36:32 | 47.91141 | 17.07247 | 75° | 15km/h | 19264m | 5.1m/s | 0°C | 0% | 0hPa | 0V | 00:00:00 | 00:00:00 | 00:00:00 | |
| S52SK | 2026-09-03 00:36:30 | 47.91140 | 17.07241 | 80° | 16km/h | 19260m | 3.8m/s | 0°C | 0% | 0hPa | 0V | 00:00:00 | 00:00:00 | 00:00:00 | |
| OE5DXL-15 | 2026-09-03 00:36:28 | 47.91138 | 17.07226 | 80° | 22km/h | 19250m | 4.1m/s | 0°C | 0% | 0hPa | 0V | 00:00:00 | 00:00:00 | 00:00:00 | |
| S52SK | 2026-09-03 00:36:24 | 47.91134 | 17.07206 | 77° | 9km/h | 19231m | 4.2m/s | 0°C | 0% | 0hPa | 0V | 00:00:00 | 00:00:00 | 00:00:00 | |
| OE5MMP-10 | 2026-09-03 00:36:21 | 47.91132 | 17.07189 | 78° | 16km/h | 19218m | 4.0m/s | 0°C | 0% | 0hPa | 0V | 00:00:00 | 00:00:00 | 00:00:00 | |
| ATIDSZ-14 | 2026-09-03 00:36:19 | 47.91130 | 17.07175 | 91° | 16km/h | 19209m | 4.4m/s | 0°C | 0% | 0hPa | 0V | 00:00:00 | 00:00:00 | 00:00:00 | |
| OE5MMP-10 | 2026-09-03 00:36:11 | 47.91129 | 17.07123 | 70° | 29km/h | 19173m | 5.1m/s | 0°C | 0% | 0hPa | 0V | 00:00:00 | 00:00:00 | 00:00:00 | |
| OE3OSB-13 | 2026-09-03 00:36:10 | 47.91129 | 17.07091 | 105° | 29km/h | 19157m | 6.1m/s | -52.4°C | 7.4% | 66.2hPa | 0V | 00:00:00 | 00:00:00 | 00:00:00 | |
| PETON7-10 | 2026-09-03 00:36:06 | 47.91134 | 17.07069 | 104° | 31km/h | 19149m | 3.9m/s | 0°C | 0% | 0hPa | 0V | 00:00:00 | 00:00:00 | 00:00:00 | |
| OE3JTB-15 | 2026-09-03 00:36:02 | 47.91133 | 17.07023 | 81° | 35km/h | 19131m | 5.6m/s | 0°C | 0% | 0hPa | 0V | 00:00:00 | 00:00:00 | 00:00:00 | |
| OE5MMP-10 | 2026-09-03 00:36:01 | 47.91132 | 17.07015 | 93° | 31km/h | 19126m | 4.2m/s | 0°C | 0% | 0hPa | 0V | 00:00:00 | 00:00:00 | 00:00:00 | |
| OE5DXL-15 | 2026-09-03 00:35:58 | 47.91137 | 17.06985 | 105° | 38km/h | 19113m | 4.5m/s | 0°C | 0% | 0hPa | 0V | 00:00:00 | 00:00:00 | 00:00:00 | |
| PETON7-10 | 2026-09-03 00:35:51 | 47.91154 | 17.06900 | 100° | 35km/h | 19083m | 3.5m/s | 0°C | 0% | 0hPa | 0V | 00:00:00 | 00:00:00 | 00:00:00 | |
| OE5MMP-10 | 2026-09-03 00:35:41 | 47.91199 | 17.06780 | 120° | 44km/h | 19038m | 5.1m/s | 0°C | 0% | 0hPa | 0V | 00:00:00 | 00:00:00 | 00:00:00 | |
| PETON7-10 | 2026-09-03 00:35:36 | 47.91223 | 17.06726 | 131° | 46km/h | 19016m | 3.3m/s | 0°C | 0% | 0hPa | 0V | 00:00:00 | 00:00:00 | 00:00:00 | |
| OE3JTB-15 | 2026-09-03 00:35:33 | 47.91241 | 17.06681 | 115° | 46km/h | 19004m | 3.5m/s | 0°C | 0% | 0hPa | 0V | 00:00:00 | 00:00:00 | 00:00:00 | |
| OE5MMP-10 | 2026-09-03 00:35:29 | 47.91265 | 17.06619 | 120° | 46km/h | 18986m | 5.2m/s | 0°C | 0% | 0hPa | 0V | 00:00:00 | 00:00:00 | 00:00:00 | |
| OE5DXL-15 | 2026-09-03 00:35:28 | 47.91270 | 17.06604 | 113° | 44km/h | 18981m | 4.7m/s | 0°C | 0% | 0hPa | 0V | 00:00:00 | 00:00:00 | 00:00:00 | |
| PETON7-10 | 2026-09-03 00:35:21 | 47.91301 | 17.06492 | 109° | 44km/h | 18952m | 3.2m/s | 0°C | 0% | 0hPa | 0V | 00:00:00 | 00:00:00 | 00:00:00 | |
| OE5MMP-10 | 2026-09-03 00:35:19 | 47.91310 | 17.06459 | 117° | 44km/h | 18943m | 4.3m/s | 0°C | 0% | 0hPa | 0V | 00:00:00 | 00:00:00 | 00:00:00 | |
| ATIDSZ-14 | 2026-09-03 00:35:17 | 47.91319 | 17.06431 | 114° | 40km/h | 18934m | 5.2m/s | 0°C | 0% | 0hPa | 0V | 00:00:00 | 00:00:00 | 00:00:00 | |
| OE5MMP-10 | 2026-09-03 00:35:09 | 47.91349 | 17.06305 | 104° | 42km/h | 18900m | 4.2m/s | 0°C | 0% | 0hPa | 0V | 00:00:00 | 00:00:00 | 00:00:00 | |
| OE3OSB-13 | 2026-09-03 00:35:07 | 47.91361 | 17.06260 | 113° | 38km/h | 18885m | 4.2m/s | -53.6°C | 7.1% | 69.1hPa | 0V | 00:00:00 | 00:00:00 | 00:00:00 | |
| PETON7-10 | 2026-09-03 00:35:06 | 47.91361 | 17.06260 | 114° | 42km/h | 18885m | 4.1m/s | 0°C | 0% | 0hPa | 0V | 00:00:00 | 00:00:00 | 00:00:00 | |
| OE3JTB-15 | 2026-09-03 00:35:04 | 47.91374 | 17.06201 | 110° | 42km/h | 18867m | 4.5m/s | 0°C | 0% | 0hPa | 0V | 00:00:00 | 00:00:00 | 00:00:00 | |
| OE5MMP-10 | 2026-09-03 00:34:58 | 47.91386 | 17.06140 | 106° | 42km/h | 18850m | 3.6m/s | 0°C | 0% | 0hPa | 0V | 00:00:00 | 00:00:00 | 00:00:00 | |
| ATIDSZ-14 | 2026-09-03 00:34:56 | 47.91394 | 17.06110 | 122° | 44km/h | 18842m | 3.7m/s | 0°C | 0% | 0hPa | 0V | 00:00:00 | 00:00:00 | 00:00:00 | |
| PETON7-10 | 2026-09-03 00:34:51 | 47.91414 | 17.06035 | 105° | 40km/h | 18820m | 5.3m/s | 0°C | 0% | 0hPa | 0V | 00:00:00 | 00:00:00 | 00:00:00 | |
| OE5MMP-10 | 2026-09-03 00:34:48 | 47.91424 | 17.05994 | 111° | 42km/h | 18807m | 5.1m/s | 0°C | 0% | 0hPa | 0V | 00:00:00 | 00:00:00 | 00:00:00 | |
| OE5MMP-10 | 2026-09-03 00:34:37 | 47.91452 | 17.05829 | 102° | 42km/h | 18759m | 3.1m/s | 0°C | 0% | 0hPa | 0V | 00:00:00 | 00:00:00 | 00:00:00 | |
| PETON7-10 | 2026-09-03 00:34:36 | 47.91454 | 17.05815 | 105° | 44km/h | 18755m | 5.1m/s | 0°C | 0% | 0hPa | 0V | 00:00:00 | 00:00:00 | 00:00:00 | |
| ATIDSZ-14 | 2026-09-03 00:34:35 | 47.91457 | 17.05798 | 106° | 47km/h | 18750m | 4.4m/s | 0°C | 0% | 0hPa | 0V | 00:00:00 | 00:00:00 | 00:00:00 | |
| OE3JTB-15 | 2026-09-03 00:34:34 | 47.91462 | 17.05763 | 100° | 38km/h | 18742m | 4.3m/s | 0°C | 0% | 0hPa | 0V | 00:00:00 | 00:00:00 | 00:00:00 | |
| S52SK | 2026-09-03 00:34:30 | 47.91468 | 17.05717 | 110° | 38km/h | 18729m | 4.3m/s | 0°C | 0% | 0hPa | 0V | 00:00:00 | 00:00:00 | 00:00:00 | |
| OE5DXL-15 | 2026-09-03 00:34:27 | 47.91476 | 17.05672 | 98° | 38km/h | 18717m | 4.8m/s | 0°C | 0% | 0hPa | 0V | 00:00:00 | 00:00:00 | 00:00:00 | |
| PETON7-10 | 2026-09-03 00:34:21 | 47.91482 | 17.05570 | 109° | 38km/h | 18689m | 4.1m/s | 0°C | 0% | 0hPa | 0V | 00:00:00 | 00:00:00 | 00:00:00 | |
| OE5MMP-10 | 2026-09-03 00:34:17 | 47.91481 | 17.05514 | 84° | 37km/h | 18671m | 4.1m/s | 0°C | 0% | 0hPa | 0V | 00:00:00 | 00:00:00 | 00:00:00 | |
| ATIDSZ-14 | 2026-09-03 00:34:15 | 47.91481 | 17.05482 | 100° | 40km/h | 18663m | 4.3m/s | 0°C | 0% | 0hPa | 0V | 00:00:00 | 00:00:00 | 00:00:00 | |
| OE5MMP-10 | 2026-09-03 00:34:08 | 47.91488 | 17.05382 | 96° | 35km/h | 18624m | 5.6m/s | 0°C | 0% | 0hPa | 0V | 00:00:00 | 00:00:00 | 00:00:00 | |
| PETON7-10 | 2026-09-03 00:34:06 | 47.91490 | 17.05367 | 106° | 33km/h | 18619m | 4.5m/s | 0°C | 0% | 0hPa | 0V | 00:00:00 | 00:00:00 | 00:00:00 | |
| OE3OSB-13 | 2026-09-03 00:34:05 | 47.91497 | 17.05341 | 113° | 35km/h | 18610m | 5.2m/s | -54.1°C | 6.8% | 72.2hPa | 0V | 00:00:00 | 00:00:00 | 00:00:00 | |
| OE3JTB-15 | 2026-09-03 00:33:59 | 47.91509 | 17.05292 | 94° | 33km/h | 18587m | 6.2m/s | 0°C | 0% | 0hPa | 0V | 00:00:00 | 00:00:00 | 00:00:00 | |
| OE5MMP-10 | 2026-09-03 00:33:57 | 47.91509 | 17.05262 | 90° | 35km/h | 18576m | 5.5m/s | 0°C | 0% | 0hPa | 0V | 00:00:00 | 00:00:00 | 00:00:00 | |
| ATIDSZ-14 | 2026-09-03 00:33:55 | 47.91510 | 17.05231 | 96° | 37km/h | 18566m | 3.7m/s | 0°C | 0% | 0hPa | 0V | 00:00:00 | 00:00:00 | 00:00:00 | |
| OE5MMP-10 | 2026-09-03 00:33:47 | 47.91533 | 17.05150 | 115° | 33km/h | 18529m | 4.8m/s | 0°C | 0% | 0hPa | 0V | 00:00:00 | 00:00:00 | 00:00:00 | |
| OE5MMP-10 | 2026-09-03 00:33:37 | 47.91560 | 17.05039 | 119° | 37km/h | 18479m | 4.9m/s | 0°C | 0% | 0hPa | 0V | 00:00:00 | 00:00:00 | 00:00:00 | |
| PETON7-10 | 2026-09-03 00:33:36 | 47.91566 | 17.05024 | 116° | 37km/h | 18474m | 4.7m/s | 0°C | 0% | 0hPa | 0V | 00:00:00 | 00:00:00 | 00:00:00 | |
| ATIDSZ-14 | 2026-09-03 00:33:35 | 47.91570 | 17.05010 | 114° | 38km/h | 18469m | 4.8m/s | 0°C | 0% | 0hPa | 0V | 00:00:00 | 00:00:00 | 00:00:00 | |
| OE3OSB-13 | 2026-09-03 00:33:34 | 47.91577 | 17.04985 | 111° | 33km/h | 18459m | 6.2m/s | -54.4°C | 7.5% | 73.8hPa | 0V | 00:00:00 | 00:00:00 | 00:00:00 | |
| OE5DXL-15 | 2026-09-03 00:33:27 | 47.91601 | 17.04921 | 110° | 35km/h | 18428m | 6.4m/s | 0°C | 0% | 0hPa | 0V | 00:00:00 | 00:00:00 | 00:00:00 | |
| OE3JTB-15 | 2026-09-03 00:33:26 | 47.91605 | 17.04905 | 105° | 37km/h | 18422m | 5.1m/s | 0°C | 0% | 0hPa | 0V | 00:00:00 | 00:00:00 | 00:00:00 | |
| PETON7-10 | 2026-09-03 00:33:21 | 47.91622 | 17.04835 | 113° | 31km/h | 18397m | 6.2m/s | 0°C | 0% | 0hPa | 0V | 00:00:00 | 00:00:00 | 00:00:00 | |
| OE5MMP-10 | 2026-09-03 00:33:17 | 47.91636 | 17.04786 | 113° | 31km/h | 18375m | 5.0m/s | 0°C | 0% | 0hPa | 0V | 00:00:00 | 00:00:00 | 00:00:00 | |
| ATIDSZ-14 | 2026-09-03 00:33:14 | 47.91640 | 17.04746 | 83° | 35km/h | 18358m | 3.8m/s | 0°C | 0% | 0hPa | 0V | 00:00:00 | 00:00:00 | 00:00:00 | |
| OE5MMP-10 | 2026-09-03 00:33:07 | 47.91648 | 17.04673 | 104° | 35km/h | 18324m | 4.6m/s | 0°C | 0% | 0hPa | 0V | 00:00:00 | 00:00:00 | 00:00:00 | |
| PETON7-10 | 2026-09-03 00:33:06 | 47.91650 | 17.04661 | 101° | 35km/h | 18318m | 6.0m/s | 0°C | 0% | 0hPa | 0V | 00:00:00 | 00:00:00 | 00:00:00 | |
| OE3OSB-13 | 2026-09-03 00:33:03 | 47.91655 | 17.04611 | 98° | 37km/h | 18298m | 4.6m/s | -54.2°C | 7.8% | 75.8hPa | 0V | 00:00:00 | 00:00:00 | 00:00:00 | |
| OE5DXL-15 | 2026-09-03 00:32:57 | 47.91665 | 17.04537 | 112° | 35km/h | 18265m | 6.6m/s | 0°C | 0% | 0hPa | 0V | 00:00:00 | 00:00:00 | 00:00:00 | |
| OE5MMP-10 | 2026-09-03 00:32:56 | 47.91665 | 17.04537 | 112° | 37km/h | 18265m | 6.6m/s | 0°C | 0% | 0hPa | 0V | 00:00:00 | 00:00:00 | 00:00:00 | |
| ATIDSZ-14 | 2026-09-03 00:32:54 | 47.91675 | 17.04502 | 114° | 40km/h | 18248m | 5.9m/s | 0°C | 0% | 0hPa | 0V | 00:00:00 | 00:00:00 | 00:00:00 | |
| PETON7-10 | 2026-09-03 00:32:51 | 47.91681 | 17.04472 | 100° | 37km/h | 18238m | 5.6m/s | 0°C | 0% | 0hPa | 0V | 00:00:00 | 00:00:00 | 00:00:00 | |
| OE5MMP-10 | 2026-09-03 00:32:46 | 47.91683 | 17.04402 | 99° | 37km/h | 18211m | 4.3m/s | 0°C | 0% | 0hPa | 0V | 00:00:00 | 00:00:00 | 00:00:00 | |
| OE3JTB-15 | 2026-09-03 00:32:40 | 47.91693 | 17.04312 | 86° | 33km/h | 18173m | 5.9m/s | 0°C | 0% | 0hPa | 0V | 00:00:00 | 00:00:00 | 00:00:00 | |
| S52SK | 2026-09-03 00:32:39 | 47.91693 | 17.04312 | 87° | 38km/h | 18173m | 5.9m/s | 0°C | 0% | 0hPa | 0V | 00:00:00 | 00:00:00 | 00:00:00 | |
| PETON7-10 | 2026-09-03 00:32:36 | 47.91688 | 17.04269 | 80° | 33km/h | 18159m | 5.3m/s | 0°C | 0% | 0hPa | 0V | 00:00:00 | 00:00:00 | 00:00:00 | |
| S52SK | 2026-09-03 00:32:34 | 47.91686 | 17.04242 | 89° | 31km/h | 18150m | 6.5m/s | 0°C | 0% | 0hPa | 0V | 00:00:00 | 00:00:00 | 00:00:00 | |
| ATIDSZ-14 | 2026-09-03 00:32:33 | 47.91686 | 17.04231 | 98° | 26km/h | 18144m | 5.4m/s | 0°C | 0% | 0hPa | 0V | 00:00:00 | 00:00:00 | 00:00:00 | |
| OE3OSB-13 | 2026-09-03 00:32:32 | 47.91688 | 17.04213 | 100° | 27km/h | 18135m | 5.2m/s | -54.1°C | 8.1% | 77.8hPa | 0V | 00:00:00 | 00:00:00 | 00:00:00 | |
| OE5DXL-15 | 2026-09-03 00:32:26 | 47.91685 | 17.04144 | 78° | 27km/h | 18110m | 5.1m/s | 0°C | 0% | 0hPa | 0V | 00:00:00 | 00:00:00 | 00:00:00 | |
| OE5MMP-10 | 2026-09-03 00:32:25 | 47.91683 | 17.04134 | 73° | 27km/h | 18105m | 4.4m/s | 0°C | 0% | 0hPa | 0V | 00:00:00 | 00:00:00 | 00:00:00 | |
| PETON7-10 | 2026-09-03 00:32:21 | 47.91679 | 17.04094 | 88° | 27km/h | 18086m | 5.0m/s | 0°C | 0% | 0hPa | 0V | 00:00:00 | 00:00:00 | 00:00:00 | |
| OE5MMP-10 | 2026-09-03 00:32:15 | 47.91673 | 17.04032 | 70° | 27km/h | 18055m | 5.7m/s | 0°C | 0% | 0hPa | 0V | 00:00:00 | 00:00:00 | 00:00:00 | |
| ATIDSZ-14 | 2026-09-03 00:32:12 | 47.91664 | 17.04003 | 68° | 31km/h | 18041m | 6.2m/s | 0°C | 0% | 0hPa | 0V | 00:00:00 | 00:00:00 | 00:00:00 | |
| PETON7-10 | 2026-09-03 00:32:06 | 47.91654 | 17.03946 | 82° | 29km/h | 18010m | 5.6m/s | 0°C | 0% | 0hPa | 0V | 00:00:00 | 00:00:00 | 00:00:00 | |
| OE5MMP-10 | 2026-09-03 00:32:05 | 47.91652 | 17.03934 | 80° | 31km/h | 18005m | 4.0m/s | 0°C | 0% | 0hPa | 0V | 00:00:00 | 00:00:00 | 00:00:00 | |
| OE3OSB-13 | 2026-09-03 00:32:01 | 47.91640 | 17.03884 | 71° | 31km/h | 17981m | 5.1m/s | -53.9°C | 8.2% | 79.6hPa | 0V | 00:00:00 | 00:00:00 | 00:00:00 | |
| OE5DXL-15 | 2026-09-03 00:31:55 | 47.91639 | 17.03828 | 94° | 31km/h | 17956m | 6.1m/s | 0°C | 0% | 0hPa | 0V | 00:00:00 | 00:00:00 | 00:00:00 | |
| OE5MMP-10 | 2026-09-03 00:31:54 | 47.91639 | 17.03816 | 92° | 33km/h | 17951m | 5.1m/s | 0°C | 0% | 0hPa | 0V | 00:00:00 | 00:00:00 | 00:00:00 | |
| ATIDSZ-14 | 2026-09-03 00:31:52 | 47.91639 | 17.03790 | 88° | 33km/h | 17941m | 6.0m/s | 0°C | 0% | 0hPa | 0V | 00:00:00 | 00:00:00 | 00:00:00 | |
| PETON7-10 | 2026-09-03 00:31:50 | 47.91637 | 17.03770 | 77° | 29km/h | 17930m | 4.0m/s | 0°C | 0% | 0hPa | 0V | 00:00:00 | 00:00:00 | 00:00:00 | |
| OE5MMP-10 | 2026-09-03 00:31:44 | 47.91637 | 17.03697 | 104° | 29km/h | 17903m | 5.3m/s | 0°C | 0% | 0hPa | 0V | 00:00:00 | 00:00:00 | 00:00:00 | |
| PETON7-10 | 2026-09-03 00:31:35 | 47.91648 | 17.03600 | 90° | 29km/h | 17859m | 3.8m/s | 0°C | 0% | 0hPa | 0V | 00:00:00 | 00:00:00 | 00:00:00 | |
| ATIDSZ-14 | 2026-09-03 00:31:32 | 47.91650 | 17.03568 | 108° | 26km/h | 17844m | 4.9m/s | 0°C | 0% | 0hPa | 0V | 00:00:00 | 00:00:00 | 00:00:00 | |
| OE3OSB-13 | 2026-09-03 00:31:30 | 47.91655 | 17.03535 | 96° | 29km/h | 17830m | 4.4m/s | -53.7°C | 8.2% | 81.6hPa | 0V | 00:00:00 | 00:00:00 | 00:00:00 | |
| OE5DXL-15 | 2026-09-03 00:31:25 | 47.91658 | 17.03491 | 94° | 33km/h | 17811m | 4.7m/s | 0°C | 0% | 0hPa | 0V | 00:00:00 | 00:00:00 | 00:00:00 | |
| OE5MMP-10 | 2026-09-03 00:31:24 | 47.91658 | 17.03476 | 96° | 29km/h | 17807m | 3.5m/s | 0°C | 0% | 0hPa | 0V | 00:00:00 | 00:00:00 | 00:00:00 | |
| PETON7-10 | 2026-09-03 00:31:20 | 47.91663 | 17.03429 | 94° | 31km/h | 17788m | 5.4m/s | 0°C | 0% | 0hPa | 0V | 00:00:00 | 00:00:00 | 00:00:00 | |
| OE5MMP-10 | 2026-09-03 00:31:14 | 47.91662 | 17.03364 | 97° | 33km/h | 17761m | 5.4m/s | 0°C | 0% | 0hPa | 0V | 00:00:00 | 00:00:00 | 00:00:00 | |
| ATIDSZ-14 | 2026-09-03 00:31:13 | 47.91664 | 17.03338 | 103° | 35km/h | 17752m | 4.7m/s | 0°C | 0% | 0hPa | 0V | 00:00:00 | 00:00:00 | 00:00:00 | |
| PETON7-10 | 2026-09-03 00:31:05 | 47.91678 | 17.03256 | 98° | 33km/h | 17721m | 5.3m/s | 0°C | 0% | 0hPa | 0V | 00:00:00 | 00:00:00 | 00:00:00 | |
| OE5MMP-10 | 2026-09-03 00:31:04 | 47.91679 | 17.03245 | 98° | 33km/h | 17716m | 4.8m/s | 0°C | 0% | 0hPa | 0V | 00:00:00 | 00:00:00 | 00:00:00 | |
| OE3JTB-15 | 2026-09-03 00:31:01 | 47.91683 | 17.03209 | 104° | 37km/h | 17702m | 4.1m/s | 0°C | 0% | 0hPa | 0V | 00:00:00 | 00:00:00 | 00:00:00 | |
| OE3OSB-13 | 2026-09-03 00:30:59 | 47.91691 | 17.03174 | 109° | 33km/h | 17689m | 3.8m/s | -53.4°C | 8.2% | 83.4hPa | 0V | 00:00:00 | 00:00:00 | 00:00:00 | |
| OE5DXL-15 | 2026-09-03 00:30:55 | 47.91700 | 17.03134 | 106° | 31km/h | 17678m | 2.8m/s | 0°C | 0% | 0hPa | 0V | 00:00:00 | 00:00:00 | 00:00:00 | |
| OE5MMP-10 | 2026-09-03 00:30:54 | 47.91702 | 17.03123 | 104° | 35km/h | 17673m | 5.9m/s | 0°C | 0% | 0hPa | 0V | 00:00:00 | 00:00:00 | 00:00:00 | |
| ATIDSZ-14 | 2026-09-03 00:30:52 | 47.91705 | 17.03103 | 106° | 27km/h | 17664m | 4.2m/s | 0°C | 0% | 0hPa | 0V | 00:00:00 | 00:00:00 | 00:00:00 | |
| PETON7-10 | 2026-09-03 00:30:50 | 47.91709 | 17.03080 | 109° | 33km/h | 17656m | 3.5m/s | 0°C | 0% | 0hPa | 0V | 00:00:00 | 00:00:00 | 00:00:00 | |
| S52SK | 2026-09-03 00:30:36 | 47.91734 | 17.02909 | 112° | 33km/h | 17598m | 4.3m/s | 0°C | 0% | 0hPa | 0V | 00:00:00 | 00:00:00 | 00:00:00 | |
| PETON7-10 | 2026-09-03 00:30:34 | 47.91738 | 17.02887 | 104° | 37km/h | 17590m | 4.4m/s | 0°C | 0% | 0hPa | 0V | 00:00:00 | 00:00:00 | 00:00:00 | |
| OE5MMP-10 | 2026-09-03 00:30:33 | 47.91740 | 17.02875 | 101° | 31km/h | 17586m | 3.7m/s | 0°C | 0% | 0hPa | 0V | 00:00:00 | 00:00:00 | 00:00:00 | |
| ATIDSZ-14 | 2026-09-03 00:30:31 | 47.91743 | 17.02852 | 111° | 29km/h | 17578m | 5.3m/s | 0°C | 0% | 0hPa | 0V | 00:00:00 | 00:00:00 | 00:00:00 | |
| OE3OSB-13 | 2026-09-03 00:30:28 | 47.91753 | 17.02814 | 105° | 27km/h | 17562m | 3.5m/s | -53.6°C | 8.5% | 85.0hPa | 0V | 00:00:00 | 00:00:00 | 00:00:00 | |
| OE3JTB-15 | 2026-09-03 00:30:27 | 47.91753 | 17.02814 | 106° | 33km/h | 17562m | 3.5m/s | 0°C | 0% | 0hPa | 0V | 00:00:00 | 00:00:00 | 00:00:00 | |
| OE5DXL-15 | 2026-09-03 00:30:25 | 47.91759 | 17.02792 | 119° | 35km/h | 17552m | 4.1m/s | 0°C | 0% | 0hPa | 0V | 00:00:00 | 00:00:00 | 00:00:00 | |
| OE5MMP-10 | 2026-09-03 00:30:23 | 47.91768 | 17.02766 | 114° | 33km/h | 17544m | 3.7m/s | 0°C | 0% | 0hPa | 0V | 00:00:00 | 00:00:00 | 00:00:00 | |
| PETON7-10 | 2026-09-03 00:30:20 | 47.91785 | 17.02717 | 119° | 33km/h | 17528m | 3.6m/s | 0°C | 0% | 0hPa | 0V | 00:00:00 | 00:00:00 | 00:00:00 | |
| OE5MMP-10 | 2026-09-03 00:30:12 | 47.91809 | 17.02646 | 119° | 35km/h | 17500m | 3.9m/s | 0°C | 0% | 0hPa | 0V | 00:00:00 | 00:00:00 | 00:00:00 | |
| ATIDSZ-14 | 2026-09-03 00:30:10 | 47.91816 | 17.02621 | 111° | 33km/h | 17492m | 3.3m/s | 0°C | 0% | 0hPa | 0V | 00:00:00 | 00:00:00 | 00:00:00 | |
| PETON7-10 | 2026-09-03 00:30:04 | 47.91840 | 17.02554 | 111° | 40km/h | 17468m | 2.9m/s | 0°C | 0% | 0hPa | 0V | 00:00:00 | 00:00:00 | 00:00:00 | |
| OE3OSB-13 | 2026-09-03 00:29:57 | 47.91866 | 17.02452 | 109° | 33km/h | 17435m | 4.0m/s | -53.5°C | 8.9% | 86.7hPa | 0V | 00:00:00 | 00:00:00 | 00:00:00 | |
| OE5DXL-15 | 2026-09-03 00:29:55 | 47.91869 | 17.02439 | 113° | 42km/h | 17432m | 2.6m/s | 0°C | 0% | 0hPa | 0V | 00:00:00 | 00:00:00 | 00:00:00 | |
| OE3JTB-15 | 2026-09-03 00:29:53 | 47.91876 | 17.02410 | 108° | 40km/h | 17424m | 3.0m/s | 0°C | 0% | 0hPa | 0V | 00:00:00 | 00:00:00 | 00:00:00 | |
| OE5MMP-10 | 2026-09-03 00:29:52 | 47.91880 | 17.02393 | 113° | 46km/h | 17420m | 5.1m/s | 0°C | 0% | 0hPa | 0V | 00:00:00 | 00:00:00 | 00:00:00 | |
| ATIDSZ-14 | 2026-09-03 00:29:50 | 47.91891 | 17.02360 | 118° | 47km/h | 17412m | 3.1m/s | 0°C | 0% | 0hPa | 0V | 00:00:00 | 00:00:00 | 00:00:00 | |
| PETON7-10 | 2026-09-03 00:29:48 | 47.91899 | 17.02326 | 107° | 42km/h | 17404m | 2.9m/s | 0°C | 0% | 0hPa | 0V | 00:00:00 | 00:00:00 | 00:00:00 | |
| OE5MMP-10 | 2026-09-03 00:29:42 | 47.91921 | 17.02234 | 108° | 42km/h | 17383m | 2.6m/s | 0°C | 0% | 0hPa | 0V | 00:00:00 | 00:00:00 | 00:00:00 | |
| PETON7-10 | 2026-09-03 00:29:33 | 47.91956 | 17.02104 | 108° | 38km/h | 17344m | 4.5m/s | 0°C | 0% | 0hPa | 0V | 00:00:00 | 00:00:00 | 00:00:00 | |
| OE5MMP-10 | 2026-09-03 00:29:32 | 47.91959 | 17.02090 | 105° | 37km/h | 17340m | 3.1m/s | 0°C | 0% | 0hPa | 0V | 00:00:00 | 00:00:00 | 00:00:00 | |
| ATIDSZ-14 | 2026-09-03 00:29:29 | 47.91967 | 17.02051 | 108° | 35km/h | 17327m | 3.8m/s | 0°C | 0% | 0hPa | 0V | 00:00:00 | 00:00:00 | 00:00:00 | |
| OE3OSB-13 | 2026-09-03 00:29:26 | 47.91978 | 17.02000 | 116° | 37km/h | 17310m | 3.9m/s | -53.5°C | 8.8% | 88.4hPa | 0V | 00:00:00 | 00:00:00 | 00:00:00 | |
| OE5DXL-15 | 2026-09-03 00:29:25 | 47.91978 | 17.02000 | 117° | 38km/h | 17310m | 3.8m/s | 0°C | 0% | 0hPa | 0V | 00:00:00 | 00:00:00 | 00:00:00 | |
| OE5MMP-10 | 2026-09-03 00:29:22 | 47.91988 | 17.01958 | 105° | 42km/h | 17298m | 3.8m/s | 0°C | 0% | 0hPa | 0V | 00:00:00 | 00:00:00 | 00:00:00 | |
| PETON7-10 | 2026-09-03 00:29:18 | 47.92000 | 17.01893 | 100° | 40km/h | 17280m | 4.0m/s | 0°C | 0% | 0hPa | 0V | 00:00:00 | 00:00:00 | 00:00:00 | |
| OE5MMP-10 | 2026-09-03 00:29:12 | 47.92014 | 17.01806 | 97° | 38km/h | 17255m | 3.7m/s | 0°C | 0% | 0hPa | 0V | 00:00:00 | 00:00:00 | 00:00:00 | |
| ATIDSZ-14 | 2026-09-03 00:29:08 | 47.92020 | 17.01746 | 98° | 42km/h | 17237m | 5.5m/s | 0°C | 0% | 0hPa | 0V | 00:00:00 | 00:00:00 | 00:00:00 | |
| PETON7-10 | 2026-09-03 00:29:03 | 47.92026 | 17.01679 | 107° | 31km/h | 17214m | 4.9m/s | 0°C | 0% | 0hPa | 0V | 00:00:00 | 00:00:00 | 00:00:00 | |
| OE3OSB-13 | 2026-09-03 00:28:54 | 47.92044 | 17.01556 | 100° | 24km/h | 17168m | 4.4m/s | -53.5°C | 9.2% | 90.3hPa | 0V | 00:00:00 | 00:00:00 | 00:00:00 | |
| OE3JTB-15 | 2026-09-03 00:28:52 | 47.92045 | 17.01546 | 105° | 29km/h | 17163m | 5.2m/s | 0°C | 0% | 0hPa | 0V | 00:00:00 | 00:00:00 | 00:00:00 | |
| PETON7-10 | 2026-09-03 00:28:49 | 47.92055 | 17.01505 | 112° | 27km/h | 17145m | 3.6m/s | 0°C | 0% | 0hPa | 0V | 00:00:00 | 00:00:00 | 00:00:00 | |
| OE5MMP-10 | 2026-09-03 00:28:39 | 47.92083 | 17.01420 | 112° | 27km/h | 17105m | 4.9m/s | 0°C | 0% | 0hPa | 0V | 00:00:00 | 00:00:00 | 00:00:00 | |
| S52SK | 2026-09-03 00:28:38 | 47.92085 | 17.01412 | 112° | 20km/h | 17100m | 5.5m/s | 0°C | 0% | 0hPa | 0V | 00:00:00 | 00:00:00 | 00:00:00 | |
| PETON7-10 | 2026-09-03 00:28:33 | 47.92102 | 17.01364 | 119° | 29km/h | 17077m | 5.1m/s | 0°C | 0% | 0hPa | 0V | 00:00:00 | 00:00:00 | 00:00:00 | |
| OE5MMP-10 | 2026-09-03 00:28:29 | 47.92111 | 17.01326 | 103° | 31km/h | 17057m | 4.8m/s | 0°C | 0% | 0hPa | 0V | 00:00:00 | 00:00:00 | 00:00:00 | |
| ATIDSZ-14 | 2026-09-03 00:28:27 | 47.92115 | 17.01306 | 120° | 27km/h | 17049m | 4.8m/s | 0°C | 0% | 0hPa | 0V | 00:00:00 | 00:00:00 | 00:00:00 | |
| OE5DXL-15 | 2026-09-03 00:28:25 | 47.92124 | 17.01290 | 136° | 33km/h | 17038m | 4.0m/s | 0°C | 0% | 0hPa | 0V | 00:00:00 | 00:00:00 | 00:00:00 | |
| OE3JTB-15 | 2026-09-03 00:28:23 | 47.92134 | 17.01272 | 122° | 35km/h | 17028m | 5.7m/s | 0°C | 0% | 0hPa | 0V | 00:00:00 | 00:00:00 | 00:00:00 | |
| OE5MMP-10 | 2026-09-03 00:28:18 | 47.92149 | 17.01216 | 127° | 31km/h | 17005m | 4.3m/s | 0°C | 0% | 0hPa | 0V | 00:00:00 | 00:00:00 | 00:00:00 | |
| PETON7-10 | 2026-09-03 00:28:17 | 47.92153 | 17.01207 | 131° | 33km/h | 17000m | 5.3m/s | 0°C | 0% | 0hPa | 0V | 00:00:00 | 00:00:00 | 00:00:00 | |
| OE5MMP-10 | 2026-09-03 00:28:08 | 47.92188 | 17.01112 | 120° | 37km/h | 16956m | 4.2m/s | 0°C | 0% | 0hPa | 0V | 00:00:00 | 00:00:00 | 00:00:00 | |
| ATIDSZ-14 | 2026-09-03 00:28:07 | 47.92192 | 17.01102 | 126° | 35km/h | 16951m | 6.1m/s | 0°C | 0% | 0hPa | 0V | 00:00:00 | 00:00:00 | 00:00:00 | |
| PETON7-10 | 2026-09-03 00:28:02 | 47.92213 | 17.01044 | 106° | 40km/h | 16927m | 4.6m/s | 0°C | 0% | 0hPa | 0V | 00:00:00 | 00:00:00 | 00:00:00 | |
| OE3OSB-13 | 2026-09-03 00:27:52 | 47.92258 | 17.00899 | 105° | 44km/h | 16869m | 4.4m/s | -52.0°C | 9.7% | 94.6hPa | 0V | 00:00:00 | 00:00:00 | 00:00:00 | |
| OE5MMP-10 | 2026-09-03 00:27:48 | 47.92269 | 17.00849 | 114° | 47km/h | 16855m | 5.8m/s | 0°C | 0% | 0hPa | 0V | 00:00:00 | 00:00:00 | 00:00:00 | |
| PETON7-10 | 2026-09-03 00:27:47 | 47.92273 | 17.00835 | 121° | 51km/h | 16849m | 5.8m/s | 0°C | 0% | 0hPa | 0V | 00:00:00 | 00:00:00 | 00:00:00 | |
| OE5MMP-10 | 2026-09-03 00:27:37 | 47.92332 | 17.00676 | 114° | 55km/h | 16798m | 4.5m/s | 0°C | 0% | 0hPa | 0V | 00:00:00 | 00:00:00 | 00:00:00 | |
| PETON7-10 | 2026-09-03 00:27:30 | 47.92370 | 17.00547 | 111° | 58km/h | 16762m | 4.4m/s | 0°C | 0% | 0hPa | 0V | 00:00:00 | 00:00:00 | 00:00:00 | |
| ATIDSZ-14 | 2026-09-03 00:27:27 | 47.92387 | 17.00487 | 117° | 60km/h | 16747m | 4.7m/s | 0°C | 0% | 0hPa | 0V | 00:00:00 | 00:00:00 | 00:00:00 | |
| OE5DXL-15 | 2026-09-03 00:27:25 | 47.92398 | 17.00446 | 109° | 57km/h | 16737m | 5.5m/s | 0°C | 0% | 0hPa | 0V | 00:00:00 | 00:00:00 | 00:00:00 | |
| OE3OSB-13 | 2026-09-03 00:27:21 | 47.92429 | 17.00346 | 117° | 58km/h | 16710m | 5.7m/s | -52.4°C | 9.9% | 97.1hPa | 0V | 00:00:00 | 00:00:00 | 00:00:00 | |
| OE5MMP-10 | 2026-09-03 00:27:17 | 47.92449 | 17.00284 | 119° | 55km/h | 16695m | 5.5m/s | 0°C | 0% | 0hPa | 0V | 00:00:00 | 00:00:00 | 00:00:00 | |
| PETON7-10 | 2026-09-03 00:27:15 | 47.92464 | 17.00244 | 118° | 55km/h | 16685m | 5.5m/s | 0°C | 0% | 0hPa | 0V | 00:00:00 | 00:00:00 | 00:00:00 | |
| ATIDSZ-14 | 2026-09-03 00:27:06 | 47.92521 | 17.00079 | 122° | 55km/h | 16641m | 4.8m/s | 0°C | 0% | 0hPa | 0V | 00:00:00 | 00:00:00 | 00:00:00 | |
| OE5MMP-10 | 2026-09-03 00:27:05 | 47.92527 | 17.00061 | 119° | 55km/h | 16636m | 4.9m/s | 0°C | 0% | 0hPa | 0V | 00:00:00 | 00:00:00 | 00:00:00 | |
| OE3OSB-13 | 2026-09-03 00:26:50 | 47.92628 | 16.99779 | 122° | 46km/h | 16556m | 4.0m/s | -51.8°C | 9.7% | 99.4hPa | 0V | 00:00:00 | 00:00:00 | 00:00:00 | |
| S52SK | 2026-09-03 00:26:47 | 47.92641 | 16.99747 | 119° | 53km/h | 16546m | 3.3m/s | 0°C | 0% | 0hPa | 0V | 00:00:00 | 00:00:00 | 00:00:00 | |
| OE5MMP-10 | 2026-09-03 00:26:45 | 47.92655 | 16.99712 | 123° | 51km/h | 16538m | 3.8m/s | 0°C | 0% | 0hPa | 0V | 00:00:00 | 00:00:00 | 00:00:00 | |
| PETON7-10 | 2026-09-03 00:26:44 | 47.92662 | 16.99695 | 120° | 55km/h | 16534m | 3.5m/s | 0°C | 0% | 0hPa | 0V | 00:00:00 | 00:00:00 | 00:00:00 | |
| S52SK | 2026-09-03 00:26:41 | 47.92680 | 16.99640 | 116° | 51km/h | 16521m | 4.7m/s | 0°C | 0% | 0hPa | 0V | 00:00:00 | 00:00:00 | 00:00:00 | |
| S52SK | 2026-09-03 00:26:36 | 47.92708 | 16.99556 | 117° | 57km/h | 16498m | 3.9m/s | 0°C | 0% | 0hPa | 0V | 00:00:00 | 00:00:00 | 00:00:00 | |
| OE5MMP-10 | 2026-09-03 00:26:35 | 47.92716 | 16.99537 | 123° | 58km/h | 16493m | 5.4m/s | 0°C | 0% | 0hPa | 0V | 00:00:00 | 00:00:00 | 00:00:00 | |
| PETON7-10 | 2026-09-03 00:26:29 | 47.92751 | 16.99414 | 106° | 64km/h | 16467m | 4.0m/s | 0°C | 0% | 0hPa | 0V | 00:00:00 | 00:00:00 | 00:00:00 | |
| OE3JTB-15 | 2026-09-03 00:26:27 | 47.92762 | 16.99374 | 116° | 62km/h | 16459m | 3.5m/s | 0°C | 0% | 0hPa | 0V | 00:00:00 | 00:00:00 | 00:00:00 | |
| OE5MMP-10 | 2026-09-03 00:26:25 | 47.92775 | 16.99330 | 113° | 66km/h | 16452m | 4.5m/s | 0°C | 0% | 0hPa | 0V | 00:00:00 | 00:00:00 | 00:00:00 | |
| ATIDSZ-14 | 2026-09-03 00:26:23 | 47.92788 | 16.99281 | 110° | 69km/h | 16445m | 3.5m/s | 0°C | 0% | 0hPa | 0V | 00:00:00 | 00:00:00 | 00:00:00 | |
| OE3OSB-13 | 2026-09-03 00:26:19 | 47.92818 | 16.99171 | 110° | 66km/h | 16423m | 4.2m/s | -52.4°C | 9.6% | 101.5hPa | 0V | 00:00:00 | 00:00:00 | 00:00:00 | |
| OE5MMP-10 | 2026-09-03 00:26:15 | 47.92837 | 16.99103 | 113° | 60km/h | 16411m | 3.5m/s | 0°C | 0% | 0hPa | 0V | 00:00:00 | 00:00:00 | 00:00:00 | |
| PETON7-10 | 2026-09-03 00:26:13 | 47.92848 | 16.99059 | 108° | 60km/h | 16402m | 4.1m/s | 0°C | 0% | 0hPa | 0V | 00:00:00 | 00:00:00 | 00:00:00 | |
| OE5MMP-10 | 2026-09-03 00:26:05 | 47.92891 | 16.98891 | 105° | 58km/h | 16373m | 4.4m/s | 0°C | 0% | 0hPa | 0V | 00:00:00 | 00:00:00 | 00:00:00 | |
| ATIDSZ-14 | 2026-09-03 00:26:02 | 47.92906 | 16.98833 | 116° | 58km/h | 16363m | 4.0m/s | 0°C | 0% | 0hPa | 0V | 00:00:00 | 00:00:00 | 00:00:00 | |
| OE3OSB-13 | 2026-09-03 00:25:48 | 47.93015 | 16.98514 | 111° | 69km/h | 16310m | 4.7m/s | -53.0°C | 9.4% | 103.3hPa | 0V | 00:00:00 | 00:00:00 | 00:00:00 | |
| OE5MMP-10 | 2026-09-03 00:25:44 | 47.93036 | 16.98443 | 120° | 68km/h | 16299m | 3.6m/s | 0°C | 0% | 0hPa | 0V | 00:00:00 | 00:00:00 | 00:00:00 | |
| PETON7-10 | 2026-09-03 00:25:43 | 47.93044 | 16.98422 | 120° | 69km/h | 16296m | 2.0m/s | 0°C | 0% | 0hPa | 0V | 00:00:00 | 00:00:00 | 00:00:00 | |
| ATIDSZ-14 | 2026-09-03 00:25:42 | 47.93052 | 16.98401 | 117° | 64km/h | 16293m | 4.4m/s | 0°C | 0% | 0hPa | 0V | 00:00:00 | 00:00:00 | 00:00:00 | |
| OE5MMP-10 | 2026-09-03 00:25:34 | 47.93103 | 16.98208 | 112° | 71km/h | 16265m | 2.8m/s | 0°C | 0% | 0hPa | 0V | 00:00:00 | 00:00:00 | 00:00:00 | |
| OE3JTB-15 | 2026-09-03 00:25:29 | 47.93134 | 16.98084 | 107° | 73km/h | 16250m | 3.2m/s | 0°C | 0% | 0hPa | 0V | 00:00:00 | 00:00:00 | 00:00:00 | |
| PETON7-10 | 2026-09-03 00:25:27 | 47.93145 | 16.98033 | 111° | 71km/h | 16244m | 2.2m/s | 0°C | 0% | 0hPa | 0V | 00:00:00 | 00:00:00 | 00:00:00 | |
| OE5DXL-15 | 2026-09-03 00:25:25 | 47.93156 | 16.97981 | 105° | 73km/h | 16237m | 3.2m/s | 0°C | 0% | 0hPa | 0V | 00:00:00 | 00:00:00 | 00:00:00 | |
| OE5MMP-10 | 2026-09-03 00:25:24 | 47.93160 | 16.97955 | 108° | 73km/h | 16234m | 3.3m/s | 0°C | 0% | 0hPa | 0V | 00:00:00 | 00:00:00 | 00:00:00 | |
| ATIDSZ-14 | 2026-09-03 00:25:22 | 47.93171 | 16.97903 | 105° | 71km/h | 16228m | 2.6m/s | 0°C | 0% | 0hPa | 0V | 00:00:00 | 00:00:00 | 00:00:00 | |
| OE3OSB-13 | 2026-09-03 00:25:17 | 47.93197 | 16.97742 | 103° | 71km/h | 16206m | 3.7m/s | -54.7°C | 8.8% | 105.0hPa | 0V | 00:00:00 | 00:00:00 | 00:00:00 | |
| OE5MMP-10 | 2026-09-03 00:25:14 | 47.93207 | 16.97691 | 109° | 71km/h | 16200m | 4.5m/s | 0°C | 0% | 0hPa | 0V | 00:00:00 | 00:00:00 | 00:00:00 | |
| PETON7-10 | 2026-09-03 00:25:12 | 47.93218 | 16.97642 | 109° | 73km/h | 16194m | 2.4m/s | 0°C | 0% | 0hPa | 0V | 00:00:00 | 00:00:00 | 00:00:00 | |
| OE5MMP-10 | 2026-09-03 00:25:04 | 47.93249 | 16.97430 | 101° | 73km/h | 16170m | 2.7m/s | 0°C | 0% | 0hPa | 0V | 00:00:00 | 00:00:00 | 00:00:00 | |
| ATIDSZ-14 | 2026-09-03 00:25:02 | 47.93258 | 16.97376 | 107° | 73km/h | 16163m | 2.1m/s | 0°C | 0% | 0hPa | 0V | 00:00:00 | 00:00:00 | 00:00:00 | |
| OE3JTB-15 | 2026-09-03 00:25:00 | 47.93267 | 16.97321 | 102° | 73km/h | 16158m | 3.2m/s | 0°C | 0% | 0hPa | 0V | 00:00:00 | 00:00:00 | 00:00:00 | |
| OE3OSB-13 | 2026-09-03 00:24:46 | 47.93324 | 16.96911 | 105° | 73km/h | 16111m | 4.1m/s | -55.2°C | 8.8% | 106.6hPa | 0V | 00:00:00 | 00:00:00 | 00:00:00 | |
| OE5MMP-10 | 2026-09-03 00:24:44 | 47.93328 | 16.96885 | 106° | 71km/h | 16107m | 3.2m/s | 0°C | 0% | 0hPa | 0V | 00:00:00 | 00:00:00 | 00:00:00 | |
| S52SK | 2026-09-03 00:24:43 | 47.93333 | 16.96858 | 104° | 75km/h | 16103m | 4.2m/s | 0°C | 0% | 0hPa | 0V | 00:00:00 | 00:00:00 | 00:00:00 | |
| ATIDSZ-14 | 2026-09-03 00:24:42 | 47.93336 | 16.96830 | 98° | 75km/h | 16099m | 3.1m/s | 0°C | 0% | 0hPa | 0V | 00:00:00 | 00:00:00 | 00:00:00 | |
| PETON7-10 | 2026-09-03 00:24:41 | 47.93339 | 16.96803 | 97° | 69km/h | 16097m | 2.6m/s | 0°C | 0% | 0hPa | 0V | 00:00:00 | 00:00:00 | 00:00:00 | |
| S52SK | 2026-09-03 00:24:38 | 47.93347 | 16.96727 | 100° | 69km/h | 16086m | 2.5m/s | 0°C | 0% | 0hPa | 0V | 00:00:00 | 00:00:00 | 00:00:00 | |
| OE5MMP-10 | 2026-09-03 00:24:34 | 47.93360 | 16.96620 | 101° | 68km/h | 16071m | 3.8m/s | 0°C | 0% | 0hPa | 0V | 00:00:00 | 00:00:00 | 00:00:00 | |
| OE3JTB-15 | 2026-09-03 00:24:31 | 47.93372 | 16.96489 | 98° | 64km/h | 16055m | 2.9m/s | 0°C | 0% | 0hPa | 0V | 00:00:00 | 00:00:00 | 00:00:00 | |
| PETON7-10 | 2026-09-03 00:24:26 | 47.93375 | 16.96416 | 94° | 66km/h | 16044m | 2.7m/s | 0°C | 0% | 0hPa | 0V | 00:00:00 | 00:00:00 | 00:00:00 | |
| OE5DXL-15 | 2026-09-03 00:24:25 | 47.93376 | 16.96391 | 94° | 64km/h | 16041m | 4.5m/s | 0°C | 0% | 0hPa | 0V | 00:00:00 | 00:00:00 | 00:00:00 | |
| OE5MMP-10 | 2026-09-03 00:24:24 | 47.93378 | 16.96367 | 98° | 66km/h | 16037m | 4.3m/s | 0°C | 0% | 0hPa | 0V | 00:00:00 | 00:00:00 | 00:00:00 | |
| ATIDSZ-14 | 2026-09-03 00:24:22 | 47.93383 | 16.96319 | 101° | 66km/h | 16028m | 5.0m/s | 0°C | 0% | 0hPa | 0V | 00:00:00 | 00:00:00 | 00:00:00 | |
| OE3OSB-13 | 2026-09-03 00:24:15 | 47.93409 | 16.96128 | 96° | 60km/h | 15993m | 4.9m/s | -55.1°C | 8.8% | 108.6hPa | 0V | 00:00:00 | 00:00:00 | 00:00:00 | |
| OE5MMP-10 | 2026-09-03 00:24:14 | 47.93409 | 16.96127 | 97° | 64km/h | 15993m | 4.9m/s | 0°C | 0% | 0hPa | 0V | 00:00:00 | 00:00:00 | 00:00:00 | |
| PETON7-10 | 2026-09-03 00:24:11 | 47.93416 | 16.96056 | 99° | 62km/h | 15979m | 4.5m/s | 0°C | 0% | 0hPa | 0V | 00:00:00 | 00:00:00 | 00:00:00 | |
| OE5MMP-10 | 2026-09-03 00:24:04 | 47.93435 | 16.95891 | 102° | 62km/h | 15950m | 5.3m/s | 0°C | 0% | 0hPa | 0V | 00:00:00 | 00:00:00 | 00:00:00 | |
| ATIDSZ-14 | 2026-09-03 00:24:01 | 47.93448 | 16.95824 | 109° | 62km/h | 15935m | 5.5m/s | 0°C | 0% | 0hPa | 0V | 00:00:00 | 00:00:00 | 00:00:00 | |
| OE3OSB-13 | 2026-09-03 00:23:44 | 47.93519 | 16.95428 | 104° | 66km/h | 15847m | 3.6m/s | -54.8°C | 8.6% | 111.1hPa | 0V | 00:00:00 | 00:00:00 | 00:00:00 | |
| OE5MMP-10 | 2026-09-03 00:23:43 | 47.93519 | 16.95428 | 105° | 62km/h | 15848m | 3.5m/s | 0°C | 0% | 0hPa | 0V | 00:00:00 | 00:00:00 | 00:00:00 | |
| PETON7-10 | 2026-09-03 00:23:41 | 47.93529 | 16.95379 | 111° | 62km/h | 15838m | 4.1m/s | 0°C | 0% | 0hPa | 0V | 00:00:00 | 00:00:00 | 00:00:00 | |
| ATIDSZ-14 | 2026-09-03 00:23:40 | 47.93534 | 16.95358 | 110° | 58km/h | 15834m | 4.6m/s | 0°C | 0% | 0hPa | 0V | 00:00:00 | 00:00:00 | 00:00:00 | |
| OE5MMP-10 | 2026-09-03 00:23:33 | 47.93571 | 16.95210 | 111° | 62km/h | 15802m | 4.7m/s | 0°C | 0% | 0hPa | 0V | 00:00:00 | 00:00:00 | 00:00:00 | |
| PETON7-10 | 2026-09-03 00:23:26 | 47.93611 | 16.95056 | 106° | 62km/h | 15768m | 5.3m/s | 0°C | 0% | 0hPa | 0V | 00:00:00 | 00:00:00 | 00:00:00 | |
| OE5DXL-15 | 2026-09-03 00:23:25 | 47.93616 | 16.95034 | 109° | 60km/h | 15762m | 4.8m/s | 0°C | 0% | 0hPa | 0V | 00:00:00 | 00:00:00 | 00:00:00 | |
| OE5MMP-10 | 2026-09-03 00:23:23 | 47.93626 | 16.94990 | 108° | 62km/h | 15752m | 6.5m/s | 0°C | 0% | 0hPa | 0V | 00:00:00 | 00:00:00 | 00:00:00 | |
| ATIDSZ-14 | 2026-09-03 00:23:19 | 47.93642 | 16.94904 | 113° | 62km/h | 15731m | 4.2m/s | 0°C | 0% | 0hPa | 0V | 00:00:00 | 00:00:00 | 00:00:00 | |
| OE3OSB-13 | 2026-09-03 00:23:13 | 47.93677 | 16.94749 | 104° | 60km/h | 15696m | 5.4m/s | -55.5°C | 8.2% | 113.7hPa | 0V | 00:00:00 | 00:00:00 | 00:00:00 | |
| PETON7-10 | 2026-09-03 00:23:11 | 47.93681 | 16.94727 | 102° | 58km/h | 15690m | 5.5m/s | 0°C | 0% | 0hPa | 0V | 00:00:00 | 00:00:00 | 00:00:00 | |
| OE5MMP-10 | 2026-09-03 00:23:03 | 47.93716 | 16.94558 | 115° | 58km/h | 15648m | 6.0m/s | 0°C | 0% | 0hPa | 0V | 00:00:00 | 00:00:00 | 00:00:00 | |
| ATIDSZ-14 | 2026-09-03 00:22:58 | 47.93740 | 16.94454 | 113° | 55km/h | 15621m | 4.2m/s | 0°C | 0% | 0hPa | 0V | 00:00:00 | 00:00:00 | 00:00:00 | |
| PETON7-10 | 2026-09-03 00:22:56 | 47.93750 | 16.94415 | 108° | 58km/h | 15614m | 6.6m/s | 0°C | 0% | 0hPa | 0V | 00:00:00 | 00:00:00 | 00:00:00 | |
| OE5DXL-15 | 2026-09-03 00:22:55 | 47.93755 | 16.94393 | 106° | 57km/h | 15608m | 5.3m/s | 0°C | 0% | 0hPa | 0V | 00:00:00 | 00:00:00 | 00:00:00 | |
| OE5MMP-10 | 2026-09-03 00:22:53 | 47.93769 | 16.94328 | 114° | 57km/h | 15591m | 3.9m/s | 0°C | 0% | 0hPa | 0V | 00:00:00 | 00:00:00 | 00:00:00 | |
| S52SK | 2026-09-03 00:22:49 | 47.93783 | 16.94267 | 101° | 55km/h | 15576m | 4.1m/s | 0°C | 0% | 0hPa | 0V | 00:00:00 | 00:00:00 | 00:00:00 | |
| S52SK | 2026-09-03 00:22:43 | 47.93805 | 16.94145 | 105° | 64km/h | 15547m | 3.4m/s | 0°C | 0% | 0hPa | 0V | 00:00:00 | 00:00:00 | 00:00:00 | |
| OE3OSB-13 | 2026-09-03 00:22:42 | 47.93815 | 16.94100 | 109° | 60km/h | 15537m | 5.0m/s | -55.7°C | 8.1% | 116.7hPa | 0V | 00:00:00 | 00:00:00 | 00:00:00 | |
| PETON7-10 | 2026-09-03 00:22:41 | 47.93814 | 16.94099 | 110° | 57km/h | 15537m | 5.0m/s | 0°C | 0% | 0hPa | 0V | 00:00:00 | 00:00:00 | 00:00:00 | |
| ATIDSZ-14 | 2026-09-03 00:22:38 | 47.93827 | 16.94037 | 102° | 53km/h | 15521m | 4.6m/s | 0°C | 0% | 0hPa | 0V | 00:00:00 | 00:00:00 | 00:00:00 | |
| OE3JTB-15 | 2026-09-03 00:22:37 | 47.93836 | 16.93925 | 99° | 53km/h | 15492m | 4.5m/s | 0°C | 0% | 0hPa | 0V | 00:00:00 | 00:00:00 | 00:00:00 | |
| OE5MMP-10 | 2026-09-03 00:22:32 | 47.93836 | 16.93925 | 99° | 53km/h | 15492m | 4.5m/s | 0°C | 0% | 0hPa | 0V | 00:00:00 | 00:00:00 | 00:00:00 | |
| PETON7-10 | 2026-09-03 00:22:26 | 47.93858 | 16.93797 | 98° | 49km/h | 15464m | 5.1m/s | 0°C | 0% | 0hPa | 0V | 00:00:00 | 00:00:00 | 00:00:00 | |
| OE5DXL-15 | 2026-09-03 00:22:25 | 47.93859 | 16.93780 | 96° | 53km/h | 15459m | 5.6m/s | 0°C | 0% | 0hPa | 0V | 00:00:00 | 00:00:00 | 00:00:00 | |
| OE5MMP-10 | 2026-09-03 00:22:21 | 47.93866 | 16.93706 | 102° | 53km/h | 15441m | 4.5m/s | 0°C | 0% | 0hPa | 0V | 00:00:00 | 00:00:00 | 00:00:00 | |
| ATIDSZ-14 | 2026-09-03 00:22:17 | 47.93883 | 16.93625 | 103° | 51km/h | 15422m | 5.5m/s | 0°C | 0% | 0hPa | 0V | 00:00:00 | 00:00:00 | 00:00:00 | |
| OE3OSB-13 | 2026-09-03 00:22:11 | 47.93897 | 16.93500 | 102° | 58km/h | 15389m | 4.5m/s | -55.5°C | 8.4% | 119.4hPa | 0V | 00:00:00 | 00:00:00 | 00:00:00 | |
| PETON7-10 | 2026-09-03 00:22:10 | 47.93897 | 16.93500 | 103° | 55km/h | 15389m | 4.5m/s | 0°C | 0% | 0hPa | 0V | 00:00:00 | 00:00:00 | 00:00:00 | |
| OE3JTB-15 | 2026-09-03 00:22:07 | 47.93928 | 16.93347 | 100° | 55km/h | 15351m | 5.3m/s | 0°C | 0% | 0hPa | 0V | 00:00:00 | 00:00:00 | 00:00:00 | |
| OE5MMP-10 | 2026-09-03 00:22:01 | 47.93930 | 16.93325 | 100° | 58km/h | 15346m | 4.0m/s | 0°C | 0% | 0hPa | 0V | 00:00:00 | 00:00:00 | 00:00:00 | |
| ATIDSZ-14 | 2026-09-03 00:21:56 | 47.93944 | 16.93223 | 112° | 53km/h | 15322m | 4.7m/s | 0°C | 0% | 0hPa | 0V | 00:00:00 | 00:00:00 | 00:00:00 | |
| PETON7-10 | 2026-09-03 00:21:55 | 47.93948 | 16.93204 | 110° | 55km/h | 15319m | 2.7m/s | 0°C | 0% | 0hPa | 0V | 00:00:00 | 00:00:00 | 00:00:00 | |
| OE5MMP-10 | 2026-09-03 00:21:49 | 47.93964 | 16.93077 | 106° | 53km/h | 15292m | 3.4m/s | 0°C | 0% | 0hPa | 0V | 00:00:00 | 00:00:00 | 00:00:00 | |
| PETON7-10 | 2026-09-03 00:21:40 | 47.93987 | 16.92901 | 98° | 49km/h | 15252m | 3.7m/s | 0°C | 0% | 0hPa | 0V | 00:00:00 | 00:00:00 | 00:00:00 | |
| OE3OSB-13 | 2026-09-03 00:21:39 | 47.93989 | 16.92883 | 93° | 47km/h | 15248m | 4.7m/s | -54.8°C | 8.4% | 122.1hPa | 0V | 00:00:00 | 00:00:00 | 00:00:00 | |
| OE5MMP-10 | 2026-09-03 00:21:38 | 47.93990 | 16.92865 | 97° | 49km/h | 15243m | 5.1m/s | 0°C | 0% | 0hPa | 0V | 00:00:00 | 00:00:00 | 00:00:00 | |
| ATIDSZ-14 | 2026-09-03 00:21:36 | 47.93993 | 16.92828 | 96° | 47km/h | 15233m | 5.6m/s | 0°C | 0% | 0hPa | 0V | 00:00:00 | 00:00:00 | 00:00:00 | |
| OE5MMP-10 | 2026-09-03 00:21:28 | 47.94009 | 16.92681 | 98° | 47km/h | 15197m | 5.0m/s | 0°C | 0% | 0hPa | 0V | 00:00:00 | 00:00:00 | 00:00:00 | |
| OE5DXL-15 | 2026-09-03 00:21:25 | 47.94012 | 16.92626 | 93° | 46km/h | 15184m | 4.5m/s | 0°C | 0% | 0hPa | 0V | 00:00:00 | 00:00:00 | 00:00:00 | |
| OE5MMP-10 | 2026-09-03 00:21:18 | 47.94026 | 16.92506 | 97° | 46km/h | 15154m | 4.6m/s | 0°C | 0% | 0hPa | 0V | 00:00:00 | 00:00:00 | 00:00:00 | |
| ATIDSZ-14 | 2026-09-03 00:21:16 | 47.94030 | 16.92468 | 96° | 47km/h | 15146m | 5.4m/s | 0°C | 0% | 0hPa | 0V | 00:00:00 | 00:00:00 | 00:00:00 | |
| PETON7-10 | 2026-09-03 00:21:10 | 47.94034 | 16.92365 | 91° | 44km/h | 15119m | 5.0m/s | 0°C | 0% | 0hPa | 0V | 00:00:00 | 00:00:00 | 00:00:00 | |
| OE5MMP-10 | 2026-09-03 00:21:08 | 47.94037 | 16.92334 | 99° | 44km/h | 15109m | 4.3m/s | 0°C | 0% | 0hPa | 0V | 00:00:00 | 00:00:00 | 00:00:00 | |
| OE3JTB-15 | 2026-09-03 00:21:05 | 47.94042 | 16.92185 | 94° | 38km/h | 15071m | 2.7m/s | 0°C | 0% | 0hPa | 0V | 00:00:00 | 00:00:00 | 00:00:00 | |
| OE5MMP-10 | 2026-09-03 00:20:56 | 47.94044 | 16.92134 | 94° | 46km/h | 15060m | 2.9m/s | 0°C | 0% | 0hPa | 0V | 00:00:00 | 00:00:00 | 00:00:00 | |
| OE5DXL-15 | 2026-09-03 00:20:55 | 47.94045 | 16.92115 | 93° | 42km/h | 15056m | 4.8m/s | 0°C | 0% | 0hPa | 0V | 00:00:00 | 00:00:00 | 00:00:00 | |
| PETON7-10 | 2026-09-03 00:20:54 | 47.94045 | 16.92097 | 88° | 44km/h | 15051m | 5.0m/s | 0°C | 0% | 0hPa | 0V | 00:00:00 | 00:00:00 | 00:00:00 | |
| S52SK | 2026-09-03 00:20:49 | 47.94043 | 16.92016 | 89° | 38km/h | 15031m | 4.2m/s | 0°C | 0% | 0hPa | 0V | 00:00:00 | 00:00:00 | 00:00:00 | |
| OE5MMP-10 | 2026-09-03 00:20:46 | 47.94045 | 16.91968 | 96° | 38km/h | 15017m | 3.5m/s | 0°C | 0% | 0hPa | 0V | 00:00:00 | 00:00:00 | 00:00:00 | |
| S52SK | 2026-09-03 00:20:43 | 47.94045 | 16.91916 | 87° | 47km/h | 15006m | 4.2m/s | 0°C | 0% | 0hPa | 0V | 00:00:00 | 00:00:00 | 00:00:00 | |
| PETON7-10 | 2026-09-03 00:20:39 | 47.94043 | 16.91855 | 88° | 42km/h | 14990m | 3.8m/s | 0°C | 0% | 0hPa | 0V | 00:00:00 | 00:00:00 | 00:00:00 | |
| OE3OSB-13 | 2026-09-03 00:20:37 | 47.94046 | 16.91819 | 101° | 38km/h | 14978m | 3.4m/s | -53.9°C | 7.5% | 127.4hPa | 0V | 00:00:00 | 00:00:00 | 00:00:00 | |
| ATIDSZ-14 | 2026-09-03 00:20:35 | 47.94048 | 16.91787 | 93° | 46km/h | 14971m | 4.2m/s | 0°C | 0% | 0hPa | 0V | 00:00:00 | 00:00:00 | 00:00:00 | |
| OE5DXL-15 | 2026-09-03 00:20:25 | 47.94053 | 16.91640 | 104° | 38km/h | 14934m | 3.9m/s | 0°C | 0% | 0hPa | 0V | 00:00:00 | 00:00:00 | 00:00:00 | |
| OE5MMP-10 | 2026-09-03 00:20:24 | 47.94055 | 16.91624 | 100° | 40km/h | 14929m | 4.4m/s | 0°C | 0% | 0hPa | 0V | 00:00:00 | 00:00:00 | 00:00:00 | |
| PETON7-10 | 2026-09-03 00:20:23 | 47.94056 | 16.91608 | 95° | 40km/h | 14925m | 3.3m/s | 0°C | 0% | 0hPa | 0V | 00:00:00 | 00:00:00 | 00:00:00 | |
| ATIDSZ-14 | 2026-09-03 00:20:13 | 47.94067 | 16.91456 | 106° | 33km/h | 14885m | 3.9m/s | 0°C | 0% | 0hPa | 0V | 00:00:00 | 00:00:00 | 00:00:00 | |
| OE5MMP-10 | 2026-09-03 00:20:09 | 47.94072 | 16.91402 | 85° | 38km/h | 14866m | 5.1m/s | 0°C | 0% | 0hPa | 0V | 00:00:00 | 00:00:00 | 00:00:00 | |
| PETON7-10 | 2026-09-03 00:20:08 | 47.94070 | 16.91387 | 79° | 38km/h | 14861m | 3.8m/s | 0°C | 0% | 0hPa | 0V | 00:00:00 | 00:00:00 | 00:00:00 | |
| OE3OSB-13 | 2026-09-03 00:20:06 | 47.94072 | 16.91335 | 111° | 46km/h | 14848m | 4.7m/s | -53.3°C | 7.7% | 129.9hPa | 0V | 00:00:00 | 00:00:00 | 00:00:00 | |
| OE5MMP-10 | 2026-09-03 00:19:58 | 47.94101 | 16.91255 | 98° | 58km/h | 14809m | 6.6m/s | 0°C | 0% | 0hPa | 0V | 00:00:00 | 00:00:00 | 00:00:00 | |
| OE5DXL-15 | 2026-09-03 00:19:55 | 47.94101 | 16.91224 | 105° | 37km/h | 14792m | 4.0m/s | 0°C | 0% | 0hPa | 0V | 00:00:00 | 00:00:00 | 00:00:00 | |
| ATIDSZ-14 | 2026-09-03 00:19:52 | 47.94118 | 16.91180 | 123° | 51km/h | 14777m | 4.0m/s | 0°C | 0% | 0hPa | 0V | 00:00:00 | 00:00:00 | 00:00:00 | |
| PETON7-10 | 2026-09-03 00:19:51 | 47.94124 | 16.91166 | 122° | 38km/h | 14772m | 5.9m/s | 0°C | 0% | 0hPa | 0V | 00:00:00 | 00:00:00 | 00:00:00 | |
| OE3OSB-13 | 2026-09-03 00:19:36 | 47.94189 | 16.90966 | 128° | 33km/h | 14691m | 4.6m/s | -51.9°C | 7.9% | 133.2hPa | 0V | 00:00:00 | 00:00:00 | 00:00:00 | |
| ATIDSZ-14 | 2026-09-03 00:19:32 | 47.94200 | 16.90941 | 123° | 44km/h | 14684m | 5.2m/s | 0°C | 0% | 0hPa | 0V | 00:00:00 | 00:00:00 | 00:00:00 | |
| OE5DXL-15 | 2026-09-03 00:19:25 | 47.94235 | 16.90865 | 128° | 44km/h | 14651m | 5.4m/s | 0°C | 0% | 0hPa | 0V | 00:00:00 | 00:00:00 | 00:00:00 | |
| PETON7-10 | 2026-09-03 00:19:20 | 47.94269 | 16.90815 | 139° | 38km/h | 14616m | 4.7m/s | 0°C | 0% | 0hPa | 0V | 00:00:00 | 00:00:00 | 00:00:00 | |
| ATIDSZ-14 | 2026-09-03 00:19:11 | 47.94314 | 16.90708 | 145° | 40km/h | 14569m | 3.8m/s | 0°C | 0% | 0hPa | 0V | 00:00:00 | 00:00:00 | 00:00:00 | |
| PETON7-10 | 2026-09-03 00:19:05 | 47.94342 | 16.90633 | 115° | 51km/h | 14535m | 5.6m/s | 0°C | 0% | 0hPa | 0V | 00:00:00 | 00:00:00 | 00:00:00 | |
| OE3OSB-13 | 2026-09-03 00:19:04 | 47.94356 | 16.90605 | 133° | 51km/h | 14523m | 5.1m/s | -51.0°C | 8.4% | 136.7hPa | 0V | 00:00:00 | 00:00:00 | 00:00:00 | |
| PG1ADW-2 | 2026-09-03 00:19:01 | 47.94375 | 16.90574 | 131° | 86km/h | 14512m | 4.6m/s | 0°C | 0% | 0hPa | 0V | 00:00:00 | 00:00:00 | 00:00:00 | |
| OE5DXL-15 | 2026-09-03 00:18:55 | 47.94412 | 16.90476 | 114° | 55km/h | 14488m | 3.7m/s | 0°C | 0% | 0hPa | 0V | 00:00:00 | 00:00:00 | 00:00:00 | |
| S52SK | 2026-09-03 00:18:52 | 47.94436 | 16.90423 | 138° | 60km/h | 14473m | 3.7m/s | 0°C | 0% | 0hPa | 0V | 00:00:00 | 00:00:00 | 00:00:00 | |
| PETON7-10 | 2026-09-03 00:18:50 | 47.94459 | 16.90392 | 138° | 51km/h | 14466m | 5.5m/s | 0°C | 0% | 0hPa | 0V | 00:00:00 | 00:00:00 | 00:00:00 | |
| S52SK | 2026-09-03 00:18:47 | 47.94481 | 16.90343 | 110° | 44km/h | 14452m | 4.9m/s | 0°C | 0% | 0hPa | 0V | 00:00:00 | 00:00:00 | 00:00:00 | |
| OE3JTB-15 | 2026-09-03 00:18:40 | 47.94586 | 16.90147 | 134° | 62km/h | 14379m | 3.5m/s | 0°C | 0% | 0hPa | 0V | 00:00:00 | 00:00:00 | 00:00:00 | |
| OE3OSB-13 | 2026-09-03 00:18:34 | 47.94606 | 16.90118 | 133° | 55km/h | 14371m | 4.4m/s | -51.5°C | 8.6% | 139.9hPa | 0V | 00:00:00 | 00:00:00 | 00:00:00 | |
| ATIDSZ-14 | 2026-09-03 00:18:30 | 47.94625 | 16.90086 | 135° | 55km/h | 14362m | 4.2m/s | 0°C | 0% | 0hPa | 0V | 00:00:00 | 00:00:00 | 00:00:00 | |
| OE5DXL-15 | 2026-09-03 00:18:25 | 47.94678 | 16.90010 | 136° | 66km/h | 14333m | 5.2m/s | 0°C | 0% | 0hPa | 0V | 00:00:00 | 00:00:00 | 00:00:00 | |
| PETON7-10 | 2026-09-03 00:18:16 | 47.94768 | 16.89877 | 127° | 69km/h | 14292m | 6.6m/s | 0°C | 0% | 0hPa | 0V | 00:00:00 | 00:00:00 | 00:00:00 | |
| ATIDSZ-14 | 2026-09-03 00:18:09 | 47.94849 | 16.89741 | 127° | 57km/h | 14254m | 3.6m/s | 0°C | 0% | 0hPa | 0V | 00:00:00 | 00:00:00 | 00:00:00 | |
| OE3JTB-15 | 2026-09-03 00:18:04 | 47.94915 | 16.89624 | 131° | 75km/h | 14224m | 3.4m/s | 0°C | 0% | 0hPa | 0V | 00:00:00 | 00:00:00 | 00:00:00 | |
| OE3OSB-13 | 2026-09-03 00:18:02 | 47.94941 | 16.89581 | 125° | 68km/h | 14212m | 6.0m/s | -51.3°C | 8.7% | 143.3hPa | 0V | 00:00:00 | 00:00:00 | 00:00:00 | |
| PETON7-10 | 2026-09-03 00:18:01 | 47.94941 | 16.89581 | 126° | 73km/h | 14212m | 5.9m/s | 0°C | 0% | 0hPa | 0V | 00:00:00 | 00:00:00 | 00:00:00 | |
| OE5DXL-15 | 2026-09-03 00:17:55 | 47.94996 | 16.89447 | 125° | 77km/h | 14178m | 4.8m/s | 0°C | 0% | 0hPa | 0V | 00:00:00 | 00:00:00 | 00:00:00 | |
| ATIDSZ-14 | 2026-09-03 00:17:48 | 47.95073 | 16.89284 | 127° | 77km/h | 14142m | 2.8m/s | 0°C | 0% | 0hPa | 0V | 00:00:00 | 00:00:00 | 00:00:00 | |
| PETON7-10 | 2026-09-03 00:17:45 | 47.95107 | 16.89214 | 125° | 77km/h | 14128m | 4.1m/s | 0°C | 0% | 0hPa | 0V | 00:00:00 | 00:00:00 | 00:00:00 | |
| OE3JTB-15 | 2026-09-03 00:17:35 | 47.95214 | 16.88989 | 126° | 84km/h | 14081m | 6.8m/s | 0°C | 0% | 0hPa | 0V | 00:00:00 | 00:00:00 | 00:00:00 | |
| PETON7-10 | 2026-09-03 00:17:31 | 47.95270 | 16.88865 | 124° | 84km/h | 14056m | 4.6m/s | 0°C | 0% | 0hPa | 0V | 00:00:00 | 00:00:00 | 00:00:00 | |
| ATIDSZ-14 | 2026-09-03 00:17:27 | 47.95300 | 16.88786 | 119° | 84km/h | 14044m | 4.1m/s | 0°C | 0% | 0hPa | 0V | 00:00:00 | 00:00:00 | 00:00:00 | |
| OE5DXL-15 | 2026-09-03 00:17:25 | 47.95323 | 16.88731 | 127° | 86km/h | 14035m | 4.3m/s | 0°C | 0% | 0hPa | 0V | 00:00:00 | 00:00:00 | 00:00:00 | |
| PETON7-10 | 2026-09-03 00:17:15 | 47.95427 | 16.88442 | 117° | 86km/h | 13995m | 4.9m/s | 0°C | 0% | 0hPa | 0V | 00:00:00 | 00:00:00 | 00:00:00 | |
| ATIDSZ-14 | 2026-09-03 00:17:08 | 47.95494 | 16.88204 | 118° | 88km/h | 13963m | 3.3m/s | 0°C | 0% | 0hPa | 0V | 00:00:00 | 00:00:00 | 00:00:00 | |
| OE3JTB-15 | 2026-09-03 00:17:06 | 47.95504 | 16.88175 | 120° | 82km/h | 13959m | 5.6m/s | 0°C | 0% | 0hPa | 0V | 00:00:00 | 00:00:00 | 00:00:00 | |
| OE3OSB-13 | 2026-09-03 00:17:00 | 47.95572 | 16.87978 | 117° | 89km/h | 13929m | 4.3m/s | -52.6°C | 6.6% | 149.8hPa | 0V | 00:00:00 | 00:00:00 | 00:00:00 | |
| OE5DXL-15 | 2026-09-03 00:16:55 | 47.95616 | 16.87860 | 126° | 82km/h | 13915m | 5.5m/s | 0°C | 0% | 0hPa | 0V | 00:00:00 | 00:00:00 | 00:00:00 | |
| S52SK | 2026-09-03 00:16:49 | 47.95673 | 16.87705 | 117° | 89km/h | 13889m | 3.7m/s | 0°C | 0% | 0hPa | 0V | 00:00:00 | 00:00:00 | 00:00:00 | |
| ATIDSZ-14 | 2026-09-03 00:16:46 | 47.95705 | 16.87621 | 122° | 80km/h | 13877m | 3.8m/s | 0°C | 0% | 0hPa | 0V | 00:00:00 | 00:00:00 | 00:00:00 | |
| PETON7-10 | 2026-09-03 00:16:44 | 47.95726 | 16.87570 | 122° | 84km/h | 13869m | 4.6m/s | 0°C | 0% | 0hPa | 0V | 00:00:00 | 00:00:00 | 00:00:00 | |
| S52SK | 2026-09-03 00:16:43 | 47.95737 | 16.87543 | 122° | 84km/h | 13864m | 4.3m/s | 0°C | 0% | 0hPa | 0V | 00:00:00 | 00:00:00 | 00:00:00 | |
| OE3JTB-15 | 2026-09-03 00:16:37 | 47.95798 | 16.87391 | 121° | 84km/h | 13840m | 4.7m/s | 0°C | 0% | 0hPa | 0V | 00:00:00 | 00:00:00 | 00:00:00 | |
| OE3OSB-13 | 2026-09-03 00:16:29 | 47.95902 | 16.87131 | 125° | 84km/h | 13794m | 7.9m/s | -52.8°C | 5.8% | 153.0hPa | 0V | 00:00:00 | 00:00:00 | 00:00:00 | |
| ATIDSZ-14 | 2026-09-03 00:16:26 | 47.95923 | 16.87081 | 121° | 75km/h | 13782m | 6.5m/s | 0°C | 0% | 0hPa | 0V | 00:00:00 | 00:00:00 | 00:00:00 | |
| OE5DXL-15 | 2026-09-03 00:16:25 | 47.95933 | 16.87056 | 119° | 80km/h | 13776m | 6.0m/s | 0°C | 0% | 0hPa | 0V | 00:00:00 | 00:00:00 | 00:00:00 | |
| PETON7-10 | 2026-09-03 00:16:10 | 47.96067 | 16.86636 | 119° | 71km/h | 13711m | 6.1m/s | 0°C | 0% | 0hPa | 0V | 00:00:00 | 00:00:00 | 00:00:00 | |
| OE3JTB-15 | 2026-09-03 00:16:08 | 47.96082 | 16.86577 | 105° | 80km/h | 13702m | 5.2m/s | 0°C | 0% | 0hPa | 0V | 00:00:00 | 00:00:00 | 00:00:00 | |
| ATIDSZ-14 | 2026-09-03 00:16:05 | 47.96107 | 16.86493 | 123° | 80km/h | 13688m | 4.3m/s | 0°C | 0% | 0hPa | 0V | 00:00:00 | 00:00:00 | 00:00:00 | |
| OE3OSB-13 | 2026-09-03 00:15:58 | 47.96186 | 16.86310 | 107° | 108km/h | 13654m | 7.0m/s | -53.3°C | 6.0% | 156.3hPa | 0V | 00:00:00 | 00:00:00 | 00:00:00 | |
| OE5DXL-15 | 2026-09-03 00:15:56 | 47.96206 | 16.86256 | 138° | 82km/h | 13642m | 8.9m/s | 0°C | 0% | 0hPa | 0V | 00:00:00 | 00:00:00 | 00:00:00 | |
| PETON7-10 | 2026-09-03 00:15:53 | 47.96230 | 16.86206 | 105° | 84km/h | 13629m | 10.5m/s | 0°C | 0% | 0hPa | 0V | 00:00:00 | 00:00:00 | 00:00:00 | |
| ATIDSZ-14 | 2026-09-03 00:15:44 | 47.96325 | 16.86001 | 137° | 84km/h | 13581m | 0.4m/s | 0°C | 0% | 0hPa | 0V | 00:00:00 | 00:00:00 | 00:00:00 | |
| OE3JTB-15 | 2026-09-03 00:15:39 | 47.96395 | 16.85859 | 110° | 82km/h | 13550m | -1.3m/s | 0°C | 0% | 0hPa | 0V | 00:00:00 | 00:00:00 | 00:00:00 | |
| PETON7-10 | 2026-09-03 00:15:33 | 47.96452 | 16.85748 | 128° | 80km/h | 13529m | 5.5m/s | 0°C | 0% | 0hPa | 0V | 00:00:00 | 00:00:00 | 00:00:00 | |
| OE3OSB-13 | 2026-09-03 00:15:27 | 47.96545 | 16.85576 | 123° | 82km/h | 13486m | 4.0m/s | -52.3°C | 6.5% | 160.5hPa | 0V | 00:00:00 | 00:00:00 | 00:00:00 | |
| OE5DXL-15 | 2026-09-03 00:15:24 | 47.96571 | 16.85535 | 138° | 89km/h | 13476m | 3.9m/s | 0°C | 0% | 0hPa | 0V | 00:00:00 | 00:00:00 | 00:00:00 | |
| ATIDSZ-14 | 2026-09-03 00:15:23 | 47.96585 | 16.85512 | 127° | 80km/h | 13472m | 5.8m/s | 0°C | 0% | 0hPa | 0V | 00:00:00 | 00:00:00 | 00:00:00 | |
| PETON7-10 | 2026-09-03 00:15:17 | 47.96679 | 16.85341 | 135° | 89km/h | 13441m | 2.3m/s | 0°C | 0% | 0hPa | 0V | 00:00:00 | 00:00:00 | 00:00:00 | |
| OE3JTB-15 | 2026-09-03 00:15:09 | 47.96795 | 16.85167 | 138° | 89km/h | 13403m | 0.5m/s | 0°C | 0% | 0hPa | 0V | 00:00:00 | 00:00:00 | 00:00:00 | |
| PETON7-10 | 2026-09-03 00:15:01 | 47.96902 | 16.84959 | 123° | 93km/h | 13369m | 4.4m/s | 0°C | 0% | 0hPa | 0V | 00:00:00 | 00:00:00 | 00:00:00 | |
| OE3OSB-13 | 2026-09-03 00:14:56 | 47.96983 | 16.84800 | 126° | 111km/h | 13343m | 3.1m/s | -53.1°C | 6.8% | 164.0hPa | 0V | 00:00:00 | 00:00:00 | 00:00:00 | |
| OE5DXL-15 | 2026-09-03 00:14:54 | 47.96999 | 16.84768 | 129° | 84km/h | 13341m | 1.3m/s | 0°C | 0% | 0hPa | 0V | 00:00:00 | 00:00:00 | 00:00:00 | |
| PETON7-10 | 2026-09-03 00:14:45 | 47.97128 | 16.84550 | 125° | 88km/h | 13298m | 4.1m/s | 0°C | 0% | 0hPa | 0V | 00:00:00 | 00:00:00 | 00:00:00 | |
| S52SK | 2026-09-03 00:14:44 | 47.97159 | 16.84497 | 137° | 78km/h | 13289m | 5.9m/s | 0°C | 0% | 0hPa | 0V | 00:00:00 | 00:00:00 | 00:00:00 | |
| ATIDSZ-14 | 2026-09-03 00:14:42 | 47.97173 | 16.84476 | 132° | 78km/h | 13283m | 4.2m/s | 0°C | 0% | 0hPa | 0V | 00:00:00 | 00:00:00 | 00:00:00 | |
| OE3JTB-15 | 2026-09-03 00:14:40 | 47.97214 | 16.84410 | 128° | 88km/h | 13270m | 4.6m/s | 0°C | 0% | 0hPa | 0V | 00:00:00 | 00:00:00 | 00:00:00 | |
| S52SK | 2026-09-03 00:14:37 | 47.97243 | 16.84351 | 132° | 89km/h | 13264m | 4.5m/s | 0°C | 0% | 0hPa | 0V | 00:00:00 | 00:00:00 | 00:00:00 | |
| PETON7-10 | 2026-09-03 00:14:30 | 47.97338 | 16.84200 | 135° | 86km/h | 13230m | 2.1m/s | 0°C | 0% | 0hPa | 0V | 00:00:00 | 00:00:00 | 00:00:00 | |
| OE5DXL-15 | 2026-09-03 00:14:24 | 47.97419 | 16.84060 | 135° | 88km/h | 13202m | 3.6m/s | 0°C | 0% | 0hPa | 0V | 00:00:00 | 00:00:00 | 00:00:00 | |
| ATIDSZ-14 | 2026-09-03 00:14:22 | 47.97447 | 16.84013 | 128° | 97km/h | 13193m | 3.9m/s | 0°C | 0% | 0hPa | 0V | 00:00:00 | 00:00:00 | 00:00:00 | |
| PETON7-10 | 2026-09-03 00:14:15 | 47.97551 | 16.83839 | 136° | 91km/h | 13163m | 6.9m/s | 0°C | 0% | 0hPa | 0V | 00:00:00 | 00:00:00 | 00:00:00 | |
| OE3JTB-15 | 2026-09-03 00:14:11 | 47.97610 | 16.83743 | 123° | 84km/h | 13147m | -1.6m/s | 0°C | 0% | 0hPa | 0V | 00:00:00 | 00:00:00 | 00:00:00 | |
| ATIDSZ-14 | 2026-09-03 00:14:01 | 47.97753 | 16.83505 | 127° | 102km/h | 13103m | 1.1m/s | 0°C | 0% | 0hPa | 0V | 00:00:00 | 00:00:00 | 00:00:00 | |
| OE3OSB-13 | 2026-09-03 00:13:53 | 47.97864 | 16.83319 | 142° | 71km/h | 13070m | 0.5m/s | -52.9°C | 7.7% | 171.2hPa | 0V | 00:00:00 | 00:00:00 | 00:00:00 | |
| PETON7-10 | 2026-09-03 00:13:44 | 47.97995 | 16.83098 | 115° | 84km/h | 13036m | 8.3m/s | 0°C | 0% | 0hPa | 0V | 00:00:00 | 00:00:00 | 00:00:00 | |
| OE3JTB-15 | 2026-09-03 00:13:42 | 47.98022 | 16.83056 | 145° | 86km/h | 13029m | 9.4m/s | 0°C | 0% | 0hPa | 0V | 00:00:00 | 00:00:00 | 00:00:00 | |
| ATIDSZ-14 | 2026-09-03 00:13:39 | 47.98064 | 16.82981 | 130° | 91km/h | 13013m | 5.5m/s | 0°C | 0% | 0hPa | 0V | 00:00:00 | 00:00:00 | 00:00:00 | |
| PETON7-10 | 2026-09-03 00:13:29 | 47.98211 | 16.82764 | 155° | 84km/h | 12966m | 7.3m/s | 0°C | 0% | 0hPa | 0V | 00:00:00 | 00:00:00 | 00:00:00 | |
| OE5DXL-15 | 2026-09-03 00:13:24 | 47.98285 | 16.82658 | 146° | 89km/h | 12942m | 5.6m/s | 0°C | 0% | 0hPa | 0V | 00:00:00 | 00:00:00 | 00:00:00 | |
| OE3OSB-13 | 2026-09-03 00:13:22 | 47.98334 | 16.82595 | 133° | 80km/h | 12927m | 5.4m/s | -52.4°C | 8.9% | 175.1hPa | 0V | 00:00:00 | 00:00:00 | 00:00:00 | |
| PETON7-10 | 2026-09-03 00:13:14 | 47.98446 | 16.82434 | 137° | 89km/h | 12894m | 5.1m/s | 0°C | 0% | 0hPa | 0V | 00:00:00 | 00:00:00 | 00:00:00 | |
| OE3JTB-15 | 2026-09-03 00:13:13 | 47.98473 | 16.82389 | 133° | 93km/h | 12885m | 4.0m/s | 0°C | 0% | 0hPa | 0V | 00:00:00 | 00:00:00 | 00:00:00 | |
| OE3OSB-13 | 2026-09-03 00:12:51 | 47.98835 | 16.81877 | 129° | 113km/h | 12789m | 7.7m/s | -52.0°C | 10.1% | 178.8hPa | 0V | 00:00:00 | 00:00:00 | 00:00:00 | |
| PETON7-10 | 2026-09-03 00:12:44 | 47.98939 | 16.81716 | 131° | 91km/h | 12764m | 3.0m/s | 0°C | 0% | 0hPa | 0V | 00:00:00 | 00:00:00 | 00:00:00 | |
| OE3JTB-15 | 2026-09-03 00:12:43 | 47.98991 | 16.81643 | 138° | 93km/h | 12752m | 4.7m/s | 0°C | 0% | 0hPa | 0V | 00:00:00 | 00:00:00 | 00:00:00 | |
| PETON7-10 | 2026-09-03 00:12:26 | 47.99228 | 16.81241 | 130° | 97km/h | 12692m | 0.4m/s | 0°C | 0% | 0hPa | 0V | 00:00:00 | 00:00:00 | 00:00:00 | |
| OE5DXL-15 | 2026-09-03 00:12:24 | 47.99259 | 16.81187 | 110° | 91km/h | 12684m | 0.8m/s | 0°C | 0% | 0hPa | 0V | 00:00:00 | 00:00:00 | 00:00:00 | |
| OE3OSB-13 | 2026-09-03 00:12:20 | 47.99335 | 16.81050 | 147° | 97km/h | 12660m | 7.4m/s | -52.8°C | 11.7% | 182.5hPa | 0V | 00:00:00 | 00:00:00 | 00:00:00 | |
| OE3JTB-15 | 2026-09-03 00:12:14 | 47.99445 | 16.80887 | 148° | 89km/h | 12621m | 12.5m/s | 0°C | 0% | 0hPa | 0V | 00:00:00 | 00:00:00 | 00:00:00 | |
| PETON7-10 | 2026-09-03 00:12:10 | 47.99483 | 16.80850 | 134° | 91km/h | 12610m | 10.5m/s | 0°C | 0% | 0hPa | 0V | 00:00:00 | 00:00:00 | 00:00:00 | |
| OE3OSB-13 | 2026-09-03 00:11:49 | 47.99905 | 16.80375 | 156° | 122km/h | 12491m | 3.9m/s | -53.0°C | 13.5% | 187.3hPa | 0V | 00:00:00 | 00:00:00 | 00:00:00 | |
| OE3JTB-15 | 2026-09-03 00:11:45 | 47.99996 | 16.80300 | 163° | 119km/h | 12466m | 7.4m/s | 0°C | 0% | 0hPa | 0V | 00:00:00 | 00:00:00 | 00:00:00 | |
| PETON7-10 | 2026-09-03 00:11:40 | 48.00086 | 16.80215 | 148° | 115km/h | 12446m | 11.4m/s | 0°C | 0% | 0hPa | 0V | 00:00:00 | 00:00:00 | 00:00:00 | |
| PETON7-10 | 2026-09-03 00:11:25 | 48.00446 | 16.79856 | 147° | 117km/h | 12375m | 2.2m/s | 0°C | 0% | 0hPa | 0V | 00:00:00 | 00:00:00 | 00:00:00 | |
| OE5DXL-15 | 2026-09-03 00:11:21 | 48.00546 | 16.79756 | 146° | 122km/h | 12351m | 6.0m/s | 0°C | 0% | 0hPa | 0V | 00:00:00 | 00:00:00 | 00:00:00 | |
| OE3OSB-13 | 2026-09-03 00:11:18 | 48.00667 | 16.79618 | 130° | 137km/h | 12323m | 10.4m/s | -53.0°C | 14.8% | 192.1hPa | 0V | 00:00:00 | 00:00:00 | 00:00:00 | |
| S52SK | 2026-09-03 00:11:12 | 48.00769 | 16.79504 | 148° | 150km/h | 12301m | 5.9m/s | 0°C | 0% | 0hPa | 0V | 00:00:00 | 00:00:00 | 00:00:00 | |
| PETON7-10 | 2026-09-03 00:11:10 | 48.00817 | 16.79458 | 128° | 126km/h | 12288m | 7.4m/s | 0°C | 0% | 0hPa | 0V | 00:00:00 | 00:00:00 | 00:00:00 | |
| S52SK | 2026-09-03 00:11:06 | 48.00913 | 16.79330 | 137° | 139km/h | 12264m | 6.4m/s | 0°C | 0% | 0hPa | 0V | 00:00:00 | 00:00:00 | 00:00:00 | |
| S52SK | 2026-09-03 00:11:01 | 48.01038 | 16.79184 | 153° | 102km/h | 12234m | 2.8m/s | 0°C | 0% | 0hPa | 0V | 00:00:00 | 00:00:00 | 00:00:00 | |
| OE3OSB-13 | 2026-09-03 00:10:47 | 48.01396 | 16.78737 | 145° | 115km/h | 12152m | 4.7m/s | -53.1°C | 16.7% | 197.2hPa | 0V | 00:00:00 | 00:00:00 | 00:00:00 | |
| PETON7-10 | 2026-09-03 00:10:39 | 48.01564 | 16.78525 | 141° | 119km/h | 12121m | 5.7m/s | 0°C | 0% | 0hPa | 0V | 00:00:00 | 00:00:00 | 00:00:00 | |
| PETON7-10 | 2026-09-03 00:10:24 | 48.01911 | 16.78071 | 140° | 119km/h | 12053m | 6.6m/s | 0°C | 0% | 0hPa | 0V | 00:00:00 | 00:00:00 | 00:00:00 | |
| OE5DXL-15 | 2026-09-03 00:10:21 | 48.01979 | 16.77979 | 135° | 115km/h | 12034m | 2.4m/s | 0°C | 0% | 0hPa | 0V | 00:00:00 | 00:00:00 | 00:00:00 | |
| OE3OSB-13 | 2026-09-03 00:10:16 | 48.02143 | 16.77781 | 139° | 126km/h | 12014m | 6.1m/s | -52.4°C | 19.7% | 201.7hPa | 0V | 00:00:00 | 00:00:00 | 00:00:00 | |
| OE3JTB-15 | 2026-09-03 00:10:12 | 48.02232 | 16.77658 | 140° | 117km/h | 11996m | 2.9m/s | 0°C | 0% | 0hPa | 0V | 00:00:00 | 00:00:00 | 00:00:00 | |
| PETON7-10 | 2026-09-03 00:10:06 | 48.02321 | 16.77546 | 144° | 119km/h | 11979m | 1.4m/s | 0°C | 0% | 0hPa | 0V | 00:00:00 | 00:00:00 | 00:00:00 | |
| OE3OSB-13 | 2026-09-03 00:09:45 | 48.02813 | 16.76879 | 134° | 110km/h | 11878m | 8.5m/s | -54.0°C | 22.1% | 206.0hPa | 0V | 00:00:00 | 00:00:00 | 00:00:00 | |
| OE3JTB-15 | 2026-09-03 00:09:42 | 48.02854 | 16.76817 | 140° | 120km/h | 11867m | 6.8m/s | 0°C | 0% | 0hPa | 0V | 00:00:00 | 00:00:00 | 00:00:00 | |
| PETON7-10 | 2026-09-03 00:09:36 | 48.02993 | 16.76643 | 144° | 117km/h | 11842m | 3.6m/s | 0°C | 0% | 0hPa | 0V | 00:00:00 | 00:00:00 | 00:00:00 | |
| PETON7-10 | 2026-09-03 00:09:20 | 48.03357 | 16.76193 | 134° | 113km/h | 11781m | 8.4m/s | 0°C | 0% | 0hPa | 0V | 00:00:00 | 00:00:00 | 00:00:00 | |
| OE5DXL-15 | 2026-09-03 00:09:19 | 48.03398 | 16.76132 | 148° | 119km/h | 11770m | 11.5m/s | 0°C | 0% | 0hPa | 0V | 00:00:00 | 00:00:00 | 00:00:00 | |
| OE3OSB-13 | 2026-09-03 00:09:14 | 48.03513 | 16.76001 | 131° | 77km/h | 11743m | 4.2m/s | -54.0°C | 23.7% | 210.2hPa | 0V | 00:00:00 | 00:00:00 | 00:00:00 | |
| OE3JTB-15 | 2026-09-03 00:09:13 | 48.03513 | 16.76001 | 132° | 108km/h | 11743m | 4.1m/s | 0°C | 0% | 0hPa | 0V | 00:00:00 | 00:00:00 | 00:00:00 | |
| PETON7-10 | 2026-09-03 00:09:05 | 48.03691 | 16.75790 | 134° | 124km/h | 11701m | 1.1m/s | 0°C | 0% | 0hPa | 0V | 00:00:00 | 00:00:00 | 00:00:00 | |
| OE3OSB-13 | 2026-09-03 00:08:43 | 48.04227 | 16.75139 | 130° | 119km/h | 11579m | 7.4m/s | -54.2°C | 25.0% | 215.7hPa | 0V | 00:00:00 | 00:00:00 | 00:00:00 | |
| PETON7-10 | 2026-09-03 00:08:35 | 48.04384 | 16.74943 | 133° | 117km/h | 11544m | 5.8m/s | 0°C | 0% | 0hPa | 0V | 00:00:00 | 00:00:00 | 00:00:00 | |
| OE3JTB-15 | 2026-09-03 00:08:32 | 48.04456 | 16.74858 | 148° | 120km/h | 11527m | 2.7m/s | 0°C | 0% | 0hPa | 0V | 00:00:00 | 00:00:00 | 00:00:00 | |
| PETON7-10 | 2026-09-03 00:08:19 | 48.04757 | 16.74521 | 144° | 115km/h | 11472m | 0.0m/s | 0°C | 0% | 0hPa | 0V | 00:00:00 | 00:00:00 | 00:00:00 | |
| OE5DXL-15 | 2026-09-03 00:08:18 | 48.04778 | 16.74498 | 144° | 126km/h | 11470m | 7.4m/s | 0°C | 0% | 0hPa | 0V | 00:00:00 | 00:00:00 | 00:00:00 | |
| OE3OSB-13 | 2026-09-03 00:08:12 | 48.04950 | 16.74323 | 137° | 108km/h | 11438m | 0.9m/s | -53.5°C | 26.3% | 220.8hPa | 0V | 00:00:00 | 00:00:00 | 00:00:00 | |
| OE3JTB-15 | 2026-09-03 00:08:02 | 48.05174 | 16.74091 | 158° | 124km/h | 11384m | 5.5m/s | 0°C | 0% | 0hPa | 0V | 00:00:00 | 00:00:00 | 00:00:00 | |
| PETON7-10 | 2026-09-03 00:07:59 | 48.05251 | 16.74017 | 157° | 128km/h | 11364m | 2.6m/s | 0°C | 0% | 0hPa | 0V | 00:00:00 | 00:00:00 | 00:00:00 | |
| OE5DXL-15 | 2026-09-03 00:07:48 | 48.05540 | 16.73734 | 153° | 124km/h | 11311m | 1.5m/s | 0°C | 0% | 0hPa | 0V | 00:00:00 | 00:00:00 | 00:00:00 | |
| PETON7-10 | 2026-09-03 00:07:44 | 48.05644 | 16.73632 | 156° | 120km/h | 11294m | 4.0m/s | 0°C | 0% | 0hPa | 0V | 00:00:00 | 00:00:00 | 00:00:00 | |
| OE3OSB-13 | 2026-09-03 00:07:41 | 48.05746 | 16.73529 | 149° | 113km/h | 11276m | 7.3m/s | -53.0°C | 28.5% | 226.2hPa | 0V | 00:00:00 | 00:00:00 | 00:00:00 | |
| OE3JTB-15 | 2026-09-03 00:07:33 | 48.05922 | 16.73364 | 136° | 128km/h | 11242m | 0.2m/s | 0°C | 0% | 0hPa | 0V | 00:00:00 | 00:00:00 | 00:00:00 | |
| PETON7-10 | 2026-09-03 00:07:29 | 48.06025 | 16.73266 | 157° | 119km/h | 11224m | 1.6m/s | 0°C | 0% | 0hPa | 0V | 00:00:00 | 00:00:00 | 00:00:00 | |
| S52SK | 2026-09-03 00:07:20 | 48.06250 | 16.73051 | 140° | 104km/h | 11175m | 7.6m/s | 0°C | 0% | 0hPa | 0V | 00:00:00 | 00:00:00 | 00:00:00 | |
| S52SK | 2026-09-03 00:07:15 | 48.06374 | 16.72932 | 152° | 139km/h | 11150m | 2.3m/s | 0°C | 0% | 0hPa | 0V | 00:00:00 | 00:00:00 | 00:00:00 | |
| PETON7-10 | 2026-09-03 00:07:13 | 48.06426 | 16.72880 | 147° | 135km/h | 11140m | 1.8m/s | 0°C | 0% | 0hPa | 0V | 00:00:00 | 00:00:00 | 00:00:00 | |
| OE3OSB-13 | 2026-09-03 00:07:10 | 48.06533 | 16.72776 | 136° | 99km/h | 11118m | 3.0m/s | -52.8°C | 30.7% | 231.9hPa | 0V | 00:00:00 | 00:00:00 | 00:00:00 | |
| S52SK | 2026-09-03 00:07:09 | 48.06533 | 16.72776 | 137° | 100km/h | 11118m | 3.0m/s | 0°C | 0% | 0hPa | 0V | 00:00:00 | 00:00:00 | 00:00:00 | |
| S52SK | 2026-09-03 00:07:03 | 48.06686 | 16.72615 | 151° | 151km/h | 11090m | 8.7m/s | 0°C | 0% | 0hPa | 0V | 00:00:00 | 00:00:00 | 00:00:00 | |
| HA6NAB-11 | 2026-09-03 00:07:00 | 48.06765 | 16.72532 | 142° | 120km/h | 11073m | 3.3m/s | 0°C | 0% | 0hPa | 0V | 00:00:00 | 00:00:00 | 00:00:00 | |
| PETON7-10 | 2026-09-03 00:06:58 | 48.06820 | 16.72465 | 145° | 137km/h | 11062m | 3.6m/s | 0°C | 0% | 0hPa | 0V | 00:00:00 | 00:00:00 | 00:00:00 | |
| S52SK | 2026-09-03 00:06:56 | 48.06869 | 16.72417 | 152° | 111km/h | 11051m | 0.2m/s | 0°C | 0% | 0hPa | 0V | 00:00:00 | 00:00:00 | 00:00:00 | |
| HA6NAB-11 | 2026-09-03 00:06:55 | 48.06896 | 16.72393 | 148° | 131km/h | 11047m | 8.5m/s | 0°C | 0% | 0hPa | 0V | 00:00:00 | 00:00:00 | 00:00:00 | |
| S52SK | 2026-09-03 00:06:50 | 48.07029 | 16.72250 | 134° | 144km/h | 11024m | 6.0m/s | 0°C | 0% | 0hPa | 0V | 00:00:00 | 00:00:00 | 00:00:00 | |
| HA6NAB-11 | 2026-09-03 00:06:49 | 48.07053 | 16.72214 | 139° | 124km/h | 11020m | 0.9m/s | 0°C | 0% | 0hPa | 0V | 00:00:00 | 00:00:00 | 00:00:00 | |
| PETON7-10 | 2026-09-03 00:06:43 | 48.07210 | 16.72043 | 146° | 128km/h | 10990m | 2.0m/s | 0°C | 0% | 0hPa | 0V | 00:00:00 | 00:00:00 | 00:00:00 | |
| OE5DXL-15 | 2026-09-03 00:06:39 | 48.07310 | 16.71926 | 148° | 130km/h | 10974m | 0.0m/s | 0°C | 0% | 0hPa | 0V | 00:00:00 | 00:00:00 | 00:00:00 | |
| OE3OSB-13 | 2026-09-03 00:06:38 | 48.07339 | 16.71899 | 149° | 117km/h | 10970m | 8.2m/s | -52.1°C | 34.5% | 237.2hPa | 0V | 00:00:00 | 00:00:00 | 00:00:00 | |
| HA6NAB-11 | 2026-09-03 00:06:37 | 48.07361 | 16.71874 | 134° | 106km/h | 10966m | 0.5m/s | 0°C | 0% | 0hPa | 0V | 00:00:00 | 00:00:00 | 00:00:00 | |
| HA6NAB-11 | 2026-09-03 00:06:32 | 48.07485 | 16.71727 | 159° | 119km/h | 10940m | 8.1m/s | 0°C | 0% | 0hPa | 0V | 00:00:00 | 00:00:00 | 00:00:00 | |
| PETON7-10 | 2026-09-03 00:06:27 | 48.07608 | 16.71586 | 138° | 130km/h | 10910m | 9.3m/s | 0°C | 0% | 0hPa | 0V | 00:00:00 | 00:00:00 | 00:00:00 | |
| HA6NAB-11 | 2026-09-03 00:06:26 | 48.07636 | 16.71554 | 152° | 141km/h | 10903m | 4.8m/s | 0°C | 0% | 0hPa | 0V | 00:00:00 | 00:00:00 | 00:00:00 | |
| HA6NAB-11 | 2026-09-03 00:06:19 | 48.07811 | 16.71356 | 154° | 133km/h | 10865m | 2.4m/s | 0°C | 0% | 0hPa | 0V | 00:00:00 | 00:00:00 | 00:00:00 | |
| HA6NAB-11 | 2026-09-03 00:06:13 | 48.07956 | 16.71187 | 142° | 151km/h | 10834m | 3.3m/s | 0°C | 0% | 0hPa | 0V | 00:00:00 | 00:00:00 | 00:00:00 | |
| PETON7-10 | 2026-09-03 00:06:12 | 48.07983 | 16.71160 | 157° | 120km/h | 10830m | 7.1m/s | 0°C | 0% | 0hPa | 0V | 00:00:00 | 00:00:00 | 00:00:00 | |
| HA6NAB-11 | 2026-09-03 00:06:07 | 48.08103 | 16.71022 | 142° | 119km/h | 10798m | 5.7m/s | 0°C | 0% | 0hPa | 0V | 00:00:00 | 00:00:00 | 00:00:00 | |
| HA6NAB-11 | 2026-09-03 00:06:01 | 48.08251 | 16.70844 | 153° | 110km/h | 10770m | 5.0m/s | 0°C | 0% | 0hPa | 0V | 00:00:00 | 00:00:00 | 00:00:00 | |
| PETON7-10 | 2026-09-03 00:05:57 | 48.08350 | 16.70733 | 130° | 117km/h | 10749m | 9.2m/s | 0°C | 0% | 0hPa | 0V | 00:00:00 | 00:00:00 | 00:00:00 | |
| HA6NAB-11 | 2026-09-03 00:05:55 | 48.08392 | 16.70677 | 154° | 117km/h | 10737m | 6.3m/s | 0°C | 0% | 0hPa | 0V | 00:00:00 | 00:00:00 | 00:00:00 | |
| HA6NAB-11 | 2026-09-03 00:05:49 | 48.08538 | 16.70509 | 155° | 131km/h | 10706m | 7.2m/s | 0°C | 0% | 0hPa | 0V | 00:00:00 | 00:00:00 | 00:00:00 | |
| HA6NAB-11 | 2026-09-03 00:05:43 | 48.08676 | 16.70350 | 156° | 117km/h | 10668m | 8.9m/s | 0°C | 0% | 0hPa | 0V | 00:00:00 | 00:00:00 | 00:00:00 | |
| PETON7-10 | 2026-09-03 00:05:42 | 48.08696 | 16.70328 | 132° | 111km/h | 10662m | 4.7m/s | 0°C | 0% | 0hPa | 0V | 00:00:00 | 00:00:00 | 00:00:00 | |
| OE3JTB-15 | 2026-09-03 00:05:38 | 48.08783 | 16.70222 | 130° | 111km/h | 10639m | 4.0m/s | 0°C | 0% | 0hPa | 0V | 00:00:00 | 00:00:00 | 00:00:00 | |
| HA6NAB-11 | 2026-09-03 00:05:37 | 48.08806 | 16.70191 | 148° | 126km/h | 10633m | 7.5m/s | 0°C | 0% | 0hPa | 0V | 00:00:00 | 00:00:00 | 00:00:00 | |
| OE3OSB-13 | 2026-09-03 00:05:36 | 48.08849 | 16.70145 | 129° | 97km/h | 10623m | 7.2m/s | -51.5°C | 43.8% | 250.4hPa | 0V | 00:00:00 | 00:00:00 | 00:00:00 | |
| OE5DXL-15 | 2026-09-03 00:05:34 | 48.08869 | 16.70114 | 138° | 117km/h | 10618m | 2.8m/s | 0°C | 0% | 0hPa | 0V | 00:00:00 | 00:00:00 | 00:00:00 | |
| HA6NAB-11 | 2026-09-03 00:05:30 | 48.08960 | 16.70012 | 153° | 126km/h | 10597m | 5.7m/s | 0°C | 0% | 0hPa | 0V | 00:00:00 | 00:00:00 | 00:00:00 | |
| PETON7-10 | 2026-09-03 00:05:27 | 48.09023 | 16.69937 | 140° | 111km/h | 10581m | 3.5m/s | 0°C | 0% | 0hPa | 0V | 00:00:00 | 00:00:00 | 00:00:00 | |
| PG1ADW-2 | 2026-09-03 00:05:19 | 48.09194 | 16.69728 | 137° | 113km/h | 10545m | 0.9m/s | 0°C | 0% | 0hPa | 0V | 00:00:00 | 00:00:00 | 00:00:00 | |
| HA6NAB-11 | 2026-09-03 00:05:18 | 48.09215 | 16.69702 | 146° | 102km/h | 10542m | 6.3m/s | 0°C | 0% | 0hPa | 0V | 00:00:00 | 00:00:00 | 00:00:00 | |
| HA6NAB-11 | 2026-09-03 00:05:14 | 48.09348 | 16.69544 | 140° | 99km/h | 10515m | 2.6m/s | 0°C | 0% | 0hPa | 0V | 00:00:00 | 00:00:00 | 00:00:00 | |
| PETON7-10 | 2026-09-03 00:05:11 | 48.09369 | 16.69520 | 146° | 115km/h | 10512m | 4.9m/s | 0°C | 0% | 0hPa | 0V | 00:00:00 | 00:00:00 | 00:00:00 | |
| OE3JTB-15 | 2026-09-03 00:05:08 | 48.09435 | 16.69437 | 134° | 113km/h | 10499m | 1.9m/s | 0°C | 0% | 0hPa | 0V | 00:00:00 | 00:00:00 | 00:00:00 | |
| HA6NAB-11 | 2026-09-03 00:05:06 | 48.09481 | 16.69384 | 150° | 117km/h | 10489m | 4.3m/s | 0°C | 0% | 0hPa | 0V | 00:00:00 | 00:00:00 | 00:00:00 | |
| OE3OSB-13 | 2026-09-03 00:05:05 | 48.09528 | 16.69333 | 135° | 119km/h | 10480m | 6.6m/s | -50.9°C | 45.0% | 255.9hPa | 0V | 00:00:00 | 00:00:00 | 00:00:00 | |
| S52SK | 2026-09-03 00:05:04 | 48.09528 | 16.69333 | 137° | 120km/h | 10480m | 6.6m/s | 0°C | 0% | 0hPa | 0V | 00:00:00 | 00:00:00 | 00:00:00 | |
| HA6NAB-11 | 2026-09-03 00:05:01 | 48.09593 | 16.69247 | 147° | 104km/h | 10468m | 3.6m/s | 0°C | 0% | 0hPa | 0V | 00:00:00 | 00:00:00 | 00:00:00 | |
| S52SK | 2026-09-03 00:04:59 | 48.09643 | 16.69199 | 146° | 120km/h | 10460m | 3.1m/s | 0°C | 0% | 0hPa | 0V | 00:00:00 | 00:00:00 | 00:00:00 | |
| PG1ADW-2 | 2026-09-03 00:04:58 | 48.09666 | 16.69173 | 141° | 115km/h | 10456m | 4.9m/s | 0°C | 0% | 0hPa | 0V | 00:00:00 | 00:00:00 | 00:00:00 | |
| PETON7-10 | 2026-09-03 00:04:56 | 48.09706 | 16.69113 | 138° | 115km/h | 10449m | 2.5m/s | 0°C | 0% | 0hPa | 0V | 00:00:00 | 00:00:00 | 00:00:00 | |
| HA6NAB-11 | 2026-09-03 00:04:50 | 48.09842 | 16.68960 | 153° | 117km/h | 10422m | 6.3m/s | 0°C | 0% | 0hPa | 0V | 00:00:00 | 00:00:00 | 00:00:00 | |
| HA6NAB-11 | 2026-09-03 00:04:47 | 48.09959 | 16.68827 | 148° | 119km/h | 10401m | 3.6m/s | 0°C | 0% | 0hPa | 0V | 00:00:00 | 00:00:00 | 00:00:00 | |
| PETON7-10 | 2026-09-03 00:04:43 | 48.10042 | 16.68727 | 143° | 106km/h | 10384m | 4.5m/s | 0°C | 0% | 0hPa | 0V | 00:00:00 | 00:00:00 | 00:00:00 | |
| OE3JTB-15 | 2026-09-03 00:04:41 | 48.10082 | 16.68668 | 136° | 102km/h | 10375m | 4.0m/s | 0°C | 0% | 0hPa | 0V | 00:00:00 | 00:00:00 | 00:00:00 | |
| PG1ADW-2 | 2026-09-03 00:04:37 | 48.10150 | 16.68592 | 141° | 99km/h | 10362m | 4.7m/s | 0°C | 0% | 0hPa | 0V | 00:00:00 | 00:00:00 | 00:00:00 | |
| OE3OSB-13 | 2026-09-03 00:04:34 | 48.10210 | 16.68519 | 145° | 95km/h | 10351m | 2.1m/s | -50.4°C | 49.4% | 261.2hPa | 0V | 00:00:00 | 00:00:00 | 00:00:00 | |
| OE5DXL-15 | 2026-09-03 00:04:33 | 48.10210 | 16.68519 | 146° | 97km/h | 10351m | 2.0m/s | 0°C | 0% | 0hPa | 0V | 00:00:00 | 00:00:00 | 00:00:00 | |
| PETON7-10 | 2026-09-03 00:04:25 | 48.10364 | 16.68302 | 127° | 102km/h | 10317m | 2.6m/s | 0°C | 0% | 0hPa | 0V | 00:00:00 | 00:00:00 | 00:00:00 | |
| OE3JTB-15 | 2026-09-03 00:04:12 | 48.10649 | 16.67887 | 134° | 95km/h | 10242m | 2.7m/s | 0°C | 0% | 0hPa | 0V | 00:00:00 | 00:00:00 | 00:00:00 | |
| PETON7-10 | 2026-09-03 00:04:11 | 48.10649 | 16.67887 | 134° | 95km/h | 10242m | 2.7m/s | 0°C | 0% | 0hPa | 0V | 00:00:00 | 00:00:00 | 00:00:00 | |
| PG1ADW-2 | 2026-09-03 00:04:06 | 48.10734 | 16.67753 | 125° | 99km/h | 10218m | 3.7m/s | 0°C | 0% | 0hPa | 0V | 00:00:00 | 00:00:00 | 00:00:00 | |
| PETON7-10 | 2026-09-03 00:03:55 | 48.10892 | 16.67480 | 128° | 95km/h | 10167m | 0.8m/s | 0°C | 0% | 0hPa | 0V | 00:00:00 | 00:00:00 | 00:00:00 | |
| PG1ADW-2 | 2026-09-03 00:03:44 | 48.11066 | 16.67173 | 128° | 89km/h | 10119m | 6.8m/s | 0°C | 0% | 0hPa | 0V | 00:00:00 | 00:00:00 | 00:00:00 | |
| OE5DXL-15 | 2026-09-03 00:03:41 | 48.11103 | 16.67086 | 135° | 89km/h | 10100m | 6.1m/s | 0°C | 0% | 0hPa | 0V | 00:00:00 | 00:00:00 | 00:00:00 | |
| PETON7-10 | 2026-09-03 00:03:40 | 48.11119 | 16.67061 | 132° | 88km/h | 10095m | 3.0m/s | 0°C | 0% | 0hPa | 0V | 00:00:00 | 00:00:00 | 00:00:00 | |
| OE3OSB-13 | 2026-09-03 00:03:32 | 48.11251 | 16.66822 | 129° | 75km/h | 10050m | 6.9m/s | -49.0°C | 55.6% | 273.3hPa | 0V | 00:00:00 | 00:00:00 | 00:00:00 | |
| PETON7-10 | 2026-09-03 00:03:25 | 48.11326 | 16.66667 | 122° | 86km/h | 10024m | 9.5m/s | 0°C | 0% | 0hPa | 0V | 00:00:00 | 00:00:00 | 00:00:00 | |
| PETON7-10 | 2026-09-03 00:03:10 | 48.11513 | 16.66294 | 119° | 80km/h | 9952m | 5.9m/s | 0°C | 0% | 0hPa | 0V | 00:00:00 | 00:00:00 | 00:00:00 | |
| OE5DXL-15 | 2026-09-03 00:03:08 | 48.11537 | 16.66253 | 150° | 80km/h | 9941m | 5.9m/s | 0°C | 0% | 0hPa | 0V | 00:00:00 | 00:00:00 | 00:00:00 | |
| OE3OSB-13 | 2026-09-03 00:03:00 | 48.11999 | 16.65327 | 127° | 106km/h | 9767m | -1.8m/s | -46.7°C | 55.4% | 285.3hPa | 0V | 00:00:00 | 00:00:00 | 00:00:00 | |
| PETON7-10 | 2026-09-03 00:02:49 | 48.12094 | 16.65135 | 110° | 75km/h | 9737m | 3.7m/s | 0°C | 0% | 0hPa | 0V | 00:00:00 | 00:00:00 | 00:00:00 | |
| OE3JTB-15 | 2026-09-03 00:02:33 | 48.12225 | 16.64842 | 141° | 77km/h | 9678m | 6.2m/s | 0°C | 0% | 0hPa | 0V | 00:00:00 | 00:00:00 | 00:00:00 | |
| PG1ADW-2 | 2026-09-03 00:02:29 | 48.12247 | 16.64798 | 120° | 84km/h | 9670m | 4.9m/s | 0°C | 0% | 0hPa | 0V | 00:00:00 | 00:00:00 | 00:00:00 | |
| PETON7-10 | 2026-09-03 00:02:27 | 48.12262 | 16.64771 | 142° | 80km/h | 9666m | 5.1m/s | 0°C | 0% | 0hPa | 0V | 00:00:00 | 00:00:00 | 00:00:00 | |
| OE5DXL-15 | 2026-09-03 00:02:26 | 48.12274 | 16.64753 | 121° | 80km/h | 9659m | 7.9m/s | 0°C | 0% | 0hPa | 0V | 00:00:00 | 00:00:00 | 00:00:00 | |
| OE3OSB-13 | 2026-09-03 00:02:17 | 48.12351 | 16.64592 | 109° | 68km/h | 9619m | 1.3m/s | -45.3°C | 54.5% | 291.9hPa | 0V | 00:00:00 | 00:00:00 | 00:00:00 | |
| PETON7-10 | 2026-09-03 00:02:08 | 48.12439 | 16.64424 | 134° | 82km/h | 9590m | 4.0m/s | 0°C | 0% | 0hPa | 0V | 00:00:00 | 00:00:00 | 00:00:00 | |
| OE3JTB-15 | 2026-09-03 00:01:56 | 48.12583 | 16.64134 | 131° | 75km/h | 9536m | 5.5m/s | 0°C | 0% | 0hPa | 0V | 00:00:00 | 00:00:00 | 00:00:00 | |
| PETON7-10 | 2026-09-03 00:01:49 | 48.12623 | 16.64060 | 148° | 80km/h | 9523m | 2.5m/s | 0°C | 0% | 0hPa | 0V | 00:00:00 | 00:00:00 | 00:00:00 | |
| OE5DXL-15 | 2026-09-03 00:01:48 | 48.12646 | 16.64013 | 114° | 80km/h | 9515m | 2.1m/s | 0°C | 0% | 0hPa | 0V | 00:00:00 | 00:00:00 | 00:00:00 | |
| OE3OSB-13 | 2026-09-03 00:01:41 | 48.12730 | 16.63851 | 122° | 78km/h | 9488m | 7.6m/s | -44.1°C | 56.1% | 297.7hPa | 0V | 00:00:00 | 00:00:00 | 00:00:00 | |
| PETON7-10 | 2026-09-03 00:01:33 | 48.12800 | 16.63694 | 124° | 80km/h | 9466m | 4.6m/s | 0°C | 0% | 0hPa | 0V | 00:00:00 | 00:00:00 | 00:00:00 | |
| S52SK | 2026-09-03 00:01:25 | 48.12852 | 16.63554 | 114° | 100km/h | 9444m | 4.4m/s | 0°C | 0% | 0hPa | 0V | 00:00:00 | 00:00:00 | 00:00:00 | |
| OE3JTB-15 | 2026-09-03 00:01:21 | 48.12927 | 16.63417 | 103° | 78km/h | 9414m | 5.8m/s | 0°C | 0% | 0hPa | 0V | 00:00:00 | 00:00:00 | 00:00:00 | |
| S52SK | 2026-09-03 00:01:19 | 48.12927 | 16.63417 | 104° | 86km/h | 9414m | 5.8m/s | 0°C | 0% | 0hPa | 0V | 00:00:00 | 00:00:00 | 00:00:00 | |
| PETON7-10 | 2026-09-03 00:01:09 | 48.13001 | 16.63276 | 121° | 75km/h | 9384m | 2.1m/s | 0°C | 0% | 0hPa | 0V | 00:00:00 | 00:00:00 | 00:00:00 | |
| S52SK | 2026-09-03 00:01:08 | 48.13011 | 16.63252 | 122° | 89km/h | 9379m | 9.2m/s | 0°C | 0% | 0hPa | 0V | 00:00:00 | 00:00:00 | 00:00:00 | |
| OE5DXL-15 | 2026-09-03 00:01:01 | 48.13072 | 16.63129 | 135° | 77km/h | 9354m | 3.0m/s | 0°C | 0% | 0hPa | 0V | 00:00:00 | 00:00:00 | 00:00:00 | |
| OE3OSB-13 | 2026-09-03 00:00:58 | 48.13089 | 16.63082 | 113° | 80km/h | 9340m | 3.0m/s | -42.8°C | 53.9% | 304.4hPa | 0V | 00:00:00 | 00:00:00 | 00:00:00 | |
| S52SK | 2026-09-03 00:00:52 | 48.13132 | 16.62980 | 120° | 88km/h | 9317m | 3.6m/s | 0°C | 0% | 0hPa | 0V | 00:00:00 | 00:00:00 | 00:00:00 | |
| PETON7-10 | 2026-09-03 00:00:50 | 48.13164 | 16.62912 | 106° | 82km/h | 9306m | 3.1m/s | 0°C | 0% | 0hPa | 0V | 00:00:00 | 00:00:00 | 00:00:00 | |
| S52SK | 2026-09-03 00:00:49 | 48.13196 | 16.62842 | 123° | 75km/h | 9291m | 5.5m/s | 0°C | 0% | 0hPa | 0V | 00:00:00 | 00:00:00 | 00:00:00 | |
| S52SK | 2026-09-03 00:00:46 | 48.13272 | 16.62694 | 133° | 64km/h | 9267m | 5.8m/s | 0°C | 0% | 0hPa | 0V | 00:00:00 | 00:00:00 | 00:00:00 | |
| S52SK | 2026-09-03 00:00:41 | 48.13322 | 16.62568 | 106° | 86km/h | 9245m | 2.1m/s | 0°C | 0% | 0hPa | 0V | 00:00:00 | 00:00:00 | 00:00:00 | |
| PETON7-10 | 2026-09-03 00:00:40 | 48.13331 | 16.62538 | 121° | 82km/h | 9241m | 6.9m/s | 0°C | 0% | 0hPa | 0V | 00:00:00 | 00:00:00 | 00:00:00 | |
| S52SK | 2026-09-03 00:00:34 | 48.13388 | 16.62414 | 115° | 73km/h | 9214m | 6.1m/s | 0°C | 0% | 0hPa | 0V | 00:00:00 | 00:00:00 | 00:00:00 | |
| OE3OSB-13 | 2026-09-03 00:00:30 | 48.13433 | 16.62316 | 120° | 60km/h | 9196m | 2.9m/s | -41.4°C | 50.3% | 311.0hPa | 0V | 00:00:00 | 00:00:00 | 00:00:00 | |
| S52SK | 2026-09-03 00:00:27 | 48.13452 | 16.62267 | 126° | 86km/h | 9188m | 5.0m/s | 0°C | 0% | 0hPa | 0V | 00:00:00 | 00:00:00 | 00:00:00 | |
| PETON7-10 | 2026-09-03 00:00:21 | 48.13489 | 16.62160 | 143° | 82km/h | 9175m | 2.6m/s | 0°C | 0% | 0hPa | 0V | 00:00:00 | 00:00:00 | 00:00:00 | |
| S52SK | 2026-09-03 00:00:19 | 48.13512 | 16.62112 | 110° | 91km/h | 9166m | 2.7m/s | 0°C | 0% | 0hPa | 0V | 00:00:00 | 00:00:00 | 00:00:00 | |
| OE3JTB-15 | 2026-09-03 00:00:12 | 48.13607 | 16.61903 | 133° | 78km/h | 9117m | 6.1m/s | 0°C | 0% | 0hPa | 0V | 00:00:00 | 00:00:00 | 00:00:00 | |
| PETON7-10 | 2026-09-03 00:00:04 | 48.13669 | 16.61777 | 110° | 78km/h | 9095m | 3.7m/s | 0°C | 0% | 0hPa | 0V | 00:00:00 | 00:00:00 | 00:00:00 | |
| OE3OSB-13 | 2026-09-02 23:59:55 | 48.13773 | 16.61539 | 123° | 77km/h | 9047m | 4.3m/s | -40.1°C | 44.0% | 317.9hPa | 0V | 00:00:00 | 00:00:00 | 00:00:00 | |
| PETON7-10 | 2026-09-02 23:59:45 | 48.13873 | 16.61303 | 124° | 80km/h | 9005m | 2.9m/s | 0°C | 0% | 0hPa | 0V | 00:00:00 | 00:00:00 | 00:00:00 | |
| OE5DXL-15 | 2026-09-02 23:59:44 | 48.13885 | 16.61281 | 132° | 78km/h | 9000m | 7.7m/s | 0°C | 0% | 0hPa | 0V | 00:00:00 | 00:00:00 | 00:00:00 | |
| OE3JTB-15 | 2026-09-02 23:59:42 | 48.13923 | 16.61184 | 111° | 77km/h | 8986m | 7.3m/s | 0°C | 0% | 0hPa | 0V | 00:00:00 | 00:00:00 | 00:00:00 | |
| PG1ADW-2 | 2026-09-02 23:59:30 | 48.14038 | 16.60932 | 126° | 75km/h | 8937m | 3.5m/s | 0°C | 0% | 0hPa | 0V | 00:00:00 | 00:00:00 | 00:00:00 | |
| PETON7-10 | 2026-09-02 23:59:29 | 48.14047 | 16.60909 | 117° | 77km/h | 8934m | 3.8m/s | 0°C | 0% | 0hPa | 0V | 00:00:00 | 00:00:00 | 00:00:00 | |
| OE3OSB-13 | 2026-09-02 23:59:23 | 48.14114 | 16.60755 | 138° | 84km/h | 8912m | 9.0m/s | -38.8°C | 38.7% | 324.6hPa | 0V | 00:00:00 | 00:00:00 | 00:00:00 | |
| PETON7-10 | 2026-09-02 23:59:14 | 48.14213 | 16.60548 | 124° | 78km/h | 8862m | 4.6m/s | 0°C | 0% | 0hPa | 0V | 00:00:00 | 00:00:00 | 00:00:00 | |
| OE3JTB-15 | 2026-09-02 23:59:13 | 48.14249 | 16.60490 | 123° | 82km/h | 8850m | 7.0m/s | 0°C | 0% | 0hPa | 0V | 00:00:00 | 00:00:00 | 00:00:00 | |
| PG1ADW-2 | 2026-09-02 23:59:01 | 48.14374 | 16.60241 | 129° | 73km/h | 8797m | 9.6m/s | 0°C | 0% | 0hPa | 0V | 00:00:00 | 00:00:00 | 00:00:00 | |
| OE3OSB-13 | 2026-09-02 23:58:52 | 48.14501 | 16.60026 | 129° | 86km/h | 8746m | 5.4m/s | -37.4°C | 32.8% | 332.2hPa | 0V | 00:00:00 | 00:00:00 | 00:00:00 | |
| OE5DXL-15 | 2026-09-02 23:58:44 | 48.14593 | 16.59832 | 127° | 73km/h | 8714m | 3.0m/s | 0°C | 0% | 0hPa | 0V | 00:00:00 | 00:00:00 | 00:00:00 | |
| PETON7-10 | 2026-09-02 23:58:43 | 48.14606 | 16.59810 | 136° | 77km/h | 8710m | 3.9m/s | 0°C | 0% | 0hPa | 0V | 00:00:00 | 00:00:00 | 00:00:00 | |
| HA6NAB-11 | 2026-09-02 23:58:37 | 48.14680 | 16.59697 | 143° | 77km/h | 8685m | 5.0m/s | 0°C | 0% | 0hPa | 0V | 00:00:00 | 00:00:00 | 00:00:00 | |
| S52SK | 2026-09-02 23:58:32 | 48.14754 | 16.59584 | 144° | 80km/h | 8659m | 5.0m/s | 0°C | 0% | 0hPa | 0V | 00:00:00 | 00:00:00 | 00:00:00 | |
| HA6NAB-11 | 2026-09-02 23:58:31 | 48.14768 | 16.59566 | 136° | 64km/h | 8655m | 3.9m/s | 0°C | 0% | 0hPa | 0V | 00:00:00 | 00:00:00 | 00:00:00 | |
| PETON7-10 | 2026-09-02 23:58:27 | 48.14814 | 16.59486 | 134° | 75km/h | 8636m | 3.7m/s | 0°C | 0% | 0hPa | 0V | 00:00:00 | 00:00:00 | 00:00:00 | |
| HA6NAB-11 | 2026-09-02 23:58:26 | 48.14828 | 16.59464 | 135° | 71km/h | 8631m | 5.9m/s | 0°C | 0% | 0hPa | 0V | 00:00:00 | 00:00:00 | 00:00:00 | |
| OE3OSB-13 | 2026-09-02 23:58:21 | 48.14896 | 16.59372 | 143° | 73km/h | 8609m | 4.1m/s | -36.3°C | 26.8% | 339.1hPa | 0V | 00:00:00 | 00:00:00 | 00:00:00 | |
| HA6NAB-11 | 2026-09-02 23:58:20 | 48.14910 | 16.59353 | 134° | 75km/h | 8605m | 4.5m/s | 0°C | 0% | 0hPa | 0V | 00:00:00 | 00:00:00 | 00:00:00 | |
| OE5DXL-15 | 2026-09-02 23:58:14 | 48.14973 | 16.59230 | 126° | 73km/h | 8575m | 4.3m/s | 0°C | 0% | 0hPa | 0V | 00:00:00 | 00:00:00 | 00:00:00 | |
| PETON7-10 | 2026-09-02 23:58:12 | 48.15004 | 16.59194 | 149° | 73km/h | 8564m | 2.5m/s | 0°C | 0% | 0hPa | 0V | 00:00:00 | 00:00:00 | 00:00:00 | |
| HA6NAB-11 | 2026-09-02 23:58:08 | 48.15054 | 16.59112 | 150° | 62km/h | 8546m | 4.4m/s | 0°C | 0% | 0hPa | 0V | 00:00:00 | 00:00:00 | 00:00:00 | |
| HA6NAB-11 | 2026-09-02 23:58:02 | 48.15131 | 16.59006 | 124° | 66km/h | 8521m | 2.7m/s | 0°C | 0% | 0hPa | 0V | 00:00:00 | 00:00:00 | 00:00:00 | |
| OE3OSB-13 | 2026-09-02 23:57:50 | 48.15275 | 16.58759 | 139° | 84km/h | 8453m | 4.4m/s | -35.3°C | 30.2% | 346.7hPa | 0V | 00:00:00 | 00:00:00 | 00:00:00 | |
| OE3JTB-15 | 2026-09-02 23:57:45 | 48.15355 | 16.58619 | 131° | 69km/h | 8424m | 6.3m/s | 0°C | 0% | 0hPa | 0V | 00:00:00 | 00:00:00 | 00:00:00 | |
| PETON7-10 | 2026-09-02 23:57:42 | 48.15377 | 16.58573 | 125° | 68km/h | 8411m | 5.2m/s | 0°C | 0% | 0hPa | 0V | 00:00:00 | 00:00:00 | 00:00:00 | |
| PG1ADW-2 | 2026-09-02 23:57:35 | 48.15447 | 16.58414 | 124° | 73km/h | 8377m | 5.6m/s | 0°C | 0% | 0hPa | 0V | 00:00:00 | 00:00:00 | 00:00:00 | |
| PETON7-10 | 2026-09-02 23:57:26 | 48.15534 | 16.58242 | 134° | 66km/h | 8321m | 7.1m/s | 0°C | 0% | 0hPa | 0V | 00:00:00 | 00:00:00 | 00:00:00 | |
| OE3OSB-13 | 2026-09-02 23:57:19 | 48.15610 | 16.58082 | 116° | 53km/h | 8283m | 2.7m/s | -33.8°C | 31.6% | 355.2hPa | 0V | 00:00:00 | 00:00:00 | 00:00:00 | |
| HA6NAB-11 | 2026-09-02 23:57:18 | 48.15610 | 16.58082 | 117° | 55km/h | 8283m | 2.7m/s | 0°C | 0% | 0hPa | 0V | 00:00:00 | 00:00:00 | 00:00:00 | |
| OE3JTB-15 | 2026-09-02 23:57:15 | 48.15656 | 16.58005 | 129° | 69km/h | 8266m | 3.6m/s | 0°C | 0% | 0hPa | 0V | 00:00:00 | 00:00:00 | 00:00:00 | |
| HA6NAB-11 | 2026-09-02 23:57:13 | 48.15665 | 16.57990 | 139° | 51km/h | 8262m | 3.7m/s | 0°C | 0% | 0hPa | 0V | 00:00:00 | 00:00:00 | 00:00:00 | |
| OE5DXL-15 | 2026-09-02 23:57:11 | 48.15692 | 16.57956 | 136° | 71km/h | 8250m | 5.1m/s | 0°C | 0% | 0hPa | 0V | 00:00:00 | 00:00:00 | 00:00:00 | |
| HA6NAB-11 | 2026-09-02 23:57:08 | 48.15731 | 16.57881 | 124° | 71km/h | 8234m | 6.9m/s | 0°C | 0% | 0hPa | 0V | 00:00:00 | 00:00:00 | 00:00:00 | |
| HA6NAB-11 | 2026-09-02 23:57:03 | 48.15770 | 16.57767 | 121° | 64km/h | 8212m | 7.0m/s | 0°C | 0% | 0hPa | 0V | 00:00:00 | 00:00:00 | 00:00:00 | |
| OE3OSB-13 | 2026-09-02 23:56:49 | 48.15941 | 16.57431 | 123° | 80km/h | 8137m | 4.7m/s | -32.6°C | 35.9% | 362.6hPa | 0V | 00:00:00 | 00:00:00 | 00:00:00 | |
| HA6NAB-11 | 2026-09-02 23:56:46 | 48.15952 | 16.57406 | 125° | 77km/h | 8131m | 6.1m/s | 0°C | 0% | 0hPa | 0V | 00:00:00 | 00:00:00 | 00:00:00 | |
| OE3JTB-15 | 2026-09-02 23:56:45 | 48.15964 | 16.57382 | 131° | 66km/h | 8124m | 6.0m/s | 0°C | 0% | 0hPa | 0V | 00:00:00 | 00:00:00 | 00:00:00 | |
| S52SK | 2026-09-02 23:56:44 | 48.15976 | 16.57359 | 125° | 73km/h | 8119m | 4.3m/s | 0°C | 0% | 0hPa | 0V | 00:00:00 | 00:00:00 | 00:00:00 | |
| OE5DXL-15 | 2026-09-02 23:56:41 | 48.16012 | 16.57301 | 128° | 75km/h | 8106m | 3.7m/s | 0°C | 0% | 0hPa | 0V | 00:00:00 | 00:00:00 | 00:00:00 | |
| HA6NAB-11 | 2026-09-02 23:56:35 | 48.16076 | 16.57185 | 123° | 95km/h | 8076m | 4.3m/s | 0°C | 0% | 0hPa | 0V | 00:00:00 | 00:00:00 | 00:00:00 | |
| HA6NAB-11 | 2026-09-02 23:56:30 | 48.16120 | 16.57074 | 129° | 49km/h | 8046m | 6.8m/s | 0°C | 0% | 0hPa | 0V | 00:00:00 | 00:00:00 | 00:00:00 | |
| PG1ADW-2 | 2026-09-02 23:56:27 | 48.16145 | 16.57006 | 111° | 69km/h | 8032m | 4.8m/s | 0°C | 0% | 0hPa | 0V | 00:00:00 | 00:00:00 | 00:00:00 | |
| PETON7-10 | 2026-09-02 23:56:26 | 48.16154 | 16.56987 | 140° | 71km/h | 8029m | 1.2m/s | 0°C | 0% | 0hPa | 0V | 00:00:00 | 00:00:00 | 00:00:00 | |
| HA6NAB-11 | 2026-09-02 23:56:24 | 48.16172 | 16.56943 | 104° | 57km/h | 8021m | 3.1m/s | 0°C | 0% | 0hPa | 0V | 00:00:00 | 00:00:00 | 00:00:00 | |
| OE3OSB-13 | 2026-09-02 23:56:17 | 48.16244 | 16.56770 | 133° | 68km/h | 7976m | 5.7m/s | -31.5°C | 44.0% | 371.1hPa | 0V | 00:00:00 | 00:00:00 | 00:00:00 | |
| OE3JTB-15 | 2026-09-02 23:56:16 | 48.16244 | 16.56770 | 134° | 71km/h | 7976m | 5.6m/s | 0°C | 0% | 0hPa | 0V | 00:00:00 | 00:00:00 | 00:00:00 | |
| PETON7-10 | 2026-09-02 23:56:10 | 48.16307 | 16.56647 | 126° | 71km/h | 7946m | 3.9m/s | 0°C | 0% | 0hPa | 0V | 00:00:00 | 00:00:00 | 00:00:00 | |
| OE5DXL-15 | 2026-09-02 23:56:06 | 48.16350 | 16.56570 | 136° | 66km/h | 7925m | 3.4m/s | 0°C | 0% | 0hPa | 0V | 00:00:00 | 00:00:00 | 00:00:00 | |
| PG1ADW-2 | 2026-09-02 23:56:04 | 48.16374 | 16.56526 | 130° | 73km/h | 7918m | 0.4m/s | 0°C | 0% | 0hPa | 0V | 00:00:00 | 00:00:00 | 00:00:00 | |
| OE3OSB-13 | 2026-09-02 23:55:46 | 48.16580 | 16.56150 | 143° | 49km/h | 7828m | 1.8m/s | -30.6°C | 36.2% | 379.1hPa | 0V | 00:00:00 | 00:00:00 | 00:00:00 | |
| PETON7-10 | 2026-09-02 23:55:39 | 48.16638 | 16.56031 | 138° | 71km/h | 7801m | 3.2m/s | 0°C | 0% | 0hPa | 0V | 00:00:00 | 00:00:00 | 00:00:00 | |
| PG1ADW-2 | 2026-09-02 23:55:38 | 48.16647 | 16.56012 | 113° | 60km/h | 7795m | 9.5m/s | 0°C | 0% | 0hPa | 0V | 00:00:00 | 00:00:00 | 00:00:00 | |
| OE5DXL-15 | 2026-09-02 23:55:26 | 48.16777 | 16.55775 | 138° | 60km/h | 7732m | 1.4m/s | 0°C | 0% | 0hPa | 0V | 00:00:00 | 00:00:00 | 00:00:00 | |
| PETON7-10 | 2026-09-02 23:55:24 | 48.16799 | 16.55744 | 113° | 60km/h | 7721m | 4.7m/s | 0°C | 0% | 0hPa | 0V | 00:00:00 | 00:00:00 | 00:00:00 | |
| OE3JTB-15 | 2026-09-02 23:55:17 | 48.16878 | 16.55622 | 125° | 60km/h | 7683m | 4.9m/s | 0°C | 0% | 0hPa | 0V | 00:00:00 | 00:00:00 | 00:00:00 | |
| OE3OSB-13 | 2026-09-02 23:55:15 | 48.16906 | 16.55580 | 143° | 37km/h | 7673m | 1.1m/s | -29.9°C | 24.6% | 387.4hPa | 0V | 00:00:00 | 00:00:00 | 00:00:00 | |
| PETON7-10 | 2026-09-02 23:55:06 | 48.16995 | 16.55455 | 147° | 69km/h | 7635m | 5.0m/s | 0°C | 0% | 0hPa | 0V | 00:00:00 | 00:00:00 | 00:00:00 | |
| OE3OSB-13 | 2026-09-02 23:54:44 | 48.17250 | 16.55090 | 126° | 64km/h | 7517m | 2.4m/s | -29.0°C | 27.5% | 395.9hPa | 0V | 00:00:00 | 00:00:00 | 00:00:00 | |
| PETON7-10 | 2026-09-02 23:54:36 | 48.17324 | 16.54969 | 136° | 58km/h | 7473m | 4.0m/s | 0°C | 0% | 0hPa | 0V | 00:00:00 | 00:00:00 | 00:00:00 | |
| OE5DXL-15 | 2026-09-02 23:54:34 | 48.17344 | 16.54938 | 143° | 51km/h | 7462m | 4.4m/s | 0°C | 0% | 0hPa | 0V | 00:00:00 | 00:00:00 | 00:00:00 | |
| PETON7-10 | 2026-09-02 23:54:20 | 48.17472 | 16.54714 | 143° | 53km/h | 7394m | 6.8m/s | 0°C | 0% | 0hPa | 0V | 00:00:00 | 00:00:00 | 00:00:00 | |
| OE3JTB-15 | 2026-09-02 23:54:18 | 48.17496 | 16.54689 | 131° | 55km/h | 7386m | 1.6m/s | 0°C | 0% | 0hPa | 0V | 00:00:00 | 00:00:00 | 00:00:00 | |
| OE3OSB-13 | 2026-09-02 23:54:13 | 48.17547 | 16.54605 | 142° | 69km/h | 7351m | 4.4m/s | -27.8°C | 28.5% | 405.3hPa | 0V | 00:00:00 | 00:00:00 | 00:00:00 | |
| PETON7-10 | 2026-09-02 23:54:05 | 48.17619 | 16.54506 | 131° | 58km/h | 7317m | 3.9m/s | 0°C | 0% | 0hPa | 0V | 00:00:00 | 00:00:00 | 00:00:00 | |
| PG1ADW-2 | 2026-09-02 23:54:00 | 48.17660 | 16.54434 | 125° | 53km/h | 7292m | 2.2m/s | 0°C | 0% | 0hPa | 0V | 00:00:00 | 00:00:00 | 00:00:00 | |
| PETON7-10 | 2026-09-02 23:53:50 | 48.17754 | 16.54280 | 132° | 58km/h | 7237m | 5.1m/s | 0°C | 0% | 0hPa | 0V | 00:00:00 | 00:00:00 | 00:00:00 | |
| OE3OSB-13 | 2026-09-02 23:53:42 | 48.17834 | 16.54157 | 135° | 49km/h | 7189m | 6.0m/s | -26.6°C | 48.7% | 414.6hPa | 0V | 00:00:00 | 00:00:00 | 00:00:00 | |
| PETON7-10 | 2026-09-02 23:53:35 | 48.17894 | 16.54046 | 149° | 58km/h | 7155m | 3.9m/s | 0°C | 0% | 0hPa | 0V | 00:00:00 | 00:00:00 | 00:00:00 | |
| PG1ADW-2 | 2026-09-02 23:53:34 | 48.17901 | 16.54030 | 102° | 53km/h | 7150m | 7.6m/s | 0°C | 0% | 0hPa | 0V | 00:00:00 | 00:00:00 | 00:00:00 | |
| PETON7-10 | 2026-09-02 23:53:20 | 48.18022 | 16.53804 | 125° | 55km/h | 7074m | 2.1m/s | 0°C | 0% | 0hPa | 0V | 00:00:00 | 00:00:00 | 00:00:00 | |
| OE3JTB-15 | 2026-09-02 23:53:12 | 48.18097 | 16.53680 | 140° | 53km/h | 7037m | 4.8m/s | 0°C | 0% | 0hPa | 0V | 00:00:00 | 00:00:00 | 00:00:00 | |
| OE3OSB-13 | 2026-09-02 23:53:11 | 48.18118 | 16.53646 | 141° | 73km/h | 7029m | 7.1m/s | -24.9°C | 68.3% | 423.8hPa | 0V | 00:00:00 | 00:00:00 | 00:00:00 | |
| PETON7-10 | 2026-09-02 23:53:05 | 48.18169 | 16.53569 | 121° | 55km/h | 7006m | 1.8m/s | 0°C | 0% | 0hPa | 0V | 00:00:00 | 00:00:00 | 00:00:00 | |
| PETON7-10 | 2026-09-02 23:52:50 | 48.18299 | 16.53338 | 111° | 55km/h | 6928m | 4.5m/s | 0°C | 0% | 0hPa | 0V | 00:00:00 | 00:00:00 | 00:00:00 | |
| OE3JTB-15 | 2026-09-02 23:52:43 | 48.18368 | 16.53243 | 107° | 53km/h | 6893m | 7.7m/s | 0°C | 0% | 0hPa | 0V | 00:00:00 | 00:00:00 | 00:00:00 | |
| OE3OSB-13 | 2026-09-02 23:52:40 | 48.18399 | 16.53180 | 128° | 33km/h | 6868m | 3.2m/s | -23.6°C | 70.4% | 433.3hPa | 0V | 00:00:00 | 00:00:00 | 00:00:00 | |
| PETON7-10 | 2026-09-02 23:52:34 | 48.18443 | 16.53097 | 123° | 55km/h | 6842m | 4.9m/s | 0°C | 0% | 0hPa | 0V | 00:00:00 | 00:00:00 | 00:00:00 | |
| PG1ADW-2 | 2026-09-02 23:52:23 | 48.18516 | 16.52905 | 98° | 57km/h | 6786m | 5.1m/s | 0°C | 0% | 0hPa | 0V | 00:00:00 | 00:00:00 | 00:00:00 | |
| PETON7-10 | 2026-09-02 23:52:19 | 48.18540 | 16.52836 | 122° | 55km/h | 6769m | 5.3m/s | 0°C | 0% | 0hPa | 0V | 00:00:00 | 00:00:00 | 00:00:00 | |
| OE3JTB-15 | 2026-09-02 23:52:14 | 48.18576 | 16.52748 | 126° | 58km/h | 6749m | 2.5m/s | 0°C | 0% | 0hPa | 0V | 00:00:00 | 00:00:00 | 00:00:00 | |
| OE3OSB-13 | 2026-09-02 23:52:09 | 48.18627 | 16.52654 | 100° | 40km/h | 6718m | 6.9m/s | -22.3°C | 86.0% | 442.4hPa | 0V | 00:00:00 | 00:00:00 | 00:00:00 | |
| PETON7-10 | 2026-09-02 23:52:04 | 48.18660 | 16.52588 | 126° | 64km/h | 6693m | 2.8m/s | 0°C | 0% | 0hPa | 0V | 00:00:00 | 00:00:00 | 00:00:00 | |
| S52SK | 2026-09-02 23:51:57 | 48.18733 | 16.52464 | 108° | 47km/h | 6660m | 3.3m/s | 0°C | 0% | 0hPa | 0V | 00:00:00 | 00:00:00 | 00:00:00 | |
| PG1ADW-2 | 2026-09-02 23:51:53 | 48.18767 | 16.52403 | 127° | 62km/h | 6646m | 2.2m/s | 0°C | 0% | 0hPa | 0V | 00:00:00 | 00:00:00 | 00:00:00 | |
| PETON7-10 | 2026-09-02 23:51:49 | 48.18808 | 16.52337 | 126° | 60km/h | 6632m | 4.9m/s | 0°C | 0% | 0hPa | 0V | 00:00:00 | 00:00:00 | 00:00:00 | |
| OE3JTB-15 | 2026-09-02 23:51:41 | 48.18864 | 16.52184 | 115° | 57km/h | 6594m | 4.4m/s | 0°C | 0% | 0hPa | 0V | 00:00:00 | 00:00:00 | 00:00:00 | |
| OE3OSB-13 | 2026-09-02 23:51:38 | 48.18886 | 16.52102 | 109° | 57km/h | 6571m | 5.1m/s | -21.0°C | 85.6% | 451.2hPa | 0V | 00:00:00 | 00:00:00 | 00:00:00 | |
| PETON7-10 | 2026-09-02 23:51:33 | 48.18917 | 16.52023 | 130° | 58km/h | 6554m | 1.9m/s | 0°C | 0% | 0hPa | 0V | 00:00:00 | 00:00:00 | 00:00:00 | |
| PG1ADW-2 | 2026-09-02 23:51:30 | 48.18946 | 16.51979 | 133° | 53km/h | 6543m | 3.5m/s | 0°C | 0% | 0hPa | 0V | 00:00:00 | 00:00:00 | 00:00:00 | |
| PETON7-10 | 2026-09-02 23:51:18 | 48.19038 | 16.51764 | 127° | 60km/h | 6486m | 4.3m/s | 0°C | 0% | 0hPa | 0V | 00:00:00 | 00:00:00 | 00:00:00 | |
| OE3JTB-15 | 2026-09-02 23:51:11 | 48.19071 | 16.51625 | 112° | 60km/h | 6447m | 4.7m/s | 0°C | 0% | 0hPa | 0V | 00:00:00 | 00:00:00 | 00:00:00 | |
| OE3OSB-13 | 2026-09-02 23:51:07 | 48.19110 | 16.51510 | 130° | 40km/h | 6422m | 4.8m/s | -19.9°C | 82.1% | 460.5hPa | 0V | 00:00:00 | 00:00:00 | 00:00:00 | |
| PG1ADW-2 | 2026-09-02 23:51:06 | 48.19110 | 16.51510 | 131° | 49km/h | 6422m | 4.8m/s | 0°C | 0% | 0hPa | 0V | 00:00:00 | 00:00:00 | 00:00:00 | |
| PETON7-10 | 2026-09-02 23:51:03 | 48.19129 | 16.51468 | 139° | 57km/h | 6408m | 4.9m/s | 0°C | 0% | 0hPa | 0V | 00:00:00 | 00:00:00 | 00:00:00 | |
| PETON7-10 | 2026-09-02 23:50:48 | 48.19229 | 16.51196 | 107° | 57km/h | 6337m | 6.6m/s | 0°C | 0% | 0hPa | 0V | 00:00:00 | 00:00:00 | 00:00:00 | |
| OE3JTB-15 | 2026-09-02 23:50:42 | 48.19255 | 16.51064 | 108° | 57km/h | 6312m | 5.4m/s | 0°C | 0% | 0hPa | 0V | 00:00:00 | 00:00:00 | 00:00:00 | |
| OE3OSB-13 | 2026-09-02 23:50:36 | 48.19312 | 16.50947 | 140° | 51km/h | 6271m | 3.7m/s | -18.5°C | 82.7% | 470.0hPa | 0V | 00:00:00 | 00:00:00 | 00:00:00 | |
| PETON7-10 | 2026-09-02 23:50:31 | 48.19334 | 16.50885 | 136° | 58km/h | 6254m | 3.6m/s | 0°C | 0% | 0hPa | 0V | 00:00:00 | 00:00:00 | 00:00:00 | |
| PG1ADW-2 | 2026-09-02 23:50:29 | 48.19344 | 16.50855 | 106° | 57km/h | 6248m | 3.4m/s | 0°C | 0% | 0hPa | 0V | 00:00:00 | 00:00:00 | 00:00:00 | |
| PETON7-10 | 2026-09-02 23:50:16 | 48.19430 | 16.50585 | 121° | 57km/h | 6199m | 6.1m/s | 0°C | 0% | 0hPa | 0V | 00:00:00 | 00:00:00 | 00:00:00 | |
| OE3JTB-15 | 2026-09-02 23:50:13 | 48.19452 | 16.50527 | 91° | 51km/h | 6182m | 3.4m/s | 0°C | 0% | 0hPa | 0V | 00:00:00 | 00:00:00 | 00:00:00 | |
| PG1ADW-2 | 2026-09-02 23:50:09 | 48.19474 | 16.50458 | 102° | 53km/h | 6163m | 2.7m/s | 0°C | 0% | 0hPa | 0V | 00:00:00 | 00:00:00 | 00:00:00 | |
| OE3OSB-13 | 2026-09-02 23:50:04 | 48.19504 | 16.50363 | 108° | 69km/h | 6144m | 1.4m/s | -17.6°C | 88.5% | 478.1hPa | 0V | 00:00:00 | 00:00:00 | 00:00:00 | |
| PETON7-10 | 2026-09-02 23:50:00 | 48.19522 | 16.50286 | 92° | 49km/h | 6129m | 5.2m/s | 0°C | 0% | 0hPa | 0V | 00:00:00 | 00:00:00 | 00:00:00 | |
| PG1ADW-2 | 2026-09-02 23:49:48 | 48.19589 | 16.50080 | 109° | 46km/h | 6072m | 4.6m/s | 0°C | 0% | 0hPa | 0V | 00:00:00 | 00:00:00 | 00:00:00 | |
| PETON7-10 | 2026-09-02 23:49:45 | 48.19599 | 16.50029 | 112° | 47km/h | 6058m | 2.9m/s | 0°C | 0% | 0hPa | 0V | 00:00:00 | 00:00:00 | 00:00:00 | |
| OE3JTB-15 | 2026-09-02 23:49:44 | 48.19604 | 16.50012 | 121° | 44km/h | 6054m | 4.2m/s | 0°C | 0% | 0hPa | 0V | 00:00:00 | 00:00:00 | 00:00:00 | |
| OE3OSB-13 | 2026-09-02 23:49:33 | 48.19655 | 16.49814 | 89° | 44km/h | 6001m | 8.9m/s | -16.7°C | 87.3% | 487.4hPa | 0V | 00:00:00 | 00:00:00 | 00:00:00 | |
| PETON7-10 | 2026-09-02 23:49:30 | 48.19662 | 16.49780 | 130° | 42km/h | 5988m | 3.0m/s | 0°C | 0% | 0hPa | 0V | 00:00:00 | 00:00:00 | 00:00:00 | |
| OE3JTB-15 | 2026-09-02 23:49:15 | 48.19730 | 16.49565 | 119° | 42km/h | 5919m | 3.3m/s | 0°C | 0% | 0hPa | 0V | 00:00:00 | 00:00:00 | 00:00:00 | |
| PETON7-10 | 2026-09-02 23:49:14 | 48.19735 | 16.49551 | 109° | 40km/h | 5913m | 9.4m/s | 0°C | 0% | 0hPa | 0V | 00:00:00 | 00:00:00 | 00:00:00 | |
| PG1ADW-2 | 2026-09-02 23:49:06 | 48.19775 | 16.49441 | 137° | 40km/h | 5881m | 3.2m/s | 0°C | 0% | 0hPa | 0V | 00:00:00 | 00:00:00 | 00:00:00 | |
| OE3OSB-13 | 2026-09-02 23:49:02 | 48.19795 | 16.49366 | 100° | 37km/h | 5862m | 3.0m/s | -15.7°C | 89.6% | 496.6hPa | 0V | 00:00:00 | 00:00:00 | 00:00:00 | |
| PETON7-10 | 2026-09-02 23:48:59 | 48.19804 | 16.49336 | 116° | 42km/h | 5854m | 2.9m/s | 0°C | 0% | 0hPa | 0V | 00:00:00 | 00:00:00 | 00:00:00 | |
| S52SK | 2026-09-02 23:48:48 | 48.19853 | 16.49171 | 114° | 29km/h | 5799m | 4.2m/s | 0°C | 0% | 0hPa | 0V | 00:00:00 | 00:00:00 | 00:00:00 | |
| PG1ADW-2 | 2026-09-02 23:48:46 | 48.19858 | 16.49144 | 127° | 37km/h | 5791m | 8.3m/s | 0°C | 0% | 0hPa | 0V | 00:00:00 | 00:00:00 | 00:00:00 | |
| PETON7-10 | 2026-09-02 23:48:43 | 48.19870 | 16.49105 | 104° | 40km/h | 5774m | 3.6m/s | 0°C | 0% | 0hPa | 0V | 00:00:00 | 00:00:00 | 00:00:00 | |
| S52SK | 2026-09-02 23:48:37 | 48.19895 | 16.49033 | 120° | 46km/h | 5745m | 5.3m/s | 0°C | 0% | 0hPa | 0V | 00:00:00 | 00:00:00 | 00:00:00 | |
| OE3OSB-13 | 2026-09-02 23:48:31 | 48.19926 | 16.48945 | 98° | 38km/h | 5712m | 3.9m/s | -14.8°C | 88.8% | 506.4hPa | 0V | 00:00:00 | 00:00:00 | 00:00:00 | |
| PETON7-10 | 2026-09-02 23:48:28 | 48.19934 | 16.48909 | 118° | 42km/h | 5705m | 2.1m/s | 0°C | 0% | 0hPa | 0V | 00:00:00 | 00:00:00 | 00:00:00 | |
| PG1ADW-2 | 2026-09-02 23:48:26 | 48.19942 | 16.48869 | 96° | 46km/h | 5698m | 3.1m/s | 0°C | 0% | 0hPa | 0V | 00:00:00 | 00:00:00 | 00:00:00 | |
| OE3JTB-15 | 2026-09-02 23:48:17 | 48.19999 | 16.48721 | 115° | 42km/h | 5660m | 6.2m/s | 0°C | 0% | 0hPa | 0V | 00:00:00 | 00:00:00 | 00:00:00 | |
| PETON7-10 | 2026-09-02 23:48:12 | 48.20017 | 16.48675 | 126° | 44km/h | 5643m | 3.0m/s | 0°C | 0% | 0hPa | 0V | 00:00:00 | 00:00:00 | 00:00:00 | |
| PG1ADW-2 | 2026-09-02 23:48:05 | 48.20073 | 16.48565 | 120° | 42km/h | 5620m | 4.5m/s | 0°C | 0% | 0hPa | 0V | 00:00:00 | 00:00:00 | 00:00:00 | |
| OE3OSB-13 | 2026-09-02 23:48:00 | 48.20102 | 16.48485 | 115° | 38km/h | 5595m | 3.0m/s | -14.2°C | 92.8% | 514.5hPa | 0V | 00:00:00 | 00:00:00 | 00:00:00 | |
| PETON7-10 | 2026-09-02 23:47:55 | 48.20111 | 16.48434 | 127° | 44km/h | 5581m | 6.1m/s | 0°C | 0% | 0hPa | 0V | 00:00:00 | 00:00:00 | 00:00:00 | |
| OE3JTB-15 | 2026-09-02 23:47:48 | 48.20144 | 16.48296 | 95° | 46km/h | 5543m | 3.3m/s | 0°C | 0% | 0hPa | 0V | 00:00:00 | 00:00:00 | 00:00:00 | |
| PG1ADW-2 | 2026-09-02 23:47:45 | 48.20145 | 16.48278 | 97° | 46km/h | 5539m | 4.6m/s | 0°C | 0% | 0hPa | 0V | 00:00:00 | 00:00:00 | 00:00:00 | |
| PETON7-10 | 2026-09-02 23:47:40 | 48.20154 | 16.48194 | 109° | 46km/h | 5519m | 1.2m/s | 0°C | 0% | 0hPa | 0V | 00:00:00 | 00:00:00 | 00:00:00 | |
| OE3OSB-13 | 2026-09-02 23:47:29 | 48.20203 | 16.48010 | 123° | 60km/h | 5450m | 3.7m/s | -13.7°C | 92.8% | 524.6hPa | 0V | 00:00:00 | 00:00:00 | 00:00:00 | |
| PETON7-10 | 2026-09-02 23:47:24 | 48.20229 | 16.47956 | 130° | 46km/h | 5429m | 3.4m/s | 0°C | 0% | 0hPa | 0V | 00:00:00 | 00:00:00 | 00:00:00 | |
| PG1ADW-2 | 2026-09-02 23:47:22 | 48.20240 | 16.47933 | 136° | 42km/h | 5421m | 3.9m/s | 0°C | 0% | 0hPa | 0V | 00:00:00 | 00:00:00 | 00:00:00 | |
| OE3JTB-15 | 2026-09-02 23:47:18 | 48.20277 | 16.47840 | 121° | 47km/h | 5392m | 4.9m/s | 0°C | 0% | 0hPa | 0V | 00:00:00 | 00:00:00 | 00:00:00 | |
| PETON7-10 | 2026-09-02 23:47:07 | 48.20303 | 16.47703 | 110° | 49km/h | 5349m | 4.3m/s | 0°C | 0% | 0hPa | 0V | 00:00:00 | 00:00:00 | 00:00:00 | |
| PG1ADW-2 | 2026-09-02 23:47:00 | 48.20324 | 16.47582 | 93° | 49km/h | 5320m | 4.9m/s | 0°C | 0% | 0hPa | 0V | 00:00:00 | 00:00:00 | 00:00:00 | |
| OE3OSB-13 | 2026-09-02 23:46:58 | 48.20338 | 16.47542 | 123° | 40km/h | 5304m | 3.1m/s | -12.7°C | 91.9% | 534.7hPa | 0V | 00:00:00 | 00:00:00 | 00:00:00 | |
| PETON7-10 | 2026-09-02 23:46:52 | 48.20365 | 16.47460 | 96° | 53km/h | 5281m | 3.5m/s | 0°C | 0% | 0hPa | 0V | 00:00:00 | 00:00:00 | 00:00:00 | |
| OE3JTB-15 | 2026-09-02 23:46:49 | 48.20380 | 16.47358 | 92° | 47km/h | 5265m | 4.2m/s | 0°C | 0% | 0hPa | 0V | 00:00:00 | 00:00:00 | 00:00:00 | |
| PG1ADW-2 | 2026-09-02 23:46:40 | 48.20391 | 16.47220 | 112° | 46km/h | 5227m | 3.3m/s | 0°C | 0% | 0hPa | 0V | 00:00:00 | 00:00:00 | 00:00:00 | |
| PETON7-10 | 2026-09-02 23:46:35 | 48.20421 | 16.47129 | 97° | 44km/h | 5203m | 6.9m/s | 0°C | 0% | 0hPa | 0V | 00:00:00 | 00:00:00 | 00:00:00 | |
| OE3OSB-13 | 2026-09-02 23:46:27 | 48.20446 | 16.46993 | 124° | 40km/h | 5164m | 5.5m/s | -11.7°C | 90.2% | 544.9hPa | 0V | 00:00:00 | 00:00:00 | 00:00:00 | |
| PETON7-10 | 2026-09-02 23:46:19 | 48.20471 | 16.46895 | 104° | 51km/h | 5126m | 5.9m/s | 0°C | 0% | 0hPa | 0V | 00:00:00 | 00:00:00 | 00:00:00 | |
| PG1ADW-2 | 2026-09-02 23:46:17 | 48.20481 | 16.46860 | 125° | 51km/h | 5114m | 5.5m/s | 0°C | 0% | 0hPa | 0V | 00:00:00 | 00:00:00 | 00:00:00 | |
| OE3OSB-13 | 2026-09-02 23:45:56 | 48.20588 | 16.46486 | 122° | 55km/h | 5003m | 2.8m/s | -10.3°C | 83.9% | 556.3hPa | 0V | 00:00:00 | 00:00:00 | 00:00:00 | |
| PG1ADW-2 | 2026-09-02 23:45:51 | 48.20612 | 16.46418 | 100° | 44km/h | 4982m | 5.8m/s | 0°C | 0% | 0hPa | 0V | 00:00:00 | 00:00:00 | 00:00:00 | |
| PETON7-10 | 2026-09-02 23:45:49 | 48.20612 | 16.46393 | 94° | 51km/h | 4973m | 6.5m/s | 0°C | 0% | 0hPa | 0V | 00:00:00 | 00:00:00 | 00:00:00 | |
| PETON7-10 | 2026-09-02 23:45:34 | 48.20659 | 16.46126 | 92° | 42km/h | 4900m | 7.8m/s | 0°C | 0% | 0hPa | 0V | 00:00:00 | 00:00:00 | 00:00:00 | |
| PG1ADW-2 | 2026-09-02 23:45:29 | 48.20682 | 16.46061 | 119° | 51km/h | 4867m | 3.2m/s | 0°C | 0% | 0hPa | 0V | 00:00:00 | 00:00:00 | 00:00:00 | |
| OE3OSB-13 | 2026-09-02 23:45:25 | 48.20712 | 16.45976 | 103° | 40km/h | 4841m | 5.5m/s | -8.8°C | 79.8% | 568.2hPa | 0V | 00:00:00 | 00:00:00 | 00:00:00 | |
| OE3JTB-15 | 2026-09-02 23:45:22 | 48.20718 | 16.45910 | 113° | 47km/h | 4821m | 5.4m/s | 0°C | 0% | 0hPa | 0V | 00:00:00 | 00:00:00 | 00:00:00 | |
| PETON7-10 | 2026-09-02 23:45:18 | 48.20727 | 16.45884 | 119° | 49km/h | 4812m | 4.6m/s | 0°C | 0% | 0hPa | 0V | 00:00:00 | 00:00:00 | 00:00:00 | |
| S52SK | 2026-09-02 23:45:17 | 48.20742 | 16.45853 | 131° | 64km/h | 4806m | 3.8m/s | 0°C | 0% | 0hPa | 0V | 00:00:00 | 00:00:00 | 00:00:00 | |
| PG1ADW-2 | 2026-09-02 23:45:07 | 48.20785 | 16.45691 | 108° | 49km/h | 4761m | 7.3m/s | 0°C | 0% | 0hPa | 0V | 00:00:00 | 00:00:00 | 00:00:00 | |
| OE3OSB-13 | 2026-09-02 23:44:54 | 48.20828 | 16.45465 | 123° | 26km/h | 4694m | 6.0m/s | -7.7°C | 81.5% | 579.1hPa | 0V | 00:00:00 | 00:00:00 | 00:00:00 | |
| OE3JTB-15 | 2026-09-02 23:44:53 | 48.20838 | 16.45436 | 113° | 46km/h | 4678m | 7.8m/s | 0°C | 0% | 0hPa | 0V | 00:00:00 | 00:00:00 | 00:00:00 | |
| PETON7-10 | 2026-09-02 23:44:48 | 48.20851 | 16.45377 | 109° | 46km/h | 4663m | 4.4m/s | 0°C | 0% | 0hPa | 0V | 00:00:00 | 00:00:00 | 00:00:00 | |
| PG1ADW-2 | 2026-09-02 23:44:47 | 48.20855 | 16.45357 | 106° | 46km/h | 4659m | 2.3m/s | 0°C | 0% | 0hPa | 0V | 00:00:00 | 00:00:00 | 00:00:00 | |
| PETON7-10 | 2026-09-02 23:44:33 | 48.20901 | 16.45140 | 112° | 37km/h | 4593m | 5.0m/s | 0°C | 0% | 0hPa | 0V | 00:00:00 | 00:00:00 | 00:00:00 | |
| PG1ADW-2 | 2026-09-02 23:44:25 | 48.20918 | 16.45023 | 112° | 42km/h | 4550m | 3.6m/s | 0°C | 0% | 0hPa | 0V | 00:00:00 | 00:00:00 | 00:00:00 | |
| OE3JTB-15 | 2026-09-02 23:44:24 | 48.20921 | 16.45006 | 104° | 44km/h | 4545m | 5.4m/s | 0°C | 0% | 0hPa | 0V | 00:00:00 | 00:00:00 | 00:00:00 | |
| OE3OSB-13 | 2026-09-02 23:44:23 | 48.20929 | 16.44971 | 116° | 29km/h | 4535m | 4.8m/s | -6.7°C | 81.2% | 590.9hPa | 0V | 00:00:00 | 00:00:00 | 00:00:00 | |
| PETON7-10 | 2026-09-02 23:44:18 | 48.20944 | 16.44919 | 124° | 44km/h | 4521m | 6.2m/s | 0°C | 0% | 0hPa | 0V | 00:00:00 | 00:00:00 | 00:00:00 | |
| PG1ADW-2 | 2026-09-02 23:44:04 | 48.20992 | 16.44714 | 103° | 55km/h | 4460m | 7.0m/s | 0°C | 0% | 0hPa | 0V | 00:00:00 | 00:00:00 | 00:00:00 | |
| PETON7-10 | 2026-09-02 23:44:02 | 48.21000 | 16.44675 | 118° | 46km/h | 4451m | 5.2m/s | 0°C | 0% | 0hPa | 0V | 00:00:00 | 00:00:00 | 00:00:00 | |
| OE3OSB-13 | 2026-09-02 23:43:52 | 48.21045 | 16.44525 | 100° | 42km/h | 4399m | 6.0m/s | -6.0°C | 84.3% | 601.8hPa | 0V | 00:00:00 | 00:00:00 | 00:00:00 | |
| PETON7-10 | 2026-09-02 23:43:47 | 48.21063 | 16.44454 | 96° | 42km/h | 4381m | 4.0m/s | 0°C | 0% | 0hPa | 0V | 00:00:00 | 00:00:00 | 00:00:00 | |
| PG1ADW-2 | 2026-09-02 23:43:44 | 48.21072 | 16.44414 | 121° | 44km/h | 4367m | 3.1m/s | 0°C | 0% | 0hPa | 0V | 00:00:00 | 00:00:00 | 00:00:00 | |
| PETON7-10 | 2026-09-02 23:43:32 | 48.21114 | 16.44234 | 92° | 51km/h | 4306m | 5.4m/s | 0°C | 0% | 0hPa | 0V | 00:00:00 | 00:00:00 | 00:00:00 | |
| OE3JTB-15 | 2026-09-02 23:43:26 | 48.21149 | 16.44128 | 105° | 47km/h | 4279m | 6.7m/s | 0°C | 0% | 0hPa | 0V | 00:00:00 | 00:00:00 | 00:00:00 | |
| OE3OSB-13 | 2026-09-02 23:43:21 | 48.21183 | 16.44032 | 135° | 55km/h | 4252m | 3.6m/s | -5.5°C | 86.2% | 613.0hPa | 0V | 00:00:00 | 00:00:00 | 00:00:00 | |
| PETON7-10 | 2026-09-02 23:43:17 | 48.21208 | 16.43978 | 115° | 44km/h | 4240m | 4.7m/s | 0°C | 0% | 0hPa | 0V | 00:00:00 | 00:00:00 | 00:00:00 | |
| S52SK | 2026-09-02 23:43:12 | 48.21236 | 16.43912 | 92° | 31km/h | 4217m | 5.6m/s | 0°C | 0% | 0hPa | 0V | 00:00:00 | 00:00:00 | 00:00:00 | |
| PETON7-10 | 2026-09-02 23:43:02 | 48.21271 | 16.43743 | 130° | 46km/h | 4159m | 3.5m/s | 0°C | 0% | 0hPa | 0V | 00:00:00 | 00:00:00 | 00:00:00 | |
| OE3OSB-13 | 2026-09-02 23:42:50 | 48.21327 | 16.43536 | 130° | 40km/h | 4100m | 6.8m/s | -4.3°C | 83.6% | 625.1hPa | 0V | 00:00:00 | 00:00:00 | 00:00:00 | |
| PETON7-10 | 2026-09-02 23:42:46 | 48.21344 | 16.43485 | 111° | 46km/h | 4085m | 5.1m/s | 0°C | 0% | 0hPa | 0V | 00:00:00 | 00:00:00 | 00:00:00 | |
| PETON7-10 | 2026-09-02 23:42:31 | 48.21425 | 16.43250 | 133° | 44km/h | 3990m | 5.3m/s | 0°C | 0% | 0hPa | 0V | 00:00:00 | 00:00:00 | 00:00:00 | |
| OE3JTB-15 | 2026-09-02 23:42:28 | 48.21438 | 16.43207 | 103° | 44km/h | 3971m | 3.8m/s | 0°C | 0% | 0hPa | 0V | 00:00:00 | 00:00:00 | 00:00:00 | |
| OE3OSB-13 | 2026-09-02 23:42:18 | 48.21481 | 16.43068 | 131° | 18km/h | 3916m | 6.0m/s | -2.9°C | 77.5% | 639.7hPa | 0V | 00:00:00 | 00:00:00 | 00:00:00 | |
| PETON7-10 | 2026-09-02 23:42:16 | 48.21496 | 16.43052 | 129° | 47km/h | 3906m | 6.4m/s | 0°C | 0% | 0hPa | 0V | 00:00:00 | 00:00:00 | 00:00:00 | |
| PETON7-10 | 2026-09-02 23:42:00 | 48.21588 | 16.42815 | 108° | 42km/h | 3819m | 6.6m/s | 0°C | 0% | 0hPa | 0V | 00:00:00 | 00:00:00 | 00:00:00 | |
| OE3OSB-13 | 2026-09-02 23:41:47 | 48.21651 | 16.42644 | 131° | 46km/h | 3757m | 7.1m/s | -1.8°C | 75.6% | 652.7hPa | 0V | 00:00:00 | 00:00:00 | 00:00:00 | |
| PETON7-10 | 2026-09-02 23:41:45 | 48.21667 | 16.42614 | 116° | 47km/h | 3748m | 4.5m/s | 0°C | 0% | 0hPa | 0V | 00:00:00 | 00:00:00 | 00:00:00 | |
| S52SK | 2026-09-02 23:41:39 | 48.21708 | 16.42550 | 145° | 60km/h | 3722m | 1.5m/s | 0°C | 0% | 0hPa | 0V | 00:00:00 | 00:00:00 | 00:00:00 | |
| S52SK | 2026-09-02 23:41:33 | 48.21740 | 16.42440 | 126° | 68km/h | 3677m | 7.0m/s | 0°C | 0% | 0hPa | 0V | 00:00:00 | 00:00:00 | 00:00:00 | |
| OE3JTB-15 | 2026-09-02 23:41:30 | 48.21757 | 16.42392 | 119° | 49km/h | 3661m | 3.6m/s | 0°C | 0% | 0hPa | 0V | 00:00:00 | 00:00:00 | 00:00:00 | |
| PETON7-10 | 2026-09-02 23:41:29 | 48.21764 | 16.42377 | 127° | 47km/h | 3657m | 3.8m/s | 0°C | 0% | 0hPa | 0V | 00:00:00 | 00:00:00 | 00:00:00 | |
| S52SK | 2026-09-02 23:41:27 | 48.21780 | 16.42348 | 132° | 55km/h | 3650m | 4.4m/s | 0°C | 0% | 0hPa | 0V | 00:00:00 | 00:00:00 | 00:00:00 | |
| S52SK | 2026-09-02 23:41:21 | 48.21826 | 16.42231 | 126° | 46km/h | 3619m | 7.1m/s | 0°C | 0% | 0hPa | 0V | 00:00:00 | 00:00:00 | 00:00:00 | |
| S52SK | 2026-09-02 23:41:16 | 48.21845 | 16.42172 | 110° | 46km/h | 3593m | 7.3m/s | 0°C | 0% | 0hPa | 0V | 00:00:00 | 00:00:00 | 00:00:00 | |
| PETON7-10 | 2026-09-02 23:41:14 | 48.21861 | 16.42141 | 126° | 51km/h | 3582m | 4.2m/s | 0°C | 0% | 0hPa | 0V | 00:00:00 | 00:00:00 | 00:00:00 | |
| S52SK | 2026-09-02 23:41:11 | 48.21872 | 16.42098 | 104° | 38km/h | 3571m | 4.6m/s | 0°C | 0% | 0hPa | 0V | 00:00:00 | 00:00:00 | 00:00:00 | |
| OE3JTB-15 | 2026-09-02 23:41:01 | 48.21942 | 16.41938 | 123° | 49km/h | 3515m | 6.1m/s | 0°C | 0% | 0hPa | 0V | 00:00:00 | 00:00:00 | 00:00:00 | |
| OE3OSB-13 | 2026-09-02 23:40:45 | 48.22059 | 16.41654 | 87° | 35km/h | 3426m | 5.0m/s | 0.3°C | 66.0% | 680.9hPa | 0V | 00:00:00 | 00:00:00 | 00:00:00 | |
| PETON7-10 | 2026-09-02 23:40:44 | 48.22059 | 16.41654 | 88° | 47km/h | 3426m | 5.0m/s | 0°C | 0% | 0hPa | 0V | 00:00:00 | 00:00:00 | 00:00:00 | |
| OE3JTB-15 | 2026-09-02 23:40:33 | 48.22137 | 16.41497 | 134° | 47km/h | 3362m | 5.5m/s | 0°C | 0% | 0hPa | 0V | 00:00:00 | 00:00:00 | 00:00:00 | |
| PETON7-10 | 2026-09-02 23:40:28 | 48.22163 | 16.41432 | 121° | 47km/h | 3341m | 5.4m/s | 0°C | 0% | 0hPa | 0V | 00:00:00 | 00:00:00 | 00:00:00 | |
| OE3OSB-13 | 2026-09-02 23:40:14 | 48.22246 | 16.41226 | 98° | 46km/h | 3273m | 4.2m/s | 1.4°C | 61.1% | 694.0hPa | 0V | 00:00:00 | 00:00:00 | 00:00:00 | |
| PETON7-10 | 2026-09-02 23:40:12 | 48.22249 | 16.41208 | 109° | 51km/h | 3268m | 5.5m/s | 0°C | 0% | 0hPa | 0V | 00:00:00 | 00:00:00 | 00:00:00 | |
| OE3JTB-15 | 2026-09-02 23:40:03 | 48.22318 | 16.41068 | 112° | 53km/h | 3228m | 3.3m/s | 0°C | 0% | 0hPa | 0V | 00:00:00 | 00:00:00 | 00:00:00 | |
| OE3OSB-13 | 2026-09-02 23:39:43 | 48.22432 | 16.40708 | 115° | 51km/h | 3129m | 4.2m/s | 1.8°C | 45.8% | 706.4hPa | 0V | 00:00:00 | 00:00:00 | 00:00:00 | |
| PETON7-10 | 2026-09-02 23:39:41 | 48.22438 | 16.40690 | 122° | 49km/h | 3125m | 5.6m/s | 0°C | 0% | 0hPa | 0V | 00:00:00 | 00:00:00 | 00:00:00 | |
| OE3JTB-15 | 2026-09-02 23:39:34 | 48.22498 | 16.40582 | 117° | 42km/h | 3093m | 5.7m/s | 0°C | 0% | 0hPa | 0V | 00:00:00 | 00:00:00 | 00:00:00 | |
| PETON7-10 | 2026-09-02 23:39:26 | 48.22553 | 16.40496 | 138° | 44km/h | 3056m | 1.4m/s | 0°C | 0% | 0hPa | 0V | 00:00:00 | 00:00:00 | 00:00:00 | |
| OE3OSB-13 | 2026-09-02 23:39:12 | 48.22657 | 16.40313 | 114° | 29km/h | 2990m | 3.2m/s | 2.6°C | 39.2% | 718.8hPa | 0V | 00:00:00 | 00:00:00 | 00:00:00 | |
| PETON7-10 | 2026-09-02 23:39:10 | 48.22662 | 16.40305 | 153° | 40km/h | 2986m | 5.5m/s | 0°C | 0% | 0hPa | 0V | 00:00:00 | 00:00:00 | 00:00:00 | |
| OE3JTB-15 | 2026-09-02 23:39:05 | 48.22707 | 16.40251 | 143° | 42km/h | 2964m | 3.1m/s | 0°C | 0% | 0hPa | 0V | 00:00:00 | 00:00:00 | 00:00:00 | |
| PETON7-10 | 2026-09-02 23:38:55 | 48.22760 | 16.40135 | 93° | 38km/h | 2920m | 3.1m/s | 0°C | 0% | 0hPa | 0V | 00:00:00 | 00:00:00 | 00:00:00 | |
| OE3OSB-13 | 2026-09-02 23:38:41 | 48.22838 | 16.39940 | 100° | 24km/h | 2850m | 4.3m/s | 3.4°C | 45.8% | 731.2hPa | 0V | 00:00:00 | 00:00:00 | 00:00:00 | |
| PETON7-10 | 2026-09-02 23:38:39 | 48.22841 | 16.39930 | 120° | 40km/h | 2845m | 5.0m/s | 0°C | 0% | 0hPa | 0V | 00:00:00 | 00:00:00 | 00:00:00 | |
| OE3JTB-15 | 2026-09-02 23:38:36 | 48.22863 | 16.39887 | 115° | 40km/h | 2830m | 5.2m/s | 0°C | 0% | 0hPa | 0V | 00:00:00 | 00:00:00 | 00:00:00 | |
| PETON7-10 | 2026-09-02 23:38:24 | 48.22906 | 16.39723 | 141° | 44km/h | 2774m | 3.4m/s | 0°C | 0% | 0hPa | 0V | 00:00:00 | 00:00:00 | 00:00:00 | |
| OE3OSB-13 | 2026-09-02 23:38:10 | 48.22986 | 16.39525 | 128° | 24km/h | 2705m | 4.8m/s | 4.5°C | 47.9% | 744.7hPa | 0V | 00:00:00 | 00:00:00 | 00:00:00 | |
| PETON7-10 | 2026-09-02 23:38:09 | 48.22986 | 16.39525 | 129° | 33km/h | 2706m | 4.8m/s | 0°C | 0% | 0hPa | 0V | 00:00:00 | 00:00:00 | 00:00:00 | |
| OE3JTB-15 | 2026-09-02 23:38:07 | 48.22990 | 16.39510 | 120° | 31km/h | 2699m | 3.4m/s | 0°C | 0% | 0hPa | 0V | 00:00:00 | 00:00:00 | 00:00:00 | |
| PETON7-10 | 2026-09-02 23:37:54 | 48.23047 | 16.39361 | 147° | 26km/h | 2640m | 5.0m/s | 0°C | 0% | 0hPa | 0V | 00:00:00 | 00:00:00 | 00:00:00 | |
| OE3OSB-13 | 2026-09-02 23:37:39 | 48.23104 | 16.39243 | 113° | 18km/h | 2556m | 4.3m/s | 5.4°C | 53.8% | 758.4hPa | 0V | 00:00:00 | 00:00:00 | 00:00:00 | |
| PETON7-10 | 2026-09-02 23:37:38 | 48.23104 | 16.39243 | 114° | 35km/h | 2557m | 4.3m/s | 0°C | 0% | 0hPa | 0V | 00:00:00 | 00:00:00 | 00:00:00 | |
| PETON7-10 | 2026-09-02 23:37:21 | 48.23184 | 16.39067 | 136° | 35km/h | 2481m | 3.8m/s | 0°C | 0% | 0hPa | 0V | 00:00:00 | 00:00:00 | 00:00:00 | |
| OE3JTB-15 | 2026-09-02 23:37:09 | 48.23231 | 16.38919 | 141° | 42km/h | 2419m | 6.2m/s | 0°C | 0% | 0hPa | 0V | 00:00:00 | 00:00:00 | 00:00:00 | |
| OE3OSB-13 | 2026-09-02 23:37:08 | 48.23244 | 16.38895 | 104° | 31km/h | 2407m | 6.8m/s | 6.5°C | 56.1% | 772.6hPa | 0V | 00:00:00 | 00:00:00 | 00:00:00 | |
| PETON7-10 | 2026-09-02 23:37:06 | 48.23245 | 16.38882 | 93° | 42km/h | 2402m | 4.7m/s | 0°C | 0% | 0hPa | 0V | 00:00:00 | 00:00:00 | 00:00:00 | |
| PETON7-10 | 2026-09-02 23:36:51 | 48.23311 | 16.38669 | 101° | 37km/h | 2331m | 5.4m/s | 0°C | 0% | 0hPa | 0V | 00:00:00 | 00:00:00 | 00:00:00 | |
| OE3JTB-15 | 2026-09-02 23:36:40 | 48.23383 | 16.38552 | 117° | 35km/h | 2259m | 8.4m/s | 0°C | 0% | 0hPa | 0V | 00:00:00 | 00:00:00 | 00:00:00 | |
| OE3OSB-13 | 2026-09-02 23:36:37 | 48.23402 | 16.38511 | 135° | 33km/h | 2238m | 4.3m/s | 7.6°C | 59.6% | 788.6hPa | 0V | 00:00:00 | 00:00:00 | 00:00:00 | |
| PETON7-10 | 2026-09-02 23:36:36 | 48.23402 | 16.38511 | 136° | 31km/h | 2238m | 4.3m/s | 0°C | 0% | 0hPa | 0V | 00:00:00 | 00:00:00 | 00:00:00 | |
| PETON7-10 | 2026-09-02 23:36:21 | 48.23460 | 16.38369 | 110° | 42km/h | 2157m | 4.6m/s | 0°C | 0% | 0hPa | 0V | 00:00:00 | 00:00:00 | 00:00:00 | |
| OE3JTB-15 | 2026-09-02 23:36:11 | 48.23497 | 16.38231 | 100° | 33km/h | 2103m | 4.5m/s | 0°C | 0% | 0hPa | 0V | 00:00:00 | 00:00:00 | 00:00:00 | |
| OE3OSB-13 | 2026-09-02 23:36:06 | 48.23529 | 16.38157 | 142° | 20km/h | 2071m | 4.6m/s | 8.7°C | 64.4% | 804.6hPa | 0V | 00:00:00 | 00:00:00 | 00:00:00 | |
| PETON7-10 | 2026-09-02 23:35:50 | 48.23568 | 16.37994 | 123° | 31km/h | 1986m | 6.4m/s | 0°C | 0% | 0hPa | 0V | 00:00:00 | 00:00:00 | 00:00:00 | |
| OE3JTB-15 | 2026-09-02 23:35:42 | 48.23606 | 16.37934 | 119° | 24km/h | 1944m | 6.5m/s | 0°C | 0% | 0hPa | 0V | 00:00:00 | 00:00:00 | 00:00:00 | |
| OE3OSB-13 | 2026-09-02 23:35:34 | 48.23629 | 16.37853 | 117° | 38km/h | 1901m | 4.4m/s | 10.1°C | 66.0% | 821.7hPa | 0V | 00:00:00 | 00:00:00 | 00:00:00 | |
| PETON7-10 | 2026-09-02 23:35:34 | 48.23629 | 16.37853 | 118° | 22km/h | 1901m | 4.4m/s | 0°C | 0% | 0hPa | 0V | 00:00:00 | 00:00:00 | 00:00:00 | |
| PETON7-10 | 2026-09-02 23:35:19 | 48.23661 | 16.37757 | 91° | 26km/h | 1829m | 3.1m/s | 0°C | 0% | 0hPa | 0V | 00:00:00 | 00:00:00 | 00:00:00 | |
| OE3JTB-15 | 2026-09-02 23:35:13 | 48.23665 | 16.37711 | 145° | 27km/h | 1798m | 4.5m/s | 0°C | 0% | 0hPa | 0V | 00:00:00 | 00:00:00 | 00:00:00 | |
| OE3OSB-13 | 2026-09-02 23:35:03 | 48.23695 | 16.37621 | 65° | 13km/h | 1754m | 4.9m/s | 11.4°C | 64.0% | 836.1hPa | 0V | 00:00:00 | 00:00:00 | 00:00:00 | |
| PETON7-10 | 2026-09-02 23:35:02 | 48.23696 | 16.37616 | 120° | 26km/h | 1748m | 6.0m/s | 0°C | 0% | 0hPa | 0V | 00:00:00 | 00:00:00 | 00:00:00 | |
| PETON7-10 | 2026-09-02 23:34:47 | 48.23734 | 16.37484 | 114° | 22km/h | 1671m | 2.8m/s | 0°C | 0% | 0hPa | 0V | 00:00:00 | 00:00:00 | 00:00:00 | |
| OE3JTB-15 | 2026-09-02 23:34:44 | 48.23738 | 16.37471 | 157° | 26km/h | 1654m | 6.1m/s | 0°C | 0% | 0hPa | 0V | 00:00:00 | 00:00:00 | 00:00:00 | |
| PETON7-10 | 2026-09-02 23:34:31 | 48.23773 | 16.37388 | 135° | 27km/h | 1586m | 5.0m/s | 0°C | 0% | 0hPa | 0V | 00:00:00 | 00:00:00 | 00:00:00 | |
| PETON7-10 | 2026-09-02 23:34:16 | 48.23807 | 16.37247 | 89° | 29km/h | 1509m | 4.8m/s | 0°C | 0% | 0hPa | 0V | 00:00:00 | 00:00:00 | 00:00:00 | |
| OE3JTB-15 | 2026-09-02 23:34:15 | 48.23807 | 16.37234 | 95° | 26km/h | 1505m | 3.2m/s | 0°C | 0% | 0hPa | 0V | 00:00:00 | 00:00:00 | 00:00:00 | |
| PETON7-10 | 2026-09-02 23:34:01 | 48.23851 | 16.37132 | 116° | 27km/h | 1428m | 4.0m/s | 0°C | 0% | 0hPa | 0V | 00:00:00 | 00:00:00 | 00:00:00 | |
| OE3JTB-15 | 2026-09-02 23:33:46 | 48.23908 | 16.37033 | 92° | 27km/h | 1350m | 4.8m/s | 0°C | 0% | 0hPa | 0V | 00:00:00 | 00:00:00 | 00:00:00 | |
| PETON7-10 | 2026-09-02 23:33:45 | 48.23910 | 16.37031 | 178° | 33km/h | 1345m | 5.7m/s | 0°C | 0% | 0hPa | 0V | 00:00:00 | 00:00:00 | 00:00:00 | |
| OE3OSB-13 | 2026-09-02 23:33:30 | 48.23996 | 16.36901 | 118° | 26km/h | 1247m | 5.2m/s | 15.7°C | 58.0% | 887.9hPa | 0V | 00:00:00 | 00:00:00 | 00:00:00 | |
| PETON7-10 | 2026-09-02 23:33:28 | 48.23997 | 16.36895 | 87° | 26km/h | 1241m | 5.7m/s | 0°C | 0% | 0hPa | 0V | 00:00:00 | 00:00:00 | 00:00:00 | |
| OE3JTB-15 | 2026-09-02 23:33:17 | 48.24043 | 16.36828 | 159° | 29km/h | 1171m | 4.4m/s | 0°C | 0% | 0hPa | 0V | 00:00:00 | 00:00:00 | 00:00:00 | |
| PETON7-10 | 2026-09-02 23:33:11 | 48.24077 | 16.36805 | 131° | 26km/h | 1141m | 5.8m/s | 0°C | 0% | 0hPa | 0V | 00:00:00 | 00:00:00 | 00:00:00 | |
| OE3OSB-13 | 2026-09-02 23:32:59 | 48.24136 | 16.36725 | 101° | 18km/h | 1067m | 5.9m/s | 17.3°C | 54.3% | 906.6hPa | 0V | 00:00:00 | 00:00:00 | 00:00:00 | |
| PETON7-10 | 2026-09-02 23:32:55 | 48.24141 | 16.36707 | 99° | 35km/h | 1050m | 2.8m/s | 0°C | 0% | 0hPa | 0V | 00:00:00 | 00:00:00 | 00:00:00 | |
| PETON7-10 | 2026-09-02 23:32:40 | 48.24229 | 16.36580 | 138° | 37km/h | 969m | 7.0m/s | 0°C | 0% | 0hPa | 0V | 00:00:00 | 00:00:00 | 00:00:00 | |
| OE3OSB-13 | 2026-09-02 23:32:28 | 48.24311 | 16.36500 | 127° | 37km/h | 894m | 3.3m/s | 19.0°C | 50.2% | 925.3hPa | 0V | 00:00:00 | 00:00:00 | 00:00:00 | |
| OE3JTB-15 | 2026-09-02 23:32:09 | 48.24406 | 16.36382 | 113° | 24km/h | 795m | 4.2m/s | 0°C | 0% | 0hPa | 0V | 00:00:00 | 00:00:00 | 00:00:00 | |
| OE3OSB-13 | 2026-09-02 23:31:57 | 48.24479 | 16.36312 | 144° | 38km/h | 717m | 2.4m/s | 20.5°C | 46.3% | 944.0hPa | 0V | 00:00:00 | 00:00:00 | 00:00:00 | |
| OE3JTB-15 | 2026-09-02 23:31:40 | 48.24568 | 16.36255 | 116° | 29km/h | 637m | 4.3m/s | 0°C | 0% | 0hPa | 0V | 00:00:00 | 00:00:00 | 00:00:00 | |
| OE3OSB-13 | 2026-09-02 23:31:26 | 48.24650 | 16.36191 | 125° | 35km/h | 549m | 3.5m/s | 21.7°C | 43.3% | 963.1hPa | 0V | 00:00:00 | 00:00:00 | 00:00:00 | |
| OE3JTB-15 | 2026-09-02 23:31:10 | 48.24736 | 16.36092 | 161° | 27km/h | 463m | 4.7m/s | 0°C | 0% | 0hPa | 0V | 00:00:00 | 00:00:00 | 00:00:00 |